<?xml version="1.0" encoding="UTF-8"?>
<gpx version="1.0" creator="Gaggle https://github.com/geeksville/Gaggle" xmlns:xsi="http://www.w3.org/2001/XMLSchema-instance" xmlns="http://www.topografix.com/GPX/1/0" xsi:schemaLocation="http://www.topografix.com/GPX/1/0 http://www.topografix.com/GPX/1/0/gpx.xsd">
<trk>
	<name>Paco Navarro's flight</name>
	<desc>
	Pilot name:	Paco Navarro
	Pilot ID:	Paco Navarro
	Glider type:	Boom GTO
	</desc>
	<trkseg>
		<trkpt lat="38.742495" lon="-1.019345">
			<ele>1170.000000</ele>
		<time>2013-05-04T12:06:42Z</time>
		</trkpt>

		<trkpt lat="38.742441" lon="-1.019308">
			<ele>1190.000000</ele>
		<time>2013-05-04T12:53:20Z</time>
		</trkpt>

		<trkpt lat="38.742457" lon="-1.019279">
			<ele>1190.000000</ele>
		<time>2013-05-04T12:56:31Z</time>
		</trkpt>

		<trkpt lat="38.742480" lon="-1.019244">
			<ele>1190.000000</ele>
		<time>2013-05-04T12:56:34Z</time>
		</trkpt>

		<trkpt lat="38.742514" lon="-1.019222">
			<ele>1190.000000</ele>
		<time>2013-05-04T12:56:37Z</time>
		</trkpt>

		<trkpt lat="38.742500" lon="-1.019191">
			<ele>1186.000000</ele>
		<time>2013-05-04T12:57:02Z</time>
		</trkpt>

		<trkpt lat="38.742477" lon="-1.019169">
			<ele>1185.000000</ele>
		<time>2013-05-04T12:57:53Z</time>
		</trkpt>

		<trkpt lat="38.742462" lon="-1.019126">
			<ele>1185.000000</ele>
		<time>2013-05-04T12:57:56Z</time>
		</trkpt>

		<trkpt lat="38.742435" lon="-1.019081">
			<ele>1184.000000</ele>
		<time>2013-05-04T12:57:59Z</time>
		</trkpt>

		<trkpt lat="38.742355" lon="-1.019025">
			<ele>1183.000000</ele>
		<time>2013-05-04T12:58:02Z</time>
		</trkpt>

		<trkpt lat="38.742001" lon="-1.018733">
			<ele>1181.000000</ele>
		<time>2013-05-04T12:58:05Z</time>
		</trkpt>

		<trkpt lat="38.741629" lon="-1.018124">
			<ele>1179.000000</ele>
		<time>2013-05-04T12:58:08Z</time>
		</trkpt>

		<trkpt lat="38.741551" lon="-1.017867">
			<ele>1177.000000</ele>
		<time>2013-05-04T12:58:11Z</time>
		</trkpt>

		<trkpt lat="38.741513" lon="-1.017631">
			<ele>1173.000000</ele>
		<time>2013-05-04T12:58:14Z</time>
		</trkpt>

		<trkpt lat="38.741435" lon="-1.017311">
			<ele>1167.000000</ele>
		<time>2013-05-04T12:58:17Z</time>
		</trkpt>

		<trkpt lat="38.741314" lon="-1.017033">
			<ele>1161.000000</ele>
		<time>2013-05-04T12:58:20Z</time>
		</trkpt>

		<trkpt lat="38.741189" lon="-1.016762">
			<ele>1154.000000</ele>
		<time>2013-05-04T12:58:23Z</time>
		</trkpt>

		<trkpt lat="38.741089" lon="-1.016441">
			<ele>1148.000000</ele>
		<time>2013-05-04T12:58:26Z</time>
		</trkpt>

		<trkpt lat="38.741008" lon="-1.016142">
			<ele>1143.000000</ele>
		<time>2013-05-04T12:58:29Z</time>
		</trkpt>

		<trkpt lat="38.740944" lon="-1.015802">
			<ele>1140.000000</ele>
		<time>2013-05-04T12:58:32Z</time>
		</trkpt>

		<trkpt lat="38.740874" lon="-1.015492">
			<ele>1136.000000</ele>
		<time>2013-05-04T12:58:35Z</time>
		</trkpt>

		<trkpt lat="38.740783" lon="-1.015133">
			<ele>1131.000000</ele>
		<time>2013-05-04T12:58:38Z</time>
		</trkpt>

		<trkpt lat="38.740716" lon="-1.014851">
			<ele>1128.000000</ele>
		<time>2013-05-04T12:58:41Z</time>
		</trkpt>

		<trkpt lat="38.740630" lon="-1.014569">
			<ele>1122.000000</ele>
		<time>2013-05-04T12:58:44Z</time>
		</trkpt>

		<trkpt lat="38.740655" lon="-1.014195">
			<ele>1116.000000</ele>
		<time>2013-05-04T12:58:47Z</time>
		</trkpt>

		<trkpt lat="38.740836" lon="-1.013892">
			<ele>1110.000000</ele>
		<time>2013-05-04T12:58:50Z</time>
		</trkpt>

		<trkpt lat="38.740996" lon="-1.013585">
			<ele>1111.000000</ele>
		<time>2013-05-04T12:58:53Z</time>
		</trkpt>

		<trkpt lat="38.740871" lon="-1.013316">
			<ele>1108.000000</ele>
		<time>2013-05-04T12:58:56Z</time>
		</trkpt>

		<trkpt lat="38.740617" lon="-1.013320">
			<ele>1106.000000</ele>
		<time>2013-05-04T12:58:59Z</time>
		</trkpt>

		<trkpt lat="38.740572" lon="-1.013653">
			<ele>1105.000000</ele>
		<time>2013-05-04T12:59:02Z</time>
		</trkpt>

		<trkpt lat="38.740662" lon="-1.013940">
			<ele>1105.000000</ele>
		<time>2013-05-04T12:59:05Z</time>
		</trkpt>

		<trkpt lat="38.740947" lon="-1.014111">
			<ele>1105.000000</ele>
		<time>2013-05-04T12:59:08Z</time>
		</trkpt>

		<trkpt lat="38.741264" lon="-1.013994">
			<ele>1106.000000</ele>
		<time>2013-05-04T12:59:11Z</time>
		</trkpt>

		<trkpt lat="38.741528" lon="-1.013871">
			<ele>1107.000000</ele>
		<time>2013-05-04T12:59:14Z</time>
		</trkpt>

		<trkpt lat="38.741802" lon="-1.013963">
			<ele>1104.000000</ele>
		<time>2013-05-04T12:59:17Z</time>
		</trkpt>

		<trkpt lat="38.741863" lon="-1.014303">
			<ele>1104.000000</ele>
		<time>2013-05-04T12:59:20Z</time>
		</trkpt>

		<trkpt lat="38.741603" lon="-1.014515">
			<ele>1101.000000</ele>
		<time>2013-05-04T12:59:23Z</time>
		</trkpt>

		<trkpt lat="38.741297" lon="-1.014318">
			<ele>1097.000000</ele>
		<time>2013-05-04T12:59:26Z</time>
		</trkpt>

		<trkpt lat="38.741227" lon="-1.013933">
			<ele>1095.000000</ele>
		<time>2013-05-04T12:59:29Z</time>
		</trkpt>

		<trkpt lat="38.741370" lon="-1.013686">
			<ele>1095.000000</ele>
		<time>2013-05-04T12:59:32Z</time>
		</trkpt>

		<trkpt lat="38.741400" lon="-1.013354">
			<ele>1095.000000</ele>
		<time>2013-05-04T12:59:35Z</time>
		</trkpt>

		<trkpt lat="38.741269" lon="-1.013051">
			<ele>1093.000000</ele>
		<time>2013-05-04T12:59:38Z</time>
		</trkpt>

		<trkpt lat="38.741017" lon="-1.013197">
			<ele>1091.000000</ele>
		<time>2013-05-04T12:59:41Z</time>
		</trkpt>

		<trkpt lat="38.740971" lon="-1.013513">
			<ele>1088.000000</ele>
		<time>2013-05-04T12:59:44Z</time>
		</trkpt>

		<trkpt lat="38.741241" lon="-1.013795">
			<ele>1086.000000</ele>
		<time>2013-05-04T12:59:47Z</time>
		</trkpt>

		<trkpt lat="38.741544" lon="-1.013735">
			<ele>1088.000000</ele>
		<time>2013-05-04T12:59:50Z</time>
		</trkpt>

		<trkpt lat="38.741656" lon="-1.013405">
			<ele>1088.000000</ele>
		<time>2013-05-04T12:59:53Z</time>
		</trkpt>

		<trkpt lat="38.741519" lon="-1.013080">
			<ele>1088.000000</ele>
		<time>2013-05-04T12:59:56Z</time>
		</trkpt>

		<trkpt lat="38.741308" lon="-1.013027">
			<ele>1088.000000</ele>
		<time>2013-05-04T12:59:59Z</time>
		</trkpt>

		<trkpt lat="38.741098" lon="-1.013199">
			<ele>1086.000000</ele>
		<time>2013-05-04T01:00:02Z</time>
		</trkpt>

		<trkpt lat="38.741116" lon="-1.013620">
			<ele>1083.000000</ele>
		<time>2013-05-04T01:00:05Z</time>
		</trkpt>

		<trkpt lat="38.741330" lon="-1.013892">
			<ele>1082.000000</ele>
		<time>2013-05-04T01:00:08Z</time>
		</trkpt>

		<trkpt lat="38.741648" lon="-1.013891">
			<ele>1082.000000</ele>
		<time>2013-05-04T01:00:11Z</time>
		</trkpt>

		<trkpt lat="38.741793" lon="-1.013553">
			<ele>1082.000000</ele>
		<time>2013-05-04T01:00:14Z</time>
		</trkpt>

		<trkpt lat="38.741675" lon="-1.013267">
			<ele>1083.000000</ele>
		<time>2013-05-04T01:00:17Z</time>
		</trkpt>

		<trkpt lat="38.741458" lon="-1.013155">
			<ele>1082.000000</ele>
		<time>2013-05-04T01:00:20Z</time>
		</trkpt>

		<trkpt lat="38.741207" lon="-1.013271">
			<ele>1082.000000</ele>
		<time>2013-05-04T01:00:23Z</time>
		</trkpt>

		<trkpt lat="38.741069" lon="-1.013518">
			<ele>1081.000000</ele>
		<time>2013-05-04T01:00:26Z</time>
		</trkpt>

		<trkpt lat="38.741004" lon="-1.013858">
			<ele>1081.000000</ele>
		<time>2013-05-04T01:00:29Z</time>
		</trkpt>

		<trkpt lat="38.741060" lon="-1.014120">
			<ele>1080.000000</ele>
		<time>2013-05-04T01:00:32Z</time>
		</trkpt>

		<trkpt lat="38.741380" lon="-1.014179">
			<ele>1078.000000</ele>
		<time>2013-05-04T01:00:35Z</time>
		</trkpt>

		<trkpt lat="38.741628" lon="-1.013990">
			<ele>1078.000000</ele>
		<time>2013-05-04T01:00:38Z</time>
		</trkpt>

		<trkpt lat="38.741654" lon="-1.013677">
			<ele>1076.000000</ele>
		<time>2013-05-04T01:00:41Z</time>
		</trkpt>

		<trkpt lat="38.741455" lon="-1.013468">
			<ele>1074.000000</ele>
		<time>2013-05-04T01:00:44Z</time>
		</trkpt>

		<trkpt lat="38.741233" lon="-1.013492">
			<ele>1075.000000</ele>
		<time>2013-05-04T01:00:47Z</time>
		</trkpt>

		<trkpt lat="38.741023" lon="-1.013608">
			<ele>1074.000000</ele>
		<time>2013-05-04T01:00:50Z</time>
		</trkpt>

		<trkpt lat="38.740843" lon="-1.013707">
			<ele>1074.000000</ele>
		<time>2013-05-04T01:00:53Z</time>
		</trkpt>

		<trkpt lat="38.740670" lon="-1.013809">
			<ele>1074.000000</ele>
		<time>2013-05-04T01:00:56Z</time>
		</trkpt>

		<trkpt lat="38.740513" lon="-1.013895">
			<ele>1075.000000</ele>
		<time>2013-05-04T01:00:59Z</time>
		</trkpt>

		<trkpt lat="38.740342" lon="-1.013947">
			<ele>1075.000000</ele>
		<time>2013-05-04T01:01:02Z</time>
		</trkpt>

		<trkpt lat="38.740285" lon="-1.013591">
			<ele>1073.000000</ele>
		<time>2013-05-04T01:01:05Z</time>
		</trkpt>

		<trkpt lat="38.740487" lon="-1.013300">
			<ele>1071.000000</ele>
		<time>2013-05-04T01:01:08Z</time>
		</trkpt>

		<trkpt lat="38.740917" lon="-1.013579">
			<ele>1069.000000</ele>
		<time>2013-05-04T01:01:11Z</time>
		</trkpt>

		<trkpt lat="38.740932" lon="-1.013993">
			<ele>1071.000000</ele>
		<time>2013-05-04T01:01:14Z</time>
		</trkpt>

		<trkpt lat="38.740812" lon="-1.014199">
			<ele>1071.000000</ele>
		<time>2013-05-04T01:01:17Z</time>
		</trkpt>

		<trkpt lat="38.740617" lon="-1.014172">
			<ele>1068.000000</ele>
		<time>2013-05-04T01:01:20Z</time>
		</trkpt>

		<trkpt lat="38.740419" lon="-1.014231">
			<ele>1067.000000</ele>
		<time>2013-05-04T01:01:23Z</time>
		</trkpt>

		<trkpt lat="38.740276" lon="-1.014427">
			<ele>1063.000000</ele>
		<time>2013-05-04T01:01:26Z</time>
		</trkpt>

		<trkpt lat="38.740120" lon="-1.014652">
			<ele>1059.000000</ele>
		<time>2013-05-04T01:01:29Z</time>
		</trkpt>

		<trkpt lat="38.739988" lon="-1.014904">
			<ele>1053.000000</ele>
		<time>2013-05-04T01:01:32Z</time>
		</trkpt>

		<trkpt lat="38.739865" lon="-1.015161">
			<ele>1048.000000</ele>
		<time>2013-05-04T01:01:35Z</time>
		</trkpt>

		<trkpt lat="38.739747" lon="-1.015379">
			<ele>1045.000000</ele>
		<time>2013-05-04T01:01:38Z</time>
		</trkpt>

		<trkpt lat="38.739599" lon="-1.015637">
			<ele>1041.000000</ele>
		<time>2013-05-04T01:01:41Z</time>
		</trkpt>

		<trkpt lat="38.739451" lon="-1.015866">
			<ele>1039.000000</ele>
		<time>2013-05-04T01:01:44Z</time>
		</trkpt>

		<trkpt lat="38.739324" lon="-1.016084">
			<ele>1039.000000</ele>
		<time>2013-05-04T01:01:47Z</time>
		</trkpt>

		<trkpt lat="38.739257" lon="-1.016343">
			<ele>1038.000000</ele>
		<time>2013-05-04T01:01:50Z</time>
		</trkpt>

		<trkpt lat="38.739179" lon="-1.016595">
			<ele>1038.000000</ele>
		<time>2013-05-04T01:01:53Z</time>
		</trkpt>

		<trkpt lat="38.739122" lon="-1.016792">
			<ele>1039.000000</ele>
		<time>2013-05-04T01:01:56Z</time>
		</trkpt>

		<trkpt lat="38.739072" lon="-1.016994">
			<ele>1038.000000</ele>
		<time>2013-05-04T01:01:59Z</time>
		</trkpt>

		<trkpt lat="38.739048" lon="-1.017275">
			<ele>1037.000000</ele>
		<time>2013-05-04T01:02:02Z</time>
		</trkpt>

		<trkpt lat="38.738991" lon="-1.017475">
			<ele>1036.000000</ele>
		<time>2013-05-04T01:02:05Z</time>
		</trkpt>

		<trkpt lat="38.738834" lon="-1.017589">
			<ele>1034.000000</ele>
		<time>2013-05-04T01:02:08Z</time>
		</trkpt>

		<trkpt lat="38.738658" lon="-1.017317">
			<ele>1033.000000</ele>
		<time>2013-05-04T01:02:11Z</time>
		</trkpt>

		<trkpt lat="38.738736" lon="-1.016983">
			<ele>1033.000000</ele>
		<time>2013-05-04T01:02:14Z</time>
		</trkpt>

		<trkpt lat="38.738856" lon="-1.016644">
			<ele>1032.000000</ele>
		<time>2013-05-04T01:02:17Z</time>
		</trkpt>

		<trkpt lat="38.738878" lon="-1.016319">
			<ele>1030.000000</ele>
		<time>2013-05-04T01:02:20Z</time>
		</trkpt>

		<trkpt lat="38.738934" lon="-1.016049">
			<ele>1029.000000</ele>
		<time>2013-05-04T01:02:23Z</time>
		</trkpt>

		<trkpt lat="38.738955" lon="-1.015724">
			<ele>1026.000000</ele>
		<time>2013-05-04T01:02:26Z</time>
		</trkpt>

		<trkpt lat="38.738918" lon="-1.015403">
			<ele>1023.000000</ele>
		<time>2013-05-04T01:02:29Z</time>
		</trkpt>

		<trkpt lat="38.738853" lon="-1.015107">
			<ele>1018.000000</ele>
		<time>2013-05-04T01:02:32Z</time>
		</trkpt>

		<trkpt lat="38.738803" lon="-1.014790">
			<ele>1012.000000</ele>
		<time>2013-05-04T01:02:35Z</time>
		</trkpt>

		<trkpt lat="38.738689" lon="-1.014478">
			<ele>1003.000000</ele>
		<time>2013-05-04T01:02:38Z</time>
		</trkpt>

		<trkpt lat="38.738517" lon="-1.014194">
			<ele>995.000000</ele>
		<time>2013-05-04T01:02:41Z</time>
		</trkpt>

		<trkpt lat="38.738280" lon="-1.013994">
			<ele>990.000000</ele>
		<time>2013-05-04T01:02:44Z</time>
		</trkpt>

		<trkpt lat="38.738074" lon="-1.013855">
			<ele>986.000000</ele>
		<time>2013-05-04T01:02:47Z</time>
		</trkpt>

		<trkpt lat="38.737827" lon="-1.013712">
			<ele>981.000000</ele>
		<time>2013-05-04T01:02:50Z</time>
		</trkpt>

		<trkpt lat="38.737604" lon="-1.013601">
			<ele>980.000000</ele>
		<time>2013-05-04T01:02:53Z</time>
		</trkpt>

		<trkpt lat="38.737405" lon="-1.013492">
			<ele>981.000000</ele>
		<time>2013-05-04T01:02:56Z</time>
		</trkpt>

		<trkpt lat="38.737219" lon="-1.013210">
			<ele>980.000000</ele>
		<time>2013-05-04T01:02:59Z</time>
		</trkpt>

		<trkpt lat="38.737312" lon="-1.012896">
			<ele>978.000000</ele>
		<time>2013-05-04T01:03:02Z</time>
		</trkpt>

		<trkpt lat="38.737679" lon="-1.013010">
			<ele>979.000000</ele>
		<time>2013-05-04T01:03:05Z</time>
		</trkpt>

		<trkpt lat="38.737728" lon="-1.013336">
			<ele>981.000000</ele>
		<time>2013-05-04T01:03:08Z</time>
		</trkpt>

		<trkpt lat="38.737470" lon="-1.013465">
			<ele>982.000000</ele>
		<time>2013-05-04T01:03:11Z</time>
		</trkpt>

		<trkpt lat="38.737234" lon="-1.013184">
			<ele>985.000000</ele>
		<time>2013-05-04T01:03:14Z</time>
		</trkpt>

		<trkpt lat="38.737216" lon="-1.012825">
			<ele>985.000000</ele>
		<time>2013-05-04T01:03:17Z</time>
		</trkpt>

		<trkpt lat="38.737418" lon="-1.012870">
			<ele>984.000000</ele>
		<time>2013-05-04T01:03:20Z</time>
		</trkpt>

		<trkpt lat="38.737637" lon="-1.013179">
			<ele>987.000000</ele>
		<time>2013-05-04T01:03:23Z</time>
		</trkpt>

		<trkpt lat="38.737539" lon="-1.013380">
			<ele>990.000000</ele>
		<time>2013-05-04T01:03:26Z</time>
		</trkpt>

		<trkpt lat="38.737314" lon="-1.013131">
			<ele>994.000000</ele>
		<time>2013-05-04T01:03:29Z</time>
		</trkpt>

		<trkpt lat="38.737289" lon="-1.012739">
			<ele>996.000000</ele>
		<time>2013-05-04T01:03:32Z</time>
		</trkpt>

		<trkpt lat="38.737567" lon="-1.012697">
			<ele>1000.000000</ele>
		<time>2013-05-04T01:03:35Z</time>
		</trkpt>

		<trkpt lat="38.737858" lon="-1.012881">
			<ele>1002.000000</ele>
		<time>2013-05-04T01:03:38Z</time>
		</trkpt>

		<trkpt lat="38.737726" lon="-1.013197">
			<ele>1004.000000</ele>
		<time>2013-05-04T01:03:41Z</time>
		</trkpt>

		<trkpt lat="38.737427" lon="-1.013093">
			<ele>1007.000000</ele>
		<time>2013-05-04T01:03:44Z</time>
		</trkpt>

		<trkpt lat="38.737354" lon="-1.012756">
			<ele>1010.000000</ele>
		<time>2013-05-04T01:03:47Z</time>
		</trkpt>

		<trkpt lat="38.737495" lon="-1.012399">
			<ele>1016.000000</ele>
		<time>2013-05-04T01:03:50Z</time>
		</trkpt>

		<trkpt lat="38.737816" lon="-1.012239">
			<ele>1019.000000</ele>
		<time>2013-05-04T01:03:53Z</time>
		</trkpt>

		<trkpt lat="38.738143" lon="-1.012506">
			<ele>1019.000000</ele>
		<time>2013-05-04T01:03:56Z</time>
		</trkpt>

		<trkpt lat="38.738015" lon="-1.012868">
			<ele>1022.000000</ele>
		<time>2013-05-04T01:03:59Z</time>
		</trkpt>

		<trkpt lat="38.737762" lon="-1.013098">
			<ele>1026.000000</ele>
		<time>2013-05-04T01:04:02Z</time>
		</trkpt>

		<trkpt lat="38.737495" lon="-1.013097">
			<ele>1029.000000</ele>
		<time>2013-05-04T01:04:05Z</time>
		</trkpt>

		<trkpt lat="38.737387" lon="-1.012769">
			<ele>1032.000000</ele>
		<time>2013-05-04T01:04:08Z</time>
		</trkpt>

		<trkpt lat="38.737566" lon="-1.012508">
			<ele>1033.000000</ele>
		<time>2013-05-04T01:04:11Z</time>
		</trkpt>

		<trkpt lat="38.738035" lon="-1.012637">
			<ele>1037.000000</ele>
		<time>2013-05-04T01:04:14Z</time>
		</trkpt>

		<trkpt lat="38.738194" lon="-1.012955">
			<ele>1039.000000</ele>
		<time>2013-05-04T01:04:17Z</time>
		</trkpt>

		<trkpt lat="38.737950" lon="-1.013239">
			<ele>1043.000000</ele>
		<time>2013-05-04T01:04:20Z</time>
		</trkpt>

		<trkpt lat="38.737910" lon="-1.013584">
			<ele>1045.000000</ele>
		<time>2013-05-04T01:04:23Z</time>
		</trkpt>

		<trkpt lat="38.738152" lon="-1.013706">
			<ele>1045.000000</ele>
		<time>2013-05-04T01:04:26Z</time>
		</trkpt>

		<trkpt lat="38.738322" lon="-1.013213">
			<ele>1051.000000</ele>
		<time>2013-05-04T01:04:29Z</time>
		</trkpt>

		<trkpt lat="38.738090" lon="-1.012984">
			<ele>1054.000000</ele>
		<time>2013-05-04T01:04:32Z</time>
		</trkpt>

		<trkpt lat="38.737896" lon="-1.013352">
			<ele>1061.000000</ele>
		<time>2013-05-04T01:04:35Z</time>
		</trkpt>

		<trkpt lat="38.737984" lon="-1.013648">
			<ele>1064.000000</ele>
		<time>2013-05-04T01:04:38Z</time>
		</trkpt>

		<trkpt lat="38.738314" lon="-1.013611">
			<ele>1069.000000</ele>
		<time>2013-05-04T01:04:41Z</time>
		</trkpt>

		<trkpt lat="38.738441" lon="-1.013275">
			<ele>1073.000000</ele>
		<time>2013-05-04T01:04:44Z</time>
		</trkpt>

		<trkpt lat="38.738165" lon="-1.013056">
			<ele>1075.000000</ele>
		<time>2013-05-04T01:04:47Z</time>
		</trkpt>

		<trkpt lat="38.738012" lon="-1.013346">
			<ele>1079.000000</ele>
		<time>2013-05-04T01:04:50Z</time>
		</trkpt>

		<trkpt lat="38.738088" lon="-1.013698">
			<ele>1082.000000</ele>
		<time>2013-05-04T01:04:53Z</time>
		</trkpt>

		<trkpt lat="38.738401" lon="-1.013821">
			<ele>1085.000000</ele>
		<time>2013-05-04T01:04:56Z</time>
		</trkpt>

		<trkpt lat="38.738670" lon="-1.013585">
			<ele>1089.000000</ele>
		<time>2013-05-04T01:04:59Z</time>
		</trkpt>

		<trkpt lat="38.738552" lon="-1.013234">
			<ele>1093.000000</ele>
		<time>2013-05-04T01:05:02Z</time>
		</trkpt>

		<trkpt lat="38.738295" lon="-1.013168">
			<ele>1099.000000</ele>
		<time>2013-05-04T01:05:05Z</time>
		</trkpt>

		<trkpt lat="38.738138" lon="-1.013369">
			<ele>1103.000000</ele>
		<time>2013-05-04T01:05:08Z</time>
		</trkpt>

		<trkpt lat="38.738067" lon="-1.013719">
			<ele>1104.000000</ele>
		<time>2013-05-04T01:05:11Z</time>
		</trkpt>

		<trkpt lat="38.738224" lon="-1.013987">
			<ele>1104.000000</ele>
		<time>2013-05-04T01:05:14Z</time>
		</trkpt>

		<trkpt lat="38.738547" lon="-1.013923">
			<ele>1108.000000</ele>
		<time>2013-05-04T01:05:17Z</time>
		</trkpt>

		<trkpt lat="38.738673" lon="-1.013556">
			<ele>1117.000000</ele>
		<time>2013-05-04T01:05:20Z</time>
		</trkpt>

		<trkpt lat="38.738458" lon="-1.013412">
			<ele>1123.000000</ele>
		<time>2013-05-04T01:05:23Z</time>
		</trkpt>

		<trkpt lat="38.738252" lon="-1.013644">
			<ele>1127.000000</ele>
		<time>2013-05-04T01:05:26Z</time>
		</trkpt>

		<trkpt lat="38.738312" lon="-1.014026">
			<ele>1129.000000</ele>
		<time>2013-05-04T01:05:29Z</time>
		</trkpt>

		<trkpt lat="38.738528" lon="-1.014327">
			<ele>1133.000000</ele>
		<time>2013-05-04T01:05:32Z</time>
		</trkpt>

		<trkpt lat="38.738845" lon="-1.014241">
			<ele>1138.000000</ele>
		<time>2013-05-04T01:05:35Z</time>
		</trkpt>

		<trkpt lat="38.738892" lon="-1.013864">
			<ele>1144.000000</ele>
		<time>2013-05-04T01:05:38Z</time>
		</trkpt>

		<trkpt lat="38.738709" lon="-1.013645">
			<ele>1154.000000</ele>
		<time>2013-05-04T01:05:41Z</time>
		</trkpt>

		<trkpt lat="38.738523" lon="-1.013645">
			<ele>1163.000000</ele>
		<time>2013-05-04T01:05:44Z</time>
		</trkpt>

		<trkpt lat="38.738389" lon="-1.013951">
			<ele>1160.000000</ele>
		<time>2013-05-04T01:05:47Z</time>
		</trkpt>

		<trkpt lat="38.738492" lon="-1.014419">
			<ele>1160.000000</ele>
		<time>2013-05-04T01:05:50Z</time>
		</trkpt>

		<trkpt lat="38.738803" lon="-1.014388">
			<ele>1166.000000</ele>
		<time>2013-05-04T01:05:53Z</time>
		</trkpt>

		<trkpt lat="38.738861" lon="-1.014037">
			<ele>1177.000000</ele>
		<time>2013-05-04T01:05:56Z</time>
		</trkpt>

		<trkpt lat="38.738700" lon="-1.013903">
			<ele>1183.000000</ele>
		<time>2013-05-04T01:05:59Z</time>
		</trkpt>

		<trkpt lat="38.738538" lon="-1.014232">
			<ele>1186.000000</ele>
		<time>2013-05-04T01:06:02Z</time>
		</trkpt>

		<trkpt lat="38.738579" lon="-1.014666">
			<ele>1188.000000</ele>
		<time>2013-05-04T01:06:05Z</time>
		</trkpt>

		<trkpt lat="38.738942" lon="-1.014659">
			<ele>1192.000000</ele>
		<time>2013-05-04T01:06:08Z</time>
		</trkpt>

		<trkpt lat="38.739103" lon="-1.014394">
			<ele>1200.000000</ele>
		<time>2013-05-04T01:06:11Z</time>
		</trkpt>

		<trkpt lat="38.739103" lon="-1.014151">
			<ele>1207.000000</ele>
		<time>2013-05-04T01:06:14Z</time>
		</trkpt>

		<trkpt lat="38.738901" lon="-1.014035">
			<ele>1209.000000</ele>
		<time>2013-05-04T01:06:17Z</time>
		</trkpt>

		<trkpt lat="38.738722" lon="-1.014380">
			<ele>1209.000000</ele>
		<time>2013-05-04T01:06:20Z</time>
		</trkpt>

		<trkpt lat="38.738993" lon="-1.014787">
			<ele>1212.000000</ele>
		<time>2013-05-04T01:06:23Z</time>
		</trkpt>

		<trkpt lat="38.739321" lon="-1.014764">
			<ele>1222.000000</ele>
		<time>2013-05-04T01:06:26Z</time>
		</trkpt>

		<trkpt lat="38.739510" lon="-1.014547">
			<ele>1229.000000</ele>
		<time>2013-05-04T01:06:29Z</time>
		</trkpt>

		<trkpt lat="38.739337" lon="-1.014185">
			<ele>1226.000000</ele>
		<time>2013-05-04T01:06:32Z</time>
		</trkpt>

		<trkpt lat="38.739099" lon="-1.014242">
			<ele>1224.000000</ele>
		<time>2013-05-04T01:06:35Z</time>
		</trkpt>

		<trkpt lat="38.739119" lon="-1.014728">
			<ele>1226.000000</ele>
		<time>2013-05-04T01:06:38Z</time>
		</trkpt>

		<trkpt lat="38.739137" lon="-1.015161">
			<ele>1228.000000</ele>
		<time>2013-05-04T01:06:41Z</time>
		</trkpt>

		<trkpt lat="38.738930" lon="-1.015383">
			<ele>1228.000000</ele>
		<time>2013-05-04T01:06:44Z</time>
		</trkpt>

		<trkpt lat="38.738763" lon="-1.015057">
			<ele>1229.000000</ele>
		<time>2013-05-04T01:06:47Z</time>
		</trkpt>

		<trkpt lat="38.738842" lon="-1.014766">
			<ele>1234.000000</ele>
		<time>2013-05-04T01:06:50Z</time>
		</trkpt>

		<trkpt lat="38.739066" lon="-1.014562">
			<ele>1236.000000</ele>
		<time>2013-05-04T01:06:53Z</time>
		</trkpt>

		<trkpt lat="38.739407" lon="-1.014635">
			<ele>1236.000000</ele>
		<time>2013-05-04T01:06:56Z</time>
		</trkpt>

		<trkpt lat="38.739689" lon="-1.014988">
			<ele>1239.000000</ele>
		<time>2013-05-04T01:06:59Z</time>
		</trkpt>

		<trkpt lat="38.739881" lon="-1.015305">
			<ele>1242.000000</ele>
		<time>2013-05-04T01:07:02Z</time>
		</trkpt>

		<trkpt lat="38.740027" lon="-1.015699">
			<ele>1244.000000</ele>
		<time>2013-05-04T01:07:05Z</time>
		</trkpt>

		<trkpt lat="38.739934" lon="-1.015980">
			<ele>1244.000000</ele>
		<time>2013-05-04T01:07:08Z</time>
		</trkpt>

		<trkpt lat="38.739561" lon="-1.015874">
			<ele>1245.000000</ele>
		<time>2013-05-04T01:07:11Z</time>
		</trkpt>

		<trkpt lat="38.739370" lon="-1.015605">
			<ele>1246.000000</ele>
		<time>2013-05-04T01:07:14Z</time>
		</trkpt>

		<trkpt lat="38.739430" lon="-1.015303">
			<ele>1251.000000</ele>
		<time>2013-05-04T01:07:17Z</time>
		</trkpt>

		<trkpt lat="38.739463" lon="-1.015113">
			<ele>1251.000000</ele>
		<time>2013-05-04T01:07:20Z</time>
		</trkpt>

		<trkpt lat="38.739629" lon="-1.014848">
			<ele>1250.000000</ele>
		<time>2013-05-04T01:07:23Z</time>
		</trkpt>

		<trkpt lat="38.739972" lon="-1.014894">
			<ele>1251.000000</ele>
		<time>2013-05-04T01:07:26Z</time>
		</trkpt>

		<trkpt lat="38.740143" lon="-1.015391">
			<ele>1250.000000</ele>
		<time>2013-05-04T01:07:29Z</time>
		</trkpt>

		<trkpt lat="38.740058" lon="-1.015817">
			<ele>1250.000000</ele>
		<time>2013-05-04T01:07:32Z</time>
		</trkpt>

		<trkpt lat="38.739932" lon="-1.016237">
			<ele>1249.000000</ele>
		<time>2013-05-04T01:07:35Z</time>
		</trkpt>

		<trkpt lat="38.740128" lon="-1.016536">
			<ele>1246.000000</ele>
		<time>2013-05-04T01:07:38Z</time>
		</trkpt>

		<trkpt lat="38.740435" lon="-1.016454">
			<ele>1245.000000</ele>
		<time>2013-05-04T01:07:41Z</time>
		</trkpt>

		<trkpt lat="38.740645" lon="-1.016223">
			<ele>1244.000000</ele>
		<time>2013-05-04T01:07:44Z</time>
		</trkpt>

		<trkpt lat="38.740761" lon="-1.015906">
			<ele>1244.000000</ele>
		<time>2013-05-04T01:07:47Z</time>
		</trkpt>

		<trkpt lat="38.740785" lon="-1.015645">
			<ele>1244.000000</ele>
		<time>2013-05-04T01:07:50Z</time>
		</trkpt>

		<trkpt lat="38.740703" lon="-1.015372">
			<ele>1245.000000</ele>
		<time>2013-05-04T01:07:53Z</time>
		</trkpt>

		<trkpt lat="38.740618" lon="-1.015211">
			<ele>1246.000000</ele>
		<time>2013-05-04T01:07:56Z</time>
		</trkpt>

		<trkpt lat="38.740492" lon="-1.015058">
			<ele>1245.000000</ele>
		<time>2013-05-04T01:07:59Z</time>
		</trkpt>

		<trkpt lat="38.740283" lon="-1.015113">
			<ele>1245.000000</ele>
		<time>2013-05-04T01:08:02Z</time>
		</trkpt>

		<trkpt lat="38.740122" lon="-1.015295">
			<ele>1243.000000</ele>
		<time>2013-05-04T01:08:05Z</time>
		</trkpt>

		<trkpt lat="38.739948" lon="-1.015614">
			<ele>1242.000000</ele>
		<time>2013-05-04T01:08:08Z</time>
		</trkpt>

		<trkpt lat="38.739905" lon="-1.016011">
			<ele>1243.000000</ele>
		<time>2013-05-04T01:08:11Z</time>
		</trkpt>

		<trkpt lat="38.739915" lon="-1.016396">
			<ele>1242.000000</ele>
		<time>2013-05-04T01:08:14Z</time>
		</trkpt>

		<trkpt lat="38.740068" lon="-1.016795">
			<ele>1242.000000</ele>
		<time>2013-05-04T01:08:17Z</time>
		</trkpt>

		<trkpt lat="38.740314" lon="-1.017002">
			<ele>1242.000000</ele>
		<time>2013-05-04T01:08:20Z</time>
		</trkpt>

		<trkpt lat="38.740601" lon="-1.016988">
			<ele>1240.000000</ele>
		<time>2013-05-04T01:08:23Z</time>
		</trkpt>

		<trkpt lat="38.740866" lon="-1.016789">
			<ele>1239.000000</ele>
		<time>2013-05-04T01:08:26Z</time>
		</trkpt>

		<trkpt lat="38.741098" lon="-1.016568">
			<ele>1236.000000</ele>
		<time>2013-05-04T01:08:29Z</time>
		</trkpt>

		<trkpt lat="38.741301" lon="-1.016334">
			<ele>1235.000000</ele>
		<time>2013-05-04T01:08:32Z</time>
		</trkpt>

		<trkpt lat="38.741498" lon="-1.016144">
			<ele>1234.000000</ele>
		<time>2013-05-04T01:08:35Z</time>
		</trkpt>

		<trkpt lat="38.741696" lon="-1.015918">
			<ele>1233.000000</ele>
		<time>2013-05-04T01:08:38Z</time>
		</trkpt>

		<trkpt lat="38.741957" lon="-1.015736">
			<ele>1232.000000</ele>
		<time>2013-05-04T01:08:41Z</time>
		</trkpt>

		<trkpt lat="38.742209" lon="-1.015611">
			<ele>1231.000000</ele>
		<time>2013-05-04T01:08:44Z</time>
		</trkpt>

		<trkpt lat="38.742481" lon="-1.015599">
			<ele>1230.000000</ele>
		<time>2013-05-04T01:08:47Z</time>
		</trkpt>

		<trkpt lat="38.742764" lon="-1.015660">
			<ele>1228.000000</ele>
		<time>2013-05-04T01:08:50Z</time>
		</trkpt>

		<trkpt lat="38.743001" lon="-1.015876">
			<ele>1227.000000</ele>
		<time>2013-05-04T01:08:53Z</time>
		</trkpt>

		<trkpt lat="38.743075" lon="-1.016178">
			<ele>1225.000000</ele>
		<time>2013-05-04T01:08:56Z</time>
		</trkpt>

		<trkpt lat="38.742893" lon="-1.016449">
			<ele>1223.000000</ele>
		<time>2013-05-04T01:08:59Z</time>
		</trkpt>

		<trkpt lat="38.742650" lon="-1.016660">
			<ele>1219.000000</ele>
		<time>2013-05-04T01:09:02Z</time>
		</trkpt>

		<trkpt lat="38.742460" lon="-1.016823">
			<ele>1218.000000</ele>
		<time>2013-05-04T01:09:05Z</time>
		</trkpt>

		<trkpt lat="38.742269" lon="-1.017032">
			<ele>1217.000000</ele>
		<time>2013-05-04T01:09:08Z</time>
		</trkpt>

		<trkpt lat="38.742114" lon="-1.017331">
			<ele>1213.000000</ele>
		<time>2013-05-04T01:09:11Z</time>
		</trkpt>

		<trkpt lat="38.741900" lon="-1.017526">
			<ele>1208.000000</ele>
		<time>2013-05-04T01:09:14Z</time>
		</trkpt>

		<trkpt lat="38.741621" lon="-1.017696">
			<ele>1204.000000</ele>
		<time>2013-05-04T01:09:17Z</time>
		</trkpt>

		<trkpt lat="38.741364" lon="-1.017789">
			<ele>1199.000000</ele>
		<time>2013-05-04T01:09:20Z</time>
		</trkpt>

		<trkpt lat="38.741105" lon="-1.017855">
			<ele>1192.000000</ele>
		<time>2013-05-04T01:09:23Z</time>
		</trkpt>

		<trkpt lat="38.740825" lon="-1.017903">
			<ele>1187.000000</ele>
		<time>2013-05-04T01:09:26Z</time>
		</trkpt>

		<trkpt lat="38.740572" lon="-1.017924">
			<ele>1181.000000</ele>
		<time>2013-05-04T01:09:29Z</time>
		</trkpt>

		<trkpt lat="38.740300" lon="-1.017941">
			<ele>1174.000000</ele>
		<time>2013-05-04T01:09:32Z</time>
		</trkpt>

		<trkpt lat="38.740023" lon="-1.017996">
			<ele>1166.000000</ele>
		<time>2013-05-04T01:09:35Z</time>
		</trkpt>

		<trkpt lat="38.739736" lon="-1.018032">
			<ele>1160.000000</ele>
		<time>2013-05-04T01:09:38Z</time>
		</trkpt>

		<trkpt lat="38.739450" lon="-1.018074">
			<ele>1156.000000</ele>
		<time>2013-05-04T01:09:41Z</time>
		</trkpt>

		<trkpt lat="38.739173" lon="-1.018125">
			<ele>1154.000000</ele>
		<time>2013-05-04T01:09:44Z</time>
		</trkpt>

		<trkpt lat="38.738979" lon="-1.018218">
			<ele>1152.000000</ele>
		<time>2013-05-04T01:09:47Z</time>
		</trkpt>

		<trkpt lat="38.738782" lon="-1.018359">
			<ele>1150.000000</ele>
		<time>2013-05-04T01:09:50Z</time>
		</trkpt>

		<trkpt lat="38.738544" lon="-1.018481">
			<ele>1148.000000</ele>
		<time>2013-05-04T01:09:53Z</time>
		</trkpt>

		<trkpt lat="38.738332" lon="-1.018602">
			<ele>1147.000000</ele>
		<time>2013-05-04T01:09:56Z</time>
		</trkpt>

		<trkpt lat="38.738138" lon="-1.018775">
			<ele>1145.000000</ele>
		<time>2013-05-04T01:09:59Z</time>
		</trkpt>

		<trkpt lat="38.737912" lon="-1.018949">
			<ele>1143.000000</ele>
		<time>2013-05-04T01:10:02Z</time>
		</trkpt>

		<trkpt lat="38.737721" lon="-1.019122">
			<ele>1140.000000</ele>
		<time>2013-05-04T01:10:05Z</time>
		</trkpt>

		<trkpt lat="38.737491" lon="-1.019293">
			<ele>1138.000000</ele>
		<time>2013-05-04T01:10:08Z</time>
		</trkpt>

		<trkpt lat="38.737260" lon="-1.019421">
			<ele>1135.000000</ele>
		<time>2013-05-04T01:10:11Z</time>
		</trkpt>

		<trkpt lat="38.737034" lon="-1.019564">
			<ele>1132.000000</ele>
		<time>2013-05-04T01:10:14Z</time>
		</trkpt>

		<trkpt lat="38.736837" lon="-1.019761">
			<ele>1130.000000</ele>
		<time>2013-05-04T01:10:17Z</time>
		</trkpt>

		<trkpt lat="38.736689" lon="-1.019961">
			<ele>1127.000000</ele>
		<time>2013-05-04T01:10:20Z</time>
		</trkpt>

		<trkpt lat="38.736482" lon="-1.020163">
			<ele>1123.000000</ele>
		<time>2013-05-04T01:10:23Z</time>
		</trkpt>

		<trkpt lat="38.736269" lon="-1.020374">
			<ele>1119.000000</ele>
		<time>2013-05-04T01:10:26Z</time>
		</trkpt>

		<trkpt lat="38.736120" lon="-1.020650">
			<ele>1110.000000</ele>
		<time>2013-05-04T01:10:29Z</time>
		</trkpt>

		<trkpt lat="38.735987" lon="-1.020972">
			<ele>1102.000000</ele>
		<time>2013-05-04T01:10:32Z</time>
		</trkpt>

		<trkpt lat="38.735864" lon="-1.021309">
			<ele>1096.000000</ele>
		<time>2013-05-04T01:10:35Z</time>
		</trkpt>

		<trkpt lat="38.735812" lon="-1.021643">
			<ele>1092.000000</ele>
		<time>2013-05-04T01:10:38Z</time>
		</trkpt>

		<trkpt lat="38.735809" lon="-1.021942">
			<ele>1090.000000</ele>
		<time>2013-05-04T01:10:41Z</time>
		</trkpt>

		<trkpt lat="38.735920" lon="-1.022295">
			<ele>1088.000000</ele>
		<time>2013-05-04T01:10:44Z</time>
		</trkpt>

		<trkpt lat="38.736091" lon="-1.022553">
			<ele>1086.000000</ele>
		<time>2013-05-04T01:10:47Z</time>
		</trkpt>

		<trkpt lat="38.736303" lon="-1.022790">
			<ele>1083.000000</ele>
		<time>2013-05-04T01:10:50Z</time>
		</trkpt>

		<trkpt lat="38.736481" lon="-1.023083">
			<ele>1081.000000</ele>
		<time>2013-05-04T01:10:53Z</time>
		</trkpt>

		<trkpt lat="38.736588" lon="-1.023383">
			<ele>1079.000000</ele>
		<time>2013-05-04T01:10:56Z</time>
		</trkpt>

		<trkpt lat="38.736647" lon="-1.023693">
			<ele>1076.000000</ele>
		<time>2013-05-04T01:10:59Z</time>
		</trkpt>

		<trkpt lat="38.736686" lon="-1.023996">
			<ele>1073.000000</ele>
		<time>2013-05-04T01:11:02Z</time>
		</trkpt>

		<trkpt lat="38.736616" lon="-1.024273">
			<ele>1071.000000</ele>
		<time>2013-05-04T01:11:05Z</time>
		</trkpt>

		<trkpt lat="38.736325" lon="-1.024414">
			<ele>1067.000000</ele>
		<time>2013-05-04T01:11:08Z</time>
		</trkpt>

		<trkpt lat="38.736092" lon="-1.024296">
			<ele>1065.000000</ele>
		<time>2013-05-04T01:11:11Z</time>
		</trkpt>

		<trkpt lat="38.735925" lon="-1.023996">
			<ele>1062.000000</ele>
		<time>2013-05-04T01:11:14Z</time>
		</trkpt>

		<trkpt lat="38.735829" lon="-1.023646">
			<ele>1062.000000</ele>
		<time>2013-05-04T01:11:17Z</time>
		</trkpt>

		<trkpt lat="38.735755" lon="-1.023289">
			<ele>1062.000000</ele>
		<time>2013-05-04T01:11:20Z</time>
		</trkpt>

		<trkpt lat="38.735718" lon="-1.022945">
			<ele>1064.000000</ele>
		<time>2013-05-04T01:11:23Z</time>
		</trkpt>

		<trkpt lat="38.735649" lon="-1.022633">
			<ele>1063.000000</ele>
		<time>2013-05-04T01:11:26Z</time>
		</trkpt>

		<trkpt lat="38.735462" lon="-1.022372">
			<ele>1062.000000</ele>
		<time>2013-05-04T01:11:29Z</time>
		</trkpt>

		<trkpt lat="38.735251" lon="-1.022304">
			<ele>1061.000000</ele>
		<time>2013-05-04T01:11:32Z</time>
		</trkpt>

		<trkpt lat="38.735060" lon="-1.022487">
			<ele>1058.000000</ele>
		<time>2013-05-04T01:11:35Z</time>
		</trkpt>

		<trkpt lat="38.735075" lon="-1.022894">
			<ele>1055.000000</ele>
		<time>2013-05-04T01:11:38Z</time>
		</trkpt>

		<trkpt lat="38.735418" lon="-1.022943">
			<ele>1051.000000</ele>
		<time>2013-05-04T01:11:41Z</time>
		</trkpt>

		<trkpt lat="38.735659" lon="-1.022719">
			<ele>1052.000000</ele>
		<time>2013-05-04T01:11:44Z</time>
		</trkpt>

		<trkpt lat="38.735734" lon="-1.022378">
			<ele>1052.000000</ele>
		<time>2013-05-04T01:11:47Z</time>
		</trkpt>

		<trkpt lat="38.735601" lon="-1.022082">
			<ele>1050.000000</ele>
		<time>2013-05-04T01:11:50Z</time>
		</trkpt>

		<trkpt lat="38.735477" lon="-1.021920">
			<ele>1050.000000</ele>
		<time>2013-05-04T01:11:53Z</time>
		</trkpt>

		<trkpt lat="38.735356" lon="-1.021746">
			<ele>1050.000000</ele>
		<time>2013-05-04T01:11:56Z</time>
		</trkpt>

		<trkpt lat="38.735247" lon="-1.021497">
			<ele>1048.000000</ele>
		<time>2013-05-04T01:11:59Z</time>
		</trkpt>

		<trkpt lat="38.735094" lon="-1.021285">
			<ele>1047.000000</ele>
		<time>2013-05-04T01:12:02Z</time>
		</trkpt>

		<trkpt lat="38.734941" lon="-1.021099">
			<ele>1045.000000</ele>
		<time>2013-05-04T01:12:05Z</time>
		</trkpt>

		<trkpt lat="38.734700" lon="-1.021050">
			<ele>1044.000000</ele>
		<time>2013-05-04T01:12:08Z</time>
		</trkpt>

		<trkpt lat="38.734474" lon="-1.021099">
			<ele>1042.000000</ele>
		<time>2013-05-04T01:12:11Z</time>
		</trkpt>

		<trkpt lat="38.734237" lon="-1.021083">
			<ele>1041.000000</ele>
		<time>2013-05-04T01:12:14Z</time>
		</trkpt>

		<trkpt lat="38.734080" lon="-1.020804">
			<ele>1039.000000</ele>
		<time>2013-05-04T01:12:17Z</time>
		</trkpt>

		<trkpt lat="38.734118" lon="-1.020519">
			<ele>1037.000000</ele>
		<time>2013-05-04T01:12:20Z</time>
		</trkpt>

		<trkpt lat="38.734328" lon="-1.020298">
			<ele>1035.000000</ele>
		<time>2013-05-04T01:12:23Z</time>
		</trkpt>

		<trkpt lat="38.734576" lon="-1.020202">
			<ele>1032.000000</ele>
		<time>2013-05-04T01:12:26Z</time>
		</trkpt>

		<trkpt lat="38.734838" lon="-1.020081">
			<ele>1028.000000</ele>
		<time>2013-05-04T01:12:29Z</time>
		</trkpt>

		<trkpt lat="38.735063" lon="-1.019914">
			<ele>1027.000000</ele>
		<time>2013-05-04T01:12:32Z</time>
		</trkpt>

		<trkpt lat="38.735266" lon="-1.019737">
			<ele>1024.000000</ele>
		<time>2013-05-04T01:12:35Z</time>
		</trkpt>

		<trkpt lat="38.735461" lon="-1.019509">
			<ele>1021.000000</ele>
		<time>2013-05-04T01:12:38Z</time>
		</trkpt>

		<trkpt lat="38.735585" lon="-1.019245">
			<ele>1018.000000</ele>
		<time>2013-05-04T01:12:41Z</time>
		</trkpt>

		<trkpt lat="38.735675" lon="-1.018968">
			<ele>1016.000000</ele>
		<time>2013-05-04T01:12:44Z</time>
		</trkpt>

		<trkpt lat="38.735763" lon="-1.018691">
			<ele>1013.000000</ele>
		<time>2013-05-04T01:12:47Z</time>
		</trkpt>

		<trkpt lat="38.735789" lon="-1.018420">
			<ele>1011.000000</ele>
		<time>2013-05-04T01:12:50Z</time>
		</trkpt>

		<trkpt lat="38.735791" lon="-1.018146">
			<ele>1008.000000</ele>
		<time>2013-05-04T01:12:53Z</time>
		</trkpt>

		<trkpt lat="38.735783" lon="-1.017846">
			<ele>1005.000000</ele>
		<time>2013-05-04T01:12:56Z</time>
		</trkpt>

		<trkpt lat="38.735783" lon="-1.017575">
			<ele>1002.000000</ele>
		<time>2013-05-04T01:12:59Z</time>
		</trkpt>

		<trkpt lat="38.735764" lon="-1.017293">
			<ele>1000.000000</ele>
		<time>2013-05-04T01:13:02Z</time>
		</trkpt>

		<trkpt lat="38.735788" lon="-1.017020">
			<ele>998.000000</ele>
		<time>2013-05-04T01:13:05Z</time>
		</trkpt>

		<trkpt lat="38.735840" lon="-1.016732">
			<ele>996.000000</ele>
		<time>2013-05-04T01:13:08Z</time>
		</trkpt>

		<trkpt lat="38.735909" lon="-1.016461">
			<ele>992.000000</ele>
		<time>2013-05-04T01:13:11Z</time>
		</trkpt>

		<trkpt lat="38.735981" lon="-1.016216">
			<ele>990.000000</ele>
		<time>2013-05-04T01:13:14Z</time>
		</trkpt>

		<trkpt lat="38.736044" lon="-1.015947">
			<ele>986.000000</ele>
		<time>2013-05-04T01:13:17Z</time>
		</trkpt>

		<trkpt lat="38.736095" lon="-1.015698">
			<ele>983.000000</ele>
		<time>2013-05-04T01:13:20Z</time>
		</trkpt>

		<trkpt lat="38.736160" lon="-1.015454">
			<ele>978.000000</ele>
		<time>2013-05-04T01:13:23Z</time>
		</trkpt>

		<trkpt lat="38.736121" lon="-1.015151">
			<ele>973.000000</ele>
		<time>2013-05-04T01:13:26Z</time>
		</trkpt>

		<trkpt lat="38.736087" lon="-1.014875">
			<ele>968.000000</ele>
		<time>2013-05-04T01:13:29Z</time>
		</trkpt>

		<trkpt lat="38.736055" lon="-1.014553">
			<ele>962.000000</ele>
		<time>2013-05-04T01:13:32Z</time>
		</trkpt>

		<trkpt lat="38.736029" lon="-1.014283">
			<ele>956.000000</ele>
		<time>2013-05-04T01:13:35Z</time>
		</trkpt>

		<trkpt lat="38.735986" lon="-1.014054">
			<ele>951.000000</ele>
		<time>2013-05-04T01:13:38Z</time>
		</trkpt>

		<trkpt lat="38.735968" lon="-1.013771">
			<ele>945.000000</ele>
		<time>2013-05-04T01:13:41Z</time>
		</trkpt>

		<trkpt lat="38.735955" lon="-1.013485">
			<ele>941.000000</ele>
		<time>2013-05-04T01:13:44Z</time>
		</trkpt>

		<trkpt lat="38.735944" lon="-1.013203">
			<ele>938.000000</ele>
		<time>2013-05-04T01:13:47Z</time>
		</trkpt>

		<trkpt lat="38.735953" lon="-1.012901">
			<ele>936.000000</ele>
		<time>2013-05-04T01:13:50Z</time>
		</trkpt>

		<trkpt lat="38.735970" lon="-1.012622">
			<ele>935.000000</ele>
		<time>2013-05-04T01:13:53Z</time>
		</trkpt>

		<trkpt lat="38.735968" lon="-1.012424">
			<ele>936.000000</ele>
		<time>2013-05-04T01:13:56Z</time>
		</trkpt>

		<trkpt lat="38.735810" lon="-1.012380">
			<ele>937.000000</ele>
		<time>2013-05-04T01:13:59Z</time>
		</trkpt>

		<trkpt lat="38.735714" lon="-1.012747">
			<ele>938.000000</ele>
		<time>2013-05-04T01:14:02Z</time>
		</trkpt>

		<trkpt lat="38.735856" lon="-1.013035">
			<ele>939.000000</ele>
		<time>2013-05-04T01:14:05Z</time>
		</trkpt>

		<trkpt lat="38.736159" lon="-1.012912">
			<ele>942.000000</ele>
		<time>2013-05-04T01:14:08Z</time>
		</trkpt>

		<trkpt lat="38.736146" lon="-1.012646">
			<ele>945.000000</ele>
		<time>2013-05-04T01:14:11Z</time>
		</trkpt>

		<trkpt lat="38.735964" lon="-1.012632">
			<ele>948.000000</ele>
		<time>2013-05-04T01:14:14Z</time>
		</trkpt>

		<trkpt lat="38.735868" lon="-1.012935">
			<ele>948.000000</ele>
		<time>2013-05-04T01:14:17Z</time>
		</trkpt>

		<trkpt lat="38.736067" lon="-1.013125">
			<ele>948.000000</ele>
		<time>2013-05-04T01:14:20Z</time>
		</trkpt>

		<trkpt lat="38.736307" lon="-1.012838">
			<ele>951.000000</ele>
		<time>2013-05-04T01:14:23Z</time>
		</trkpt>

		<trkpt lat="38.736297" lon="-1.012646">
			<ele>954.000000</ele>
		<time>2013-05-04T01:14:26Z</time>
		</trkpt>

		<trkpt lat="38.736107" lon="-1.012582">
			<ele>956.000000</ele>
		<time>2013-05-04T01:14:29Z</time>
		</trkpt>

		<trkpt lat="38.735998" lon="-1.012888">
			<ele>956.000000</ele>
		<time>2013-05-04T01:14:32Z</time>
		</trkpt>

		<trkpt lat="38.736208" lon="-1.013166">
			<ele>958.000000</ele>
		<time>2013-05-04T01:14:35Z</time>
		</trkpt>

		<trkpt lat="38.736488" lon="-1.013002">
			<ele>960.000000</ele>
		<time>2013-05-04T01:14:38Z</time>
		</trkpt>

		<trkpt lat="38.736426" lon="-1.012713">
			<ele>964.000000</ele>
		<time>2013-05-04T01:14:41Z</time>
		</trkpt>

		<trkpt lat="38.736254" lon="-1.012918">
			<ele>967.000000</ele>
		<time>2013-05-04T01:14:44Z</time>
		</trkpt>

		<trkpt lat="38.736312" lon="-1.013287">
			<ele>968.000000</ele>
		<time>2013-05-04T01:14:47Z</time>
		</trkpt>

		<trkpt lat="38.736597" lon="-1.013342">
			<ele>970.000000</ele>
		<time>2013-05-04T01:14:50Z</time>
		</trkpt>

		<trkpt lat="38.736785" lon="-1.013005">
			<ele>975.000000</ele>
		<time>2013-05-04T01:14:53Z</time>
		</trkpt>

		<trkpt lat="38.736646" lon="-1.012874">
			<ele>978.000000</ele>
		<time>2013-05-04T01:14:56Z</time>
		</trkpt>

		<trkpt lat="38.736463" lon="-1.013189">
			<ele>981.000000</ele>
		<time>2013-05-04T01:14:59Z</time>
		</trkpt>

		<trkpt lat="38.736587" lon="-1.013568">
			<ele>982.000000</ele>
		<time>2013-05-04T01:15:02Z</time>
		</trkpt>

		<trkpt lat="38.736891" lon="-1.013515">
			<ele>984.000000</ele>
		<time>2013-05-04T01:15:05Z</time>
		</trkpt>

		<trkpt lat="38.736986" lon="-1.013192">
			<ele>989.000000</ele>
		<time>2013-05-04T01:15:08Z</time>
		</trkpt>

		<trkpt lat="38.736720" lon="-1.013230">
			<ele>992.000000</ele>
		<time>2013-05-04T01:15:11Z</time>
		</trkpt>

		<trkpt lat="38.736714" lon="-1.013637">
			<ele>994.000000</ele>
		<time>2013-05-04T01:15:14Z</time>
		</trkpt>

		<trkpt lat="38.736979" lon="-1.013885">
			<ele>999.000000</ele>
		<time>2013-05-04T01:15:17Z</time>
		</trkpt>

		<trkpt lat="38.737239" lon="-1.013777">
			<ele>1001.000000</ele>
		<time>2013-05-04T01:15:20Z</time>
		</trkpt>

		<trkpt lat="38.737251" lon="-1.013448">
			<ele>1005.000000</ele>
		<time>2013-05-04T01:15:23Z</time>
		</trkpt>

		<trkpt lat="38.736987" lon="-1.013485">
			<ele>1006.000000</ele>
		<time>2013-05-04T01:15:26Z</time>
		</trkpt>

		<trkpt lat="38.736952" lon="-1.013939">
			<ele>1007.000000</ele>
		<time>2013-05-04T01:15:29Z</time>
		</trkpt>

		<trkpt lat="38.737134" lon="-1.014280">
			<ele>1009.000000</ele>
		<time>2013-05-04T01:15:32Z</time>
		</trkpt>

		<trkpt lat="38.737420" lon="-1.014230">
			<ele>1008.000000</ele>
		<time>2013-05-04T01:15:35Z</time>
		</trkpt>

		<trkpt lat="38.737516" lon="-1.013938">
			<ele>1011.000000</ele>
		<time>2013-05-04T01:15:38Z</time>
		</trkpt>

		<trkpt lat="38.737453" lon="-1.013685">
			<ele>1014.000000</ele>
		<time>2013-05-04T01:15:41Z</time>
		</trkpt>

		<trkpt lat="38.737349" lon="-1.013469">
			<ele>1016.000000</ele>
		<time>2013-05-04T01:15:44Z</time>
		</trkpt>

		<trkpt lat="38.737181" lon="-1.013368">
			<ele>1018.000000</ele>
		<time>2013-05-04T01:15:47Z</time>
		</trkpt>

		<trkpt lat="38.737037" lon="-1.013618">
			<ele>1019.000000</ele>
		<time>2013-05-04T01:15:50Z</time>
		</trkpt>

		<trkpt lat="38.737144" lon="-1.014030">
			<ele>1019.000000</ele>
		<time>2013-05-04T01:15:53Z</time>
		</trkpt>

		<trkpt lat="38.737484" lon="-1.014138">
			<ele>1019.000000</ele>
		<time>2013-05-04T01:15:56Z</time>
		</trkpt>

		<trkpt lat="38.737733" lon="-1.013885">
			<ele>1022.000000</ele>
		<time>2013-05-04T01:15:59Z</time>
		</trkpt>

		<trkpt lat="38.737694" lon="-1.013570">
			<ele>1024.000000</ele>
		<time>2013-05-04T01:16:02Z</time>
		</trkpt>

		<trkpt lat="38.737569" lon="-1.013407">
			<ele>1025.000000</ele>
		<time>2013-05-04T01:16:05Z</time>
		</trkpt>

		<trkpt lat="38.737361" lon="-1.013430">
			<ele>1025.000000</ele>
		<time>2013-05-04T01:16:08Z</time>
		</trkpt>

		<trkpt lat="38.737341" lon="-1.013888">
			<ele>1025.000000</ele>
		<time>2013-05-04T01:16:11Z</time>
		</trkpt>

		<trkpt lat="38.737643" lon="-1.014076">
			<ele>1027.000000</ele>
		<time>2013-05-04T01:16:14Z</time>
		</trkpt>

		<trkpt lat="38.737898" lon="-1.013913">
			<ele>1028.000000</ele>
		<time>2013-05-04T01:16:17Z</time>
		</trkpt>

		<trkpt lat="38.738031" lon="-1.013679">
			<ele>1029.000000</ele>
		<time>2013-05-04T01:16:20Z</time>
		</trkpt>

		<trkpt lat="38.738043" lon="-1.013406">
			<ele>1029.000000</ele>
		<time>2013-05-04T01:16:23Z</time>
		</trkpt>

		<trkpt lat="38.737841" lon="-1.013286">
			<ele>1028.000000</ele>
		<time>2013-05-04T01:16:26Z</time>
		</trkpt>

		<trkpt lat="38.737685" lon="-1.013619">
			<ele>1028.000000</ele>
		<time>2013-05-04T01:16:29Z</time>
		</trkpt>

		<trkpt lat="38.737744" lon="-1.014025">
			<ele>1027.000000</ele>
		<time>2013-05-04T01:16:32Z</time>
		</trkpt>

		<trkpt lat="38.738120" lon="-1.014116">
			<ele>1028.000000</ele>
		<time>2013-05-04T01:16:35Z</time>
		</trkpt>

		<trkpt lat="38.738300" lon="-1.013883">
			<ele>1030.000000</ele>
		<time>2013-05-04T01:16:38Z</time>
		</trkpt>

		<trkpt lat="38.738221" lon="-1.013614">
			<ele>1031.000000</ele>
		<time>2013-05-04T01:16:41Z</time>
		</trkpt>

		<trkpt lat="38.738040" lon="-1.013543">
			<ele>1031.000000</ele>
		<time>2013-05-04T01:16:44Z</time>
		</trkpt>

		<trkpt lat="38.737861" lon="-1.013481">
			<ele>1029.000000</ele>
		<time>2013-05-04T01:16:47Z</time>
		</trkpt>

		<trkpt lat="38.737733" lon="-1.013316">
			<ele>1028.000000</ele>
		<time>2013-05-04T01:16:50Z</time>
		</trkpt>

		<trkpt lat="38.737612" lon="-1.013127">
			<ele>1028.000000</ele>
		<time>2013-05-04T01:16:53Z</time>
		</trkpt>

		<trkpt lat="38.737456" lon="-1.013079">
			<ele>1030.000000</ele>
		<time>2013-05-04T01:16:56Z</time>
		</trkpt>

		<trkpt lat="38.737291" lon="-1.013183">
			<ele>1031.000000</ele>
		<time>2013-05-04T01:16:59Z</time>
		</trkpt>

		<trkpt lat="38.737185" lon="-1.013428">
			<ele>1033.000000</ele>
		<time>2013-05-04T01:17:02Z</time>
		</trkpt>

		<trkpt lat="38.737074" lon="-1.013601">
			<ele>1034.000000</ele>
		<time>2013-05-04T01:17:05Z</time>
		</trkpt>

		<trkpt lat="38.736921" lon="-1.013334">
			<ele>1034.000000</ele>
		<time>2013-05-04T01:17:08Z</time>
		</trkpt>

		<trkpt lat="38.737065" lon="-1.013020">
			<ele>1034.000000</ele>
		<time>2013-05-04T01:17:11Z</time>
		</trkpt>

		<trkpt lat="38.737356" lon="-1.012927">
			<ele>1034.000000</ele>
		<time>2013-05-04T01:17:14Z</time>
		</trkpt>

		<trkpt lat="38.737754" lon="-1.012970">
			<ele>1036.000000</ele>
		<time>2013-05-04T01:17:17Z</time>
		</trkpt>

		<trkpt lat="38.738037" lon="-1.013206">
			<ele>1039.000000</ele>
		<time>2013-05-04T01:17:20Z</time>
		</trkpt>

		<trkpt lat="38.737986" lon="-1.013574">
			<ele>1041.000000</ele>
		<time>2013-05-04T01:17:23Z</time>
		</trkpt>

		<trkpt lat="38.737694" lon="-1.013641">
			<ele>1044.000000</ele>
		<time>2013-05-04T01:17:26Z</time>
		</trkpt>

		<trkpt lat="38.737550" lon="-1.013346">
			<ele>1050.000000</ele>
		<time>2013-05-04T01:17:29Z</time>
		</trkpt>

		<trkpt lat="38.737546" lon="-1.013118">
			<ele>1053.000000</ele>
		<time>2013-05-04T01:17:32Z</time>
		</trkpt>

		<trkpt lat="38.737610" lon="-1.012853">
			<ele>1052.000000</ele>
		<time>2013-05-04T01:17:35Z</time>
		</trkpt>

		<trkpt lat="38.738037" lon="-1.012934">
			<ele>1054.000000</ele>
		<time>2013-05-04T01:17:38Z</time>
		</trkpt>

		<trkpt lat="38.738343" lon="-1.013238">
			<ele>1057.000000</ele>
		<time>2013-05-04T01:17:41Z</time>
		</trkpt>

		<trkpt lat="38.738389" lon="-1.013598">
			<ele>1059.000000</ele>
		<time>2013-05-04T01:17:44Z</time>
		</trkpt>

		<trkpt lat="38.738164" lon="-1.013674">
			<ele>1066.000000</ele>
		<time>2013-05-04T01:17:47Z</time>
		</trkpt>

		<trkpt lat="38.737951" lon="-1.013652">
			<ele>1067.000000</ele>
		<time>2013-05-04T01:17:50Z</time>
		</trkpt>

		<trkpt lat="38.737737" lon="-1.013387">
			<ele>1073.000000</ele>
		<time>2013-05-04T01:17:53Z</time>
		</trkpt>

		<trkpt lat="38.737711" lon="-1.013093">
			<ele>1077.000000</ele>
		<time>2013-05-04T01:17:56Z</time>
		</trkpt>

		<trkpt lat="38.737551" lon="-1.012967">
			<ele>1076.000000</ele>
		<time>2013-05-04T01:17:59Z</time>
		</trkpt>

		<trkpt lat="38.737373" lon="-1.013320">
			<ele>1075.000000</ele>
		<time>2013-05-04T01:18:02Z</time>
		</trkpt>

		<trkpt lat="38.737602" lon="-1.013671">
			<ele>1073.000000</ele>
		<time>2013-05-04T01:18:05Z</time>
		</trkpt>

		<trkpt lat="38.738015" lon="-1.013782">
			<ele>1070.000000</ele>
		<time>2013-05-04T01:18:08Z</time>
		</trkpt>

		<trkpt lat="38.738394" lon="-1.013688">
			<ele>1070.000000</ele>
		<time>2013-05-04T01:18:11Z</time>
		</trkpt>

		<trkpt lat="38.738639" lon="-1.013526">
			<ele>1074.000000</ele>
		<time>2013-05-04T01:18:14Z</time>
		</trkpt>

		<trkpt lat="38.738804" lon="-1.013196">
			<ele>1078.000000</ele>
		<time>2013-05-04T01:18:17Z</time>
		</trkpt>

		<trkpt lat="38.738688" lon="-1.012887">
			<ele>1080.000000</ele>
		<time>2013-05-04T01:18:20Z</time>
		</trkpt>

		<trkpt lat="38.738445" lon="-1.013051">
			<ele>1083.000000</ele>
		<time>2013-05-04T01:18:23Z</time>
		</trkpt>

		<trkpt lat="38.738695" lon="-1.013420">
			<ele>1085.000000</ele>
		<time>2013-05-04T01:18:26Z</time>
		</trkpt>

		<trkpt lat="38.738973" lon="-1.013136">
			<ele>1092.000000</ele>
		<time>2013-05-04T01:18:29Z</time>
		</trkpt>

		<trkpt lat="38.738788" lon="-1.012859">
			<ele>1096.000000</ele>
		<time>2013-05-04T01:18:32Z</time>
		</trkpt>

		<trkpt lat="38.738648" lon="-1.013170">
			<ele>1099.000000</ele>
		<time>2013-05-04T01:18:35Z</time>
		</trkpt>

		<trkpt lat="38.738850" lon="-1.013509">
			<ele>1097.000000</ele>
		<time>2013-05-04T01:18:38Z</time>
		</trkpt>

		<trkpt lat="38.739174" lon="-1.013143">
			<ele>1105.000000</ele>
		<time>2013-05-04T01:18:41Z</time>
		</trkpt>

		<trkpt lat="38.739150" lon="-1.012820">
			<ele>1111.000000</ele>
		<time>2013-05-04T01:18:44Z</time>
		</trkpt>

		<trkpt lat="38.738904" lon="-1.013092">
			<ele>1112.000000</ele>
		<time>2013-05-04T01:18:47Z</time>
		</trkpt>

		<trkpt lat="38.738873" lon="-1.013601">
			<ele>1113.000000</ele>
		<time>2013-05-04T01:18:50Z</time>
		</trkpt>

		<trkpt lat="38.739161" lon="-1.013824">
			<ele>1115.000000</ele>
		<time>2013-05-04T01:18:53Z</time>
		</trkpt>

		<trkpt lat="38.739469" lon="-1.013791">
			<ele>1122.000000</ele>
		<time>2013-05-04T01:18:56Z</time>
		</trkpt>

		<trkpt lat="38.739804" lon="-1.013792">
			<ele>1129.000000</ele>
		<time>2013-05-04T01:18:59Z</time>
		</trkpt>

		<trkpt lat="38.740075" lon="-1.014134">
			<ele>1131.000000</ele>
		<time>2013-05-04T01:19:02Z</time>
		</trkpt>

		<trkpt lat="38.740042" lon="-1.014399">
			<ele>1138.000000</ele>
		<time>2013-05-04T01:19:05Z</time>
		</trkpt>

		<trkpt lat="38.739713" lon="-1.014500">
			<ele>1142.000000</ele>
		<time>2013-05-04T01:19:08Z</time>
		</trkpt>

		<trkpt lat="38.739476" lon="-1.014401">
			<ele>1144.000000</ele>
		<time>2013-05-04T01:19:11Z</time>
		</trkpt>

		<trkpt lat="38.739370" lon="-1.014144">
			<ele>1150.000000</ele>
		<time>2013-05-04T01:19:14Z</time>
		</trkpt>

		<trkpt lat="38.739250" lon="-1.013997">
			<ele>1155.000000</ele>
		<time>2013-05-04T01:19:17Z</time>
		</trkpt>

		<trkpt lat="38.739065" lon="-1.014206">
			<ele>1157.000000</ele>
		<time>2013-05-04T01:19:20Z</time>
		</trkpt>

		<trkpt lat="38.739071" lon="-1.014625">
			<ele>1158.000000</ele>
		<time>2013-05-04T01:19:23Z</time>
		</trkpt>

		<trkpt lat="38.739348" lon="-1.014943">
			<ele>1158.000000</ele>
		<time>2013-05-04T01:19:26Z</time>
		</trkpt>

		<trkpt lat="38.739750" lon="-1.015039">
			<ele>1160.000000</ele>
		<time>2013-05-04T01:19:29Z</time>
		</trkpt>

		<trkpt lat="38.740081" lon="-1.014995">
			<ele>1160.000000</ele>
		<time>2013-05-04T01:19:32Z</time>
		</trkpt>

		<trkpt lat="38.740343" lon="-1.014765">
			<ele>1162.000000</ele>
		<time>2013-05-04T01:19:35Z</time>
		</trkpt>

		<trkpt lat="38.740538" lon="-1.014499">
			<ele>1165.000000</ele>
		<time>2013-05-04T01:19:38Z</time>
		</trkpt>

		<trkpt lat="38.740661" lon="-1.014267">
			<ele>1171.000000</ele>
		<time>2013-05-04T01:19:41Z</time>
		</trkpt>

		<trkpt lat="38.740667" lon="-1.013994">
			<ele>1175.000000</ele>
		<time>2013-05-04T01:19:44Z</time>
		</trkpt>

		<trkpt lat="38.740358" lon="-1.013970">
			<ele>1178.000000</ele>
		<time>2013-05-04T01:19:47Z</time>
		</trkpt>

		<trkpt lat="38.740137" lon="-1.014181">
			<ele>1181.000000</ele>
		<time>2013-05-04T01:19:50Z</time>
		</trkpt>

		<trkpt lat="38.740006" lon="-1.014411">
			<ele>1182.000000</ele>
		<time>2013-05-04T01:19:53Z</time>
		</trkpt>

		<trkpt lat="38.739839" lon="-1.014460">
			<ele>1181.000000</ele>
		<time>2013-05-04T01:19:56Z</time>
		</trkpt>

		<trkpt lat="38.739875" lon="-1.014163">
			<ele>1180.000000</ele>
		<time>2013-05-04T01:19:59Z</time>
		</trkpt>

		<trkpt lat="38.740162" lon="-1.014065">
			<ele>1179.000000</ele>
		<time>2013-05-04T01:20:02Z</time>
		</trkpt>

		<trkpt lat="38.740462" lon="-1.014499">
			<ele>1182.000000</ele>
		<time>2013-05-04T01:20:05Z</time>
		</trkpt>

		<trkpt lat="38.740465" lon="-1.014910">
			<ele>1184.000000</ele>
		<time>2013-05-04T01:20:08Z</time>
		</trkpt>

		<trkpt lat="38.740288" lon="-1.015075">
			<ele>1186.000000</ele>
		<time>2013-05-04T01:20:11Z</time>
		</trkpt>

		<trkpt lat="38.740106" lon="-1.014967">
			<ele>1188.000000</ele>
		<time>2013-05-04T01:20:14Z</time>
		</trkpt>

		<trkpt lat="38.740105" lon="-1.014617">
			<ele>1190.000000</ele>
		<time>2013-05-04T01:20:17Z</time>
		</trkpt>

		<trkpt lat="38.740237" lon="-1.014398">
			<ele>1193.000000</ele>
		<time>2013-05-04T01:20:20Z</time>
		</trkpt>

		<trkpt lat="38.740418" lon="-1.014195">
			<ele>1195.000000</ele>
		<time>2013-05-04T01:20:23Z</time>
		</trkpt>

		<trkpt lat="38.740639" lon="-1.014080">
			<ele>1196.000000</ele>
		<time>2013-05-04T01:20:26Z</time>
		</trkpt>

		<trkpt lat="38.740967" lon="-1.014168">
			<ele>1195.000000</ele>
		<time>2013-05-04T01:20:29Z</time>
		</trkpt>

		<trkpt lat="38.741258" lon="-1.014498">
			<ele>1195.000000</ele>
		<time>2013-05-04T01:20:32Z</time>
		</trkpt>

		<trkpt lat="38.741277" lon="-1.014934">
			<ele>1197.000000</ele>
		<time>2013-05-04T01:20:35Z</time>
		</trkpt>

		<trkpt lat="38.741255" lon="-1.015323">
			<ele>1196.000000</ele>
		<time>2013-05-04T01:20:38Z</time>
		</trkpt>

		<trkpt lat="38.741592" lon="-1.015500">
			<ele>1199.000000</ele>
		<time>2013-05-04T01:20:41Z</time>
		</trkpt>

		<trkpt lat="38.741807" lon="-1.015245">
			<ele>1204.000000</ele>
		<time>2013-05-04T01:20:44Z</time>
		</trkpt>

		<trkpt lat="38.741647" lon="-1.014968">
			<ele>1212.000000</ele>
		<time>2013-05-04T01:20:47Z</time>
		</trkpt>

		<trkpt lat="38.741481" lon="-1.014854">
			<ele>1217.000000</ele>
		<time>2013-05-04T01:20:50Z</time>
		</trkpt>

		<trkpt lat="38.741267" lon="-1.014754">
			<ele>1219.000000</ele>
		<time>2013-05-04T01:20:53Z</time>
		</trkpt>

		<trkpt lat="38.741080" lon="-1.014660">
			<ele>1218.000000</ele>
		<time>2013-05-04T01:20:56Z</time>
		</trkpt>

		<trkpt lat="38.740914" lon="-1.014514">
			<ele>1217.000000</ele>
		<time>2013-05-04T01:20:59Z</time>
		</trkpt>

		<trkpt lat="38.740694" lon="-1.014458">
			<ele>1217.000000</ele>
		<time>2013-05-04T01:21:02Z</time>
		</trkpt>

		<trkpt lat="38.740502" lon="-1.014540">
			<ele>1218.000000</ele>
		<time>2013-05-04T01:21:05Z</time>
		</trkpt>

		<trkpt lat="38.740322" lon="-1.014591">
			<ele>1220.000000</ele>
		<time>2013-05-04T01:21:08Z</time>
		</trkpt>

		<trkpt lat="38.740155" lon="-1.014470">
			<ele>1223.000000</ele>
		<time>2013-05-04T01:21:11Z</time>
		</trkpt>

		<trkpt lat="38.740150" lon="-1.014160">
			<ele>1223.000000</ele>
		<time>2013-05-04T01:21:14Z</time>
		</trkpt>

		<trkpt lat="38.740412" lon="-1.013929">
			<ele>1223.000000</ele>
		<time>2013-05-04T01:21:17Z</time>
		</trkpt>

		<trkpt lat="38.740801" lon="-1.014120">
			<ele>1223.000000</ele>
		<time>2013-05-04T01:21:20Z</time>
		</trkpt>

		<trkpt lat="38.740888" lon="-1.014481">
			<ele>1226.000000</ele>
		<time>2013-05-04T01:21:23Z</time>
		</trkpt>

		<trkpt lat="38.740592" lon="-1.014528">
			<ele>1230.000000</ele>
		<time>2013-05-04T01:21:26Z</time>
		</trkpt>

		<trkpt lat="38.740492" lon="-1.014202">
			<ele>1232.000000</ele>
		<time>2013-05-04T01:21:29Z</time>
		</trkpt>

		<trkpt lat="38.740743" lon="-1.014050">
			<ele>1232.000000</ele>
		<time>2013-05-04T01:21:32Z</time>
		</trkpt>

		<trkpt lat="38.741125" lon="-1.014312">
			<ele>1234.000000</ele>
		<time>2013-05-04T01:21:35Z</time>
		</trkpt>

		<trkpt lat="38.741169" lon="-1.014717">
			<ele>1238.000000</ele>
		<time>2013-05-04T01:21:38Z</time>
		</trkpt>

		<trkpt lat="38.740976" lon="-1.014821">
			<ele>1242.000000</ele>
		<time>2013-05-04T01:21:41Z</time>
		</trkpt>

		<trkpt lat="38.740793" lon="-1.014534">
			<ele>1246.000000</ele>
		<time>2013-05-04T01:21:44Z</time>
		</trkpt>

		<trkpt lat="38.740878" lon="-1.014212">
			<ele>1247.000000</ele>
		<time>2013-05-04T01:21:47Z</time>
		</trkpt>

		<trkpt lat="38.741257" lon="-1.014299">
			<ele>1250.000000</ele>
		<time>2013-05-04T01:21:50Z</time>
		</trkpt>

		<trkpt lat="38.741429" lon="-1.014715">
			<ele>1252.000000</ele>
		<time>2013-05-04T01:21:53Z</time>
		</trkpt>

		<trkpt lat="38.741311" lon="-1.015012">
			<ele>1255.000000</ele>
		<time>2013-05-04T01:21:56Z</time>
		</trkpt>

		<trkpt lat="38.741101" lon="-1.014733">
			<ele>1256.000000</ele>
		<time>2013-05-04T01:21:59Z</time>
		</trkpt>

		<trkpt lat="38.741250" lon="-1.014390">
			<ele>1258.000000</ele>
		<time>2013-05-04T01:22:02Z</time>
		</trkpt>

		<trkpt lat="38.741656" lon="-1.014372">
			<ele>1259.000000</ele>
		<time>2013-05-04T01:22:05Z</time>
		</trkpt>

		<trkpt lat="38.741869" lon="-1.014728">
			<ele>1261.000000</ele>
		<time>2013-05-04T01:22:08Z</time>
		</trkpt>

		<trkpt lat="38.741764" lon="-1.015111">
			<ele>1267.000000</ele>
		<time>2013-05-04T01:22:11Z</time>
		</trkpt>

		<trkpt lat="38.741562" lon="-1.015186">
			<ele>1269.000000</ele>
		<time>2013-05-04T01:22:14Z</time>
		</trkpt>

		<trkpt lat="38.741376" lon="-1.014928">
			<ele>1268.000000</ele>
		<time>2013-05-04T01:22:17Z</time>
		</trkpt>

		<trkpt lat="38.741569" lon="-1.014645">
			<ele>1268.000000</ele>
		<time>2013-05-04T01:22:20Z</time>
		</trkpt>

		<trkpt lat="38.741937" lon="-1.014444">
			<ele>1270.000000</ele>
		<time>2013-05-04T01:22:23Z</time>
		</trkpt>

		<trkpt lat="38.742295" lon="-1.014439">
			<ele>1272.000000</ele>
		<time>2013-05-04T01:22:26Z</time>
		</trkpt>

		<trkpt lat="38.742629" lon="-1.014583">
			<ele>1275.000000</ele>
		<time>2013-05-04T01:22:29Z</time>
		</trkpt>

		<trkpt lat="38.742800" lon="-1.014883">
			<ele>1279.000000</ele>
		<time>2013-05-04T01:22:32Z</time>
		</trkpt>

		<trkpt lat="38.742750" lon="-1.015239">
			<ele>1284.000000</ele>
		<time>2013-05-04T01:22:35Z</time>
		</trkpt>

		<trkpt lat="38.742546" lon="-1.015290">
			<ele>1287.000000</ele>
		<time>2013-05-04T01:22:38Z</time>
		</trkpt>

		<trkpt lat="38.742468" lon="-1.014974">
			<ele>1288.000000</ele>
		<time>2013-05-04T01:22:41Z</time>
		</trkpt>

		<trkpt lat="38.742756" lon="-1.014742">
			<ele>1292.000000</ele>
		<time>2013-05-04T01:22:44Z</time>
		</trkpt>

		<trkpt lat="38.743057" lon="-1.014869">
			<ele>1293.000000</ele>
		<time>2013-05-04T01:22:47Z</time>
		</trkpt>

		<trkpt lat="38.743184" lon="-1.015263">
			<ele>1296.000000</ele>
		<time>2013-05-04T01:22:50Z</time>
		</trkpt>

		<trkpt lat="38.743032" lon="-1.015593">
			<ele>1303.000000</ele>
		<time>2013-05-04T01:22:53Z</time>
		</trkpt>

		<trkpt lat="38.742750" lon="-1.015763">
			<ele>1310.000000</ele>
		<time>2013-05-04T01:22:56Z</time>
		</trkpt>

		<trkpt lat="38.742583" lon="-1.015619">
			<ele>1312.000000</ele>
		<time>2013-05-04T01:22:59Z</time>
		</trkpt>

		<trkpt lat="38.742631" lon="-1.015321">
			<ele>1311.000000</ele>
		<time>2013-05-04T01:23:02Z</time>
		</trkpt>

		<trkpt lat="38.743005" lon="-1.015256">
			<ele>1310.000000</ele>
		<time>2013-05-04T01:23:05Z</time>
		</trkpt>

		<trkpt lat="38.743353" lon="-1.015555">
			<ele>1311.000000</ele>
		<time>2013-05-04T01:23:08Z</time>
		</trkpt>

		<trkpt lat="38.743526" lon="-1.015965">
			<ele>1319.000000</ele>
		<time>2013-05-04T01:23:11Z</time>
		</trkpt>

		<trkpt lat="38.743605" lon="-1.016347">
			<ele>1325.000000</ele>
		<time>2013-05-04T01:23:14Z</time>
		</trkpt>

		<trkpt lat="38.743596" lon="-1.016705">
			<ele>1327.000000</ele>
		<time>2013-05-04T01:23:17Z</time>
		</trkpt>

		<trkpt lat="38.743496" lon="-1.017021">
			<ele>1329.000000</ele>
		<time>2013-05-04T01:23:20Z</time>
		</trkpt>

		<trkpt lat="38.743399" lon="-1.017246">
			<ele>1333.000000</ele>
		<time>2013-05-04T01:23:23Z</time>
		</trkpt>

		<trkpt lat="38.743320" lon="-1.017520">
			<ele>1332.000000</ele>
		<time>2013-05-04T01:23:26Z</time>
		</trkpt>

		<trkpt lat="38.743227" lon="-1.017866">
			<ele>1332.000000</ele>
		<time>2013-05-04T01:23:29Z</time>
		</trkpt>

		<trkpt lat="38.743112" lon="-1.018156">
			<ele>1332.000000</ele>
		<time>2013-05-04T01:23:32Z</time>
		</trkpt>

		<trkpt lat="38.742965" lon="-1.018431">
			<ele>1331.000000</ele>
		<time>2013-05-04T01:23:35Z</time>
		</trkpt>

		<trkpt lat="38.742803" lon="-1.018666">
			<ele>1331.000000</ele>
		<time>2013-05-04T01:23:38Z</time>
		</trkpt>

		<trkpt lat="38.742655" lon="-1.018869">
			<ele>1332.000000</ele>
		<time>2013-05-04T01:23:41Z</time>
		</trkpt>

		<trkpt lat="38.742544" lon="-1.019058">
			<ele>1332.000000</ele>
		<time>2013-05-04T01:23:44Z</time>
		</trkpt>

		<trkpt lat="38.742425" lon="-1.019302">
			<ele>1332.000000</ele>
		<time>2013-05-04T01:23:47Z</time>
		</trkpt>

		<trkpt lat="38.742295" lon="-1.019555">
			<ele>1331.000000</ele>
		<time>2013-05-04T01:23:50Z</time>
		</trkpt>

		<trkpt lat="38.742117" lon="-1.019830">
			<ele>1331.000000</ele>
		<time>2013-05-04T01:23:53Z</time>
		</trkpt>

		<trkpt lat="38.741965" lon="-1.020076">
			<ele>1331.000000</ele>
		<time>2013-05-04T01:23:56Z</time>
		</trkpt>

		<trkpt lat="38.741784" lon="-1.020302">
			<ele>1330.000000</ele>
		<time>2013-05-04T01:23:59Z</time>
		</trkpt>

		<trkpt lat="38.741605" lon="-1.020567">
			<ele>1328.000000</ele>
		<time>2013-05-04T01:24:02Z</time>
		</trkpt>

		<trkpt lat="38.741427" lon="-1.020813">
			<ele>1324.000000</ele>
		<time>2013-05-04T01:24:05Z</time>
		</trkpt>

		<trkpt lat="38.741253" lon="-1.021086">
			<ele>1321.000000</ele>
		<time>2013-05-04T01:24:08Z</time>
		</trkpt>

		<trkpt lat="38.741060" lon="-1.021266">
			<ele>1315.000000</ele>
		<time>2013-05-04T01:24:11Z</time>
		</trkpt>

		<trkpt lat="38.740875" lon="-1.021531">
			<ele>1310.000000</ele>
		<time>2013-05-04T01:24:14Z</time>
		</trkpt>

		<trkpt lat="38.740706" lon="-1.021777">
			<ele>1306.000000</ele>
		<time>2013-05-04T01:24:17Z</time>
		</trkpt>

		<trkpt lat="38.740557" lon="-1.022026">
			<ele>1302.000000</ele>
		<time>2013-05-04T01:24:20Z</time>
		</trkpt>

		<trkpt lat="38.740417" lon="-1.022233">
			<ele>1299.000000</ele>
		<time>2013-05-04T01:24:23Z</time>
		</trkpt>

		<trkpt lat="38.740261" lon="-1.022432">
			<ele>1296.000000</ele>
		<time>2013-05-04T01:24:26Z</time>
		</trkpt>

		<trkpt lat="38.740133" lon="-1.022627">
			<ele>1294.000000</ele>
		<time>2013-05-04T01:24:29Z</time>
		</trkpt>

		<trkpt lat="38.739982" lon="-1.022893">
			<ele>1291.000000</ele>
		<time>2013-05-04T01:24:32Z</time>
		</trkpt>

		<trkpt lat="38.739867" lon="-1.023164">
			<ele>1288.000000</ele>
		<time>2013-05-04T01:24:35Z</time>
		</trkpt>

		<trkpt lat="38.739770" lon="-1.023434">
			<ele>1285.000000</ele>
		<time>2013-05-04T01:24:38Z</time>
		</trkpt>

		<trkpt lat="38.739681" lon="-1.023697">
			<ele>1282.000000</ele>
		<time>2013-05-04T01:24:41Z</time>
		</trkpt>

		<trkpt lat="38.739584" lon="-1.023983">
			<ele>1278.000000</ele>
		<time>2013-05-04T01:24:44Z</time>
		</trkpt>

		<trkpt lat="38.739470" lon="-1.024250">
			<ele>1276.000000</ele>
		<time>2013-05-04T01:24:47Z</time>
		</trkpt>

		<trkpt lat="38.739363" lon="-1.024560">
			<ele>1273.000000</ele>
		<time>2013-05-04T01:24:50Z</time>
		</trkpt>

		<trkpt lat="38.739273" lon="-1.024845">
			<ele>1271.000000</ele>
		<time>2013-05-04T01:24:53Z</time>
		</trkpt>

		<trkpt lat="38.739184" lon="-1.025102">
			<ele>1267.000000</ele>
		<time>2013-05-04T01:24:56Z</time>
		</trkpt>

		<trkpt lat="38.739074" lon="-1.025435">
			<ele>1263.000000</ele>
		<time>2013-05-04T01:24:59Z</time>
		</trkpt>

		<trkpt lat="38.738958" lon="-1.025736">
			<ele>1261.000000</ele>
		<time>2013-05-04T01:25:02Z</time>
		</trkpt>

		<trkpt lat="38.738841" lon="-1.026062">
			<ele>1256.000000</ele>
		<time>2013-05-04T01:25:05Z</time>
		</trkpt>

		<trkpt lat="38.738706" lon="-1.026351">
			<ele>1251.000000</ele>
		<time>2013-05-04T01:25:08Z</time>
		</trkpt>

		<trkpt lat="38.738529" lon="-1.026566">
			<ele>1245.000000</ele>
		<time>2013-05-04T01:25:11Z</time>
		</trkpt>

		<trkpt lat="38.738294" lon="-1.026556">
			<ele>1240.000000</ele>
		<time>2013-05-04T01:25:14Z</time>
		</trkpt>

		<trkpt lat="38.738155" lon="-1.026414">
			<ele>1237.000000</ele>
		<time>2013-05-04T01:25:17Z</time>
		</trkpt>

		<trkpt lat="38.738029" lon="-1.026208">
			<ele>1233.000000</ele>
		<time>2013-05-04T01:25:20Z</time>
		</trkpt>

		<trkpt lat="38.737931" lon="-1.025987">
			<ele>1231.000000</ele>
		<time>2013-05-04T01:25:23Z</time>
		</trkpt>

		<trkpt lat="38.737837" lon="-1.025738">
			<ele>1228.000000</ele>
		<time>2013-05-04T01:25:26Z</time>
		</trkpt>

		<trkpt lat="38.737753" lon="-1.025491">
			<ele>1226.000000</ele>
		<time>2013-05-04T01:25:29Z</time>
		</trkpt>

		<trkpt lat="38.737698" lon="-1.025239">
			<ele>1222.000000</ele>
		<time>2013-05-04T01:25:32Z</time>
		</trkpt>

		<trkpt lat="38.737621" lon="-1.024999">
			<ele>1220.000000</ele>
		<time>2013-05-04T01:25:35Z</time>
		</trkpt>

		<trkpt lat="38.737541" lon="-1.024796">
			<ele>1219.000000</ele>
		<time>2013-05-04T01:25:38Z</time>
		</trkpt>

		<trkpt lat="38.737491" lon="-1.024517">
			<ele>1215.000000</ele>
		<time>2013-05-04T01:25:41Z</time>
		</trkpt>

		<trkpt lat="38.737440" lon="-1.024204">
			<ele>1211.000000</ele>
		<time>2013-05-04T01:25:44Z</time>
		</trkpt>

		<trkpt lat="38.737349" lon="-1.023826">
			<ele>1208.000000</ele>
		<time>2013-05-04T01:25:47Z</time>
		</trkpt>

		<trkpt lat="38.737277" lon="-1.023574">
			<ele>1209.000000</ele>
		<time>2013-05-04T01:25:50Z</time>
		</trkpt>

		<trkpt lat="38.737301" lon="-1.023218">
			<ele>1204.000000</ele>
		<time>2013-05-04T01:25:53Z</time>
		</trkpt>

		<trkpt lat="38.737495" lon="-1.022983">
			<ele>1199.000000</ele>
		<time>2013-05-04T01:25:56Z</time>
		</trkpt>

		<trkpt lat="38.737909" lon="-1.023172">
			<ele>1198.000000</ele>
		<time>2013-05-04T01:25:59Z</time>
		</trkpt>

		<trkpt lat="38.738122" lon="-1.023527">
			<ele>1198.000000</ele>
		<time>2013-05-04T01:26:02Z</time>
		</trkpt>

		<trkpt lat="38.737996" lon="-1.023878">
			<ele>1203.000000</ele>
		<time>2013-05-04T01:26:05Z</time>
		</trkpt>

		<trkpt lat="38.737728" lon="-1.023950">
			<ele>1208.000000</ele>
		<time>2013-05-04T01:26:08Z</time>
		</trkpt>

		<trkpt lat="38.737556" lon="-1.023856">
			<ele>1212.000000</ele>
		<time>2013-05-04T01:26:11Z</time>
		</trkpt>

		<trkpt lat="38.737401" lon="-1.023620">
			<ele>1213.000000</ele>
		<time>2013-05-04T01:26:14Z</time>
		</trkpt>

		<trkpt lat="38.737296" lon="-1.023451">
			<ele>1215.000000</ele>
		<time>2013-05-04T01:26:17Z</time>
		</trkpt>

		<trkpt lat="38.737247" lon="-1.023204">
			<ele>1213.000000</ele>
		<time>2013-05-04T01:26:20Z</time>
		</trkpt>

		<trkpt lat="38.737384" lon="-1.022942">
			<ele>1213.000000</ele>
		<time>2013-05-04T01:26:23Z</time>
		</trkpt>

		<trkpt lat="38.737804" lon="-1.022993">
			<ele>1213.000000</ele>
		<time>2013-05-04T01:26:26Z</time>
		</trkpt>

		<trkpt lat="38.738052" lon="-1.023446">
			<ele>1213.000000</ele>
		<time>2013-05-04T01:26:29Z</time>
		</trkpt>

		<trkpt lat="38.737986" lon="-1.023733">
			<ele>1214.000000</ele>
		<time>2013-05-04T01:26:32Z</time>
		</trkpt>

		<trkpt lat="38.737747" lon="-1.023702">
			<ele>1214.000000</ele>
		<time>2013-05-04T01:26:35Z</time>
		</trkpt>

		<trkpt lat="38.737631" lon="-1.023436">
			<ele>1214.000000</ele>
		<time>2013-05-04T01:26:38Z</time>
		</trkpt>

		<trkpt lat="38.737592" lon="-1.023198">
			<ele>1217.000000</ele>
		<time>2013-05-04T01:26:41Z</time>
		</trkpt>

		<trkpt lat="38.737498" lon="-1.023034">
			<ele>1219.000000</ele>
		<time>2013-05-04T01:26:44Z</time>
		</trkpt>

		<trkpt lat="38.737383" lon="-1.022905">
			<ele>1220.000000</ele>
		<time>2013-05-04T01:26:47Z</time>
		</trkpt>

		<trkpt lat="38.737291" lon="-1.022673">
			<ele>1220.000000</ele>
		<time>2013-05-04T01:26:50Z</time>
		</trkpt>

		<trkpt lat="38.737305" lon="-1.022413">
			<ele>1221.000000</ele>
		<time>2013-05-04T01:26:53Z</time>
		</trkpt>

		<trkpt lat="38.737365" lon="-1.022202">
			<ele>1223.000000</ele>
		<time>2013-05-04T01:26:56Z</time>
		</trkpt>

		<trkpt lat="38.737456" lon="-1.021949">
			<ele>1224.000000</ele>
		<time>2013-05-04T01:26:59Z</time>
		</trkpt>

		<trkpt lat="38.737429" lon="-1.021714">
			<ele>1225.000000</ele>
		<time>2013-05-04T01:27:02Z</time>
		</trkpt>

		<trkpt lat="38.737200" lon="-1.021757">
			<ele>1225.000000</ele>
		<time>2013-05-04T01:27:05Z</time>
		</trkpt>

		<trkpt lat="38.737111" lon="-1.022200">
			<ele>1226.000000</ele>
		<time>2013-05-04T01:27:08Z</time>
		</trkpt>

		<trkpt lat="38.737303" lon="-1.022581">
			<ele>1225.000000</ele>
		<time>2013-05-04T01:27:11Z</time>
		</trkpt>

		<trkpt lat="38.737711" lon="-1.022553">
			<ele>1227.000000</ele>
		<time>2013-05-04T01:27:14Z</time>
		</trkpt>

		<trkpt lat="38.737972" lon="-1.022326">
			<ele>1232.000000</ele>
		<time>2013-05-04T01:27:17Z</time>
		</trkpt>

		<trkpt lat="38.738057" lon="-1.022041">
			<ele>1232.000000</ele>
		<time>2013-05-04T01:27:20Z</time>
		</trkpt>

		<trkpt lat="38.737988" lon="-1.021800">
			<ele>1228.000000</ele>
		<time>2013-05-04T01:27:23Z</time>
		</trkpt>

		<trkpt lat="38.737788" lon="-1.021612">
			<ele>1224.000000</ele>
		<time>2013-05-04T01:27:26Z</time>
		</trkpt>

		<trkpt lat="38.737533" lon="-1.021554">
			<ele>1222.000000</ele>
		<time>2013-05-04T01:27:29Z</time>
		</trkpt>

		<trkpt lat="38.737300" lon="-1.021483">
			<ele>1220.000000</ele>
		<time>2013-05-04T01:27:32Z</time>
		</trkpt>

		<trkpt lat="38.737025" lon="-1.021483">
			<ele>1217.000000</ele>
		<time>2013-05-04T01:27:35Z</time>
		</trkpt>

		<trkpt lat="38.736755" lon="-1.021507">
			<ele>1216.000000</ele>
		<time>2013-05-04T01:27:38Z</time>
		</trkpt>

		<trkpt lat="38.736469" lon="-1.021503">
			<ele>1215.000000</ele>
		<time>2013-05-04T01:27:41Z</time>
		</trkpt>

		<trkpt lat="38.736199" lon="-1.021484">
			<ele>1208.000000</ele>
		<time>2013-05-04T01:27:44Z</time>
		</trkpt>

		<trkpt lat="38.735978" lon="-1.021368">
			<ele>1200.000000</ele>
		<time>2013-05-04T01:27:47Z</time>
		</trkpt>

		<trkpt lat="38.735808" lon="-1.021255">
			<ele>1192.000000</ele>
		<time>2013-05-04T01:27:50Z</time>
		</trkpt>

		<trkpt lat="38.735626" lon="-1.021091">
			<ele>1184.000000</ele>
		<time>2013-05-04T01:27:53Z</time>
		</trkpt>

		<trkpt lat="38.735422" lon="-1.020917">
			<ele>1178.000000</ele>
		<time>2013-05-04T01:27:56Z</time>
		</trkpt>

		<trkpt lat="38.735258" lon="-1.020730">
			<ele>1174.000000</ele>
		<time>2013-05-04T01:27:59Z</time>
		</trkpt>

		<trkpt lat="38.735079" lon="-1.020536">
			<ele>1169.000000</ele>
		<time>2013-05-04T01:28:02Z</time>
		</trkpt>

		<trkpt lat="38.734911" lon="-1.020350">
			<ele>1166.000000</ele>
		<time>2013-05-04T01:28:05Z</time>
		</trkpt>

		<trkpt lat="38.734738" lon="-1.020149">
			<ele>1160.000000</ele>
		<time>2013-05-04T01:28:08Z</time>
		</trkpt>

		<trkpt lat="38.734684" lon="-1.019834">
			<ele>1153.000000</ele>
		<time>2013-05-04T01:28:11Z</time>
		</trkpt>

		<trkpt lat="38.734806" lon="-1.019497">
			<ele>1147.000000</ele>
		<time>2013-05-04T01:28:14Z</time>
		</trkpt>

		<trkpt lat="38.734942" lon="-1.019195">
			<ele>1141.000000</ele>
		<time>2013-05-04T01:28:17Z</time>
		</trkpt>

		<trkpt lat="38.735111" lon="-1.018875">
			<ele>1133.000000</ele>
		<time>2013-05-04T01:28:20Z</time>
		</trkpt>

		<trkpt lat="38.735342" lon="-1.018628">
			<ele>1127.000000</ele>
		<time>2013-05-04T01:28:23Z</time>
		</trkpt>

		<trkpt lat="38.735605" lon="-1.018422">
			<ele>1121.000000</ele>
		<time>2013-05-04T01:28:26Z</time>
		</trkpt>

		<trkpt lat="38.735869" lon="-1.018229">
			<ele>1117.000000</ele>
		<time>2013-05-04T01:28:29Z</time>
		</trkpt>

		<trkpt lat="38.736028" lon="-1.017920">
			<ele>1114.000000</ele>
		<time>2013-05-04T01:28:32Z</time>
		</trkpt>

		<trkpt lat="38.735943" lon="-1.017578">
			<ele>1112.000000</ele>
		<time>2013-05-04T01:28:35Z</time>
		</trkpt>

		<trkpt lat="38.735705" lon="-1.017409">
			<ele>1111.000000</ele>
		<time>2013-05-04T01:28:38Z</time>
		</trkpt>

		<trkpt lat="38.735445" lon="-1.017390">
			<ele>1110.000000</ele>
		<time>2013-05-04T01:28:41Z</time>
		</trkpt>

		<trkpt lat="38.735197" lon="-1.017334">
			<ele>1105.000000</ele>
		<time>2013-05-04T01:28:44Z</time>
		</trkpt>

		<trkpt lat="38.734972" lon="-1.017243">
			<ele>1100.000000</ele>
		<time>2013-05-04T01:28:47Z</time>
		</trkpt>

		<trkpt lat="38.734754" lon="-1.017167">
			<ele>1095.000000</ele>
		<time>2013-05-04T01:28:50Z</time>
		</trkpt>

		<trkpt lat="38.734575" lon="-1.017047">
			<ele>1089.000000</ele>
		<time>2013-05-04T01:28:53Z</time>
		</trkpt>

		<trkpt lat="38.734367" lon="-1.016890">
			<ele>1086.000000</ele>
		<time>2013-05-04T01:28:56Z</time>
		</trkpt>

		<trkpt lat="38.734197" lon="-1.017063">
			<ele>1083.000000</ele>
		<time>2013-05-04T01:28:59Z</time>
		</trkpt>

		<trkpt lat="38.734146" lon="-1.017364">
			<ele>1081.000000</ele>
		<time>2013-05-04T01:29:02Z</time>
		</trkpt>

		<trkpt lat="38.734197" lon="-1.017710">
			<ele>1077.000000</ele>
		<time>2013-05-04T01:29:05Z</time>
		</trkpt>

		<trkpt lat="38.734283" lon="-1.018033">
			<ele>1075.000000</ele>
		<time>2013-05-04T01:29:08Z</time>
		</trkpt>

		<trkpt lat="38.734392" lon="-1.018316">
			<ele>1071.000000</ele>
		<time>2013-05-04T01:29:11Z</time>
		</trkpt>

		<trkpt lat="38.734602" lon="-1.018606">
			<ele>1064.000000</ele>
		<time>2013-05-04T01:29:14Z</time>
		</trkpt>

		<trkpt lat="38.734863" lon="-1.018790">
			<ele>1062.000000</ele>
		<time>2013-05-04T01:29:17Z</time>
		</trkpt>

		<trkpt lat="38.735057" lon="-1.018915">
			<ele>1061.000000</ele>
		<time>2013-05-04T01:29:20Z</time>
		</trkpt>

		<trkpt lat="38.735231" lon="-1.019093">
			<ele>1058.000000</ele>
		<time>2013-05-04T01:29:23Z</time>
		</trkpt>

		<trkpt lat="38.735320" lon="-1.019418">
			<ele>1057.000000</ele>
		<time>2013-05-04T01:29:26Z</time>
		</trkpt>

		<trkpt lat="38.735285" lon="-1.019720">
			<ele>1058.000000</ele>
		<time>2013-05-04T01:29:29Z</time>
		</trkpt>

		<trkpt lat="38.735195" lon="-1.019987">
			<ele>1058.000000</ele>
		<time>2013-05-04T01:29:32Z</time>
		</trkpt>

		<trkpt lat="38.735014" lon="-1.020232">
			<ele>1058.000000</ele>
		<time>2013-05-04T01:29:35Z</time>
		</trkpt>

		<trkpt lat="38.734813" lon="-1.020336">
			<ele>1061.000000</ele>
		<time>2013-05-04T01:29:38Z</time>
		</trkpt>

		<trkpt lat="38.734614" lon="-1.020473">
			<ele>1063.000000</ele>
		<time>2013-05-04T01:29:41Z</time>
		</trkpt>

		<trkpt lat="38.734427" lon="-1.020566">
			<ele>1064.000000</ele>
		<time>2013-05-04T01:29:44Z</time>
		</trkpt>

		<trkpt lat="38.734163" lon="-1.020459">
			<ele>1061.000000</ele>
		<time>2013-05-04T01:29:47Z</time>
		</trkpt>

		<trkpt lat="38.734042" lon="-1.020131">
			<ele>1057.000000</ele>
		<time>2013-05-04T01:29:50Z</time>
		</trkpt>

		<trkpt lat="38.733992" lon="-1.019766">
			<ele>1054.000000</ele>
		<time>2013-05-04T01:29:53Z</time>
		</trkpt>

		<trkpt lat="38.734005" lon="-1.019361">
			<ele>1049.000000</ele>
		<time>2013-05-04T01:29:56Z</time>
		</trkpt>

		<trkpt lat="38.734010" lon="-1.018914">
			<ele>1043.000000</ele>
		<time>2013-05-04T01:29:59Z</time>
		</trkpt>

		<trkpt lat="38.734028" lon="-1.018520">
			<ele>1042.000000</ele>
		<time>2013-05-04T01:30:02Z</time>
		</trkpt>

		<trkpt lat="38.734101" lon="-1.018276">
			<ele>1042.000000</ele>
		<time>2013-05-04T01:30:05Z</time>
		</trkpt>

		<trkpt lat="38.734134" lon="-1.017896">
			<ele>1039.000000</ele>
		<time>2013-05-04T01:30:08Z</time>
		</trkpt>

		<trkpt lat="38.734157" lon="-1.017533">
			<ele>1037.000000</ele>
		<time>2013-05-04T01:30:11Z</time>
		</trkpt>

		<trkpt lat="38.734211" lon="-1.017163">
			<ele>1034.000000</ele>
		<time>2013-05-04T01:30:14Z</time>
		</trkpt>

		<trkpt lat="38.734348" lon="-1.016843">
			<ele>1029.000000</ele>
		<time>2013-05-04T01:30:17Z</time>
		</trkpt>

		<trkpt lat="38.734471" lon="-1.016617">
			<ele>1027.000000</ele>
		<time>2013-05-04T01:30:20Z</time>
		</trkpt>

		<trkpt lat="38.734518" lon="-1.016357">
			<ele>1027.000000</ele>
		<time>2013-05-04T01:30:23Z</time>
		</trkpt>

		<trkpt lat="38.734654" lon="-1.016129">
			<ele>1026.000000</ele>
		<time>2013-05-04T01:30:26Z</time>
		</trkpt>

		<trkpt lat="38.734762" lon="-1.015873">
			<ele>1027.000000</ele>
		<time>2013-05-04T01:30:29Z</time>
		</trkpt>

		<trkpt lat="38.734655" lon="-1.015617">
			<ele>1030.000000</ele>
		<time>2013-05-04T01:30:32Z</time>
		</trkpt>

		<trkpt lat="38.734467" lon="-1.015476">
			<ele>1035.000000</ele>
		<time>2013-05-04T01:30:35Z</time>
		</trkpt>

		<trkpt lat="38.734338" lon="-1.015343">
			<ele>1039.000000</ele>
		<time>2013-05-04T01:30:38Z</time>
		</trkpt>

		<trkpt lat="38.734332" lon="-1.015112">
			<ele>1038.000000</ele>
		<time>2013-05-04T01:30:41Z</time>
		</trkpt>

		<trkpt lat="38.734504" lon="-1.014870">
			<ele>1037.000000</ele>
		<time>2013-05-04T01:30:44Z</time>
		</trkpt>

		<trkpt lat="38.734805" lon="-1.015164">
			<ele>1037.000000</ele>
		<time>2013-05-04T01:30:47Z</time>
		</trkpt>

		<trkpt lat="38.734864" lon="-1.015661">
			<ele>1036.000000</ele>
		<time>2013-05-04T01:30:50Z</time>
		</trkpt>

		<trkpt lat="38.734748" lon="-1.015981">
			<ele>1037.000000</ele>
		<time>2013-05-04T01:30:53Z</time>
		</trkpt>

		<trkpt lat="38.734512" lon="-1.015815">
			<ele>1039.000000</ele>
		<time>2013-05-04T01:30:56Z</time>
		</trkpt>

		<trkpt lat="38.734396" lon="-1.015442">
			<ele>1040.000000</ele>
		<time>2013-05-04T01:30:59Z</time>
		</trkpt>

		<trkpt lat="38.734567" lon="-1.015180">
			<ele>1041.000000</ele>
		<time>2013-05-04T01:31:02Z</time>
		</trkpt>

		<trkpt lat="38.734824" lon="-1.015033">
			<ele>1042.000000</ele>
		<time>2013-05-04T01:31:05Z</time>
		</trkpt>

		<trkpt lat="38.735054" lon="-1.014839">
			<ele>1044.000000</ele>
		<time>2013-05-04T01:31:08Z</time>
		</trkpt>

		<trkpt lat="38.735219" lon="-1.014617">
			<ele>1046.000000</ele>
		<time>2013-05-04T01:31:11Z</time>
		</trkpt>

		<trkpt lat="38.735175" lon="-1.014336">
			<ele>1049.000000</ele>
		<time>2013-05-04T01:31:14Z</time>
		</trkpt>

		<trkpt lat="38.734897" lon="-1.014371">
			<ele>1052.000000</ele>
		<time>2013-05-04T01:31:17Z</time>
		</trkpt>

		<trkpt lat="38.734701" lon="-1.014665">
			<ele>1052.000000</ele>
		<time>2013-05-04T01:31:20Z</time>
		</trkpt>

		<trkpt lat="38.734656" lon="-1.015074">
			<ele>1050.000000</ele>
		<time>2013-05-04T01:31:23Z</time>
		</trkpt>

		<trkpt lat="38.734677" lon="-1.015431">
			<ele>1051.000000</ele>
		<time>2013-05-04T01:31:26Z</time>
		</trkpt>

		<trkpt lat="38.734659" lon="-1.015739">
			<ele>1053.000000</ele>
		<time>2013-05-04T01:31:29Z</time>
		</trkpt>

		<trkpt lat="38.734595" lon="-1.016093">
			<ele>1052.000000</ele>
		<time>2013-05-04T01:31:32Z</time>
		</trkpt>

		<trkpt lat="38.734497" lon="-1.016431">
			<ele>1053.000000</ele>
		<time>2013-05-04T01:31:35Z</time>
		</trkpt>

		<trkpt lat="38.734414" lon="-1.016732">
			<ele>1055.000000</ele>
		<time>2013-05-04T01:31:38Z</time>
		</trkpt>

		<trkpt lat="38.734361" lon="-1.017136">
			<ele>1058.000000</ele>
		<time>2013-05-04T01:31:41Z</time>
		</trkpt>

		<trkpt lat="38.734623" lon="-1.017301">
			<ele>1058.000000</ele>
		<time>2013-05-04T01:31:44Z</time>
		</trkpt>

		<trkpt lat="38.734884" lon="-1.017076">
			<ele>1061.000000</ele>
		<time>2013-05-04T01:31:47Z</time>
		</trkpt>

		<trkpt lat="38.734891" lon="-1.016772">
			<ele>1063.000000</ele>
		<time>2013-05-04T01:31:50Z</time>
		</trkpt>

		<trkpt lat="38.734721" lon="-1.016603">
			<ele>1066.000000</ele>
		<time>2013-05-04T01:31:53Z</time>
		</trkpt>

		<trkpt lat="38.734525" lon="-1.016964">
			<ele>1069.000000</ele>
		<time>2013-05-04T01:31:56Z</time>
		</trkpt>

		<trkpt lat="38.734445" lon="-1.017392">
			<ele>1071.000000</ele>
		<time>2013-05-04T01:31:59Z</time>
		</trkpt>

		<trkpt lat="38.734430" lon="-1.017767">
			<ele>1073.000000</ele>
		<time>2013-05-04T01:32:02Z</time>
		</trkpt>

		<trkpt lat="38.734246" lon="-1.018063">
			<ele>1075.000000</ele>
		<time>2013-05-04T01:32:05Z</time>
		</trkpt>

		<trkpt lat="38.734008" lon="-1.018183">
			<ele>1079.000000</ele>
		<time>2013-05-04T01:32:08Z</time>
		</trkpt>

		<trkpt lat="38.733807" lon="-1.018324">
			<ele>1083.000000</ele>
		<time>2013-05-04T01:32:11Z</time>
		</trkpt>

		<trkpt lat="38.733623" lon="-1.018491">
			<ele>1090.000000</ele>
		<time>2013-05-04T01:32:14Z</time>
		</trkpt>

		<trkpt lat="38.733392" lon="-1.018520">
			<ele>1094.000000</ele>
		<time>2013-05-04T01:32:17Z</time>
		</trkpt>

		<trkpt lat="38.733157" lon="-1.018346">
			<ele>1097.000000</ele>
		<time>2013-05-04T01:32:20Z</time>
		</trkpt>

		<trkpt lat="38.733087" lon="-1.018029">
			<ele>1098.000000</ele>
		<time>2013-05-04T01:32:23Z</time>
		</trkpt>

		<trkpt lat="38.733191" lon="-1.017697">
			<ele>1093.000000</ele>
		<time>2013-05-04T01:32:26Z</time>
		</trkpt>

		<trkpt lat="38.733478" lon="-1.017541">
			<ele>1089.000000</ele>
		<time>2013-05-04T01:32:29Z</time>
		</trkpt>

		<trkpt lat="38.733822" lon="-1.017826">
			<ele>1086.000000</ele>
		<time>2013-05-04T01:32:32Z</time>
		</trkpt>

		<trkpt lat="38.734061" lon="-1.018111">
			<ele>1086.000000</ele>
		<time>2013-05-04T01:32:35Z</time>
		</trkpt>

		<trkpt lat="38.734232" lon="-1.018430">
			<ele>1087.000000</ele>
		<time>2013-05-04T01:32:38Z</time>
		</trkpt>

		<trkpt lat="38.734403" lon="-1.018691">
			<ele>1087.000000</ele>
		<time>2013-05-04T01:32:41Z</time>
		</trkpt>

		<trkpt lat="38.734585" lon="-1.019080">
			<ele>1088.000000</ele>
		<time>2013-05-04T01:32:44Z</time>
		</trkpt>

		<trkpt lat="38.734672" lon="-1.019473">
			<ele>1091.000000</ele>
		<time>2013-05-04T01:32:47Z</time>
		</trkpt>

		<trkpt lat="38.734778" lon="-1.019812">
			<ele>1092.000000</ele>
		<time>2013-05-04T01:32:50Z</time>
		</trkpt>

		<trkpt lat="38.735080" lon="-1.019763">
			<ele>1093.000000</ele>
		<time>2013-05-04T01:32:53Z</time>
		</trkpt>

		<trkpt lat="38.735084" lon="-1.019309">
			<ele>1094.000000</ele>
		<time>2013-05-04T01:32:56Z</time>
		</trkpt>

		<trkpt lat="38.734802" lon="-1.019238">
			<ele>1099.000000</ele>
		<time>2013-05-04T01:32:59Z</time>
		</trkpt>

		<trkpt lat="38.734626" lon="-1.019254">
			<ele>1103.000000</ele>
		<time>2013-05-04T01:33:02Z</time>
		</trkpt>

		<trkpt lat="38.734438" lon="-1.019459">
			<ele>1104.000000</ele>
		<time>2013-05-04T01:33:05Z</time>
		</trkpt>

		<trkpt lat="38.734499" lon="-1.019853">
			<ele>1106.000000</ele>
		<time>2013-05-04T01:33:08Z</time>
		</trkpt>

		<trkpt lat="38.734733" lon="-1.019802">
			<ele>1106.000000</ele>
		<time>2013-05-04T01:33:11Z</time>
		</trkpt>

		<trkpt lat="38.734849" lon="-1.019386">
			<ele>1107.000000</ele>
		<time>2013-05-04T01:33:14Z</time>
		</trkpt>

		<trkpt lat="38.734647" lon="-1.019248">
			<ele>1108.000000</ele>
		<time>2013-05-04T01:33:17Z</time>
		</trkpt>

		<trkpt lat="38.734396" lon="-1.019256">
			<ele>1110.000000</ele>
		<time>2013-05-04T01:33:20Z</time>
		</trkpt>

		<trkpt lat="38.734238" lon="-1.019609">
			<ele>1112.000000</ele>
		<time>2013-05-04T01:33:23Z</time>
		</trkpt>

		<trkpt lat="38.734327" lon="-1.020026">
			<ele>1114.000000</ele>
		<time>2013-05-04T01:33:26Z</time>
		</trkpt>

		<trkpt lat="38.734674" lon="-1.020066">
			<ele>1118.000000</ele>
		<time>2013-05-04T01:33:29Z</time>
		</trkpt>

		<trkpt lat="38.734906" lon="-1.019828">
			<ele>1120.000000</ele>
		<time>2013-05-04T01:33:32Z</time>
		</trkpt>

		<trkpt lat="38.734970" lon="-1.019483">
			<ele>1125.000000</ele>
		<time>2013-05-04T01:33:35Z</time>
		</trkpt>

		<trkpt lat="38.734890" lon="-1.019254">
			<ele>1131.000000</ele>
		<time>2013-05-04T01:33:38Z</time>
		</trkpt>

		<trkpt lat="38.734925" lon="-1.019034">
			<ele>1132.000000</ele>
		<time>2013-05-04T01:33:41Z</time>
		</trkpt>

		<trkpt lat="38.735315" lon="-1.019042">
			<ele>1132.000000</ele>
		<time>2013-05-04T01:33:44Z</time>
		</trkpt>

		<trkpt lat="38.735662" lon="-1.019380">
			<ele>1136.000000</ele>
		<time>2013-05-04T01:33:47Z</time>
		</trkpt>

		<trkpt lat="38.735615" lon="-1.019850">
			<ele>1140.000000</ele>
		<time>2013-05-04T01:33:50Z</time>
		</trkpt>

		<trkpt lat="38.735440" lon="-1.020111">
			<ele>1146.000000</ele>
		<time>2013-05-04T01:33:53Z</time>
		</trkpt>

		<trkpt lat="38.735190" lon="-1.020145">
			<ele>1155.000000</ele>
		<time>2013-05-04T01:33:56Z</time>
		</trkpt>

		<trkpt lat="38.734924" lon="-1.019902">
			<ele>1161.000000</ele>
		<time>2013-05-04T01:33:59Z</time>
		</trkpt>

		<trkpt lat="38.734985" lon="-1.019547">
			<ele>1166.000000</ele>
		<time>2013-05-04T01:34:02Z</time>
		</trkpt>

		<trkpt lat="38.735253" lon="-1.019358">
			<ele>1169.000000</ele>
		<time>2013-05-04T01:34:05Z</time>
		</trkpt>

		<trkpt lat="38.735588" lon="-1.019334">
			<ele>1170.000000</ele>
		<time>2013-05-04T01:34:08Z</time>
		</trkpt>

		<trkpt lat="38.735837" lon="-1.019627">
			<ele>1175.000000</ele>
		<time>2013-05-04T01:34:11Z</time>
		</trkpt>

		<trkpt lat="38.735974" lon="-1.020033">
			<ele>1180.000000</ele>
		<time>2013-05-04T01:34:14Z</time>
		</trkpt>

		<trkpt lat="38.736061" lon="-1.020470">
			<ele>1185.000000</ele>
		<time>2013-05-04T01:34:17Z</time>
		</trkpt>

		<trkpt lat="38.735985" lon="-1.020853">
			<ele>1187.000000</ele>
		<time>2013-05-04T01:34:20Z</time>
		</trkpt>

		<trkpt lat="38.735659" lon="-1.020916">
			<ele>1189.000000</ele>
		<time>2013-05-04T01:34:23Z</time>
		</trkpt>

		<trkpt lat="38.735481" lon="-1.020596">
			<ele>1191.000000</ele>
		<time>2013-05-04T01:34:26Z</time>
		</trkpt>

		<trkpt lat="38.735594" lon="-1.020275">
			<ele>1192.000000</ele>
		<time>2013-05-04T01:34:29Z</time>
		</trkpt>

		<trkpt lat="38.735790" lon="-1.020106">
			<ele>1196.000000</ele>
		<time>2013-05-04T01:34:32Z</time>
		</trkpt>

		<trkpt lat="38.735927" lon="-1.019892">
			<ele>1198.000000</ele>
		<time>2013-05-04T01:34:35Z</time>
		</trkpt>

		<trkpt lat="38.735704" lon="-1.019743">
			<ele>1202.000000</ele>
		<time>2013-05-04T01:34:38Z</time>
		</trkpt>

		<trkpt lat="38.735520" lon="-1.019992">
			<ele>1207.000000</ele>
		<time>2013-05-04T01:34:41Z</time>
		</trkpt>

		<trkpt lat="38.735523" lon="-1.020328">
			<ele>1206.000000</ele>
		<time>2013-05-04T01:34:44Z</time>
		</trkpt>

		<trkpt lat="38.735647" lon="-1.020715">
			<ele>1207.000000</ele>
		<time>2013-05-04T01:34:47Z</time>
		</trkpt>

		<trkpt lat="38.735937" lon="-1.020844">
			<ele>1212.000000</ele>
		<time>2013-05-04T01:34:50Z</time>
		</trkpt>

		<trkpt lat="38.736242" lon="-1.020911">
			<ele>1216.000000</ele>
		<time>2013-05-04T01:34:53Z</time>
		</trkpt>

		<trkpt lat="38.736548" lon="-1.020614">
			<ele>1218.000000</ele>
		<time>2013-05-04T01:34:56Z</time>
		</trkpt>

		<trkpt lat="38.736370" lon="-1.020405">
			<ele>1223.000000</ele>
		<time>2013-05-04T01:34:59Z</time>
		</trkpt>

		<trkpt lat="38.736139" lon="-1.020559">
			<ele>1227.000000</ele>
		<time>2013-05-04T01:35:02Z</time>
		</trkpt>

		<trkpt lat="38.736156" lon="-1.020974">
			<ele>1230.000000</ele>
		<time>2013-05-04T01:35:05Z</time>
		</trkpt>

		<trkpt lat="38.736384" lon="-1.020894">
			<ele>1231.000000</ele>
		<time>2013-05-04T01:35:08Z</time>
		</trkpt>

		<trkpt lat="38.736454" lon="-1.020692">
			<ele>1235.000000</ele>
		<time>2013-05-04T01:35:11Z</time>
		</trkpt>

		<trkpt lat="38.736552" lon="-1.020939">
			<ele>1240.000000</ele>
		<time>2013-05-04T01:35:14Z</time>
		</trkpt>

		<trkpt lat="38.736795" lon="-1.021164">
			<ele>1245.000000</ele>
		<time>2013-05-04T01:35:17Z</time>
		</trkpt>

		<trkpt lat="38.736970" lon="-1.020951">
			<ele>1248.000000</ele>
		<time>2013-05-04T01:35:20Z</time>
		</trkpt>

		<trkpt lat="38.736756" lon="-1.020804">
			<ele>1255.000000</ele>
		<time>2013-05-04T01:35:23Z</time>
		</trkpt>

		<trkpt lat="38.736628" lon="-1.021269">
			<ele>1263.000000</ele>
		<time>2013-05-04T01:35:26Z</time>
		</trkpt>

		<trkpt lat="38.736708" lon="-1.021665">
			<ele>1271.000000</ele>
		<time>2013-05-04T01:35:29Z</time>
		</trkpt>

		<trkpt lat="38.737103" lon="-1.021610">
			<ele>1281.000000</ele>
		<time>2013-05-04T01:35:32Z</time>
		</trkpt>

		<trkpt lat="38.737315" lon="-1.021240">
			<ele>1290.000000</ele>
		<time>2013-05-04T01:35:35Z</time>
		</trkpt>

		<trkpt lat="38.737084" lon="-1.021186">
			<ele>1293.000000</ele>
		<time>2013-05-04T01:35:38Z</time>
		</trkpt>

		<trkpt lat="38.737123" lon="-1.021607">
			<ele>1297.000000</ele>
		<time>2013-05-04T01:35:41Z</time>
		</trkpt>

		<trkpt lat="38.737336" lon="-1.021857">
			<ele>1306.000000</ele>
		<time>2013-05-04T01:35:44Z</time>
		</trkpt>

		<trkpt lat="38.737645" lon="-1.021628">
			<ele>1316.000000</ele>
		<time>2013-05-04T01:35:47Z</time>
		</trkpt>

		<trkpt lat="38.737620" lon="-1.021347">
			<ele>1324.000000</ele>
		<time>2013-05-04T01:35:50Z</time>
		</trkpt>

		<trkpt lat="38.737379" lon="-1.021655">
			<ele>1329.000000</ele>
		<time>2013-05-04T01:35:53Z</time>
		</trkpt>

		<trkpt lat="38.737432" lon="-1.022227">
			<ele>1340.000000</ele>
		<time>2013-05-04T01:35:56Z</time>
		</trkpt>

		<trkpt lat="38.737612" lon="-1.022585">
			<ele>1346.000000</ele>
		<time>2013-05-04T01:35:59Z</time>
		</trkpt>

		<trkpt lat="38.737953" lon="-1.022622">
			<ele>1348.000000</ele>
		<time>2013-05-04T01:36:02Z</time>
		</trkpt>

		<trkpt lat="38.738145" lon="-1.022242">
			<ele>1354.000000</ele>
		<time>2013-05-04T01:36:05Z</time>
		</trkpt>

		<trkpt lat="38.738134" lon="-1.021957">
			<ele>1362.000000</ele>
		<time>2013-05-04T01:36:08Z</time>
		</trkpt>

		<trkpt lat="38.738274" lon="-1.021773">
			<ele>1363.000000</ele>
		<time>2013-05-04T01:36:11Z</time>
		</trkpt>

		<trkpt lat="38.738650" lon="-1.021907">
			<ele>1366.000000</ele>
		<time>2013-05-04T01:36:14Z</time>
		</trkpt>

		<trkpt lat="38.738812" lon="-1.022320">
			<ele>1369.000000</ele>
		<time>2013-05-04T01:36:17Z</time>
		</trkpt>

		<trkpt lat="38.738682" lon="-1.022743">
			<ele>1371.000000</ele>
		<time>2013-05-04T01:36:20Z</time>
		</trkpt>

		<trkpt lat="38.738446" lon="-1.022930">
			<ele>1379.000000</ele>
		<time>2013-05-04T01:36:23Z</time>
		</trkpt>

		<trkpt lat="38.738238" lon="-1.023033">
			<ele>1388.000000</ele>
		<time>2013-05-04T01:36:26Z</time>
		</trkpt>

		<trkpt lat="38.738006" lon="-1.022909">
			<ele>1395.000000</ele>
		<time>2013-05-04T01:36:29Z</time>
		</trkpt>

		<trkpt lat="38.738007" lon="-1.022633">
			<ele>1399.000000</ele>
		<time>2013-05-04T01:36:32Z</time>
		</trkpt>

		<trkpt lat="38.738357" lon="-1.022574">
			<ele>1402.000000</ele>
		<time>2013-05-04T01:36:35Z</time>
		</trkpt>

		<trkpt lat="38.738731" lon="-1.022860">
			<ele>1407.000000</ele>
		<time>2013-05-04T01:36:38Z</time>
		</trkpt>

		<trkpt lat="38.738861" lon="-1.023276">
			<ele>1411.000000</ele>
		<time>2013-05-04T01:36:41Z</time>
		</trkpt>

		<trkpt lat="38.738686" lon="-1.023706">
			<ele>1415.000000</ele>
		<time>2013-05-04T01:36:44Z</time>
		</trkpt>

		<trkpt lat="38.738472" lon="-1.024042">
			<ele>1422.000000</ele>
		<time>2013-05-04T01:36:47Z</time>
		</trkpt>

		<trkpt lat="38.738286" lon="-1.024240">
			<ele>1429.000000</ele>
		<time>2013-05-04T01:36:50Z</time>
		</trkpt>

		<trkpt lat="38.738098" lon="-1.024238">
			<ele>1437.000000</ele>
		<time>2013-05-04T01:36:53Z</time>
		</trkpt>

		<trkpt lat="38.737957" lon="-1.024098">
			<ele>1443.000000</ele>
		<time>2013-05-04T01:36:56Z</time>
		</trkpt>

		<trkpt lat="38.738070" lon="-1.023737">
			<ele>1449.000000</ele>
		<time>2013-05-04T01:36:59Z</time>
		</trkpt>

		<trkpt lat="38.738443" lon="-1.023653">
			<ele>1456.000000</ele>
		<time>2013-05-04T01:37:02Z</time>
		</trkpt>

		<trkpt lat="38.738749" lon="-1.023883">
			<ele>1463.000000</ele>
		<time>2013-05-04T01:37:05Z</time>
		</trkpt>

		<trkpt lat="38.738953" lon="-1.024306">
			<ele>1469.000000</ele>
		<time>2013-05-04T01:37:08Z</time>
		</trkpt>

		<trkpt lat="38.738788" lon="-1.024781">
			<ele>1474.000000</ele>
		<time>2013-05-04T01:37:11Z</time>
		</trkpt>

		<trkpt lat="38.738616" lon="-1.024936">
			<ele>1480.000000</ele>
		<time>2013-05-04T01:37:14Z</time>
		</trkpt>

		<trkpt lat="38.738468" lon="-1.024890">
			<ele>1484.000000</ele>
		<time>2013-05-04T01:37:17Z</time>
		</trkpt>

		<trkpt lat="38.738464" lon="-1.024525">
			<ele>1490.000000</ele>
		<time>2013-05-04T01:37:20Z</time>
		</trkpt>

		<trkpt lat="38.738621" lon="-1.024325">
			<ele>1499.000000</ele>
		<time>2013-05-04T01:37:23Z</time>
		</trkpt>

		<trkpt lat="38.738785" lon="-1.024113">
			<ele>1512.000000</ele>
		<time>2013-05-04T01:37:26Z</time>
		</trkpt>

		<trkpt lat="38.738631" lon="-1.023970">
			<ele>1516.000000</ele>
		<time>2013-05-04T01:37:29Z</time>
		</trkpt>

		<trkpt lat="38.738525" lon="-1.024252">
			<ele>1518.000000</ele>
		<time>2013-05-04T01:37:32Z</time>
		</trkpt>

		<trkpt lat="38.738625" lon="-1.024771">
			<ele>1523.000000</ele>
		<time>2013-05-04T01:37:35Z</time>
		</trkpt>

		<trkpt lat="38.739073" lon="-1.024739">
			<ele>1532.000000</ele>
		<time>2013-05-04T01:37:38Z</time>
		</trkpt>

		<trkpt lat="38.739371" lon="-1.024450">
			<ele>1539.000000</ele>
		<time>2013-05-04T01:37:41Z</time>
		</trkpt>

		<trkpt lat="38.739370" lon="-1.024220">
			<ele>1545.000000</ele>
		<time>2013-05-04T01:37:44Z</time>
		</trkpt>

		<trkpt lat="38.739067" lon="-1.024416">
			<ele>1552.000000</ele>
		<time>2013-05-04T01:37:47Z</time>
		</trkpt>

		<trkpt lat="38.739062" lon="-1.024911">
			<ele>1566.000000</ele>
		<time>2013-05-04T01:37:50Z</time>
		</trkpt>

		<trkpt lat="38.739142" lon="-1.025324">
			<ele>1577.000000</ele>
		<time>2013-05-04T01:37:53Z</time>
		</trkpt>

		<trkpt lat="38.739168" lon="-1.025691">
			<ele>1584.000000</ele>
		<time>2013-05-04T01:37:56Z</time>
		</trkpt>

		<trkpt lat="38.739029" lon="-1.025803">
			<ele>1588.000000</ele>
		<time>2013-05-04T01:37:59Z</time>
		</trkpt>

		<trkpt lat="38.738879" lon="-1.025463">
			<ele>1591.000000</ele>
		<time>2013-05-04T01:38:02Z</time>
		</trkpt>

		<trkpt lat="38.738891" lon="-1.025023">
			<ele>1589.000000</ele>
		<time>2013-05-04T01:38:05Z</time>
		</trkpt>

		<trkpt lat="38.739075" lon="-1.024673">
			<ele>1590.000000</ele>
		<time>2013-05-04T01:38:08Z</time>
		</trkpt>

		<trkpt lat="38.739351" lon="-1.024470">
			<ele>1595.000000</ele>
		<time>2013-05-04T01:38:11Z</time>
		</trkpt>

		<trkpt lat="38.739615" lon="-1.024240">
			<ele>1599.000000</ele>
		<time>2013-05-04T01:38:14Z</time>
		</trkpt>

		<trkpt lat="38.739784" lon="-1.023983">
			<ele>1607.000000</ele>
		<time>2013-05-04T01:38:17Z</time>
		</trkpt>

		<trkpt lat="38.740005" lon="-1.023773">
			<ele>1612.000000</ele>
		<time>2013-05-04T01:38:20Z</time>
		</trkpt>

		<trkpt lat="38.740373" lon="-1.023829">
			<ele>1614.000000</ele>
		<time>2013-05-04T01:38:23Z</time>
		</trkpt>

		<trkpt lat="38.740585" lon="-1.024153">
			<ele>1617.000000</ele>
		<time>2013-05-04T01:38:26Z</time>
		</trkpt>

		<trkpt lat="38.740378" lon="-1.024592">
			<ele>1622.000000</ele>
		<time>2013-05-04T01:38:29Z</time>
		</trkpt>

		<trkpt lat="38.740108" lon="-1.024477">
			<ele>1624.000000</ele>
		<time>2013-05-04T01:38:32Z</time>
		</trkpt>

		<trkpt lat="38.740052" lon="-1.024233">
			<ele>1629.000000</ele>
		<time>2013-05-04T01:38:35Z</time>
		</trkpt>

		<trkpt lat="38.740117" lon="-1.023824">
			<ele>1635.000000</ele>
		<time>2013-05-04T01:38:38Z</time>
		</trkpt>

		<trkpt lat="38.740221" lon="-1.023478">
			<ele>1646.000000</ele>
		<time>2013-05-04T01:38:41Z</time>
		</trkpt>

		<trkpt lat="38.740457" lon="-1.023259">
			<ele>1654.000000</ele>
		<time>2013-05-04T01:38:44Z</time>
		</trkpt>

		<trkpt lat="38.740930" lon="-1.023250">
			<ele>1658.000000</ele>
		<time>2013-05-04T01:38:47Z</time>
		</trkpt>

		<trkpt lat="38.741219" lon="-1.023525">
			<ele>1658.000000</ele>
		<time>2013-05-04T01:38:50Z</time>
		</trkpt>

		<trkpt lat="38.741132" lon="-1.023960">
			<ele>1664.000000</ele>
		<time>2013-05-04T01:38:53Z</time>
		</trkpt>

		<trkpt lat="38.740897" lon="-1.024297">
			<ele>1678.000000</ele>
		<time>2013-05-04T01:38:56Z</time>
		</trkpt>

		<trkpt lat="38.740679" lon="-1.024134">
			<ele>1687.000000</ele>
		<time>2013-05-04T01:38:59Z</time>
		</trkpt>

		<trkpt lat="38.740745" lon="-1.023787">
			<ele>1698.000000</ele>
		<time>2013-05-04T01:39:02Z</time>
		</trkpt>

		<trkpt lat="38.741047" lon="-1.023550">
			<ele>1712.000000</ele>
		<time>2013-05-04T01:39:05Z</time>
		</trkpt>

		<trkpt lat="38.741430" lon="-1.023551">
			<ele>1719.000000</ele>
		<time>2013-05-04T01:39:08Z</time>
		</trkpt>

		<trkpt lat="38.741776" lon="-1.023838">
			<ele>1724.000000</ele>
		<time>2013-05-04T01:39:11Z</time>
		</trkpt>

		<trkpt lat="38.741878" lon="-1.024287">
			<ele>1727.000000</ele>
		<time>2013-05-04T01:39:14Z</time>
		</trkpt>

		<trkpt lat="38.741784" lon="-1.024625">
			<ele>1732.000000</ele>
		<time>2013-05-04T01:39:17Z</time>
		</trkpt>

		<trkpt lat="38.741630" lon="-1.024798">
			<ele>1735.000000</ele>
		<time>2013-05-04T01:39:20Z</time>
		</trkpt>

		<trkpt lat="38.741429" lon="-1.024892">
			<ele>1738.000000</ele>
		<time>2013-05-04T01:39:23Z</time>
		</trkpt>

		<trkpt lat="38.741261" lon="-1.025030">
			<ele>1744.000000</ele>
		<time>2013-05-04T01:39:26Z</time>
		</trkpt>

		<trkpt lat="38.741159" lon="-1.025180">
			<ele>1750.000000</ele>
		<time>2013-05-04T01:39:29Z</time>
		</trkpt>

		<trkpt lat="38.740999" lon="-1.025313">
			<ele>1756.000000</ele>
		<time>2013-05-04T01:39:32Z</time>
		</trkpt>

		<trkpt lat="38.740787" lon="-1.025312">
			<ele>1765.000000</ele>
		<time>2013-05-04T01:39:35Z</time>
		</trkpt>

		<trkpt lat="38.740613" lon="-1.025333">
			<ele>1777.000000</ele>
		<time>2013-05-04T01:39:38Z</time>
		</trkpt>

		<trkpt lat="38.740471" lon="-1.025211">
			<ele>1789.000000</ele>
		<time>2013-05-04T01:39:41Z</time>
		</trkpt>

		<trkpt lat="38.740447" lon="-1.024883">
			<ele>1806.000000</ele>
		<time>2013-05-04T01:39:44Z</time>
		</trkpt>

		<trkpt lat="38.740511" lon="-1.024537">
			<ele>1819.000000</ele>
		<time>2013-05-04T01:39:47Z</time>
		</trkpt>

		<trkpt lat="38.740817" lon="-1.024331">
			<ele>1831.000000</ele>
		<time>2013-05-04T01:39:50Z</time>
		</trkpt>

		<trkpt lat="38.741209" lon="-1.024413">
			<ele>1839.000000</ele>
		<time>2013-05-04T01:39:53Z</time>
		</trkpt>

		<trkpt lat="38.741281" lon="-1.024813">
			<ele>1846.000000</ele>
		<time>2013-05-04T01:39:56Z</time>
		</trkpt>

		<trkpt lat="38.741132" lon="-1.025099">
			<ele>1855.000000</ele>
		<time>2013-05-04T01:39:59Z</time>
		</trkpt>

		<trkpt lat="38.740985" lon="-1.025245">
			<ele>1866.000000</ele>
		<time>2013-05-04T01:40:02Z</time>
		</trkpt>

		<trkpt lat="38.740778" lon="-1.025224">
			<ele>1875.000000</ele>
		<time>2013-05-04T01:40:05Z</time>
		</trkpt>

		<trkpt lat="38.740621" lon="-1.024935">
			<ele>1882.000000</ele>
		<time>2013-05-04T01:40:08Z</time>
		</trkpt>

		<trkpt lat="38.740698" lon="-1.024546">
			<ele>1892.000000</ele>
		<time>2013-05-04T01:40:11Z</time>
		</trkpt>

		<trkpt lat="38.740947" lon="-1.024326">
			<ele>1903.000000</ele>
		<time>2013-05-04T01:40:14Z</time>
		</trkpt>

		<trkpt lat="38.741293" lon="-1.024245">
			<ele>1908.000000</ele>
		<time>2013-05-04T01:40:17Z</time>
		</trkpt>

		<trkpt lat="38.741649" lon="-1.024417">
			<ele>1916.000000</ele>
		<time>2013-05-04T01:40:20Z</time>
		</trkpt>

		<trkpt lat="38.741718" lon="-1.024775">
			<ele>1926.000000</ele>
		<time>2013-05-04T01:40:23Z</time>
		</trkpt>

		<trkpt lat="38.741657" lon="-1.025098">
			<ele>1937.000000</ele>
		<time>2013-05-04T01:40:26Z</time>
		</trkpt>

		<trkpt lat="38.741537" lon="-1.025278">
			<ele>1947.000000</ele>
		<time>2013-05-04T01:40:29Z</time>
		</trkpt>

		<trkpt lat="38.741261" lon="-1.025175">
			<ele>1956.000000</ele>
		<time>2013-05-04T01:40:32Z</time>
		</trkpt>

		<trkpt lat="38.741191" lon="-1.024827">
			<ele>1965.000000</ele>
		<time>2013-05-04T01:40:35Z</time>
		</trkpt>

		<trkpt lat="38.741256" lon="-1.024415">
			<ele>1973.000000</ele>
		<time>2013-05-04T01:40:38Z</time>
		</trkpt>

		<trkpt lat="38.741333" lon="-1.024066">
			<ele>1983.000000</ele>
		<time>2013-05-04T01:40:41Z</time>
		</trkpt>

		<trkpt lat="38.741501" lon="-1.023753">
			<ele>1989.000000</ele>
		<time>2013-05-04T01:40:44Z</time>
		</trkpt>

		<trkpt lat="38.741832" lon="-1.023462">
			<ele>1996.000000</ele>
		<time>2013-05-04T01:40:47Z</time>
		</trkpt>

		<trkpt lat="38.742204" lon="-1.023581">
			<ele>2000.000000</ele>
		<time>2013-05-04T01:40:50Z</time>
		</trkpt>

		<trkpt lat="38.742397" lon="-1.023841">
			<ele>2003.000000</ele>
		<time>2013-05-04T01:40:53Z</time>
		</trkpt>

		<trkpt lat="38.742393" lon="-1.024181">
			<ele>2007.000000</ele>
		<time>2013-05-04T01:40:56Z</time>
		</trkpt>

		<trkpt lat="38.742255" lon="-1.024399">
			<ele>2014.000000</ele>
		<time>2013-05-04T01:40:59Z</time>
		</trkpt>

		<trkpt lat="38.742039" lon="-1.024397">
			<ele>2021.000000</ele>
		<time>2013-05-04T01:41:02Z</time>
		</trkpt>

		<trkpt lat="38.741840" lon="-1.024328">
			<ele>2029.000000</ele>
		<time>2013-05-04T01:41:05Z</time>
		</trkpt>

		<trkpt lat="38.741707" lon="-1.024149">
			<ele>2034.000000</ele>
		<time>2013-05-04T01:41:08Z</time>
		</trkpt>

		<trkpt lat="38.741636" lon="-1.023850">
			<ele>2039.000000</ele>
		<time>2013-05-04T01:41:11Z</time>
		</trkpt>

		<trkpt lat="38.741707" lon="-1.023465">
			<ele>2046.000000</ele>
		<time>2013-05-04T01:41:14Z</time>
		</trkpt>

		<trkpt lat="38.741841" lon="-1.023123">
			<ele>2055.000000</ele>
		<time>2013-05-04T01:41:17Z</time>
		</trkpt>

		<trkpt lat="38.742079" lon="-1.022844">
			<ele>2057.000000</ele>
		<time>2013-05-04T01:41:20Z</time>
		</trkpt>

		<trkpt lat="38.742417" lon="-1.022789">
			<ele>2058.000000</ele>
		<time>2013-05-04T01:41:23Z</time>
		</trkpt>

		<trkpt lat="38.742670" lon="-1.023038">
			<ele>2059.000000</ele>
		<time>2013-05-04T01:41:26Z</time>
		</trkpt>

		<trkpt lat="38.742640" lon="-1.023394">
			<ele>2063.000000</ele>
		<time>2013-05-04T01:41:29Z</time>
		</trkpt>

		<trkpt lat="38.742487" lon="-1.023524">
			<ele>2066.000000</ele>
		<time>2013-05-04T01:41:32Z</time>
		</trkpt>

		<trkpt lat="38.742288" lon="-1.023550">
			<ele>2071.000000</ele>
		<time>2013-05-04T01:41:35Z</time>
		</trkpt>

		<trkpt lat="38.742154" lon="-1.023653">
			<ele>2075.000000</ele>
		<time>2013-05-04T01:41:38Z</time>
		</trkpt>

		<trkpt lat="38.742037" lon="-1.023807">
			<ele>2080.000000</ele>
		<time>2013-05-04T01:41:41Z</time>
		</trkpt>

		<trkpt lat="38.741923" lon="-1.023926">
			<ele>2087.000000</ele>
		<time>2013-05-04T01:41:44Z</time>
		</trkpt>

		<trkpt lat="38.741737" lon="-1.023955">
			<ele>2091.000000</ele>
		<time>2013-05-04T01:41:47Z</time>
		</trkpt>

		<trkpt lat="38.741531" lon="-1.023808">
			<ele>2093.000000</ele>
		<time>2013-05-04T01:41:50Z</time>
		</trkpt>

		<trkpt lat="38.741542" lon="-1.023397">
			<ele>2094.000000</ele>
		<time>2013-05-04T01:41:53Z</time>
		</trkpt>

		<trkpt lat="38.741717" lon="-1.022923">
			<ele>2100.000000</ele>
		<time>2013-05-04T01:41:56Z</time>
		</trkpt>

		<trkpt lat="38.742022" lon="-1.022640">
			<ele>2103.000000</ele>
		<time>2013-05-04T01:41:59Z</time>
		</trkpt>

		<trkpt lat="38.742342" lon="-1.022515">
			<ele>2110.000000</ele>
		<time>2013-05-04T01:42:02Z</time>
		</trkpt>

		<trkpt lat="38.742695" lon="-1.022524">
			<ele>2113.000000</ele>
		<time>2013-05-04T01:42:05Z</time>
		</trkpt>

		<trkpt lat="38.742989" lon="-1.022769">
			<ele>2116.000000</ele>
		<time>2013-05-04T01:42:08Z</time>
		</trkpt>

		<trkpt lat="38.743060" lon="-1.023080">
			<ele>2120.000000</ele>
		<time>2013-05-04T01:42:11Z</time>
		</trkpt>

		<trkpt lat="38.743054" lon="-1.023349">
			<ele>2124.000000</ele>
		<time>2013-05-04T01:42:14Z</time>
		</trkpt>

		<trkpt lat="38.742952" lon="-1.023570">
			<ele>2126.000000</ele>
		<time>2013-05-04T01:42:17Z</time>
		</trkpt>

		<trkpt lat="38.742760" lon="-1.023710">
			<ele>2124.000000</ele>
		<time>2013-05-04T01:42:20Z</time>
		</trkpt>

		<trkpt lat="38.742528" lon="-1.023701">
			<ele>2120.000000</ele>
		<time>2013-05-04T01:42:23Z</time>
		</trkpt>

		<trkpt lat="38.742290" lon="-1.023541">
			<ele>2117.000000</ele>
		<time>2013-05-04T01:42:26Z</time>
		</trkpt>

		<trkpt lat="38.742173" lon="-1.023238">
			<ele>2115.000000</ele>
		<time>2013-05-04T01:42:29Z</time>
		</trkpt>

		<trkpt lat="38.742062" lon="-1.022861">
			<ele>2113.000000</ele>
		<time>2013-05-04T01:42:32Z</time>
		</trkpt>

		<trkpt lat="38.741960" lon="-1.022501">
			<ele>2113.000000</ele>
		<time>2013-05-04T01:42:35Z</time>
		</trkpt>

		<trkpt lat="38.741872" lon="-1.022095">
			<ele>2116.000000</ele>
		<time>2013-05-04T01:42:38Z</time>
		</trkpt>

		<trkpt lat="38.741772" lon="-1.021708">
			<ele>2120.000000</ele>
		<time>2013-05-04T01:42:41Z</time>
		</trkpt>

		<trkpt lat="38.741716" lon="-1.021393">
			<ele>2124.000000</ele>
		<time>2013-05-04T01:42:44Z</time>
		</trkpt>

		<trkpt lat="38.741667" lon="-1.021019">
			<ele>2128.000000</ele>
		<time>2013-05-04T01:42:47Z</time>
		</trkpt>

		<trkpt lat="38.741535" lon="-1.020792">
			<ele>2135.000000</ele>
		<time>2013-05-04T01:42:50Z</time>
		</trkpt>

		<trkpt lat="38.741377" lon="-1.020689">
			<ele>2138.000000</ele>
		<time>2013-05-04T01:42:53Z</time>
		</trkpt>

		<trkpt lat="38.741199" lon="-1.020697">
			<ele>2142.000000</ele>
		<time>2013-05-04T01:42:56Z</time>
		</trkpt>

		<trkpt lat="38.741005" lon="-1.020743">
			<ele>2147.000000</ele>
		<time>2013-05-04T01:42:59Z</time>
		</trkpt>

		<trkpt lat="38.740835" lon="-1.020846">
			<ele>2148.000000</ele>
		<time>2013-05-04T01:43:02Z</time>
		</trkpt>

		<trkpt lat="38.740656" lon="-1.021052">
			<ele>2148.000000</ele>
		<time>2013-05-04T01:43:05Z</time>
		</trkpt>

		<trkpt lat="38.740481" lon="-1.021224">
			<ele>2149.000000</ele>
		<time>2013-05-04T01:43:08Z</time>
		</trkpt>

		<trkpt lat="38.740299" lon="-1.021432">
			<ele>2150.000000</ele>
		<time>2013-05-04T01:43:11Z</time>
		</trkpt>

		<trkpt lat="38.740133" lon="-1.021644">
			<ele>2151.000000</ele>
		<time>2013-05-04T01:43:14Z</time>
		</trkpt>

		<trkpt lat="38.739966" lon="-1.021845">
			<ele>2152.000000</ele>
		<time>2013-05-04T01:43:17Z</time>
		</trkpt>

		<trkpt lat="38.739760" lon="-1.022060">
			<ele>2151.000000</ele>
		<time>2013-05-04T01:43:20Z</time>
		</trkpt>

		<trkpt lat="38.739554" lon="-1.022331">
			<ele>2150.000000</ele>
		<time>2013-05-04T01:43:23Z</time>
		</trkpt>

		<trkpt lat="38.739377" lon="-1.022542">
			<ele>2153.000000</ele>
		<time>2013-05-04T01:43:26Z</time>
		</trkpt>

		<trkpt lat="38.739192" lon="-1.022728">
			<ele>2155.000000</ele>
		<time>2013-05-04T01:43:29Z</time>
		</trkpt>

		<trkpt lat="38.739010" lon="-1.022977">
			<ele>2156.000000</ele>
		<time>2013-05-04T01:43:32Z</time>
		</trkpt>

		<trkpt lat="38.738832" lon="-1.023241">
			<ele>2158.000000</ele>
		<time>2013-05-04T01:43:35Z</time>
		</trkpt>

		<trkpt lat="38.738648" lon="-1.023447">
			<ele>2162.000000</ele>
		<time>2013-05-04T01:43:38Z</time>
		</trkpt>

		<trkpt lat="38.738462" lon="-1.023590">
			<ele>2165.000000</ele>
		<time>2013-05-04T01:43:41Z</time>
		</trkpt>

		<trkpt lat="38.738246" lon="-1.023751">
			<ele>2166.000000</ele>
		<time>2013-05-04T01:43:44Z</time>
		</trkpt>

		<trkpt lat="38.737986" lon="-1.023954">
			<ele>2167.000000</ele>
		<time>2013-05-04T01:43:47Z</time>
		</trkpt>

		<trkpt lat="38.737722" lon="-1.024071">
			<ele>2166.000000</ele>
		<time>2013-05-04T01:43:50Z</time>
		</trkpt>

		<trkpt lat="38.737468" lon="-1.024240">
			<ele>2164.000000</ele>
		<time>2013-05-04T01:43:53Z</time>
		</trkpt>

		<trkpt lat="38.737179" lon="-1.024424">
			<ele>2161.000000</ele>
		<time>2013-05-04T01:43:56Z</time>
		</trkpt>

		<trkpt lat="38.736830" lon="-1.024673">
			<ele>2156.000000</ele>
		<time>2013-05-04T01:43:59Z</time>
		</trkpt>

		<trkpt lat="38.736464" lon="-1.024820">
			<ele>2152.000000</ele>
		<time>2013-05-04T01:44:02Z</time>
		</trkpt>

		<trkpt lat="38.736096" lon="-1.024972">
			<ele>2145.000000</ele>
		<time>2013-05-04T01:44:05Z</time>
		</trkpt>

		<trkpt lat="38.735717" lon="-1.025177">
			<ele>2138.000000</ele>
		<time>2013-05-04T01:44:08Z</time>
		</trkpt>

		<trkpt lat="38.735388" lon="-1.025379">
			<ele>2134.000000</ele>
		<time>2013-05-04T01:44:11Z</time>
		</trkpt>

		<trkpt lat="38.735069" lon="-1.025614">
			<ele>2125.000000</ele>
		<time>2013-05-04T01:44:14Z</time>
		</trkpt>

		<trkpt lat="38.734758" lon="-1.025825">
			<ele>2120.000000</ele>
		<time>2013-05-04T01:44:17Z</time>
		</trkpt>

		<trkpt lat="38.734475" lon="-1.026009">
			<ele>2114.000000</ele>
		<time>2013-05-04T01:44:20Z</time>
		</trkpt>

		<trkpt lat="38.734250" lon="-1.026257">
			<ele>2110.000000</ele>
		<time>2013-05-04T01:44:23Z</time>
		</trkpt>

		<trkpt lat="38.734073" lon="-1.026503">
			<ele>2105.000000</ele>
		<time>2013-05-04T01:44:26Z</time>
		</trkpt>

		<trkpt lat="38.733874" lon="-1.026775">
			<ele>2099.000000</ele>
		<time>2013-05-04T01:44:29Z</time>
		</trkpt>

		<trkpt lat="38.733693" lon="-1.026987">
			<ele>2096.000000</ele>
		<time>2013-05-04T01:44:32Z</time>
		</trkpt>

		<trkpt lat="38.733515" lon="-1.027151">
			<ele>2092.000000</ele>
		<time>2013-05-04T01:44:35Z</time>
		</trkpt>

		<trkpt lat="38.733298" lon="-1.027389">
			<ele>2087.000000</ele>
		<time>2013-05-04T01:44:38Z</time>
		</trkpt>

		<trkpt lat="38.733100" lon="-1.027628">
			<ele>2083.000000</ele>
		<time>2013-05-04T01:44:41Z</time>
		</trkpt>

		<trkpt lat="38.732879" lon="-1.027884">
			<ele>2078.000000</ele>
		<time>2013-05-04T01:44:44Z</time>
		</trkpt>

		<trkpt lat="38.732675" lon="-1.028110">
			<ele>2074.000000</ele>
		<time>2013-05-04T01:44:47Z</time>
		</trkpt>

		<trkpt lat="38.732463" lon="-1.028342">
			<ele>2068.000000</ele>
		<time>2013-05-04T01:44:50Z</time>
		</trkpt>

		<trkpt lat="38.732293" lon="-1.028594">
			<ele>2060.000000</ele>
		<time>2013-05-04T01:44:53Z</time>
		</trkpt>

		<trkpt lat="38.732166" lon="-1.028832">
			<ele>2049.000000</ele>
		<time>2013-05-04T01:44:56Z</time>
		</trkpt>

		<trkpt lat="38.732014" lon="-1.029080">
			<ele>2041.000000</ele>
		<time>2013-05-04T01:44:59Z</time>
		</trkpt>

		<trkpt lat="38.731850" lon="-1.029297">
			<ele>2032.000000</ele>
		<time>2013-05-04T01:45:02Z</time>
		</trkpt>

		<trkpt lat="38.731680" lon="-1.029542">
			<ele>2022.000000</ele>
		<time>2013-05-04T01:45:05Z</time>
		</trkpt>

		<trkpt lat="38.731500" lon="-1.029785">
			<ele>2014.000000</ele>
		<time>2013-05-04T01:45:08Z</time>
		</trkpt>

		<trkpt lat="38.731321" lon="-1.030012">
			<ele>2005.000000</ele>
		<time>2013-05-04T01:45:11Z</time>
		</trkpt>

		<trkpt lat="38.731127" lon="-1.030281">
			<ele>1995.000000</ele>
		<time>2013-05-04T01:45:14Z</time>
		</trkpt>

		<trkpt lat="38.730950" lon="-1.030581">
			<ele>1986.000000</ele>
		<time>2013-05-04T01:45:17Z</time>
		</trkpt>

		<trkpt lat="38.730767" lon="-1.030836">
			<ele>1978.000000</ele>
		<time>2013-05-04T01:45:20Z</time>
		</trkpt>

		<trkpt lat="38.730559" lon="-1.031154">
			<ele>1968.000000</ele>
		<time>2013-05-04T01:45:23Z</time>
		</trkpt>

		<trkpt lat="38.730343" lon="-1.031432">
			<ele>1960.000000</ele>
		<time>2013-05-04T01:45:26Z</time>
		</trkpt>

		<trkpt lat="38.730115" lon="-1.031710">
			<ele>1950.000000</ele>
		<time>2013-05-04T01:45:29Z</time>
		</trkpt>

		<trkpt lat="38.729888" lon="-1.031964">
			<ele>1941.000000</ele>
		<time>2013-05-04T01:45:32Z</time>
		</trkpt>

		<trkpt lat="38.729662" lon="-1.032225">
			<ele>1931.000000</ele>
		<time>2013-05-04T01:45:35Z</time>
		</trkpt>

		<trkpt lat="38.729466" lon="-1.032501">
			<ele>1923.000000</ele>
		<time>2013-05-04T01:45:38Z</time>
		</trkpt>

		<trkpt lat="38.729326" lon="-1.032828">
			<ele>1914.000000</ele>
		<time>2013-05-04T01:45:41Z</time>
		</trkpt>

		<trkpt lat="38.729170" lon="-1.033164">
			<ele>1906.000000</ele>
		<time>2013-05-04T01:45:44Z</time>
		</trkpt>

		<trkpt lat="38.729042" lon="-1.033516">
			<ele>1898.000000</ele>
		<time>2013-05-04T01:45:47Z</time>
		</trkpt>

		<trkpt lat="38.728911" lon="-1.033889">
			<ele>1891.000000</ele>
		<time>2013-05-04T01:45:50Z</time>
		</trkpt>

		<trkpt lat="38.728798" lon="-1.034208">
			<ele>1886.000000</ele>
		<time>2013-05-04T01:45:53Z</time>
		</trkpt>

		<trkpt lat="38.728625" lon="-1.034542">
			<ele>1879.000000</ele>
		<time>2013-05-04T01:45:56Z</time>
		</trkpt>

		<trkpt lat="38.728461" lon="-1.034841">
			<ele>1874.000000</ele>
		<time>2013-05-04T01:45:59Z</time>
		</trkpt>

		<trkpt lat="38.728312" lon="-1.035086">
			<ele>1871.000000</ele>
		<time>2013-05-04T01:46:02Z</time>
		</trkpt>

		<trkpt lat="38.728222" lon="-1.035387">
			<ele>1865.000000</ele>
		<time>2013-05-04T01:46:05Z</time>
		</trkpt>

		<trkpt lat="38.728114" lon="-1.035721">
			<ele>1862.000000</ele>
		<time>2013-05-04T01:46:08Z</time>
		</trkpt>

		<trkpt lat="38.727979" lon="-1.036011">
			<ele>1859.000000</ele>
		<time>2013-05-04T01:46:11Z</time>
		</trkpt>

		<trkpt lat="38.727808" lon="-1.036259">
			<ele>1856.000000</ele>
		<time>2013-05-04T01:46:14Z</time>
		</trkpt>

		<trkpt lat="38.727585" lon="-1.036519">
			<ele>1851.000000</ele>
		<time>2013-05-04T01:46:17Z</time>
		</trkpt>

		<trkpt lat="38.727352" lon="-1.036813">
			<ele>1848.000000</ele>
		<time>2013-05-04T01:46:20Z</time>
		</trkpt>

		<trkpt lat="38.727155" lon="-1.036998">
			<ele>1845.000000</ele>
		<time>2013-05-04T01:46:23Z</time>
		</trkpt>

		<trkpt lat="38.726962" lon="-1.037248">
			<ele>1840.000000</ele>
		<time>2013-05-04T01:46:26Z</time>
		</trkpt>

		<trkpt lat="38.726788" lon="-1.037508">
			<ele>1837.000000</ele>
		<time>2013-05-04T01:46:29Z</time>
		</trkpt>

		<trkpt lat="38.726586" lon="-1.037758">
			<ele>1832.000000</ele>
		<time>2013-05-04T01:46:32Z</time>
		</trkpt>

		<trkpt lat="38.726385" lon="-1.038016">
			<ele>1825.000000</ele>
		<time>2013-05-04T01:46:35Z</time>
		</trkpt>

		<trkpt lat="38.726160" lon="-1.038238">
			<ele>1816.000000</ele>
		<time>2013-05-04T01:46:38Z</time>
		</trkpt>

		<trkpt lat="38.725946" lon="-1.038449">
			<ele>1810.000000</ele>
		<time>2013-05-04T01:46:41Z</time>
		</trkpt>

		<trkpt lat="38.725746" lon="-1.038636">
			<ele>1803.000000</ele>
		<time>2013-05-04T01:46:44Z</time>
		</trkpt>

		<trkpt lat="38.725557" lon="-1.038872">
			<ele>1797.000000</ele>
		<time>2013-05-04T01:46:47Z</time>
		</trkpt>

		<trkpt lat="38.725375" lon="-1.039102">
			<ele>1791.000000</ele>
		<time>2013-05-04T01:46:50Z</time>
		</trkpt>

		<trkpt lat="38.725154" lon="-1.039325">
			<ele>1785.000000</ele>
		<time>2013-05-04T01:46:53Z</time>
		</trkpt>

		<trkpt lat="38.724954" lon="-1.039517">
			<ele>1778.000000</ele>
		<time>2013-05-04T01:46:56Z</time>
		</trkpt>

		<trkpt lat="38.724752" lon="-1.039739">
			<ele>1770.000000</ele>
		<time>2013-05-04T01:46:59Z</time>
		</trkpt>

		<trkpt lat="38.724523" lon="-1.039963">
			<ele>1763.000000</ele>
		<time>2013-05-04T01:47:02Z</time>
		</trkpt>

		<trkpt lat="38.724277" lon="-1.040148">
			<ele>1755.000000</ele>
		<time>2013-05-04T01:47:05Z</time>
		</trkpt>

		<trkpt lat="38.724021" lon="-1.040352">
			<ele>1749.000000</ele>
		<time>2013-05-04T01:47:08Z</time>
		</trkpt>

		<trkpt lat="38.723798" lon="-1.040488">
			<ele>1742.000000</ele>
		<time>2013-05-04T01:47:11Z</time>
		</trkpt>

		<trkpt lat="38.723554" lon="-1.040590">
			<ele>1736.000000</ele>
		<time>2013-05-04T01:47:14Z</time>
		</trkpt>

		<trkpt lat="38.723340" lon="-1.040712">
			<ele>1730.000000</ele>
		<time>2013-05-04T01:47:17Z</time>
		</trkpt>

		<trkpt lat="38.723094" lon="-1.040836">
			<ele>1721.000000</ele>
		<time>2013-05-04T01:47:20Z</time>
		</trkpt>

		<trkpt lat="38.722834" lon="-1.041007">
			<ele>1716.000000</ele>
		<time>2013-05-04T01:47:23Z</time>
		</trkpt>

		<trkpt lat="38.722616" lon="-1.041176">
			<ele>1710.000000</ele>
		<time>2013-05-04T01:47:26Z</time>
		</trkpt>

		<trkpt lat="38.722366" lon="-1.041399">
			<ele>1705.000000</ele>
		<time>2013-05-04T01:47:29Z</time>
		</trkpt>

		<trkpt lat="38.722162" lon="-1.041629">
			<ele>1700.000000</ele>
		<time>2013-05-04T01:47:32Z</time>
		</trkpt>

		<trkpt lat="38.721946" lon="-1.041896">
			<ele>1693.000000</ele>
		<time>2013-05-04T01:47:35Z</time>
		</trkpt>

		<trkpt lat="38.721739" lon="-1.042149">
			<ele>1688.000000</ele>
		<time>2013-05-04T01:47:38Z</time>
		</trkpt>

		<trkpt lat="38.721503" lon="-1.042369">
			<ele>1680.000000</ele>
		<time>2013-05-04T01:47:41Z</time>
		</trkpt>

		<trkpt lat="38.721278" lon="-1.042547">
			<ele>1673.000000</ele>
		<time>2013-05-04T01:47:44Z</time>
		</trkpt>

		<trkpt lat="38.721051" lon="-1.042709">
			<ele>1665.000000</ele>
		<time>2013-05-04T01:47:47Z</time>
		</trkpt>

		<trkpt lat="38.720780" lon="-1.042879">
			<ele>1658.000000</ele>
		<time>2013-05-04T01:47:50Z</time>
		</trkpt>

		<trkpt lat="38.720538" lon="-1.043067">
			<ele>1651.000000</ele>
		<time>2013-05-04T01:47:53Z</time>
		</trkpt>

		<trkpt lat="38.720254" lon="-1.043272">
			<ele>1643.000000</ele>
		<time>2013-05-04T01:47:56Z</time>
		</trkpt>

		<trkpt lat="38.719996" lon="-1.043486">
			<ele>1634.000000</ele>
		<time>2013-05-04T01:47:59Z</time>
		</trkpt>

		<trkpt lat="38.719715" lon="-1.043691">
			<ele>1627.000000</ele>
		<time>2013-05-04T01:48:02Z</time>
		</trkpt>

		<trkpt lat="38.719461" lon="-1.043922">
			<ele>1622.000000</ele>
		<time>2013-05-04T01:48:05Z</time>
		</trkpt>

		<trkpt lat="38.719230" lon="-1.044138">
			<ele>1616.000000</ele>
		<time>2013-05-04T01:48:08Z</time>
		</trkpt>

		<trkpt lat="38.719021" lon="-1.044379">
			<ele>1612.000000</ele>
		<time>2013-05-04T01:48:11Z</time>
		</trkpt>

		<trkpt lat="38.718889" lon="-1.044664">
			<ele>1608.000000</ele>
		<time>2013-05-04T01:48:14Z</time>
		</trkpt>

		<trkpt lat="38.718746" lon="-1.044961">
			<ele>1605.000000</ele>
		<time>2013-05-04T01:48:17Z</time>
		</trkpt>

		<trkpt lat="38.718632" lon="-1.045238">
			<ele>1604.000000</ele>
		<time>2013-05-04T01:48:20Z</time>
		</trkpt>

		<trkpt lat="38.718536" lon="-1.045544">
			<ele>1600.000000</ele>
		<time>2013-05-04T01:48:23Z</time>
		</trkpt>

		<trkpt lat="38.718419" lon="-1.045842">
			<ele>1599.000000</ele>
		<time>2013-05-04T01:48:26Z</time>
		</trkpt>

		<trkpt lat="38.718284" lon="-1.046103">
			<ele>1600.000000</ele>
		<time>2013-05-04T01:48:29Z</time>
		</trkpt>

		<trkpt lat="38.718148" lon="-1.046307">
			<ele>1602.000000</ele>
		<time>2013-05-04T01:48:32Z</time>
		</trkpt>

		<trkpt lat="38.718031" lon="-1.046562">
			<ele>1604.000000</ele>
		<time>2013-05-04T01:48:35Z</time>
		</trkpt>

		<trkpt lat="38.717996" lon="-1.046885">
			<ele>1608.000000</ele>
		<time>2013-05-04T01:48:38Z</time>
		</trkpt>

		<trkpt lat="38.717984" lon="-1.047281">
			<ele>1613.000000</ele>
		<time>2013-05-04T01:48:41Z</time>
		</trkpt>

		<trkpt lat="38.717990" lon="-1.047684">
			<ele>1620.000000</ele>
		<time>2013-05-04T01:48:44Z</time>
		</trkpt>

		<trkpt lat="38.717936" lon="-1.048013">
			<ele>1628.000000</ele>
		<time>2013-05-04T01:48:47Z</time>
		</trkpt>

		<trkpt lat="38.717832" lon="-1.048307">
			<ele>1635.000000</ele>
		<time>2013-05-04T01:48:50Z</time>
		</trkpt>

		<trkpt lat="38.717672" lon="-1.048445">
			<ele>1641.000000</ele>
		<time>2013-05-04T01:48:53Z</time>
		</trkpt>

		<trkpt lat="38.717530" lon="-1.048437">
			<ele>1645.000000</ele>
		<time>2013-05-04T01:48:56Z</time>
		</trkpt>

		<trkpt lat="38.717444" lon="-1.048292">
			<ele>1652.000000</ele>
		<time>2013-05-04T01:48:59Z</time>
		</trkpt>

		<trkpt lat="38.717379" lon="-1.048159">
			<ele>1662.000000</ele>
		<time>2013-05-04T01:49:02Z</time>
		</trkpt>

		<trkpt lat="38.717240" lon="-1.048174">
			<ele>1671.000000</ele>
		<time>2013-05-04T01:49:05Z</time>
		</trkpt>

		<trkpt lat="38.717106" lon="-1.048471">
			<ele>1682.000000</ele>
		<time>2013-05-04T01:49:08Z</time>
		</trkpt>

		<trkpt lat="38.717241" lon="-1.048886">
			<ele>1692.000000</ele>
		<time>2013-05-04T01:49:11Z</time>
		</trkpt>

		<trkpt lat="38.717568" lon="-1.049279">
			<ele>1698.000000</ele>
		<time>2013-05-04T01:49:14Z</time>
		</trkpt>

		<trkpt lat="38.717965" lon="-1.049206">
			<ele>1706.000000</ele>
		<time>2013-05-04T01:49:17Z</time>
		</trkpt>

		<trkpt lat="38.718135" lon="-1.048856">
			<ele>1717.000000</ele>
		<time>2013-05-04T01:49:20Z</time>
		</trkpt>

		<trkpt lat="38.718072" lon="-1.048575">
			<ele>1734.000000</ele>
		<time>2013-05-04T01:49:23Z</time>
		</trkpt>

		<trkpt lat="38.717913" lon="-1.048708">
			<ele>1744.000000</ele>
		<time>2013-05-04T01:49:26Z</time>
		</trkpt>

		<trkpt lat="38.717844" lon="-1.049079">
			<ele>1756.000000</ele>
		<time>2013-05-04T01:49:29Z</time>
		</trkpt>

		<trkpt lat="38.717980" lon="-1.049495">
			<ele>1766.000000</ele>
		<time>2013-05-04T01:49:32Z</time>
		</trkpt>

		<trkpt lat="38.718367" lon="-1.049836">
			<ele>1773.000000</ele>
		<time>2013-05-04T01:49:35Z</time>
		</trkpt>

		<trkpt lat="38.718745" lon="-1.049693">
			<ele>1777.000000</ele>
		<time>2013-05-04T01:49:38Z</time>
		</trkpt>

		<trkpt lat="38.718870" lon="-1.049390">
			<ele>1790.000000</ele>
		<time>2013-05-04T01:49:41Z</time>
		</trkpt>

		<trkpt lat="38.718768" lon="-1.049196">
			<ele>1798.000000</ele>
		<time>2013-05-04T01:49:44Z</time>
		</trkpt>

		<trkpt lat="38.718569" lon="-1.049223">
			<ele>1806.000000</ele>
		<time>2013-05-04T01:49:47Z</time>
		</trkpt>

		<trkpt lat="38.718538" lon="-1.049564">
			<ele>1819.000000</ele>
		<time>2013-05-04T01:49:50Z</time>
		</trkpt>

		<trkpt lat="38.718596" lon="-1.050029">
			<ele>1830.000000</ele>
		<time>2013-05-04T01:49:53Z</time>
		</trkpt>

		<trkpt lat="38.718882" lon="-1.050413">
			<ele>1838.000000</ele>
		<time>2013-05-04T01:49:56Z</time>
		</trkpt>

		<trkpt lat="38.719289" lon="-1.050337">
			<ele>1847.000000</ele>
		<time>2013-05-04T01:49:59Z</time>
		</trkpt>

		<trkpt lat="38.719581" lon="-1.050142">
			<ele>1857.000000</ele>
		<time>2013-05-04T01:50:02Z</time>
		</trkpt>

		<trkpt lat="38.719735" lon="-1.049810">
			<ele>1865.000000</ele>
		<time>2013-05-04T01:50:05Z</time>
		</trkpt>

		<trkpt lat="38.719625" lon="-1.049578">
			<ele>1874.000000</ele>
		<time>2013-05-04T01:50:08Z</time>
		</trkpt>

		<trkpt lat="38.719469" lon="-1.049559">
			<ele>1886.000000</ele>
		<time>2013-05-04T01:50:11Z</time>
		</trkpt>

		<trkpt lat="38.719288" lon="-1.049550">
			<ele>1898.000000</ele>
		<time>2013-05-04T01:50:14Z</time>
		</trkpt>

		<trkpt lat="38.719157" lon="-1.049420">
			<ele>1907.000000</ele>
		<time>2013-05-04T01:50:17Z</time>
		</trkpt>

		<trkpt lat="38.719153" lon="-1.049202">
			<ele>1915.000000</ele>
		<time>2013-05-04T01:50:20Z</time>
		</trkpt>

		<trkpt lat="38.719299" lon="-1.048883">
			<ele>1920.000000</ele>
		<time>2013-05-04T01:50:23Z</time>
		</trkpt>

		<trkpt lat="38.719413" lon="-1.048690">
			<ele>1924.000000</ele>
		<time>2013-05-04T01:50:26Z</time>
		</trkpt>

		<trkpt lat="38.719599" lon="-1.048430">
			<ele>1925.000000</ele>
		<time>2013-05-04T01:50:29Z</time>
		</trkpt>

		<trkpt lat="38.719910" lon="-1.048503">
			<ele>1925.000000</ele>
		<time>2013-05-04T01:50:32Z</time>
		</trkpt>

		<trkpt lat="38.720068" lon="-1.048950">
			<ele>1929.000000</ele>
		<time>2013-05-04T01:50:35Z</time>
		</trkpt>

		<trkpt lat="38.720025" lon="-1.049364">
			<ele>1933.000000</ele>
		<time>2013-05-04T01:50:38Z</time>
		</trkpt>

		<trkpt lat="38.719901" lon="-1.049666">
			<ele>1939.000000</ele>
		<time>2013-05-04T01:50:41Z</time>
		</trkpt>

		<trkpt lat="38.719819" lon="-1.049978">
			<ele>1945.000000</ele>
		<time>2013-05-04T01:50:44Z</time>
		</trkpt>

		<trkpt lat="38.719865" lon="-1.050436">
			<ele>1951.000000</ele>
		<time>2013-05-04T01:50:47Z</time>
		</trkpt>

		<trkpt lat="38.720033" lon="-1.050853">
			<ele>1958.000000</ele>
		<time>2013-05-04T01:50:50Z</time>
		</trkpt>

		<trkpt lat="38.720158" lon="-1.051234">
			<ele>1964.000000</ele>
		<time>2013-05-04T01:50:53Z</time>
		</trkpt>

		<trkpt lat="38.720167" lon="-1.051644">
			<ele>1969.000000</ele>
		<time>2013-05-04T01:50:56Z</time>
		</trkpt>

		<trkpt lat="38.719999" lon="-1.051814">
			<ele>1975.000000</ele>
		<time>2013-05-04T01:50:59Z</time>
		</trkpt>

		<trkpt lat="38.719842" lon="-1.051710">
			<ele>1981.000000</ele>
		<time>2013-05-04T01:51:02Z</time>
		</trkpt>

		<trkpt lat="38.719880" lon="-1.051465">
			<ele>1984.000000</ele>
		<time>2013-05-04T01:51:05Z</time>
		</trkpt>

		<trkpt lat="38.720167" lon="-1.051273">
			<ele>1987.000000</ele>
		<time>2013-05-04T01:51:08Z</time>
		</trkpt>

		<trkpt lat="38.720587" lon="-1.051231">
			<ele>1994.000000</ele>
		<time>2013-05-04T01:51:11Z</time>
		</trkpt>

		<trkpt lat="38.720936" lon="-1.051450">
			<ele>2001.000000</ele>
		<time>2013-05-04T01:51:14Z</time>
		</trkpt>

		<trkpt lat="38.721148" lon="-1.051907">
			<ele>2006.000000</ele>
		<time>2013-05-04T01:51:17Z</time>
		</trkpt>

		<trkpt lat="38.721259" lon="-1.052341">
			<ele>2013.000000</ele>
		<time>2013-05-04T01:51:20Z</time>
		</trkpt>

		<trkpt lat="38.721265" lon="-1.052678">
			<ele>2017.000000</ele>
		<time>2013-05-04T01:51:23Z</time>
		</trkpt>

		<trkpt lat="38.721129" lon="-1.053002">
			<ele>2024.000000</ele>
		<time>2013-05-04T01:51:26Z</time>
		</trkpt>

		<trkpt lat="38.720962" lon="-1.053165">
			<ele>2031.000000</ele>
		<time>2013-05-04T01:51:29Z</time>
		</trkpt>

		<trkpt lat="38.720759" lon="-1.053163">
			<ele>2035.000000</ele>
		<time>2013-05-04T01:51:32Z</time>
		</trkpt>

		<trkpt lat="38.720668" lon="-1.052999">
			<ele>2040.000000</ele>
		<time>2013-05-04T01:51:35Z</time>
		</trkpt>

		<trkpt lat="38.720619" lon="-1.052836">
			<ele>2045.000000</ele>
		<time>2013-05-04T01:51:38Z</time>
		</trkpt>

		<trkpt lat="38.720836" lon="-1.052555">
			<ele>2051.000000</ele>
		<time>2013-05-04T01:51:41Z</time>
		</trkpt>

		<trkpt lat="38.721308" lon="-1.052625">
			<ele>2056.000000</ele>
		<time>2013-05-04T01:51:44Z</time>
		</trkpt>

		<trkpt lat="38.721570" lon="-1.053083">
			<ele>2064.000000</ele>
		<time>2013-05-04T01:51:47Z</time>
		</trkpt>

		<trkpt lat="38.721516" lon="-1.053562">
			<ele>2074.000000</ele>
		<time>2013-05-04T01:51:50Z</time>
		</trkpt>

		<trkpt lat="38.721339" lon="-1.053873">
			<ele>2081.000000</ele>
		<time>2013-05-04T01:51:53Z</time>
		</trkpt>

		<trkpt lat="38.721102" lon="-1.053852">
			<ele>2087.000000</ele>
		<time>2013-05-04T01:51:56Z</time>
		</trkpt>

		<trkpt lat="38.721176" lon="-1.053565">
			<ele>2097.000000</ele>
		<time>2013-05-04T01:51:59Z</time>
		</trkpt>

		<trkpt lat="38.721397" lon="-1.053309">
			<ele>2104.000000</ele>
		<time>2013-05-04T01:52:02Z</time>
		</trkpt>

		<trkpt lat="38.721829" lon="-1.053355">
			<ele>2111.000000</ele>
		<time>2013-05-04T01:52:05Z</time>
		</trkpt>

		<trkpt lat="38.722142" lon="-1.053789">
			<ele>2115.000000</ele>
		<time>2013-05-04T01:52:08Z</time>
		</trkpt>

		<trkpt lat="38.722180" lon="-1.054315">
			<ele>2126.000000</ele>
		<time>2013-05-04T01:52:11Z</time>
		</trkpt>

		<trkpt lat="38.722082" lon="-1.054642">
			<ele>2136.000000</ele>
		<time>2013-05-04T01:52:14Z</time>
		</trkpt>

		<trkpt lat="38.721827" lon="-1.054724">
			<ele>2142.000000</ele>
		<time>2013-05-04T01:52:17Z</time>
		</trkpt>

		<trkpt lat="38.721736" lon="-1.054515">
			<ele>2149.000000</ele>
		<time>2013-05-04T01:52:20Z</time>
		</trkpt>

		<trkpt lat="38.721778" lon="-1.054313">
			<ele>2158.000000</ele>
		<time>2013-05-04T01:52:23Z</time>
		</trkpt>

		<trkpt lat="38.721922" lon="-1.054059">
			<ele>2164.000000</ele>
		<time>2013-05-04T01:52:26Z</time>
		</trkpt>

		<trkpt lat="38.722346" lon="-1.054009">
			<ele>2169.000000</ele>
		<time>2013-05-04T01:52:29Z</time>
		</trkpt>

		<trkpt lat="38.722768" lon="-1.054332">
			<ele>2176.000000</ele>
		<time>2013-05-04T01:52:32Z</time>
		</trkpt>

		<trkpt lat="38.722873" lon="-1.054816">
			<ele>2183.000000</ele>
		<time>2013-05-04T01:52:35Z</time>
		</trkpt>

		<trkpt lat="38.722788" lon="-1.055231">
			<ele>2188.000000</ele>
		<time>2013-05-04T01:52:38Z</time>
		</trkpt>

		<trkpt lat="38.722614" lon="-1.055350">
			<ele>2197.000000</ele>
		<time>2013-05-04T01:52:41Z</time>
		</trkpt>

		<trkpt lat="38.722447" lon="-1.055314">
			<ele>2205.000000</ele>
		<time>2013-05-04T01:52:44Z</time>
		</trkpt>

		<trkpt lat="38.722378" lon="-1.055098">
			<ele>2213.000000</ele>
		<time>2013-05-04T01:52:47Z</time>
		</trkpt>

		<trkpt lat="38.722509" lon="-1.054840">
			<ele>2219.000000</ele>
		<time>2013-05-04T01:52:50Z</time>
		</trkpt>

		<trkpt lat="38.722822" lon="-1.054672">
			<ele>2221.000000</ele>
		<time>2013-05-04T01:52:53Z</time>
		</trkpt>

		<trkpt lat="38.723312" lon="-1.054884">
			<ele>2225.000000</ele>
		<time>2013-05-04T01:52:56Z</time>
		</trkpt>

		<trkpt lat="38.723555" lon="-1.055305">
			<ele>2232.000000</ele>
		<time>2013-05-04T01:52:59Z</time>
		</trkpt>

		<trkpt lat="38.723701" lon="-1.055658">
			<ele>2240.000000</ele>
		<time>2013-05-04T01:53:02Z</time>
		</trkpt>

		<trkpt lat="38.723769" lon="-1.056072">
			<ele>2246.000000</ele>
		<time>2013-05-04T01:53:05Z</time>
		</trkpt>

		<trkpt lat="38.723715" lon="-1.056391">
			<ele>2252.000000</ele>
		<time>2013-05-04T01:53:08Z</time>
		</trkpt>

		<trkpt lat="38.723592" lon="-1.056586">
			<ele>2257.000000</ele>
		<time>2013-05-04T01:53:11Z</time>
		</trkpt>

		<trkpt lat="38.723421" lon="-1.056640">
			<ele>2259.000000</ele>
		<time>2013-05-04T01:53:14Z</time>
		</trkpt>

		<trkpt lat="38.723251" lon="-1.056515">
			<ele>2261.000000</ele>
		<time>2013-05-04T01:53:17Z</time>
		</trkpt>

		<trkpt lat="38.723213" lon="-1.056297">
			<ele>2263.000000</ele>
		<time>2013-05-04T01:53:20Z</time>
		</trkpt>

		<trkpt lat="38.723356" lon="-1.056044">
			<ele>2262.000000</ele>
		<time>2013-05-04T01:53:23Z</time>
		</trkpt>

		<trkpt lat="38.723620" lon="-1.055840">
			<ele>2263.000000</ele>
		<time>2013-05-04T01:53:26Z</time>
		</trkpt>

		<trkpt lat="38.724093" lon="-1.055948">
			<ele>2264.000000</ele>
		<time>2013-05-04T01:53:29Z</time>
		</trkpt>

		<trkpt lat="38.724469" lon="-1.056210">
			<ele>2270.000000</ele>
		<time>2013-05-04T01:53:32Z</time>
		</trkpt>

		<trkpt lat="38.724688" lon="-1.056552">
			<ele>2277.000000</ele>
		<time>2013-05-04T01:53:35Z</time>
		</trkpt>

		<trkpt lat="38.724949" lon="-1.056892">
			<ele>2280.000000</ele>
		<time>2013-05-04T01:53:38Z</time>
		</trkpt>

		<trkpt lat="38.725169" lon="-1.057244">
			<ele>2282.000000</ele>
		<time>2013-05-04T01:53:41Z</time>
		</trkpt>

		<trkpt lat="38.725264" lon="-1.057641">
			<ele>2283.000000</ele>
		<time>2013-05-04T01:53:44Z</time>
		</trkpt>

		<trkpt lat="38.725285" lon="-1.058019">
			<ele>2283.000000</ele>
		<time>2013-05-04T01:53:47Z</time>
		</trkpt>

		<trkpt lat="38.725228" lon="-1.058368">
			<ele>2282.000000</ele>
		<time>2013-05-04T01:53:50Z</time>
		</trkpt>

		<trkpt lat="38.725082" lon="-1.058727">
			<ele>2281.000000</ele>
		<time>2013-05-04T01:53:53Z</time>
		</trkpt>

		<trkpt lat="38.724970" lon="-1.059082">
			<ele>2280.000000</ele>
		<time>2013-05-04T01:53:56Z</time>
		</trkpt>

		<trkpt lat="38.724834" lon="-1.059431">
			<ele>2280.000000</ele>
		<time>2013-05-04T01:53:59Z</time>
		</trkpt>

		<trkpt lat="38.724659" lon="-1.059726">
			<ele>2282.000000</ele>
		<time>2013-05-04T01:54:02Z</time>
		</trkpt>

		<trkpt lat="38.724485" lon="-1.059924">
			<ele>2284.000000</ele>
		<time>2013-05-04T01:54:05Z</time>
		</trkpt>

		<trkpt lat="38.724309" lon="-1.060084">
			<ele>2285.000000</ele>
		<time>2013-05-04T01:54:08Z</time>
		</trkpt>

		<trkpt lat="38.724108" lon="-1.060243">
			<ele>2287.000000</ele>
		<time>2013-05-04T01:54:11Z</time>
		</trkpt>

		<trkpt lat="38.723930" lon="-1.060424">
			<ele>2289.000000</ele>
		<time>2013-05-04T01:54:14Z</time>
		</trkpt>

		<trkpt lat="38.723746" lon="-1.060633">
			<ele>2290.000000</ele>
		<time>2013-05-04T01:54:17Z</time>
		</trkpt>

		<trkpt lat="38.723573" lon="-1.060891">
			<ele>2292.000000</ele>
		<time>2013-05-04T01:54:20Z</time>
		</trkpt>

		<trkpt lat="38.723418" lon="-1.061205">
			<ele>2294.000000</ele>
		<time>2013-05-04T01:54:23Z</time>
		</trkpt>

		<trkpt lat="38.723272" lon="-1.061510">
			<ele>2295.000000</ele>
		<time>2013-05-04T01:54:26Z</time>
		</trkpt>

		<trkpt lat="38.723170" lon="-1.061905">
			<ele>2295.000000</ele>
		<time>2013-05-04T01:54:29Z</time>
		</trkpt>

		<trkpt lat="38.723140" lon="-1.062350">
			<ele>2294.000000</ele>
		<time>2013-05-04T01:54:32Z</time>
		</trkpt>

		<trkpt lat="38.723002" lon="-1.062752">
			<ele>2290.000000</ele>
		<time>2013-05-04T01:54:35Z</time>
		</trkpt>

		<trkpt lat="38.722770" lon="-1.063073">
			<ele>2286.000000</ele>
		<time>2013-05-04T01:54:38Z</time>
		</trkpt>

		<trkpt lat="38.722545" lon="-1.063403">
			<ele>2279.000000</ele>
		<time>2013-05-04T01:54:41Z</time>
		</trkpt>

		<trkpt lat="38.722341" lon="-1.063817">
			<ele>2273.000000</ele>
		<time>2013-05-04T01:54:44Z</time>
		</trkpt>

		<trkpt lat="38.722191" lon="-1.064211">
			<ele>2269.000000</ele>
		<time>2013-05-04T01:54:47Z</time>
		</trkpt>

		<trkpt lat="38.722046" lon="-1.064651">
			<ele>2264.000000</ele>
		<time>2013-05-04T01:54:50Z</time>
		</trkpt>

		<trkpt lat="38.721913" lon="-1.065053">
			<ele>2262.000000</ele>
		<time>2013-05-04T01:54:53Z</time>
		</trkpt>

		<trkpt lat="38.721763" lon="-1.065410">
			<ele>2259.000000</ele>
		<time>2013-05-04T01:54:56Z</time>
		</trkpt>

		<trkpt lat="38.721561" lon="-1.065777">
			<ele>2257.000000</ele>
		<time>2013-05-04T01:54:59Z</time>
		</trkpt>

		<trkpt lat="38.721345" lon="-1.066098">
			<ele>2255.000000</ele>
		<time>2013-05-04T01:55:02Z</time>
		</trkpt>

		<trkpt lat="38.721167" lon="-1.066366">
			<ele>2251.000000</ele>
		<time>2013-05-04T01:55:05Z</time>
		</trkpt>

		<trkpt lat="38.720950" lon="-1.066580">
			<ele>2246.000000</ele>
		<time>2013-05-04T01:55:08Z</time>
		</trkpt>

		<trkpt lat="38.720731" lon="-1.066775">
			<ele>2244.000000</ele>
		<time>2013-05-04T01:55:11Z</time>
		</trkpt>

		<trkpt lat="38.720532" lon="-1.066951">
			<ele>2241.000000</ele>
		<time>2013-05-04T01:55:14Z</time>
		</trkpt>

		<trkpt lat="38.720307" lon="-1.067162">
			<ele>2238.000000</ele>
		<time>2013-05-04T01:55:17Z</time>
		</trkpt>

		<trkpt lat="38.720101" lon="-1.067365">
			<ele>2236.000000</ele>
		<time>2013-05-04T01:55:20Z</time>
		</trkpt>

		<trkpt lat="38.719891" lon="-1.067584">
			<ele>2233.000000</ele>
		<time>2013-05-04T01:55:23Z</time>
		</trkpt>

		<trkpt lat="38.719677" lon="-1.067776">
			<ele>2228.000000</ele>
		<time>2013-05-04T01:55:26Z</time>
		</trkpt>

		<trkpt lat="38.719460" lon="-1.067981">
			<ele>2224.000000</ele>
		<time>2013-05-04T01:55:29Z</time>
		</trkpt>

		<trkpt lat="38.719237" lon="-1.068171">
			<ele>2221.000000</ele>
		<time>2013-05-04T01:55:32Z</time>
		</trkpt>

		<trkpt lat="38.719066" lon="-1.068358">
			<ele>2218.000000</ele>
		<time>2013-05-04T01:55:35Z</time>
		</trkpt>

		<trkpt lat="38.718867" lon="-1.068594">
			<ele>2214.000000</ele>
		<time>2013-05-04T01:55:38Z</time>
		</trkpt>

		<trkpt lat="38.718691" lon="-1.068809">
			<ele>2213.000000</ele>
		<time>2013-05-04T01:55:41Z</time>
		</trkpt>

		<trkpt lat="38.718517" lon="-1.069034">
			<ele>2212.000000</ele>
		<time>2013-05-04T01:55:44Z</time>
		</trkpt>

		<trkpt lat="38.718352" lon="-1.069243">
			<ele>2210.000000</ele>
		<time>2013-05-04T01:55:47Z</time>
		</trkpt>

		<trkpt lat="38.718140" lon="-1.069501">
			<ele>2208.000000</ele>
		<time>2013-05-04T01:55:50Z</time>
		</trkpt>

		<trkpt lat="38.717872" lon="-1.069615">
			<ele>2203.000000</ele>
		<time>2013-05-04T01:55:53Z</time>
		</trkpt>

		<trkpt lat="38.717592" lon="-1.069711">
			<ele>2198.000000</ele>
		<time>2013-05-04T01:55:56Z</time>
		</trkpt>

		<trkpt lat="38.717290" lon="-1.069844">
			<ele>2192.000000</ele>
		<time>2013-05-04T01:55:59Z</time>
		</trkpt>

		<trkpt lat="38.717027" lon="-1.069952">
			<ele>2188.000000</ele>
		<time>2013-05-04T01:56:02Z</time>
		</trkpt>

		<trkpt lat="38.716781" lon="-1.070067">
			<ele>2184.000000</ele>
		<time>2013-05-04T01:56:05Z</time>
		</trkpt>

		<trkpt lat="38.716511" lon="-1.070245">
			<ele>2180.000000</ele>
		<time>2013-05-04T01:56:08Z</time>
		</trkpt>

		<trkpt lat="38.716298" lon="-1.070356">
			<ele>2175.000000</ele>
		<time>2013-05-04T01:56:11Z</time>
		</trkpt>

		<trkpt lat="38.716066" lon="-1.070512">
			<ele>2168.000000</ele>
		<time>2013-05-04T01:56:14Z</time>
		</trkpt>

		<trkpt lat="38.715904" lon="-1.070747">
			<ele>2163.000000</ele>
		<time>2013-05-04T01:56:17Z</time>
		</trkpt>

		<trkpt lat="38.715773" lon="-1.071001">
			<ele>2156.000000</ele>
		<time>2013-05-04T01:56:20Z</time>
		</trkpt>

		<trkpt lat="38.715651" lon="-1.071312">
			<ele>2149.000000</ele>
		<time>2013-05-04T01:56:23Z</time>
		</trkpt>

		<trkpt lat="38.715499" lon="-1.071539">
			<ele>2143.000000</ele>
		<time>2013-05-04T01:56:26Z</time>
		</trkpt>

		<trkpt lat="38.715290" lon="-1.071765">
			<ele>2136.000000</ele>
		<time>2013-05-04T01:56:29Z</time>
		</trkpt>

		<trkpt lat="38.715093" lon="-1.071964">
			<ele>2132.000000</ele>
		<time>2013-05-04T01:56:32Z</time>
		</trkpt>

		<trkpt lat="38.714955" lon="-1.072204">
			<ele>2126.000000</ele>
		<time>2013-05-04T01:56:35Z</time>
		</trkpt>

		<trkpt lat="38.714804" lon="-1.072489">
			<ele>2121.000000</ele>
		<time>2013-05-04T01:56:38Z</time>
		</trkpt>

		<trkpt lat="38.714674" lon="-1.072763">
			<ele>2117.000000</ele>
		<time>2013-05-04T01:56:41Z</time>
		</trkpt>

		<trkpt lat="38.714534" lon="-1.073101">
			<ele>2112.000000</ele>
		<time>2013-05-04T01:56:44Z</time>
		</trkpt>

		<trkpt lat="38.714406" lon="-1.073384">
			<ele>2110.000000</ele>
		<time>2013-05-04T01:56:47Z</time>
		</trkpt>

		<trkpt lat="38.714269" lon="-1.073676">
			<ele>2105.000000</ele>
		<time>2013-05-04T01:56:50Z</time>
		</trkpt>

		<trkpt lat="38.714122" lon="-1.074010">
			<ele>2101.000000</ele>
		<time>2013-05-04T01:56:53Z</time>
		</trkpt>

		<trkpt lat="38.713983" lon="-1.074273">
			<ele>2097.000000</ele>
		<time>2013-05-04T01:56:56Z</time>
		</trkpt>

		<trkpt lat="38.713846" lon="-1.074538">
			<ele>2094.000000</ele>
		<time>2013-05-04T01:56:59Z</time>
		</trkpt>

		<trkpt lat="38.713747" lon="-1.074775">
			<ele>2094.000000</ele>
		<time>2013-05-04T01:57:02Z</time>
		</trkpt>

		<trkpt lat="38.713690" lon="-1.074999">
			<ele>2094.000000</ele>
		<time>2013-05-04T01:57:05Z</time>
		</trkpt>

		<trkpt lat="38.713654" lon="-1.075251">
			<ele>2094.000000</ele>
		<time>2013-05-04T01:57:08Z</time>
		</trkpt>

		<trkpt lat="38.713605" lon="-1.075478">
			<ele>2095.000000</ele>
		<time>2013-05-04T01:57:11Z</time>
		</trkpt>

		<trkpt lat="38.713528" lon="-1.075706">
			<ele>2096.000000</ele>
		<time>2013-05-04T01:57:14Z</time>
		</trkpt>

		<trkpt lat="38.713460" lon="-1.075909">
			<ele>2098.000000</ele>
		<time>2013-05-04T01:57:17Z</time>
		</trkpt>

		<trkpt lat="38.713386" lon="-1.076139">
			<ele>2100.000000</ele>
		<time>2013-05-04T01:57:20Z</time>
		</trkpt>

		<trkpt lat="38.713306" lon="-1.076373">
			<ele>2101.000000</ele>
		<time>2013-05-04T01:57:23Z</time>
		</trkpt>

		<trkpt lat="38.713191" lon="-1.076601">
			<ele>2103.000000</ele>
		<time>2013-05-04T01:57:26Z</time>
		</trkpt>

		<trkpt lat="38.713077" lon="-1.076806">
			<ele>2104.000000</ele>
		<time>2013-05-04T01:57:29Z</time>
		</trkpt>

		<trkpt lat="38.712949" lon="-1.077020">
			<ele>2105.000000</ele>
		<time>2013-05-04T01:57:32Z</time>
		</trkpt>

		<trkpt lat="38.712826" lon="-1.077220">
			<ele>2105.000000</ele>
		<time>2013-05-04T01:57:35Z</time>
		</trkpt>

		<trkpt lat="38.712674" lon="-1.077417">
			<ele>2105.000000</ele>
		<time>2013-05-04T01:57:38Z</time>
		</trkpt>

		<trkpt lat="38.712502" lon="-1.077631">
			<ele>2105.000000</ele>
		<time>2013-05-04T01:57:41Z</time>
		</trkpt>

		<trkpt lat="38.712339" lon="-1.077830">
			<ele>2106.000000</ele>
		<time>2013-05-04T01:57:44Z</time>
		</trkpt>

		<trkpt lat="38.712139" lon="-1.078011">
			<ele>2106.000000</ele>
		<time>2013-05-04T01:57:47Z</time>
		</trkpt>

		<trkpt lat="38.711971" lon="-1.078173">
			<ele>2108.000000</ele>
		<time>2013-05-04T01:57:50Z</time>
		</trkpt>

		<trkpt lat="38.711811" lon="-1.078361">
			<ele>2108.000000</ele>
		<time>2013-05-04T01:57:53Z</time>
		</trkpt>

		<trkpt lat="38.711605" lon="-1.078529">
			<ele>2110.000000</ele>
		<time>2013-05-04T01:57:56Z</time>
		</trkpt>

		<trkpt lat="38.711414" lon="-1.078754">
			<ele>2112.000000</ele>
		<time>2013-05-04T01:57:59Z</time>
		</trkpt>

		<trkpt lat="38.711255" lon="-1.079005">
			<ele>2114.000000</ele>
		<time>2013-05-04T01:58:02Z</time>
		</trkpt>

		<trkpt lat="38.711111" lon="-1.079251">
			<ele>2117.000000</ele>
		<time>2013-05-04T01:58:05Z</time>
		</trkpt>

		<trkpt lat="38.710991" lon="-1.079482">
			<ele>2119.000000</ele>
		<time>2013-05-04T01:58:08Z</time>
		</trkpt>

		<trkpt lat="38.710928" lon="-1.079682">
			<ele>2121.000000</ele>
		<time>2013-05-04T01:58:11Z</time>
		</trkpt>

		<trkpt lat="38.710801" lon="-1.079870">
			<ele>2122.000000</ele>
		<time>2013-05-04T01:58:14Z</time>
		</trkpt>

		<trkpt lat="38.710715" lon="-1.080106">
			<ele>2123.000000</ele>
		<time>2013-05-04T01:58:17Z</time>
		</trkpt>

		<trkpt lat="38.710682" lon="-1.080387">
			<ele>2124.000000</ele>
		<time>2013-05-04T01:58:20Z</time>
		</trkpt>

		<trkpt lat="38.710678" lon="-1.080698">
			<ele>2125.000000</ele>
		<time>2013-05-04T01:58:23Z</time>
		</trkpt>

		<trkpt lat="38.710693" lon="-1.081012">
			<ele>2127.000000</ele>
		<time>2013-05-04T01:58:26Z</time>
		</trkpt>

		<trkpt lat="38.710743" lon="-1.081339">
			<ele>2130.000000</ele>
		<time>2013-05-04T01:58:29Z</time>
		</trkpt>

		<trkpt lat="38.710860" lon="-1.081651">
			<ele>2132.000000</ele>
		<time>2013-05-04T01:58:32Z</time>
		</trkpt>

		<trkpt lat="38.711062" lon="-1.081910">
			<ele>2133.000000</ele>
		<time>2013-05-04T01:58:35Z</time>
		</trkpt>

		<trkpt lat="38.711305" lon="-1.082072">
			<ele>2135.000000</ele>
		<time>2013-05-04T01:58:38Z</time>
		</trkpt>

		<trkpt lat="38.711603" lon="-1.082154">
			<ele>2134.000000</ele>
		<time>2013-05-04T01:58:41Z</time>
		</trkpt>

		<trkpt lat="38.711906" lon="-1.082041">
			<ele>2133.000000</ele>
		<time>2013-05-04T01:58:44Z</time>
		</trkpt>

		<trkpt lat="38.712130" lon="-1.081704">
			<ele>2133.000000</ele>
		<time>2013-05-04T01:58:47Z</time>
		</trkpt>

		<trkpt lat="38.712184" lon="-1.081261">
			<ele>2135.000000</ele>
		<time>2013-05-04T01:58:50Z</time>
		</trkpt>

		<trkpt lat="38.712060" lon="-1.080896">
			<ele>2137.000000</ele>
		<time>2013-05-04T01:58:53Z</time>
		</trkpt>

		<trkpt lat="38.711808" lon="-1.080717">
			<ele>2136.000000</ele>
		<time>2013-05-04T01:58:56Z</time>
		</trkpt>

		<trkpt lat="38.711524" lon="-1.080747">
			<ele>2138.000000</ele>
		<time>2013-05-04T01:58:59Z</time>
		</trkpt>

		<trkpt lat="38.711297" lon="-1.080827">
			<ele>2140.000000</ele>
		<time>2013-05-04T01:59:02Z</time>
		</trkpt>

		<trkpt lat="38.711047" lon="-1.080902">
			<ele>2140.000000</ele>
		<time>2013-05-04T01:59:05Z</time>
		</trkpt>

		<trkpt lat="38.710873" lon="-1.080999">
			<ele>2143.000000</ele>
		<time>2013-05-04T01:59:08Z</time>
		</trkpt>

		<trkpt lat="38.710682" lon="-1.081081">
			<ele>2143.000000</ele>
		<time>2013-05-04T01:59:11Z</time>
		</trkpt>

		<trkpt lat="38.710541" lon="-1.081326">
			<ele>2142.000000</ele>
		<time>2013-05-04T01:59:14Z</time>
		</trkpt>

		<trkpt lat="38.710497" lon="-1.081627">
			<ele>2144.000000</ele>
		<time>2013-05-04T01:59:17Z</time>
		</trkpt>

		<trkpt lat="38.710557" lon="-1.081984">
			<ele>2145.000000</ele>
		<time>2013-05-04T01:59:20Z</time>
		</trkpt>

		<trkpt lat="38.710689" lon="-1.082296">
			<ele>2147.000000</ele>
		<time>2013-05-04T01:59:23Z</time>
		</trkpt>

		<trkpt lat="38.710830" lon="-1.082596">
			<ele>2146.000000</ele>
		<time>2013-05-04T01:59:26Z</time>
		</trkpt>

		<trkpt lat="38.710838" lon="-1.082922">
			<ele>2145.000000</ele>
		<time>2013-05-04T01:59:29Z</time>
		</trkpt>

		<trkpt lat="38.710857" lon="-1.083241">
			<ele>2144.000000</ele>
		<time>2013-05-04T01:59:32Z</time>
		</trkpt>

		<trkpt lat="38.710965" lon="-1.083557">
			<ele>2141.000000</ele>
		<time>2013-05-04T01:59:35Z</time>
		</trkpt>

		<trkpt lat="38.711177" lon="-1.083765">
			<ele>2137.000000</ele>
		<time>2013-05-04T01:59:38Z</time>
		</trkpt>

		<trkpt lat="38.711430" lon="-1.083886">
			<ele>2134.000000</ele>
		<time>2013-05-04T01:59:41Z</time>
		</trkpt>

		<trkpt lat="38.711723" lon="-1.083939">
			<ele>2130.000000</ele>
		<time>2013-05-04T01:59:44Z</time>
		</trkpt>

		<trkpt lat="38.712005" lon="-1.083930">
			<ele>2126.000000</ele>
		<time>2013-05-04T01:59:47Z</time>
		</trkpt>

		<trkpt lat="38.712326" lon="-1.083871">
			<ele>2121.000000</ele>
		<time>2013-05-04T01:59:50Z</time>
		</trkpt>

		<trkpt lat="38.712606" lon="-1.083695">
			<ele>2117.000000</ele>
		<time>2013-05-04T01:59:53Z</time>
		</trkpt>

		<trkpt lat="38.712779" lon="-1.083373">
			<ele>2116.000000</ele>
		<time>2013-05-04T01:59:56Z</time>
		</trkpt>

		<trkpt lat="38.712854" lon="-1.083018">
			<ele>2114.000000</ele>
		<time>2013-05-04T01:59:59Z</time>
		</trkpt>

		<trkpt lat="38.712797" lon="-1.082668">
			<ele>2113.000000</ele>
		<time>2013-05-04T02:00:02Z</time>
		</trkpt>

		<trkpt lat="38.712626" lon="-1.082454">
			<ele>2112.000000</ele>
		<time>2013-05-04T02:00:05Z</time>
		</trkpt>

		<trkpt lat="38.712423" lon="-1.082382">
			<ele>2111.000000</ele>
		<time>2013-05-04T02:00:08Z</time>
		</trkpt>

		<trkpt lat="38.712217" lon="-1.082403">
			<ele>2109.000000</ele>
		<time>2013-05-04T02:00:11Z</time>
		</trkpt>

		<trkpt lat="38.711981" lon="-1.082461">
			<ele>2106.000000</ele>
		<time>2013-05-04T02:00:14Z</time>
		</trkpt>

		<trkpt lat="38.711754" lon="-1.082562">
			<ele>2104.000000</ele>
		<time>2013-05-04T02:00:17Z</time>
		</trkpt>

		<trkpt lat="38.711556" lon="-1.082651">
			<ele>2103.000000</ele>
		<time>2013-05-04T02:00:20Z</time>
		</trkpt>

		<trkpt lat="38.711337" lon="-1.082716">
			<ele>2101.000000</ele>
		<time>2013-05-04T02:00:23Z</time>
		</trkpt>

		<trkpt lat="38.711135" lon="-1.082755">
			<ele>2098.000000</ele>
		<time>2013-05-04T02:00:26Z</time>
		</trkpt>

		<trkpt lat="38.710915" lon="-1.082821">
			<ele>2094.000000</ele>
		<time>2013-05-04T02:00:29Z</time>
		</trkpt>

		<trkpt lat="38.710705" lon="-1.082913">
			<ele>2089.000000</ele>
		<time>2013-05-04T02:00:32Z</time>
		</trkpt>

		<trkpt lat="38.710521" lon="-1.083012">
			<ele>2084.000000</ele>
		<time>2013-05-04T02:00:35Z</time>
		</trkpt>

		<trkpt lat="38.710348" lon="-1.083178">
			<ele>2077.000000</ele>
		<time>2013-05-04T02:00:38Z</time>
		</trkpt>

		<trkpt lat="38.710166" lon="-1.083330">
			<ele>2073.000000</ele>
		<time>2013-05-04T02:00:41Z</time>
		</trkpt>

		<trkpt lat="38.709980" lon="-1.083401">
			<ele>2071.000000</ele>
		<time>2013-05-04T02:00:44Z</time>
		</trkpt>

		<trkpt lat="38.709798" lon="-1.083482">
			<ele>2072.000000</ele>
		<time>2013-05-04T02:00:47Z</time>
		</trkpt>

		<trkpt lat="38.709569" lon="-1.083548">
			<ele>2071.000000</ele>
		<time>2013-05-04T02:00:50Z</time>
		</trkpt>

		<trkpt lat="38.709379" lon="-1.083633">
			<ele>2073.000000</ele>
		<time>2013-05-04T02:00:53Z</time>
		</trkpt>

		<trkpt lat="38.709276" lon="-1.083673">
			<ele>2073.000000</ele>
		<time>2013-05-04T02:00:56Z</time>
		</trkpt>

		<trkpt lat="38.709097" lon="-1.083716">
			<ele>2073.000000</ele>
		<time>2013-05-04T02:00:59Z</time>
		</trkpt>

		<trkpt lat="38.708927" lon="-1.083796">
			<ele>2074.000000</ele>
		<time>2013-05-04T02:01:02Z</time>
		</trkpt>

		<trkpt lat="38.708749" lon="-1.083907">
			<ele>2075.000000</ele>
		<time>2013-05-04T02:01:05Z</time>
		</trkpt>

		<trkpt lat="38.708585" lon="-1.084007">
			<ele>2077.000000</ele>
		<time>2013-05-04T02:01:08Z</time>
		</trkpt>

		<trkpt lat="38.708384" lon="-1.084090">
			<ele>2078.000000</ele>
		<time>2013-05-04T02:01:11Z</time>
		</trkpt>

		<trkpt lat="38.708166" lon="-1.084165">
			<ele>2080.000000</ele>
		<time>2013-05-04T02:01:14Z</time>
		</trkpt>

		<trkpt lat="38.707972" lon="-1.084238">
			<ele>2084.000000</ele>
		<time>2013-05-04T02:01:17Z</time>
		</trkpt>

		<trkpt lat="38.707803" lon="-1.084276">
			<ele>2087.000000</ele>
		<time>2013-05-04T02:01:20Z</time>
		</trkpt>

		<trkpt lat="38.707576" lon="-1.084180">
			<ele>2088.000000</ele>
		<time>2013-05-04T02:01:23Z</time>
		</trkpt>

		<trkpt lat="38.707440" lon="-1.083955">
			<ele>2091.000000</ele>
		<time>2013-05-04T02:01:26Z</time>
		</trkpt>

		<trkpt lat="38.707439" lon="-1.083625">
			<ele>2091.000000</ele>
		<time>2013-05-04T02:01:29Z</time>
		</trkpt>

		<trkpt lat="38.707589" lon="-1.083308">
			<ele>2092.000000</ele>
		<time>2013-05-04T02:01:32Z</time>
		</trkpt>

		<trkpt lat="38.707854" lon="-1.083089">
			<ele>2093.000000</ele>
		<time>2013-05-04T02:01:35Z</time>
		</trkpt>

		<trkpt lat="38.708222" lon="-1.083072">
			<ele>2095.000000</ele>
		<time>2013-05-04T02:01:38Z</time>
		</trkpt>

		<trkpt lat="38.708477" lon="-1.083077">
			<ele>2098.000000</ele>
		<time>2013-05-04T02:01:41Z</time>
		</trkpt>

		<trkpt lat="38.708806" lon="-1.083175">
			<ele>2096.000000</ele>
		<time>2013-05-04T02:01:44Z</time>
		</trkpt>

		<trkpt lat="38.709095" lon="-1.083413">
			<ele>2097.000000</ele>
		<time>2013-05-04T02:01:47Z</time>
		</trkpt>

		<trkpt lat="38.709326" lon="-1.083718">
			<ele>2096.000000</ele>
		<time>2013-05-04T02:01:50Z</time>
		</trkpt>

		<trkpt lat="38.709472" lon="-1.084072">
			<ele>2097.000000</ele>
		<time>2013-05-04T02:01:53Z</time>
		</trkpt>

		<trkpt lat="38.709539" lon="-1.084404">
			<ele>2097.000000</ele>
		<time>2013-05-04T02:01:56Z</time>
		</trkpt>

		<trkpt lat="38.709588" lon="-1.084778">
			<ele>2098.000000</ele>
		<time>2013-05-04T02:01:59Z</time>
		</trkpt>

		<trkpt lat="38.709594" lon="-1.085082">
			<ele>2100.000000</ele>
		<time>2013-05-04T02:02:02Z</time>
		</trkpt>

		<trkpt lat="38.709608" lon="-1.085438">
			<ele>2101.000000</ele>
		<time>2013-05-04T02:02:05Z</time>
		</trkpt>

		<trkpt lat="38.709656" lon="-1.085784">
			<ele>2100.000000</ele>
		<time>2013-05-04T02:02:08Z</time>
		</trkpt>

		<trkpt lat="38.709606" lon="-1.086079">
			<ele>2099.000000</ele>
		<time>2013-05-04T02:02:11Z</time>
		</trkpt>

		<trkpt lat="38.709520" lon="-1.086353">
			<ele>2098.000000</ele>
		<time>2013-05-04T02:02:14Z</time>
		</trkpt>

		<trkpt lat="38.709349" lon="-1.086574">
			<ele>2098.000000</ele>
		<time>2013-05-04T02:02:17Z</time>
		</trkpt>

		<trkpt lat="38.709103" lon="-1.086771">
			<ele>2098.000000</ele>
		<time>2013-05-04T02:02:20Z</time>
		</trkpt>

		<trkpt lat="38.708929" lon="-1.086964">
			<ele>2100.000000</ele>
		<time>2013-05-04T02:02:23Z</time>
		</trkpt>

		<trkpt lat="38.708801" lon="-1.087116">
			<ele>2101.000000</ele>
		<time>2013-05-04T02:02:26Z</time>
		</trkpt>

		<trkpt lat="38.708574" lon="-1.087177">
			<ele>2103.000000</ele>
		<time>2013-05-04T02:02:29Z</time>
		</trkpt>

		<trkpt lat="38.708353" lon="-1.087048">
			<ele>2104.000000</ele>
		<time>2013-05-04T02:02:32Z</time>
		</trkpt>

		<trkpt lat="38.708236" lon="-1.086694">
			<ele>2105.000000</ele>
		<time>2013-05-04T02:02:35Z</time>
		</trkpt>

		<trkpt lat="38.708354" lon="-1.086306">
			<ele>2106.000000</ele>
		<time>2013-05-04T02:02:38Z</time>
		</trkpt>

		<trkpt lat="38.708628" lon="-1.086067">
			<ele>2106.000000</ele>
		<time>2013-05-04T02:02:41Z</time>
		</trkpt>

		<trkpt lat="38.708986" lon="-1.086081">
			<ele>2106.000000</ele>
		<time>2013-05-04T02:02:44Z</time>
		</trkpt>

		<trkpt lat="38.709312" lon="-1.086189">
			<ele>2104.000000</ele>
		<time>2013-05-04T02:02:47Z</time>
		</trkpt>

		<trkpt lat="38.709557" lon="-1.086437">
			<ele>2105.000000</ele>
		<time>2013-05-04T02:02:50Z</time>
		</trkpt>

		<trkpt lat="38.709668" lon="-1.086705">
			<ele>2107.000000</ele>
		<time>2013-05-04T02:02:53Z</time>
		</trkpt>

		<trkpt lat="38.709794" lon="-1.086975">
			<ele>2108.000000</ele>
		<time>2013-05-04T02:02:56Z</time>
		</trkpt>

		<trkpt lat="38.710079" lon="-1.087122">
			<ele>2108.000000</ele>
		<time>2013-05-04T02:02:59Z</time>
		</trkpt>

		<trkpt lat="38.710402" lon="-1.086915">
			<ele>2109.000000</ele>
		<time>2013-05-04T02:03:02Z</time>
		</trkpt>

		<trkpt lat="38.710560" lon="-1.086532">
			<ele>2109.000000</ele>
		<time>2013-05-04T02:03:05Z</time>
		</trkpt>

		<trkpt lat="38.710496" lon="-1.086110">
			<ele>2110.000000</ele>
		<time>2013-05-04T02:03:08Z</time>
		</trkpt>

		<trkpt lat="38.710317" lon="-1.085880">
			<ele>2111.000000</ele>
		<time>2013-05-04T02:03:11Z</time>
		</trkpt>

		<trkpt lat="38.710102" lon="-1.085866">
			<ele>2111.000000</ele>
		<time>2013-05-04T02:03:14Z</time>
		</trkpt>

		<trkpt lat="38.709886" lon="-1.085919">
			<ele>2109.000000</ele>
		<time>2013-05-04T02:03:17Z</time>
		</trkpt>

		<trkpt lat="38.709732" lon="-1.086126">
			<ele>2108.000000</ele>
		<time>2013-05-04T02:03:20Z</time>
		</trkpt>

		<trkpt lat="38.709627" lon="-1.086370">
			<ele>2107.000000</ele>
		<time>2013-05-04T02:03:23Z</time>
		</trkpt>

		<trkpt lat="38.709535" lon="-1.086650">
			<ele>2106.000000</ele>
		<time>2013-05-04T02:03:26Z</time>
		</trkpt>

		<trkpt lat="38.709417" lon="-1.086910">
			<ele>2107.000000</ele>
		<time>2013-05-04T02:03:29Z</time>
		</trkpt>

		<trkpt lat="38.709275" lon="-1.087089">
			<ele>2108.000000</ele>
		<time>2013-05-04T02:03:32Z</time>
		</trkpt>

		<trkpt lat="38.709068" lon="-1.087192">
			<ele>2108.000000</ele>
		<time>2013-05-04T02:03:35Z</time>
		</trkpt>

		<trkpt lat="38.708817" lon="-1.087154">
			<ele>2108.000000</ele>
		<time>2013-05-04T02:03:38Z</time>
		</trkpt>

		<trkpt lat="38.708622" lon="-1.087064">
			<ele>2109.000000</ele>
		<time>2013-05-04T02:03:41Z</time>
		</trkpt>

		<trkpt lat="38.708393" lon="-1.086966">
			<ele>2110.000000</ele>
		<time>2013-05-04T02:03:44Z</time>
		</trkpt>

		<trkpt lat="38.708162" lon="-1.086955">
			<ele>2111.000000</ele>
		<time>2013-05-04T02:03:47Z</time>
		</trkpt>

		<trkpt lat="38.707931" lon="-1.087035">
			<ele>2108.000000</ele>
		<time>2013-05-04T02:03:50Z</time>
		</trkpt>

		<trkpt lat="38.707694" lon="-1.087183">
			<ele>2107.000000</ele>
		<time>2013-05-04T02:03:53Z</time>
		</trkpt>

		<trkpt lat="38.707518" lon="-1.087410">
			<ele>2105.000000</ele>
		<time>2013-05-04T02:03:56Z</time>
		</trkpt>

		<trkpt lat="38.707366" lon="-1.087692">
			<ele>2103.000000</ele>
		<time>2013-05-04T02:03:59Z</time>
		</trkpt>

		<trkpt lat="38.707268" lon="-1.088010">
			<ele>2102.000000</ele>
		<time>2013-05-04T02:04:02Z</time>
		</trkpt>

		<trkpt lat="38.707234" lon="-1.088327">
			<ele>2101.000000</ele>
		<time>2013-05-04T02:04:05Z</time>
		</trkpt>

		<trkpt lat="38.707200" lon="-1.088674">
			<ele>2099.000000</ele>
		<time>2013-05-04T02:04:08Z</time>
		</trkpt>

		<trkpt lat="38.707134" lon="-1.088984">
			<ele>2097.000000</ele>
		<time>2013-05-04T02:04:11Z</time>
		</trkpt>

		<trkpt lat="38.707008" lon="-1.089275">
			<ele>2094.000000</ele>
		<time>2013-05-04T02:04:14Z</time>
		</trkpt>

		<trkpt lat="38.706842" lon="-1.089541">
			<ele>2093.000000</ele>
		<time>2013-05-04T02:04:17Z</time>
		</trkpt>

		<trkpt lat="38.706691" lon="-1.089819">
			<ele>2091.000000</ele>
		<time>2013-05-04T02:04:20Z</time>
		</trkpt>

		<trkpt lat="38.706641" lon="-1.090133">
			<ele>2089.000000</ele>
		<time>2013-05-04T02:04:23Z</time>
		</trkpt>

		<trkpt lat="38.706667" lon="-1.090437">
			<ele>2086.000000</ele>
		<time>2013-05-04T02:04:26Z</time>
		</trkpt>

		<trkpt lat="38.706696" lon="-1.090778">
			<ele>2084.000000</ele>
		<time>2013-05-04T02:04:29Z</time>
		</trkpt>

		<trkpt lat="38.706678" lon="-1.091083">
			<ele>2081.000000</ele>
		<time>2013-05-04T02:04:32Z</time>
		</trkpt>

		<trkpt lat="38.706659" lon="-1.091423">
			<ele>2079.000000</ele>
		<time>2013-05-04T02:04:35Z</time>
		</trkpt>

		<trkpt lat="38.706643" lon="-1.091728">
			<ele>2078.000000</ele>
		<time>2013-05-04T02:04:38Z</time>
		</trkpt>

		<trkpt lat="38.706654" lon="-1.092066">
			<ele>2076.000000</ele>
		<time>2013-05-04T02:04:41Z</time>
		</trkpt>

		<trkpt lat="38.706705" lon="-1.092415">
			<ele>2072.000000</ele>
		<time>2013-05-04T02:04:44Z</time>
		</trkpt>

		<trkpt lat="38.706761" lon="-1.092734">
			<ele>2070.000000</ele>
		<time>2013-05-04T02:04:47Z</time>
		</trkpt>

		<trkpt lat="38.706810" lon="-1.093067">
			<ele>2067.000000</ele>
		<time>2013-05-04T02:04:50Z</time>
		</trkpt>

		<trkpt lat="38.706868" lon="-1.093404">
			<ele>2065.000000</ele>
		<time>2013-05-04T02:04:53Z</time>
		</trkpt>

		<trkpt lat="38.706916" lon="-1.093725">
			<ele>2062.000000</ele>
		<time>2013-05-04T02:04:56Z</time>
		</trkpt>

		<trkpt lat="38.706981" lon="-1.094045">
			<ele>2059.000000</ele>
		<time>2013-05-04T02:04:59Z</time>
		</trkpt>

		<trkpt lat="38.707055" lon="-1.094360">
			<ele>2056.000000</ele>
		<time>2013-05-04T02:05:02Z</time>
		</trkpt>

		<trkpt lat="38.707128" lon="-1.094674">
			<ele>2053.000000</ele>
		<time>2013-05-04T02:05:05Z</time>
		</trkpt>

		<trkpt lat="38.707208" lon="-1.094997">
			<ele>2050.000000</ele>
		<time>2013-05-04T02:05:08Z</time>
		</trkpt>

		<trkpt lat="38.707281" lon="-1.095324">
			<ele>2046.000000</ele>
		<time>2013-05-04T02:05:11Z</time>
		</trkpt>

		<trkpt lat="38.707373" lon="-1.095646">
			<ele>2044.000000</ele>
		<time>2013-05-04T02:05:14Z</time>
		</trkpt>

		<trkpt lat="38.707481" lon="-1.095914">
			<ele>2042.000000</ele>
		<time>2013-05-04T02:05:17Z</time>
		</trkpt>

		<trkpt lat="38.707583" lon="-1.096186">
			<ele>2040.000000</ele>
		<time>2013-05-04T02:05:20Z</time>
		</trkpt>

		<trkpt lat="38.707694" lon="-1.096446">
			<ele>2039.000000</ele>
		<time>2013-05-04T02:05:23Z</time>
		</trkpt>

		<trkpt lat="38.707791" lon="-1.096757">
			<ele>2038.000000</ele>
		<time>2013-05-04T02:05:26Z</time>
		</trkpt>

		<trkpt lat="38.707869" lon="-1.097054">
			<ele>2037.000000</ele>
		<time>2013-05-04T02:05:29Z</time>
		</trkpt>

		<trkpt lat="38.707936" lon="-1.097366">
			<ele>2035.000000</ele>
		<time>2013-05-04T02:05:32Z</time>
		</trkpt>

		<trkpt lat="38.707948" lon="-1.097676">
			<ele>2033.000000</ele>
		<time>2013-05-04T02:05:35Z</time>
		</trkpt>

		<trkpt lat="38.707965" lon="-1.098001">
			<ele>2031.000000</ele>
		<time>2013-05-04T02:05:38Z</time>
		</trkpt>

		<trkpt lat="38.707965" lon="-1.098311">
			<ele>2028.000000</ele>
		<time>2013-05-04T02:05:41Z</time>
		</trkpt>

		<trkpt lat="38.707989" lon="-1.098634">
			<ele>2024.000000</ele>
		<time>2013-05-04T02:05:44Z</time>
		</trkpt>

		<trkpt lat="38.708008" lon="-1.098975">
			<ele>2020.000000</ele>
		<time>2013-05-04T02:05:47Z</time>
		</trkpt>

		<trkpt lat="38.708085" lon="-1.099282">
			<ele>2018.000000</ele>
		<time>2013-05-04T02:05:50Z</time>
		</trkpt>

		<trkpt lat="38.708169" lon="-1.099593">
			<ele>2015.000000</ele>
		<time>2013-05-04T02:05:53Z</time>
		</trkpt>

		<trkpt lat="38.708210" lon="-1.099935">
			<ele>2012.000000</ele>
		<time>2013-05-04T02:05:56Z</time>
		</trkpt>

		<trkpt lat="38.708201" lon="-1.100330">
			<ele>2010.000000</ele>
		<time>2013-05-04T02:05:59Z</time>
		</trkpt>

		<trkpt lat="38.708170" lon="-1.100722">
			<ele>2007.000000</ele>
		<time>2013-05-04T02:06:02Z</time>
		</trkpt>

		<trkpt lat="38.708143" lon="-1.101094">
			<ele>2003.000000</ele>
		<time>2013-05-04T02:06:05Z</time>
		</trkpt>

		<trkpt lat="38.708132" lon="-1.101468">
			<ele>1999.000000</ele>
		<time>2013-05-04T02:06:08Z</time>
		</trkpt>

		<trkpt lat="38.708126" lon="-1.101820">
			<ele>1995.000000</ele>
		<time>2013-05-04T02:06:11Z</time>
		</trkpt>

		<trkpt lat="38.708172" lon="-1.102188">
			<ele>1990.000000</ele>
		<time>2013-05-04T02:06:14Z</time>
		</trkpt>

		<trkpt lat="38.708251" lon="-1.102516">
			<ele>1985.000000</ele>
		<time>2013-05-04T02:06:17Z</time>
		</trkpt>

		<trkpt lat="38.708342" lon="-1.102863">
			<ele>1979.000000</ele>
		<time>2013-05-04T02:06:20Z</time>
		</trkpt>

		<trkpt lat="38.708449" lon="-1.103200">
			<ele>1974.000000</ele>
		<time>2013-05-04T02:06:23Z</time>
		</trkpt>

		<trkpt lat="38.708539" lon="-1.103507">
			<ele>1969.000000</ele>
		<time>2013-05-04T02:06:26Z</time>
		</trkpt>

		<trkpt lat="38.708617" lon="-1.103853">
			<ele>1962.000000</ele>
		<time>2013-05-04T02:06:29Z</time>
		</trkpt>

		<trkpt lat="38.708689" lon="-1.104174">
			<ele>1957.000000</ele>
		<time>2013-05-04T02:06:32Z</time>
		</trkpt>

		<trkpt lat="38.708749" lon="-1.104500">
			<ele>1952.000000</ele>
		<time>2013-05-04T02:06:35Z</time>
		</trkpt>

		<trkpt lat="38.708877" lon="-1.104833">
			<ele>1947.000000</ele>
		<time>2013-05-04T02:06:38Z</time>
		</trkpt>

		<trkpt lat="38.709027" lon="-1.105159">
			<ele>1942.000000</ele>
		<time>2013-05-04T02:06:41Z</time>
		</trkpt>

		<trkpt lat="38.709157" lon="-1.105493">
			<ele>1938.000000</ele>
		<time>2013-05-04T02:06:44Z</time>
		</trkpt>

		<trkpt lat="38.709288" lon="-1.105808">
			<ele>1933.000000</ele>
		<time>2013-05-04T02:06:47Z</time>
		</trkpt>

		<trkpt lat="38.709427" lon="-1.106138">
			<ele>1928.000000</ele>
		<time>2013-05-04T02:06:50Z</time>
		</trkpt>

		<trkpt lat="38.709539" lon="-1.106473">
			<ele>1923.000000</ele>
		<time>2013-05-04T02:06:53Z</time>
		</trkpt>

		<trkpt lat="38.709611" lon="-1.106826">
			<ele>1916.000000</ele>
		<time>2013-05-04T02:06:56Z</time>
		</trkpt>

		<trkpt lat="38.709672" lon="-1.107203">
			<ele>1910.000000</ele>
		<time>2013-05-04T02:06:59Z</time>
		</trkpt>

		<trkpt lat="38.709762" lon="-1.107574">
			<ele>1904.000000</ele>
		<time>2013-05-04T02:07:02Z</time>
		</trkpt>

		<trkpt lat="38.709834" lon="-1.107944">
			<ele>1898.000000</ele>
		<time>2013-05-04T02:07:05Z</time>
		</trkpt>

		<trkpt lat="38.709941" lon="-1.108341">
			<ele>1891.000000</ele>
		<time>2013-05-04T02:07:08Z</time>
		</trkpt>

		<trkpt lat="38.710073" lon="-1.108708">
			<ele>1884.000000</ele>
		<time>2013-05-04T02:07:11Z</time>
		</trkpt>

		<trkpt lat="38.710195" lon="-1.109077">
			<ele>1876.000000</ele>
		<time>2013-05-04T02:07:14Z</time>
		</trkpt>

		<trkpt lat="38.710327" lon="-1.109475">
			<ele>1869.000000</ele>
		<time>2013-05-04T02:07:17Z</time>
		</trkpt>

		<trkpt lat="38.710461" lon="-1.109873">
			<ele>1861.000000</ele>
		<time>2013-05-04T02:07:20Z</time>
		</trkpt>

		<trkpt lat="38.710610" lon="-1.110287">
			<ele>1855.000000</ele>
		<time>2013-05-04T02:07:23Z</time>
		</trkpt>

		<trkpt lat="38.710760" lon="-1.110686">
			<ele>1847.000000</ele>
		<time>2013-05-04T02:07:26Z</time>
		</trkpt>

		<trkpt lat="38.710932" lon="-1.111108">
			<ele>1841.000000</ele>
		<time>2013-05-04T02:07:29Z</time>
		</trkpt>

		<trkpt lat="38.711091" lon="-1.111523">
			<ele>1836.000000</ele>
		<time>2013-05-04T02:07:32Z</time>
		</trkpt>

		<trkpt lat="38.711209" lon="-1.112015">
			<ele>1831.000000</ele>
		<time>2013-05-04T02:07:35Z</time>
		</trkpt>

		<trkpt lat="38.711360" lon="-1.112454">
			<ele>1829.000000</ele>
		<time>2013-05-04T02:07:38Z</time>
		</trkpt>

		<trkpt lat="38.711519" lon="-1.112853">
			<ele>1826.000000</ele>
		<time>2013-05-04T02:07:41Z</time>
		</trkpt>

		<trkpt lat="38.711715" lon="-1.113304">
			<ele>1823.000000</ele>
		<time>2013-05-04T02:07:44Z</time>
		</trkpt>

		<trkpt lat="38.711854" lon="-1.113758">
			<ele>1819.000000</ele>
		<time>2013-05-04T02:07:47Z</time>
		</trkpt>

		<trkpt lat="38.711924" lon="-1.114165">
			<ele>1813.000000</ele>
		<time>2013-05-04T02:07:50Z</time>
		</trkpt>

		<trkpt lat="38.712004" lon="-1.114622">
			<ele>1809.000000</ele>
		<time>2013-05-04T02:07:53Z</time>
		</trkpt>

		<trkpt lat="38.712090" lon="-1.114997">
			<ele>1803.000000</ele>
		<time>2013-05-04T02:07:56Z</time>
		</trkpt>

		<trkpt lat="38.712197" lon="-1.115409">
			<ele>1797.000000</ele>
		<time>2013-05-04T02:07:59Z</time>
		</trkpt>

		<trkpt lat="38.712337" lon="-1.115790">
			<ele>1793.000000</ele>
		<time>2013-05-04T02:08:02Z</time>
		</trkpt>

		<trkpt lat="38.712413" lon="-1.116196">
			<ele>1789.000000</ele>
		<time>2013-05-04T02:08:05Z</time>
		</trkpt>

		<trkpt lat="38.712452" lon="-1.116635">
			<ele>1785.000000</ele>
		<time>2013-05-04T02:08:08Z</time>
		</trkpt>

		<trkpt lat="38.712529" lon="-1.117047">
			<ele>1782.000000</ele>
		<time>2013-05-04T02:08:11Z</time>
		</trkpt>

		<trkpt lat="38.712626" lon="-1.117462">
			<ele>1778.000000</ele>
		<time>2013-05-04T02:08:14Z</time>
		</trkpt>

		<trkpt lat="38.712729" lon="-1.117888">
			<ele>1776.000000</ele>
		<time>2013-05-04T02:08:17Z</time>
		</trkpt>

		<trkpt lat="38.712831" lon="-1.118275">
			<ele>1774.000000</ele>
		<time>2013-05-04T02:08:20Z</time>
		</trkpt>

		<trkpt lat="38.712978" lon="-1.118695">
			<ele>1772.000000</ele>
		<time>2013-05-04T02:08:23Z</time>
		</trkpt>

		<trkpt lat="38.713099" lon="-1.119077">
			<ele>1770.000000</ele>
		<time>2013-05-04T02:08:26Z</time>
		</trkpt>

		<trkpt lat="38.713210" lon="-1.119456">
			<ele>1768.000000</ele>
		<time>2013-05-04T02:08:29Z</time>
		</trkpt>

		<trkpt lat="38.713301" lon="-1.119850">
			<ele>1763.000000</ele>
		<time>2013-05-04T02:08:32Z</time>
		</trkpt>

		<trkpt lat="38.713382" lon="-1.120252">
			<ele>1757.000000</ele>
		<time>2013-05-04T02:08:35Z</time>
		</trkpt>

		<trkpt lat="38.713460" lon="-1.120658">
			<ele>1750.000000</ele>
		<time>2013-05-04T02:08:38Z</time>
		</trkpt>

		<trkpt lat="38.713522" lon="-1.120983">
			<ele>1745.000000</ele>
		<time>2013-05-04T02:08:41Z</time>
		</trkpt>

		<trkpt lat="38.713624" lon="-1.121321">
			<ele>1739.000000</ele>
		<time>2013-05-04T02:08:44Z</time>
		</trkpt>

		<trkpt lat="38.713731" lon="-1.121623">
			<ele>1735.000000</ele>
		<time>2013-05-04T02:08:47Z</time>
		</trkpt>

		<trkpt lat="38.713830" lon="-1.121956">
			<ele>1731.000000</ele>
		<time>2013-05-04T02:08:50Z</time>
		</trkpt>

		<trkpt lat="38.713928" lon="-1.122265">
			<ele>1727.000000</ele>
		<time>2013-05-04T02:08:53Z</time>
		</trkpt>

		<trkpt lat="38.714018" lon="-1.122608">
			<ele>1723.000000</ele>
		<time>2013-05-04T02:08:56Z</time>
		</trkpt>

		<trkpt lat="38.714085" lon="-1.122933">
			<ele>1720.000000</ele>
		<time>2013-05-04T02:08:59Z</time>
		</trkpt>

		<trkpt lat="38.714139" lon="-1.123258">
			<ele>1715.000000</ele>
		<time>2013-05-04T02:09:02Z</time>
		</trkpt>

		<trkpt lat="38.714217" lon="-1.123593">
			<ele>1711.000000</ele>
		<time>2013-05-04T02:09:05Z</time>
		</trkpt>

		<trkpt lat="38.714286" lon="-1.123894">
			<ele>1706.000000</ele>
		<time>2013-05-04T02:09:08Z</time>
		</trkpt>

		<trkpt lat="38.714364" lon="-1.124224">
			<ele>1700.000000</ele>
		<time>2013-05-04T02:09:11Z</time>
		</trkpt>

		<trkpt lat="38.714437" lon="-1.124535">
			<ele>1694.000000</ele>
		<time>2013-05-04T02:09:14Z</time>
		</trkpt>

		<trkpt lat="38.714516" lon="-1.124849">
			<ele>1687.000000</ele>
		<time>2013-05-04T02:09:17Z</time>
		</trkpt>

		<trkpt lat="38.714569" lon="-1.125183">
			<ele>1680.000000</ele>
		<time>2013-05-04T02:09:20Z</time>
		</trkpt>

		<trkpt lat="38.714650" lon="-1.125469">
			<ele>1674.000000</ele>
		<time>2013-05-04T02:09:23Z</time>
		</trkpt>

		<trkpt lat="38.714742" lon="-1.125738">
			<ele>1667.000000</ele>
		<time>2013-05-04T02:09:26Z</time>
		</trkpt>

		<trkpt lat="38.714852" lon="-1.126034">
			<ele>1659.000000</ele>
		<time>2013-05-04T02:09:29Z</time>
		</trkpt>

		<trkpt lat="38.714959" lon="-1.126303">
			<ele>1651.000000</ele>
		<time>2013-05-04T02:09:32Z</time>
		</trkpt>

		<trkpt lat="38.715081" lon="-1.126631">
			<ele>1642.000000</ele>
		<time>2013-05-04T02:09:35Z</time>
		</trkpt>

		<trkpt lat="38.715185" lon="-1.126951">
			<ele>1634.000000</ele>
		<time>2013-05-04T02:09:38Z</time>
		</trkpt>

		<trkpt lat="38.715280" lon="-1.127270">
			<ele>1625.000000</ele>
		<time>2013-05-04T02:09:41Z</time>
		</trkpt>

		<trkpt lat="38.715317" lon="-1.127569">
			<ele>1617.000000</ele>
		<time>2013-05-04T02:09:44Z</time>
		</trkpt>

		<trkpt lat="38.715372" lon="-1.127826">
			<ele>1608.000000</ele>
		<time>2013-05-04T02:09:47Z</time>
		</trkpt>

		<trkpt lat="38.715437" lon="-1.128145">
			<ele>1598.000000</ele>
		<time>2013-05-04T02:09:50Z</time>
		</trkpt>

		<trkpt lat="38.715516" lon="-1.128427">
			<ele>1588.000000</ele>
		<time>2013-05-04T02:09:53Z</time>
		</trkpt>

		<trkpt lat="38.715591" lon="-1.128749">
			<ele>1578.000000</ele>
		<time>2013-05-04T02:09:56Z</time>
		</trkpt>

		<trkpt lat="38.715671" lon="-1.129024">
			<ele>1569.000000</ele>
		<time>2013-05-04T02:09:59Z</time>
		</trkpt>

		<trkpt lat="38.715755" lon="-1.129324">
			<ele>1558.000000</ele>
		<time>2013-05-04T02:10:02Z</time>
		</trkpt>

		<trkpt lat="38.715863" lon="-1.129640">
			<ele>1548.000000</ele>
		<time>2013-05-04T02:10:05Z</time>
		</trkpt>

		<trkpt lat="38.715923" lon="-1.129937">
			<ele>1540.000000</ele>
		<time>2013-05-04T02:10:08Z</time>
		</trkpt>

		<trkpt lat="38.716028" lon="-1.130254">
			<ele>1532.000000</ele>
		<time>2013-05-04T02:10:11Z</time>
		</trkpt>

		<trkpt lat="38.716139" lon="-1.130516">
			<ele>1526.000000</ele>
		<time>2013-05-04T02:10:14Z</time>
		</trkpt>

		<trkpt lat="38.716261" lon="-1.130797">
			<ele>1520.000000</ele>
		<time>2013-05-04T02:10:17Z</time>
		</trkpt>

		<trkpt lat="38.716359" lon="-1.131094">
			<ele>1515.000000</ele>
		<time>2013-05-04T02:10:20Z</time>
		</trkpt>

		<trkpt lat="38.716475" lon="-1.131376">
			<ele>1510.000000</ele>
		<time>2013-05-04T02:10:23Z</time>
		</trkpt>

		<trkpt lat="38.716609" lon="-1.131687">
			<ele>1504.000000</ele>
		<time>2013-05-04T02:10:26Z</time>
		</trkpt>

		<trkpt lat="38.716676" lon="-1.132024">
			<ele>1499.000000</ele>
		<time>2013-05-04T02:10:29Z</time>
		</trkpt>

		<trkpt lat="38.716708" lon="-1.132356">
			<ele>1495.000000</ele>
		<time>2013-05-04T02:10:32Z</time>
		</trkpt>

		<trkpt lat="38.716638" lon="-1.132730">
			<ele>1492.000000</ele>
		<time>2013-05-04T02:10:35Z</time>
		</trkpt>

		<trkpt lat="38.716568" lon="-1.133061">
			<ele>1489.000000</ele>
		<time>2013-05-04T02:10:38Z</time>
		</trkpt>

		<trkpt lat="38.716504" lon="-1.133416">
			<ele>1485.000000</ele>
		<time>2013-05-04T02:10:41Z</time>
		</trkpt>

		<trkpt lat="38.716511" lon="-1.133793">
			<ele>1480.000000</ele>
		<time>2013-05-04T02:10:44Z</time>
		</trkpt>

		<trkpt lat="38.716555" lon="-1.134163">
			<ele>1478.000000</ele>
		<time>2013-05-04T02:10:47Z</time>
		</trkpt>

		<trkpt lat="38.716625" lon="-1.134551">
			<ele>1475.000000</ele>
		<time>2013-05-04T02:10:50Z</time>
		</trkpt>

		<trkpt lat="38.716724" lon="-1.134944">
			<ele>1473.000000</ele>
		<time>2013-05-04T02:10:53Z</time>
		</trkpt>

		<trkpt lat="38.716844" lon="-1.135338">
			<ele>1470.000000</ele>
		<time>2013-05-04T02:10:56Z</time>
		</trkpt>

		<trkpt lat="38.716935" lon="-1.135738">
			<ele>1468.000000</ele>
		<time>2013-05-04T02:10:59Z</time>
		</trkpt>

		<trkpt lat="38.717036" lon="-1.136101">
			<ele>1468.000000</ele>
		<time>2013-05-04T02:11:02Z</time>
		</trkpt>

		<trkpt lat="38.717151" lon="-1.136439">
			<ele>1469.000000</ele>
		<time>2013-05-04T02:11:05Z</time>
		</trkpt>

		<trkpt lat="38.717290" lon="-1.136695">
			<ele>1470.000000</ele>
		<time>2013-05-04T02:11:08Z</time>
		</trkpt>

		<trkpt lat="38.717390" lon="-1.136955">
			<ele>1474.000000</ele>
		<time>2013-05-04T02:11:11Z</time>
		</trkpt>

		<trkpt lat="38.717400" lon="-1.137287">
			<ele>1476.000000</ele>
		<time>2013-05-04T02:11:14Z</time>
		</trkpt>

		<trkpt lat="38.717330" lon="-1.137576">
			<ele>1479.000000</ele>
		<time>2013-05-04T02:11:17Z</time>
		</trkpt>

		<trkpt lat="38.717263" lon="-1.137854">
			<ele>1480.000000</ele>
		<time>2013-05-04T02:11:20Z</time>
		</trkpt>

		<trkpt lat="38.717090" lon="-1.138017">
			<ele>1480.000000</ele>
		<time>2013-05-04T02:11:23Z</time>
		</trkpt>

		<trkpt lat="38.716914" lon="-1.137828">
			<ele>1480.000000</ele>
		<time>2013-05-04T02:11:26Z</time>
		</trkpt>

		<trkpt lat="38.716850" lon="-1.137453">
			<ele>1482.000000</ele>
		<time>2013-05-04T02:11:29Z</time>
		</trkpt>

		<trkpt lat="38.716818" lon="-1.137113">
			<ele>1486.000000</ele>
		<time>2013-05-04T02:11:32Z</time>
		</trkpt>

		<trkpt lat="38.716749" lon="-1.136850">
			<ele>1490.000000</ele>
		<time>2013-05-04T02:11:35Z</time>
		</trkpt>

		<trkpt lat="38.716566" lon="-1.136689">
			<ele>1493.000000</ele>
		<time>2013-05-04T02:11:38Z</time>
		</trkpt>

		<trkpt lat="38.716347" lon="-1.136876">
			<ele>1495.000000</ele>
		<time>2013-05-04T02:11:41Z</time>
		</trkpt>

		<trkpt lat="38.716426" lon="-1.137253">
			<ele>1499.000000</ele>
		<time>2013-05-04T02:11:44Z</time>
		</trkpt>

		<trkpt lat="38.716654" lon="-1.137612">
			<ele>1504.000000</ele>
		<time>2013-05-04T02:11:47Z</time>
		</trkpt>

		<trkpt lat="38.716959" lon="-1.137728">
			<ele>1509.000000</ele>
		<time>2013-05-04T02:11:50Z</time>
		</trkpt>

		<trkpt lat="38.717299" lon="-1.137574">
			<ele>1513.000000</ele>
		<time>2013-05-04T02:11:53Z</time>
		</trkpt>

		<trkpt lat="38.717496" lon="-1.137263">
			<ele>1517.000000</ele>
		<time>2013-05-04T02:11:56Z</time>
		</trkpt>

		<trkpt lat="38.717347" lon="-1.136954">
			<ele>1524.000000</ele>
		<time>2013-05-04T02:11:59Z</time>
		</trkpt>

		<trkpt lat="38.717136" lon="-1.136862">
			<ele>1530.000000</ele>
		<time>2013-05-04T02:12:02Z</time>
		</trkpt>

		<trkpt lat="38.716926" lon="-1.137025">
			<ele>1535.000000</ele>
		<time>2013-05-04T02:12:05Z</time>
		</trkpt>

		<trkpt lat="38.716864" lon="-1.137368">
			<ele>1540.000000</ele>
		<time>2013-05-04T02:12:08Z</time>
		</trkpt>

		<trkpt lat="38.716949" lon="-1.137697">
			<ele>1544.000000</ele>
		<time>2013-05-04T02:12:11Z</time>
		</trkpt>

		<trkpt lat="38.717176" lon="-1.137935">
			<ele>1547.000000</ele>
		<time>2013-05-04T02:12:14Z</time>
		</trkpt>

		<trkpt lat="38.717520" lon="-1.137946">
			<ele>1553.000000</ele>
		<time>2013-05-04T02:12:17Z</time>
		</trkpt>

		<trkpt lat="38.717844" lon="-1.138100">
			<ele>1556.000000</ele>
		<time>2013-05-04T02:12:20Z</time>
		</trkpt>

		<trkpt lat="38.717959" lon="-1.138437">
			<ele>1561.000000</ele>
		<time>2013-05-04T02:12:23Z</time>
		</trkpt>

		<trkpt lat="38.717829" lon="-1.138671">
			<ele>1568.000000</ele>
		<time>2013-05-04T02:12:26Z</time>
		</trkpt>

		<trkpt lat="38.717674" lon="-1.138660">
			<ele>1573.000000</ele>
		<time>2013-05-04T02:12:29Z</time>
		</trkpt>

		<trkpt lat="38.717447" lon="-1.138461">
			<ele>1577.000000</ele>
		<time>2013-05-04T02:12:32Z</time>
		</trkpt>

		<trkpt lat="38.717292" lon="-1.138154">
			<ele>1577.000000</ele>
		<time>2013-05-04T02:12:35Z</time>
		</trkpt>

		<trkpt lat="38.717371" lon="-1.137648">
			<ele>1577.000000</ele>
		<time>2013-05-04T02:12:38Z</time>
		</trkpt>

		<trkpt lat="38.717662" lon="-1.137316">
			<ele>1577.000000</ele>
		<time>2013-05-04T02:12:41Z</time>
		</trkpt>

		<trkpt lat="38.718030" lon="-1.137296">
			<ele>1578.000000</ele>
		<time>2013-05-04T02:12:44Z</time>
		</trkpt>

		<trkpt lat="38.718387" lon="-1.137445">
			<ele>1581.000000</ele>
		<time>2013-05-04T02:12:47Z</time>
		</trkpt>

		<trkpt lat="38.718678" lon="-1.137621">
			<ele>1587.000000</ele>
		<time>2013-05-04T02:12:50Z</time>
		</trkpt>

		<trkpt lat="38.718895" lon="-1.137856">
			<ele>1595.000000</ele>
		<time>2013-05-04T02:12:53Z</time>
		</trkpt>

		<trkpt lat="38.719016" lon="-1.138141">
			<ele>1600.000000</ele>
		<time>2013-05-04T02:12:56Z</time>
		</trkpt>

		<trkpt lat="38.718995" lon="-1.138443">
			<ele>1604.000000</ele>
		<time>2013-05-04T02:12:59Z</time>
		</trkpt>

		<trkpt lat="38.718783" lon="-1.138521">
			<ele>1607.000000</ele>
		<time>2013-05-04T02:13:02Z</time>
		</trkpt>

		<trkpt lat="38.718600" lon="-1.138105">
			<ele>1610.000000</ele>
		<time>2013-05-04T02:13:05Z</time>
		</trkpt>

		<trkpt lat="38.718666" lon="-1.137679">
			<ele>1614.000000</ele>
		<time>2013-05-04T02:13:08Z</time>
		</trkpt>

		<trkpt lat="38.718965" lon="-1.137410">
			<ele>1616.000000</ele>
		<time>2013-05-04T02:13:11Z</time>
		</trkpt>

		<trkpt lat="38.719395" lon="-1.137398">
			<ele>1618.000000</ele>
		<time>2013-05-04T02:13:14Z</time>
		</trkpt>

		<trkpt lat="38.719554" lon="-1.137764">
			<ele>1621.000000</ele>
		<time>2013-05-04T02:13:17Z</time>
		</trkpt>

		<trkpt lat="38.719459" lon="-1.138169">
			<ele>1628.000000</ele>
		<time>2013-05-04T02:13:20Z</time>
		</trkpt>

		<trkpt lat="38.719201" lon="-1.138352">
			<ele>1634.000000</ele>
		<time>2013-05-04T02:13:23Z</time>
		</trkpt>

		<trkpt lat="38.719005" lon="-1.138229">
			<ele>1641.000000</ele>
		<time>2013-05-04T02:13:26Z</time>
		</trkpt>

		<trkpt lat="38.718844" lon="-1.137948">
			<ele>1645.000000</ele>
		<time>2013-05-04T02:13:29Z</time>
		</trkpt>

		<trkpt lat="38.718869" lon="-1.137511">
			<ele>1651.000000</ele>
		<time>2013-05-04T02:13:32Z</time>
		</trkpt>

		<trkpt lat="38.719055" lon="-1.137150">
			<ele>1655.000000</ele>
		<time>2013-05-04T02:13:35Z</time>
		</trkpt>

		<trkpt lat="38.719450" lon="-1.137026">
			<ele>1659.000000</ele>
		<time>2013-05-04T02:13:38Z</time>
		</trkpt>

		<trkpt lat="38.719805" lon="-1.137122">
			<ele>1662.000000</ele>
		<time>2013-05-04T02:13:41Z</time>
		</trkpt>

		<trkpt lat="38.719998" lon="-1.137454">
			<ele>1668.000000</ele>
		<time>2013-05-04T02:13:44Z</time>
		</trkpt>

		<trkpt lat="38.720117" lon="-1.137777">
			<ele>1674.000000</ele>
		<time>2013-05-04T02:13:47Z</time>
		</trkpt>

		<trkpt lat="38.720267" lon="-1.138053">
			<ele>1682.000000</ele>
		<time>2013-05-04T02:13:50Z</time>
		</trkpt>

		<trkpt lat="38.720482" lon="-1.138284">
			<ele>1688.000000</ele>
		<time>2013-05-04T02:13:53Z</time>
		</trkpt>

		<trkpt lat="38.720698" lon="-1.138550">
			<ele>1692.000000</ele>
		<time>2013-05-04T02:13:56Z</time>
		</trkpt>

		<trkpt lat="38.720735" lon="-1.138887">
			<ele>1692.000000</ele>
		<time>2013-05-04T02:13:59Z</time>
		</trkpt>

		<trkpt lat="38.720549" lon="-1.139003">
			<ele>1691.000000</ele>
		<time>2013-05-04T02:14:02Z</time>
		</trkpt>

		<trkpt lat="38.720379" lon="-1.138854">
			<ele>1689.000000</ele>
		<time>2013-05-04T02:14:05Z</time>
		</trkpt>

		<trkpt lat="38.720287" lon="-1.138506">
			<ele>1688.000000</ele>
		<time>2013-05-04T02:14:08Z</time>
		</trkpt>

		<trkpt lat="38.720339" lon="-1.138095">
			<ele>1687.000000</ele>
		<time>2013-05-04T02:14:11Z</time>
		</trkpt>

		<trkpt lat="38.720540" lon="-1.137700">
			<ele>1686.000000</ele>
		<time>2013-05-04T02:14:14Z</time>
		</trkpt>

		<trkpt lat="38.720748" lon="-1.137365">
			<ele>1690.000000</ele>
		<time>2013-05-04T02:14:17Z</time>
		</trkpt>

		<trkpt lat="38.720889" lon="-1.137052">
			<ele>1694.000000</ele>
		<time>2013-05-04T02:14:20Z</time>
		</trkpt>

		<trkpt lat="38.721015" lon="-1.136641">
			<ele>1699.000000</ele>
		<time>2013-05-04T02:14:23Z</time>
		</trkpt>

		<trkpt lat="38.721019" lon="-1.136261">
			<ele>1705.000000</ele>
		<time>2013-05-04T02:14:26Z</time>
		</trkpt>

		<trkpt lat="38.720879" lon="-1.135974">
			<ele>1711.000000</ele>
		<time>2013-05-04T02:14:29Z</time>
		</trkpt>

		<trkpt lat="38.720684" lon="-1.135808">
			<ele>1718.000000</ele>
		<time>2013-05-04T02:14:32Z</time>
		</trkpt>

		<trkpt lat="38.720465" lon="-1.135704">
			<ele>1721.000000</ele>
		<time>2013-05-04T02:14:35Z</time>
		</trkpt>

		<trkpt lat="38.720245" lon="-1.135863">
			<ele>1722.000000</ele>
		<time>2013-05-04T02:14:38Z</time>
		</trkpt>

		<trkpt lat="38.720265" lon="-1.136199">
			<ele>1725.000000</ele>
		<time>2013-05-04T02:14:41Z</time>
		</trkpt>

		<trkpt lat="38.720450" lon="-1.136502">
			<ele>1726.000000</ele>
		<time>2013-05-04T02:14:44Z</time>
		</trkpt>

		<trkpt lat="38.720803" lon="-1.136626">
			<ele>1726.000000</ele>
		<time>2013-05-04T02:14:47Z</time>
		</trkpt>

		<trkpt lat="38.721125" lon="-1.136488">
			<ele>1730.000000</ele>
		<time>2013-05-04T02:14:50Z</time>
		</trkpt>

		<trkpt lat="38.721302" lon="-1.136160">
			<ele>1732.000000</ele>
		<time>2013-05-04T02:14:53Z</time>
		</trkpt>

		<trkpt lat="38.721422" lon="-1.135761">
			<ele>1736.000000</ele>
		<time>2013-05-04T02:14:56Z</time>
		</trkpt>

		<trkpt lat="38.721492" lon="-1.135416">
			<ele>1741.000000</ele>
		<time>2013-05-04T02:14:59Z</time>
		</trkpt>

		<trkpt lat="38.721654" lon="-1.135118">
			<ele>1744.000000</ele>
		<time>2013-05-04T02:15:02Z</time>
		</trkpt>

		<trkpt lat="38.721922" lon="-1.135074">
			<ele>1744.000000</ele>
		<time>2013-05-04T02:15:05Z</time>
		</trkpt>

		<trkpt lat="38.722173" lon="-1.135281">
			<ele>1744.000000</ele>
		<time>2013-05-04T02:15:08Z</time>
		</trkpt>

		<trkpt lat="38.722281" lon="-1.135597">
			<ele>1745.000000</ele>
		<time>2013-05-04T02:15:11Z</time>
		</trkpt>

		<trkpt lat="38.722297" lon="-1.135930">
			<ele>1749.000000</ele>
		<time>2013-05-04T02:15:14Z</time>
		</trkpt>

		<trkpt lat="38.722300" lon="-1.136204">
			<ele>1754.000000</ele>
		<time>2013-05-04T02:15:17Z</time>
		</trkpt>

		<trkpt lat="38.722226" lon="-1.136485">
			<ele>1757.000000</ele>
		<time>2013-05-04T02:15:20Z</time>
		</trkpt>

		<trkpt lat="38.722009" lon="-1.136596">
			<ele>1760.000000</ele>
		<time>2013-05-04T02:15:23Z</time>
		</trkpt>

		<trkpt lat="38.721804" lon="-1.136384">
			<ele>1761.000000</ele>
		<time>2013-05-04T02:15:26Z</time>
		</trkpt>

		<trkpt lat="38.721824" lon="-1.135872">
			<ele>1766.000000</ele>
		<time>2013-05-04T02:15:29Z</time>
		</trkpt>

		<trkpt lat="38.722049" lon="-1.135632">
			<ele>1770.000000</ele>
		<time>2013-05-04T02:15:32Z</time>
		</trkpt>

		<trkpt lat="38.722475" lon="-1.135640">
			<ele>1775.000000</ele>
		<time>2013-05-04T02:15:35Z</time>
		</trkpt>

		<trkpt lat="38.722683" lon="-1.135836">
			<ele>1780.000000</ele>
		<time>2013-05-04T02:15:38Z</time>
		</trkpt>

		<trkpt lat="38.722679" lon="-1.136184">
			<ele>1790.000000</ele>
		<time>2013-05-04T02:15:41Z</time>
		</trkpt>

		<trkpt lat="38.722536" lon="-1.136502">
			<ele>1801.000000</ele>
		<time>2013-05-04T02:15:44Z</time>
		</trkpt>

		<trkpt lat="38.722268" lon="-1.136546">
			<ele>1803.000000</ele>
		<time>2013-05-04T02:15:47Z</time>
		</trkpt>

		<trkpt lat="38.722106" lon="-1.136141">
			<ele>1810.000000</ele>
		<time>2013-05-04T02:15:50Z</time>
		</trkpt>

		<trkpt lat="38.722050" lon="-1.135743">
			<ele>1818.000000</ele>
		<time>2013-05-04T02:15:53Z</time>
		</trkpt>

		<trkpt lat="38.721986" lon="-1.135481">
			<ele>1826.000000</ele>
		<time>2013-05-04T02:15:56Z</time>
		</trkpt>

		<trkpt lat="38.721786" lon="-1.135368">
			<ele>1828.000000</ele>
		<time>2013-05-04T02:15:59Z</time>
		</trkpt>

		<trkpt lat="38.721646" lon="-1.135691">
			<ele>1830.000000</ele>
		<time>2013-05-04T02:16:02Z</time>
		</trkpt>

		<trkpt lat="38.721802" lon="-1.136023">
			<ele>1835.000000</ele>
		<time>2013-05-04T02:16:05Z</time>
		</trkpt>

		<trkpt lat="38.722073" lon="-1.136233">
			<ele>1839.000000</ele>
		<time>2013-05-04T02:16:08Z</time>
		</trkpt>

		<trkpt lat="38.722351" lon="-1.136377">
			<ele>1845.000000</ele>
		<time>2013-05-04T02:16:11Z</time>
		</trkpt>

		<trkpt lat="38.722668" lon="-1.136404">
			<ele>1850.000000</ele>
		<time>2013-05-04T02:16:14Z</time>
		</trkpt>

		<trkpt lat="38.722964" lon="-1.136019">
			<ele>1854.000000</ele>
		<time>2013-05-04T02:16:17Z</time>
		</trkpt>

		<trkpt lat="38.722859" lon="-1.135607">
			<ele>1860.000000</ele>
		<time>2013-05-04T02:16:20Z</time>
		</trkpt>

		<trkpt lat="38.722628" lon="-1.135678">
			<ele>1865.000000</ele>
		<time>2013-05-04T02:16:23Z</time>
		</trkpt>

		<trkpt lat="38.722479" lon="-1.135974">
			<ele>1873.000000</ele>
		<time>2013-05-04T02:16:26Z</time>
		</trkpt>

		<trkpt lat="38.722445" lon="-1.136359">
			<ele>1879.000000</ele>
		<time>2013-05-04T02:16:29Z</time>
		</trkpt>

		<trkpt lat="38.722617" lon="-1.136680">
			<ele>1884.000000</ele>
		<time>2013-05-04T02:16:32Z</time>
		</trkpt>

		<trkpt lat="38.722940" lon="-1.136726">
			<ele>1889.000000</ele>
		<time>2013-05-04T02:16:35Z</time>
		</trkpt>

		<trkpt lat="38.723278" lon="-1.136641">
			<ele>1891.000000</ele>
		<time>2013-05-04T02:16:38Z</time>
		</trkpt>

		<trkpt lat="38.723557" lon="-1.136286">
			<ele>1891.000000</ele>
		<time>2013-05-04T02:16:41Z</time>
		</trkpt>

		<trkpt lat="38.723541" lon="-1.135830">
			<ele>1893.000000</ele>
		<time>2013-05-04T02:16:44Z</time>
		</trkpt>

		<trkpt lat="38.723325" lon="-1.135605">
			<ele>1901.000000</ele>
		<time>2013-05-04T02:16:47Z</time>
		</trkpt>

		<trkpt lat="38.723128" lon="-1.135602">
			<ele>1907.000000</ele>
		<time>2013-05-04T02:16:50Z</time>
		</trkpt>

		<trkpt lat="38.722943" lon="-1.135741">
			<ele>1909.000000</ele>
		<time>2013-05-04T02:16:53Z</time>
		</trkpt>

		<trkpt lat="38.722923" lon="-1.136134">
			<ele>1910.000000</ele>
		<time>2013-05-04T02:16:56Z</time>
		</trkpt>

		<trkpt lat="38.723150" lon="-1.136363">
			<ele>1911.000000</ele>
		<time>2013-05-04T02:16:59Z</time>
		</trkpt>

		<trkpt lat="38.723463" lon="-1.136275">
			<ele>1913.000000</ele>
		<time>2013-05-04T02:17:02Z</time>
		</trkpt>

		<trkpt lat="38.723797" lon="-1.136056">
			<ele>1912.000000</ele>
		<time>2013-05-04T02:17:05Z</time>
		</trkpt>

		<trkpt lat="38.723892" lon="-1.135653">
			<ele>1912.000000</ele>
		<time>2013-05-04T02:17:08Z</time>
		</trkpt>

		<trkpt lat="38.723783" lon="-1.135347">
			<ele>1916.000000</ele>
		<time>2013-05-04T02:17:11Z</time>
		</trkpt>

		<trkpt lat="38.723778" lon="-1.134960">
			<ele>1919.000000</ele>
		<time>2013-05-04T02:17:14Z</time>
		</trkpt>

		<trkpt lat="38.723980" lon="-1.134754">
			<ele>1923.000000</ele>
		<time>2013-05-04T02:17:17Z</time>
		</trkpt>

		<trkpt lat="38.724274" lon="-1.134924">
			<ele>1924.000000</ele>
		<time>2013-05-04T02:17:20Z</time>
		</trkpt>

		<trkpt lat="38.724506" lon="-1.135192">
			<ele>1922.000000</ele>
		<time>2013-05-04T02:17:23Z</time>
		</trkpt>

		<trkpt lat="38.724581" lon="-1.135543">
			<ele>1924.000000</ele>
		<time>2013-05-04T02:17:26Z</time>
		</trkpt>

		<trkpt lat="38.724517" lon="-1.135889">
			<ele>1926.000000</ele>
		<time>2013-05-04T02:17:29Z</time>
		</trkpt>

		<trkpt lat="38.724362" lon="-1.136094">
			<ele>1929.000000</ele>
		<time>2013-05-04T02:17:32Z</time>
		</trkpt>

		<trkpt lat="38.724184" lon="-1.136287">
			<ele>1931.000000</ele>
		<time>2013-05-04T02:17:35Z</time>
		</trkpt>

		<trkpt lat="38.723985" lon="-1.136472">
			<ele>1932.000000</ele>
		<time>2013-05-04T02:17:38Z</time>
		</trkpt>

		<trkpt lat="38.723806" lon="-1.136686">
			<ele>1934.000000</ele>
		<time>2013-05-04T02:17:41Z</time>
		</trkpt>

		<trkpt lat="38.723628" lon="-1.136924">
			<ele>1936.000000</ele>
		<time>2013-05-04T02:17:44Z</time>
		</trkpt>

		<trkpt lat="38.723430" lon="-1.137103">
			<ele>1940.000000</ele>
		<time>2013-05-04T02:17:47Z</time>
		</trkpt>

		<trkpt lat="38.723238" lon="-1.137157">
			<ele>1944.000000</ele>
		<time>2013-05-04T02:17:50Z</time>
		</trkpt>

		<trkpt lat="38.723006" lon="-1.137102">
			<ele>1945.000000</ele>
		<time>2013-05-04T02:17:53Z</time>
		</trkpt>

		<trkpt lat="38.722804" lon="-1.136848">
			<ele>1946.000000</ele>
		<time>2013-05-04T02:17:56Z</time>
		</trkpt>

		<trkpt lat="38.722751" lon="-1.136511">
			<ele>1948.000000</ele>
		<time>2013-05-04T02:17:59Z</time>
		</trkpt>

		<trkpt lat="38.722729" lon="-1.136177">
			<ele>1951.000000</ele>
		<time>2013-05-04T02:18:02Z</time>
		</trkpt>

		<trkpt lat="38.722649" lon="-1.135922">
			<ele>1955.000000</ele>
		<time>2013-05-04T02:18:05Z</time>
		</trkpt>

		<trkpt lat="38.722563" lon="-1.135681">
			<ele>1959.000000</ele>
		<time>2013-05-04T02:18:08Z</time>
		</trkpt>

		<trkpt lat="38.722566" lon="-1.135359">
			<ele>1963.000000</ele>
		<time>2013-05-04T02:18:11Z</time>
		</trkpt>

		<trkpt lat="38.722791" lon="-1.135025">
			<ele>1965.000000</ele>
		<time>2013-05-04T02:18:14Z</time>
		</trkpt>

		<trkpt lat="38.723154" lon="-1.134971">
			<ele>1967.000000</ele>
		<time>2013-05-04T02:18:17Z</time>
		</trkpt>

		<trkpt lat="38.723453" lon="-1.135080">
			<ele>1967.000000</ele>
		<time>2013-05-04T02:18:20Z</time>
		</trkpt>

		<trkpt lat="38.723563" lon="-1.135468">
			<ele>1968.000000</ele>
		<time>2013-05-04T02:18:23Z</time>
		</trkpt>

		<trkpt lat="38.723451" lon="-1.135790">
			<ele>1970.000000</ele>
		<time>2013-05-04T02:18:26Z</time>
		</trkpt>

		<trkpt lat="38.723352" lon="-1.136086">
			<ele>1973.000000</ele>
		<time>2013-05-04T02:18:29Z</time>
		</trkpt>

		<trkpt lat="38.723386" lon="-1.136365">
			<ele>1973.000000</ele>
		<time>2013-05-04T02:18:32Z</time>
		</trkpt>

		<trkpt lat="38.723525" lon="-1.136636">
			<ele>1972.000000</ele>
		<time>2013-05-04T02:18:35Z</time>
		</trkpt>

		<trkpt lat="38.723630" lon="-1.136959">
			<ele>1972.000000</ele>
		<time>2013-05-04T02:18:38Z</time>
		</trkpt>

		<trkpt lat="38.723664" lon="-1.137305">
			<ele>1972.000000</ele>
		<time>2013-05-04T02:18:41Z</time>
		</trkpt>

		<trkpt lat="38.723668" lon="-1.137614">
			<ele>1973.000000</ele>
		<time>2013-05-04T02:18:44Z</time>
		</trkpt>

		<trkpt lat="38.723612" lon="-1.137956">
			<ele>1971.000000</ele>
		<time>2013-05-04T02:18:47Z</time>
		</trkpt>

		<trkpt lat="38.723527" lon="-1.138315">
			<ele>1971.000000</ele>
		<time>2013-05-04T02:18:50Z</time>
		</trkpt>

		<trkpt lat="38.723476" lon="-1.138665">
			<ele>1971.000000</ele>
		<time>2013-05-04T02:18:53Z</time>
		</trkpt>

		<trkpt lat="38.723427" lon="-1.139017">
			<ele>1972.000000</ele>
		<time>2013-05-04T02:18:56Z</time>
		</trkpt>

		<trkpt lat="38.723377" lon="-1.139374">
			<ele>1973.000000</ele>
		<time>2013-05-04T02:18:59Z</time>
		</trkpt>

		<trkpt lat="38.723401" lon="-1.139734">
			<ele>1972.000000</ele>
		<time>2013-05-04T02:19:02Z</time>
		</trkpt>

		<trkpt lat="38.723492" lon="-1.140128">
			<ele>1968.000000</ele>
		<time>2013-05-04T02:19:05Z</time>
		</trkpt>

		<trkpt lat="38.723643" lon="-1.140471">
			<ele>1964.000000</ele>
		<time>2013-05-04T02:19:08Z</time>
		</trkpt>

		<trkpt lat="38.723858" lon="-1.140726">
			<ele>1961.000000</ele>
		<time>2013-05-04T02:19:11Z</time>
		</trkpt>

		<trkpt lat="38.724077" lon="-1.140988">
			<ele>1956.000000</ele>
		<time>2013-05-04T02:19:14Z</time>
		</trkpt>

		<trkpt lat="38.724232" lon="-1.141308">
			<ele>1951.000000</ele>
		<time>2013-05-04T02:19:17Z</time>
		</trkpt>

		<trkpt lat="38.724368" lon="-1.141663">
			<ele>1946.000000</ele>
		<time>2013-05-04T02:19:20Z</time>
		</trkpt>

		<trkpt lat="38.724500" lon="-1.142024">
			<ele>1942.000000</ele>
		<time>2013-05-04T02:19:23Z</time>
		</trkpt>

		<trkpt lat="38.724575" lon="-1.142397">
			<ele>1936.000000</ele>
		<time>2013-05-04T02:19:26Z</time>
		</trkpt>

		<trkpt lat="38.724668" lon="-1.142807">
			<ele>1932.000000</ele>
		<time>2013-05-04T02:19:29Z</time>
		</trkpt>

		<trkpt lat="38.724779" lon="-1.143179">
			<ele>1930.000000</ele>
		<time>2013-05-04T02:19:32Z</time>
		</trkpt>

		<trkpt lat="38.724907" lon="-1.143536">
			<ele>1927.000000</ele>
		<time>2013-05-04T02:19:35Z</time>
		</trkpt>

		<trkpt lat="38.725031" lon="-1.143862">
			<ele>1922.000000</ele>
		<time>2013-05-04T02:19:38Z</time>
		</trkpt>

		<trkpt lat="38.725153" lon="-1.144227">
			<ele>1919.000000</ele>
		<time>2013-05-04T02:19:41Z</time>
		</trkpt>

		<trkpt lat="38.725237" lon="-1.144523">
			<ele>1914.000000</ele>
		<time>2013-05-04T02:19:44Z</time>
		</trkpt>

		<trkpt lat="38.725334" lon="-1.144851">
			<ele>1909.000000</ele>
		<time>2013-05-04T02:19:47Z</time>
		</trkpt>

		<trkpt lat="38.725445" lon="-1.145143">
			<ele>1905.000000</ele>
		<time>2013-05-04T02:19:50Z</time>
		</trkpt>

		<trkpt lat="38.725576" lon="-1.145401">
			<ele>1899.000000</ele>
		<time>2013-05-04T02:19:53Z</time>
		</trkpt>

		<trkpt lat="38.725724" lon="-1.145653">
			<ele>1893.000000</ele>
		<time>2013-05-04T02:19:56Z</time>
		</trkpt>

		<trkpt lat="38.725891" lon="-1.145883">
			<ele>1887.000000</ele>
		<time>2013-05-04T02:19:59Z</time>
		</trkpt>

		<trkpt lat="38.726084" lon="-1.146057">
			<ele>1880.000000</ele>
		<time>2013-05-04T02:20:02Z</time>
		</trkpt>

		<trkpt lat="38.726285" lon="-1.146282">
			<ele>1875.000000</ele>
		<time>2013-05-04T02:20:05Z</time>
		</trkpt>

		<trkpt lat="38.726421" lon="-1.146505">
			<ele>1867.000000</ele>
		<time>2013-05-04T02:20:08Z</time>
		</trkpt>

		<trkpt lat="38.726605" lon="-1.146750">
			<ele>1857.000000</ele>
		<time>2013-05-04T02:20:11Z</time>
		</trkpt>

		<trkpt lat="38.726854" lon="-1.147010">
			<ele>1853.000000</ele>
		<time>2013-05-04T02:20:14Z</time>
		</trkpt>

		<trkpt lat="38.727059" lon="-1.147138">
			<ele>1849.000000</ele>
		<time>2013-05-04T02:20:17Z</time>
		</trkpt>

		<trkpt lat="38.727312" lon="-1.147336">
			<ele>1841.000000</ele>
		<time>2013-05-04T02:20:20Z</time>
		</trkpt>

		<trkpt lat="38.727544" lon="-1.147596">
			<ele>1838.000000</ele>
		<time>2013-05-04T02:20:23Z</time>
		</trkpt>

		<trkpt lat="38.727748" lon="-1.147865">
			<ele>1834.000000</ele>
		<time>2013-05-04T02:20:26Z</time>
		</trkpt>

		<trkpt lat="38.727969" lon="-1.148164">
			<ele>1829.000000</ele>
		<time>2013-05-04T02:20:29Z</time>
		</trkpt>

		<trkpt lat="38.728156" lon="-1.148487">
			<ele>1824.000000</ele>
		<time>2013-05-04T02:20:32Z</time>
		</trkpt>

		<trkpt lat="38.728316" lon="-1.148815">
			<ele>1822.000000</ele>
		<time>2013-05-04T02:20:35Z</time>
		</trkpt>

		<trkpt lat="38.728396" lon="-1.149130">
			<ele>1819.000000</ele>
		<time>2013-05-04T02:20:38Z</time>
		</trkpt>

		<trkpt lat="38.728506" lon="-1.149459">
			<ele>1816.000000</ele>
		<time>2013-05-04T02:20:41Z</time>
		</trkpt>

		<trkpt lat="38.728614" lon="-1.149788">
			<ele>1812.000000</ele>
		<time>2013-05-04T02:20:44Z</time>
		</trkpt>

		<trkpt lat="38.728720" lon="-1.150107">
			<ele>1807.000000</ele>
		<time>2013-05-04T02:20:47Z</time>
		</trkpt>

		<trkpt lat="38.728886" lon="-1.150449">
			<ele>1802.000000</ele>
		<time>2013-05-04T02:20:50Z</time>
		</trkpt>

		<trkpt lat="38.729058" lon="-1.150742">
			<ele>1799.000000</ele>
		<time>2013-05-04T02:20:53Z</time>
		</trkpt>

		<trkpt lat="38.729262" lon="-1.150974">
			<ele>1796.000000</ele>
		<time>2013-05-04T02:20:56Z</time>
		</trkpt>

		<trkpt lat="38.729469" lon="-1.151152">
			<ele>1792.000000</ele>
		<time>2013-05-04T02:20:59Z</time>
		</trkpt>

		<trkpt lat="38.729692" lon="-1.151300">
			<ele>1785.000000</ele>
		<time>2013-05-04T02:21:02Z</time>
		</trkpt>

		<trkpt lat="38.729981" lon="-1.151453">
			<ele>1778.000000</ele>
		<time>2013-05-04T02:21:05Z</time>
		</trkpt>

		<trkpt lat="38.730231" lon="-1.151517">
			<ele>1772.000000</ele>
		<time>2013-05-04T02:21:08Z</time>
		</trkpt>

		<trkpt lat="38.730485" lon="-1.151561">
			<ele>1764.000000</ele>
		<time>2013-05-04T02:21:11Z</time>
		</trkpt>

		<trkpt lat="38.730745" lon="-1.151601">
			<ele>1757.000000</ele>
		<time>2013-05-04T02:21:14Z</time>
		</trkpt>

		<trkpt lat="38.731001" lon="-1.151608">
			<ele>1750.000000</ele>
		<time>2013-05-04T02:21:17Z</time>
		</trkpt>

		<trkpt lat="38.731230" lon="-1.151663">
			<ele>1742.000000</ele>
		<time>2013-05-04T02:21:20Z</time>
		</trkpt>

		<trkpt lat="38.731477" lon="-1.151713">
			<ele>1735.000000</ele>
		<time>2013-05-04T02:21:23Z</time>
		</trkpt>

		<trkpt lat="38.731727" lon="-1.151770">
			<ele>1725.000000</ele>
		<time>2013-05-04T02:21:26Z</time>
		</trkpt>

		<trkpt lat="38.731982" lon="-1.151794">
			<ele>1717.000000</ele>
		<time>2013-05-04T02:21:29Z</time>
		</trkpt>

		<trkpt lat="38.732221" lon="-1.151765">
			<ele>1706.000000</ele>
		<time>2013-05-04T02:21:32Z</time>
		</trkpt>

		<trkpt lat="38.732490" lon="-1.151760">
			<ele>1697.000000</ele>
		<time>2013-05-04T02:21:35Z</time>
		</trkpt>

		<trkpt lat="38.732726" lon="-1.151821">
			<ele>1689.000000</ele>
		<time>2013-05-04T02:21:38Z</time>
		</trkpt>

		<trkpt lat="38.732977" lon="-1.151887">
			<ele>1681.000000</ele>
		<time>2013-05-04T02:21:41Z</time>
		</trkpt>

		<trkpt lat="38.733209" lon="-1.151949">
			<ele>1672.000000</ele>
		<time>2013-05-04T02:21:44Z</time>
		</trkpt>

		<trkpt lat="38.733463" lon="-1.152024">
			<ele>1664.000000</ele>
		<time>2013-05-04T02:21:47Z</time>
		</trkpt>

		<trkpt lat="38.733700" lon="-1.152126">
			<ele>1656.000000</ele>
		<time>2013-05-04T02:21:50Z</time>
		</trkpt>

		<trkpt lat="38.733958" lon="-1.152273">
			<ele>1647.000000</ele>
		<time>2013-05-04T02:21:53Z</time>
		</trkpt>

		<trkpt lat="38.734202" lon="-1.152433">
			<ele>1639.000000</ele>
		<time>2013-05-04T02:21:56Z</time>
		</trkpt>

		<trkpt lat="38.734441" lon="-1.152645">
			<ele>1630.000000</ele>
		<time>2013-05-04T02:21:59Z</time>
		</trkpt>

		<trkpt lat="38.734578" lon="-1.153047">
			<ele>1619.000000</ele>
		<time>2013-05-04T02:22:02Z</time>
		</trkpt>

		<trkpt lat="38.734610" lon="-1.153492">
			<ele>1610.000000</ele>
		<time>2013-05-04T02:22:05Z</time>
		</trkpt>

		<trkpt lat="38.734710" lon="-1.153845">
			<ele>1601.000000</ele>
		<time>2013-05-04T02:22:08Z</time>
		</trkpt>

		<trkpt lat="38.734874" lon="-1.154158">
			<ele>1590.000000</ele>
		<time>2013-05-04T02:22:11Z</time>
		</trkpt>

		<trkpt lat="38.735117" lon="-1.154409">
			<ele>1578.000000</ele>
		<time>2013-05-04T02:22:14Z</time>
		</trkpt>

		<trkpt lat="38.735410" lon="-1.154582">
			<ele>1567.000000</ele>
		<time>2013-05-04T02:22:17Z</time>
		</trkpt>

		<trkpt lat="38.735682" lon="-1.154633">
			<ele>1559.000000</ele>
		<time>2013-05-04T02:22:20Z</time>
		</trkpt>

		<trkpt lat="38.736029" lon="-1.154665">
			<ele>1552.000000</ele>
		<time>2013-05-04T02:22:23Z</time>
		</trkpt>

		<trkpt lat="38.736343" lon="-1.154673">
			<ele>1549.000000</ele>
		<time>2013-05-04T02:22:26Z</time>
		</trkpt>

		<trkpt lat="38.736632" lon="-1.154646">
			<ele>1543.000000</ele>
		<time>2013-05-04T02:22:29Z</time>
		</trkpt>

		<trkpt lat="38.736966" lon="-1.154645">
			<ele>1536.000000</ele>
		<time>2013-05-04T02:22:32Z</time>
		</trkpt>

		<trkpt lat="38.737284" lon="-1.154655">
			<ele>1528.000000</ele>
		<time>2013-05-04T02:22:35Z</time>
		</trkpt>

		<trkpt lat="38.737583" lon="-1.154588">
			<ele>1519.000000</ele>
		<time>2013-05-04T02:22:38Z</time>
		</trkpt>

		<trkpt lat="38.737887" lon="-1.154499">
			<ele>1511.000000</ele>
		<time>2013-05-04T02:22:41Z</time>
		</trkpt>

		<trkpt lat="38.738174" lon="-1.154398">
			<ele>1505.000000</ele>
		<time>2013-05-04T02:22:44Z</time>
		</trkpt>

		<trkpt lat="38.738471" lon="-1.154259">
			<ele>1497.000000</ele>
		<time>2013-05-04T02:22:47Z</time>
		</trkpt>

		<trkpt lat="38.738859" lon="-1.154128">
			<ele>1488.000000</ele>
		<time>2013-05-04T02:22:50Z</time>
		</trkpt>

		<trkpt lat="38.739212" lon="-1.154065">
			<ele>1479.000000</ele>
		<time>2013-05-04T02:22:53Z</time>
		</trkpt>

		<trkpt lat="38.739604" lon="-1.153991">
			<ele>1469.000000</ele>
		<time>2013-05-04T02:22:56Z</time>
		</trkpt>

		<trkpt lat="38.740004" lon="-1.153884">
			<ele>1459.000000</ele>
		<time>2013-05-04T02:22:59Z</time>
		</trkpt>

		<trkpt lat="38.740333" lon="-1.153793">
			<ele>1450.000000</ele>
		<time>2013-05-04T02:23:02Z</time>
		</trkpt>

		<trkpt lat="38.740694" lon="-1.153693">
			<ele>1442.000000</ele>
		<time>2013-05-04T02:23:05Z</time>
		</trkpt>

		<trkpt lat="38.741040" lon="-1.153595">
			<ele>1436.000000</ele>
		<time>2013-05-04T02:23:08Z</time>
		</trkpt>

		<trkpt lat="38.741398" lon="-1.153499">
			<ele>1432.000000</ele>
		<time>2013-05-04T02:23:11Z</time>
		</trkpt>

		<trkpt lat="38.741609" lon="-1.153385">
			<ele>1433.000000</ele>
		<time>2013-05-04T02:23:14Z</time>
		</trkpt>

		<trkpt lat="38.741806" lon="-1.153288">
			<ele>1435.000000</ele>
		<time>2013-05-04T02:23:17Z</time>
		</trkpt>

		<trkpt lat="38.742117" lon="-1.153256">
			<ele>1439.000000</ele>
		<time>2013-05-04T02:23:20Z</time>
		</trkpt>

		<trkpt lat="38.742401" lon="-1.153097">
			<ele>1440.000000</ele>
		<time>2013-05-04T02:23:23Z</time>
		</trkpt>

		<trkpt lat="38.742556" lon="-1.152834">
			<ele>1441.000000</ele>
		<time>2013-05-04T02:23:26Z</time>
		</trkpt>

		<trkpt lat="38.742361" lon="-1.152588">
			<ele>1444.000000</ele>
		<time>2013-05-04T02:23:29Z</time>
		</trkpt>

		<trkpt lat="38.742066" lon="-1.152711">
			<ele>1446.000000</ele>
		<time>2013-05-04T02:23:32Z</time>
		</trkpt>

		<trkpt lat="38.741920" lon="-1.152987">
			<ele>1447.000000</ele>
		<time>2013-05-04T02:23:35Z</time>
		</trkpt>

		<trkpt lat="38.742074" lon="-1.153310">
			<ele>1448.000000</ele>
		<time>2013-05-04T02:23:38Z</time>
		</trkpt>

		<trkpt lat="38.742374" lon="-1.153527">
			<ele>1449.000000</ele>
		<time>2013-05-04T02:23:41Z</time>
		</trkpt>

		<trkpt lat="38.742624" lon="-1.153689">
			<ele>1450.000000</ele>
		<time>2013-05-04T02:23:44Z</time>
		</trkpt>

		<trkpt lat="38.742720" lon="-1.154032">
			<ele>1452.000000</ele>
		<time>2013-05-04T02:23:47Z</time>
		</trkpt>

		<trkpt lat="38.742569" lon="-1.154316">
			<ele>1453.000000</ele>
		<time>2013-05-04T02:23:50Z</time>
		</trkpt>

		<trkpt lat="38.742279" lon="-1.154229">
			<ele>1452.000000</ele>
		<time>2013-05-04T02:23:53Z</time>
		</trkpt>

		<trkpt lat="38.742101" lon="-1.153827">
			<ele>1448.000000</ele>
		<time>2013-05-04T02:23:56Z</time>
		</trkpt>

		<trkpt lat="38.742123" lon="-1.153360">
			<ele>1449.000000</ele>
		<time>2013-05-04T02:23:59Z</time>
		</trkpt>

		<trkpt lat="38.742071" lon="-1.153004">
			<ele>1451.000000</ele>
		<time>2013-05-04T02:24:02Z</time>
		</trkpt>

		<trkpt lat="38.741984" lon="-1.152637">
			<ele>1452.000000</ele>
		<time>2013-05-04T02:24:05Z</time>
		</trkpt>

		<trkpt lat="38.742055" lon="-1.152253">
			<ele>1449.000000</ele>
		<time>2013-05-04T02:24:08Z</time>
		</trkpt>

		<trkpt lat="38.742342" lon="-1.151981">
			<ele>1445.000000</ele>
		<time>2013-05-04T02:24:11Z</time>
		</trkpt>

		<trkpt lat="38.742638" lon="-1.151858">
			<ele>1441.000000</ele>
		<time>2013-05-04T02:24:14Z</time>
		</trkpt>

		<trkpt lat="38.743006" lon="-1.151690">
			<ele>1437.000000</ele>
		<time>2013-05-04T02:24:17Z</time>
		</trkpt>

		<trkpt lat="38.743330" lon="-1.151670">
			<ele>1435.000000</ele>
		<time>2013-05-04T02:24:20Z</time>
		</trkpt>

		<trkpt lat="38.743634" lon="-1.151612">
			<ele>1432.000000</ele>
		<time>2013-05-04T02:24:23Z</time>
		</trkpt>

		<trkpt lat="38.744019" lon="-1.151578">
			<ele>1427.000000</ele>
		<time>2013-05-04T02:24:26Z</time>
		</trkpt>

		<trkpt lat="38.744344" lon="-1.151668">
			<ele>1431.000000</ele>
		<time>2013-05-04T02:24:29Z</time>
		</trkpt>

		<trkpt lat="38.744594" lon="-1.151802">
			<ele>1435.000000</ele>
		<time>2013-05-04T02:24:32Z</time>
		</trkpt>

		<trkpt lat="38.744926" lon="-1.151889">
			<ele>1438.000000</ele>
		<time>2013-05-04T02:24:35Z</time>
		</trkpt>

		<trkpt lat="38.745170" lon="-1.151714">
			<ele>1442.000000</ele>
		<time>2013-05-04T02:24:38Z</time>
		</trkpt>

		<trkpt lat="38.745064" lon="-1.151387">
			<ele>1446.000000</ele>
		<time>2013-05-04T02:24:41Z</time>
		</trkpt>

		<trkpt lat="38.744814" lon="-1.151506">
			<ele>1452.000000</ele>
		<time>2013-05-04T02:24:44Z</time>
		</trkpt>

		<trkpt lat="38.744699" lon="-1.151884">
			<ele>1457.000000</ele>
		<time>2013-05-04T02:24:47Z</time>
		</trkpt>

		<trkpt lat="38.744801" lon="-1.152300">
			<ele>1464.000000</ele>
		<time>2013-05-04T02:24:50Z</time>
		</trkpt>

		<trkpt lat="38.745049" lon="-1.152557">
			<ele>1472.000000</ele>
		<time>2013-05-04T02:24:53Z</time>
		</trkpt>

		<trkpt lat="38.745417" lon="-1.152599">
			<ele>1478.000000</ele>
		<time>2013-05-04T02:24:56Z</time>
		</trkpt>

		<trkpt lat="38.745617" lon="-1.152459">
			<ele>1486.000000</ele>
		<time>2013-05-04T02:24:59Z</time>
		</trkpt>

		<trkpt lat="38.745776" lon="-1.152177">
			<ele>1488.000000</ele>
		<time>2013-05-04T02:25:02Z</time>
		</trkpt>

		<trkpt lat="38.745660" lon="-1.151813">
			<ele>1491.000000</ele>
		<time>2013-05-04T02:25:05Z</time>
		</trkpt>

		<trkpt lat="38.745294" lon="-1.151884">
			<ele>1500.000000</ele>
		<time>2013-05-04T02:25:08Z</time>
		</trkpt>

		<trkpt lat="38.745110" lon="-1.152049">
			<ele>1507.000000</ele>
		<time>2013-05-04T02:25:11Z</time>
		</trkpt>

		<trkpt lat="38.744923" lon="-1.152394">
			<ele>1512.000000</ele>
		<time>2013-05-04T02:25:14Z</time>
		</trkpt>

		<trkpt lat="38.744973" lon="-1.152734">
			<ele>1516.000000</ele>
		<time>2013-05-04T02:25:17Z</time>
		</trkpt>

		<trkpt lat="38.745272" lon="-1.153060">
			<ele>1517.000000</ele>
		<time>2013-05-04T02:25:20Z</time>
		</trkpt>

		<trkpt lat="38.745659" lon="-1.153074">
			<ele>1524.000000</ele>
		<time>2013-05-04T02:25:23Z</time>
		</trkpt>

		<trkpt lat="38.745901" lon="-1.152857">
			<ele>1532.000000</ele>
		<time>2013-05-04T02:25:26Z</time>
		</trkpt>

		<trkpt lat="38.745828" lon="-1.152508">
			<ele>1539.000000</ele>
		<time>2013-05-04T02:25:29Z</time>
		</trkpt>

		<trkpt lat="38.745562" lon="-1.152420">
			<ele>1549.000000</ele>
		<time>2013-05-04T02:25:32Z</time>
		</trkpt>

		<trkpt lat="38.745402" lon="-1.152671">
			<ele>1555.000000</ele>
		<time>2013-05-04T02:25:35Z</time>
		</trkpt>

		<trkpt lat="38.745530" lon="-1.153137">
			<ele>1556.000000</ele>
		<time>2013-05-04T02:25:38Z</time>
		</trkpt>

		<trkpt lat="38.745913" lon="-1.153230">
			<ele>1557.000000</ele>
		<time>2013-05-04T02:25:41Z</time>
		</trkpt>

		<trkpt lat="38.746170" lon="-1.152956">
			<ele>1558.000000</ele>
		<time>2013-05-04T02:25:44Z</time>
		</trkpt>

		<trkpt lat="38.746177" lon="-1.152645">
			<ele>1561.000000</ele>
		<time>2013-05-04T02:25:47Z</time>
		</trkpt>

		<trkpt lat="38.745904" lon="-1.152571">
			<ele>1562.000000</ele>
		<time>2013-05-04T02:25:50Z</time>
		</trkpt>

		<trkpt lat="38.745717" lon="-1.152946">
			<ele>1565.000000</ele>
		<time>2013-05-04T02:25:53Z</time>
		</trkpt>

		<trkpt lat="38.745818" lon="-1.153316">
			<ele>1569.000000</ele>
		<time>2013-05-04T02:25:56Z</time>
		</trkpt>

		<trkpt lat="38.746087" lon="-1.153635">
			<ele>1571.000000</ele>
		<time>2013-05-04T02:25:59Z</time>
		</trkpt>

		<trkpt lat="38.746457" lon="-1.153566">
			<ele>1572.000000</ele>
		<time>2013-05-04T02:26:02Z</time>
		</trkpt>

		<trkpt lat="38.746546" lon="-1.153211">
			<ele>1575.000000</ele>
		<time>2013-05-04T02:26:05Z</time>
		</trkpt>

		<trkpt lat="38.746453" lon="-1.152881">
			<ele>1581.000000</ele>
		<time>2013-05-04T02:26:08Z</time>
		</trkpt>

		<trkpt lat="38.746227" lon="-1.152684">
			<ele>1584.000000</ele>
		<time>2013-05-04T02:26:11Z</time>
		</trkpt>

		<trkpt lat="38.745910" lon="-1.152810">
			<ele>1590.000000</ele>
		<time>2013-05-04T02:26:14Z</time>
		</trkpt>

		<trkpt lat="38.745732" lon="-1.153063">
			<ele>1596.000000</ele>
		<time>2013-05-04T02:26:17Z</time>
		</trkpt>

		<trkpt lat="38.745652" lon="-1.153419">
			<ele>1600.000000</ele>
		<time>2013-05-04T02:26:20Z</time>
		</trkpt>

		<trkpt lat="38.745857" lon="-1.153721">
			<ele>1603.000000</ele>
		<time>2013-05-04T02:26:23Z</time>
		</trkpt>

		<trkpt lat="38.746229" lon="-1.153761">
			<ele>1607.000000</ele>
		<time>2013-05-04T02:26:26Z</time>
		</trkpt>

		<trkpt lat="38.746516" lon="-1.153570">
			<ele>1609.000000</ele>
		<time>2013-05-04T02:26:29Z</time>
		</trkpt>

		<trkpt lat="38.746547" lon="-1.153214">
			<ele>1613.000000</ele>
		<time>2013-05-04T02:26:32Z</time>
		</trkpt>

		<trkpt lat="38.746322" lon="-1.152951">
			<ele>1618.000000</ele>
		<time>2013-05-04T02:26:35Z</time>
		</trkpt>

		<trkpt lat="38.746066" lon="-1.152909">
			<ele>1623.000000</ele>
		<time>2013-05-04T02:26:38Z</time>
		</trkpt>

		<trkpt lat="38.745863" lon="-1.152749">
			<ele>1626.000000</ele>
		<time>2013-05-04T02:26:41Z</time>
		</trkpt>

		<trkpt lat="38.745920" lon="-1.152400">
			<ele>1627.000000</ele>
		<time>2013-05-04T02:26:44Z</time>
		</trkpt>

		<trkpt lat="38.746259" lon="-1.152298">
			<ele>1630.000000</ele>
		<time>2013-05-04T02:26:47Z</time>
		</trkpt>

		<trkpt lat="38.746533" lon="-1.152527">
			<ele>1632.000000</ele>
		<time>2013-05-04T02:26:50Z</time>
		</trkpt>

		<trkpt lat="38.746491" lon="-1.152956">
			<ele>1637.000000</ele>
		<time>2013-05-04T02:26:53Z</time>
		</trkpt>

		<trkpt lat="38.746309" lon="-1.153220">
			<ele>1641.000000</ele>
		<time>2013-05-04T02:26:56Z</time>
		</trkpt>

		<trkpt lat="38.746026" lon="-1.153120">
			<ele>1646.000000</ele>
		<time>2013-05-04T02:26:59Z</time>
		</trkpt>

		<trkpt lat="38.745927" lon="-1.152784">
			<ele>1649.000000</ele>
		<time>2013-05-04T02:27:02Z</time>
		</trkpt>

		<trkpt lat="38.745999" lon="-1.152466">
			<ele>1654.000000</ele>
		<time>2013-05-04T02:27:05Z</time>
		</trkpt>

		<trkpt lat="38.746202" lon="-1.152223">
			<ele>1656.000000</ele>
		<time>2013-05-04T02:27:08Z</time>
		</trkpt>

		<trkpt lat="38.746485" lon="-1.152106">
			<ele>1660.000000</ele>
		<time>2013-05-04T02:27:11Z</time>
		</trkpt>

		<trkpt lat="38.746798" lon="-1.152143">
			<ele>1662.000000</ele>
		<time>2013-05-04T02:27:14Z</time>
		</trkpt>

		<trkpt lat="38.747087" lon="-1.152357">
			<ele>1668.000000</ele>
		<time>2013-05-04T02:27:17Z</time>
		</trkpt>

		<trkpt lat="38.747317" lon="-1.152542">
			<ele>1677.000000</ele>
		<time>2013-05-04T02:27:20Z</time>
		</trkpt>

		<trkpt lat="38.747456" lon="-1.152860">
			<ele>1685.000000</ele>
		<time>2013-05-04T02:27:23Z</time>
		</trkpt>

		<trkpt lat="38.747379" lon="-1.153204">
			<ele>1694.000000</ele>
		<time>2013-05-04T02:27:26Z</time>
		</trkpt>

		<trkpt lat="38.747187" lon="-1.153402">
			<ele>1702.000000</ele>
		<time>2013-05-04T02:27:29Z</time>
		</trkpt>

		<trkpt lat="38.746917" lon="-1.153451">
			<ele>1709.000000</ele>
		<time>2013-05-04T02:27:32Z</time>
		</trkpt>

		<trkpt lat="38.746719" lon="-1.153295">
			<ele>1716.000000</ele>
		<time>2013-05-04T02:27:35Z</time>
		</trkpt>

		<trkpt lat="38.746702" lon="-1.152906">
			<ele>1723.000000</ele>
		<time>2013-05-04T02:27:38Z</time>
		</trkpt>

		<trkpt lat="38.746899" lon="-1.152581">
			<ele>1728.000000</ele>
		<time>2013-05-04T02:27:41Z</time>
		</trkpt>

		<trkpt lat="38.747237" lon="-1.152530">
			<ele>1731.000000</ele>
		<time>2013-05-04T02:27:44Z</time>
		</trkpt>

		<trkpt lat="38.747473" lon="-1.152841">
			<ele>1736.000000</ele>
		<time>2013-05-04T02:27:47Z</time>
		</trkpt>

		<trkpt lat="38.747541" lon="-1.153278">
			<ele>1747.000000</ele>
		<time>2013-05-04T02:27:50Z</time>
		</trkpt>

		<trkpt lat="38.747406" lon="-1.153647">
			<ele>1756.000000</ele>
		<time>2013-05-04T02:27:53Z</time>
		</trkpt>

		<trkpt lat="38.747210" lon="-1.153870">
			<ele>1764.000000</ele>
		<time>2013-05-04T02:27:56Z</time>
		</trkpt>

		<trkpt lat="38.746954" lon="-1.153845">
			<ele>1768.000000</ele>
		<time>2013-05-04T02:27:59Z</time>
		</trkpt>

		<trkpt lat="38.746871" lon="-1.153495">
			<ele>1773.000000</ele>
		<time>2013-05-04T02:28:02Z</time>
		</trkpt>

		<trkpt lat="38.746945" lon="-1.153225">
			<ele>1781.000000</ele>
		<time>2013-05-04T02:28:05Z</time>
		</trkpt>

		<trkpt lat="38.747164" lon="-1.153025">
			<ele>1788.000000</ele>
		<time>2013-05-04T02:28:08Z</time>
		</trkpt>

		<trkpt lat="38.747490" lon="-1.153092">
			<ele>1792.000000</ele>
		<time>2013-05-04T02:28:11Z</time>
		</trkpt>

		<trkpt lat="38.747662" lon="-1.153449">
			<ele>1799.000000</ele>
		<time>2013-05-04T02:28:14Z</time>
		</trkpt>

		<trkpt lat="38.747603" lon="-1.153872">
			<ele>1809.000000</ele>
		<time>2013-05-04T02:28:17Z</time>
		</trkpt>

		<trkpt lat="38.747430" lon="-1.154138">
			<ele>1817.000000</ele>
		<time>2013-05-04T02:28:20Z</time>
		</trkpt>

		<trkpt lat="38.747154" lon="-1.154131">
			<ele>1822.000000</ele>
		<time>2013-05-04T02:28:23Z</time>
		</trkpt>

		<trkpt lat="38.746996" lon="-1.153867">
			<ele>1826.000000</ele>
		<time>2013-05-04T02:28:26Z</time>
		</trkpt>

		<trkpt lat="38.747091" lon="-1.153485">
			<ele>1834.000000</ele>
		<time>2013-05-04T02:28:29Z</time>
		</trkpt>

		<trkpt lat="38.747242" lon="-1.153197">
			<ele>1843.000000</ele>
		<time>2013-05-04T02:28:32Z</time>
		</trkpt>

		<trkpt lat="38.747492" lon="-1.153073">
			<ele>1851.000000</ele>
		<time>2013-05-04T02:28:35Z</time>
		</trkpt>

		<trkpt lat="38.747805" lon="-1.153147">
			<ele>1857.000000</ele>
		<time>2013-05-04T02:28:38Z</time>
		</trkpt>

		<trkpt lat="38.748067" lon="-1.153403">
			<ele>1861.000000</ele>
		<time>2013-05-04T02:28:41Z</time>
		</trkpt>

		<trkpt lat="38.748085" lon="-1.153847">
			<ele>1869.000000</ele>
		<time>2013-05-04T02:28:44Z</time>
		</trkpt>

		<trkpt lat="38.747852" lon="-1.154071">
			<ele>1878.000000</ele>
		<time>2013-05-04T02:28:47Z</time>
		</trkpt>

		<trkpt lat="38.747535" lon="-1.154059">
			<ele>1884.000000</ele>
		<time>2013-05-04T02:28:50Z</time>
		</trkpt>

		<trkpt lat="38.747269" lon="-1.153957">
			<ele>1892.000000</ele>
		<time>2013-05-04T02:28:53Z</time>
		</trkpt>

		<trkpt lat="38.747066" lon="-1.153814">
			<ele>1899.000000</ele>
		<time>2013-05-04T02:28:56Z</time>
		</trkpt>

		<trkpt lat="38.747009" lon="-1.153411">
			<ele>1906.000000</ele>
		<time>2013-05-04T02:28:59Z</time>
		</trkpt>

		<trkpt lat="38.747118" lon="-1.153034">
			<ele>1912.000000</ele>
		<time>2013-05-04T02:29:02Z</time>
		</trkpt>

		<trkpt lat="38.747367" lon="-1.152902">
			<ele>1918.000000</ele>
		<time>2013-05-04T02:29:05Z</time>
		</trkpt>

		<trkpt lat="38.747681" lon="-1.153052">
			<ele>1920.000000</ele>
		<time>2013-05-04T02:29:08Z</time>
		</trkpt>

		<trkpt lat="38.747793" lon="-1.153500">
			<ele>1926.000000</ele>
		<time>2013-05-04T02:29:11Z</time>
		</trkpt>

		<trkpt lat="38.747665" lon="-1.153890">
			<ele>1933.000000</ele>
		<time>2013-05-04T02:29:14Z</time>
		</trkpt>

		<trkpt lat="38.747335" lon="-1.153951">
			<ele>1939.000000</ele>
		<time>2013-05-04T02:29:17Z</time>
		</trkpt>

		<trkpt lat="38.747131" lon="-1.153683">
			<ele>1945.000000</ele>
		<time>2013-05-04T02:29:20Z</time>
		</trkpt>

		<trkpt lat="38.747004" lon="-1.153377">
			<ele>1949.000000</ele>
		<time>2013-05-04T02:29:23Z</time>
		</trkpt>

		<trkpt lat="38.747122" lon="-1.153000">
			<ele>1955.000000</ele>
		<time>2013-05-04T02:29:26Z</time>
		</trkpt>

		<trkpt lat="38.747382" lon="-1.152865">
			<ele>1960.000000</ele>
		<time>2013-05-04T02:29:29Z</time>
		</trkpt>

		<trkpt lat="38.747665" lon="-1.153034">
			<ele>1962.000000</ele>
		<time>2013-05-04T02:29:32Z</time>
		</trkpt>

		<trkpt lat="38.747858" lon="-1.153374">
			<ele>1966.000000</ele>
		<time>2013-05-04T02:29:35Z</time>
		</trkpt>

		<trkpt lat="38.747746" lon="-1.153817">
			<ele>1973.000000</ele>
		<time>2013-05-04T02:29:38Z</time>
		</trkpt>

		<trkpt lat="38.747617" lon="-1.154120">
			<ele>1979.000000</ele>
		<time>2013-05-04T02:29:41Z</time>
		</trkpt>

		<trkpt lat="38.747348" lon="-1.154246">
			<ele>1984.000000</ele>
		<time>2013-05-04T02:29:44Z</time>
		</trkpt>

		<trkpt lat="38.747086" lon="-1.154075">
			<ele>1986.000000</ele>
		<time>2013-05-04T02:29:47Z</time>
		</trkpt>

		<trkpt lat="38.747006" lon="-1.153730">
			<ele>1989.000000</ele>
		<time>2013-05-04T02:29:50Z</time>
		</trkpt>

		<trkpt lat="38.747085" lon="-1.153389">
			<ele>1992.000000</ele>
		<time>2013-05-04T02:29:53Z</time>
		</trkpt>

		<trkpt lat="38.747369" lon="-1.153242">
			<ele>1996.000000</ele>
		<time>2013-05-04T02:29:56Z</time>
		</trkpt>

		<trkpt lat="38.747637" lon="-1.153220">
			<ele>2001.000000</ele>
		<time>2013-05-04T02:29:59Z</time>
		</trkpt>

		<trkpt lat="38.747909" lon="-1.153352">
			<ele>2004.000000</ele>
		<time>2013-05-04T02:30:02Z</time>
		</trkpt>

		<trkpt lat="38.747979" lon="-1.153772">
			<ele>2010.000000</ele>
		<time>2013-05-04T02:30:05Z</time>
		</trkpt>

		<trkpt lat="38.747779" lon="-1.154039">
			<ele>2019.000000</ele>
		<time>2013-05-04T02:30:08Z</time>
		</trkpt>

		<trkpt lat="38.747479" lon="-1.154051">
			<ele>2024.000000</ele>
		<time>2013-05-04T02:30:11Z</time>
		</trkpt>

		<trkpt lat="38.747257" lon="-1.153855">
			<ele>2029.000000</ele>
		<time>2013-05-04T02:30:14Z</time>
		</trkpt>

		<trkpt lat="38.747155" lon="-1.153494">
			<ele>2035.000000</ele>
		<time>2013-05-04T02:30:17Z</time>
		</trkpt>

		<trkpt lat="38.747181" lon="-1.153092">
			<ele>2044.000000</ele>
		<time>2013-05-04T02:30:20Z</time>
		</trkpt>

		<trkpt lat="38.747407" lon="-1.152864">
			<ele>2051.000000</ele>
		<time>2013-05-04T02:30:23Z</time>
		</trkpt>

		<trkpt lat="38.747699" lon="-1.153019">
			<ele>2057.000000</ele>
		<time>2013-05-04T02:30:26Z</time>
		</trkpt>

		<trkpt lat="38.747889" lon="-1.153268">
			<ele>2059.000000</ele>
		<time>2013-05-04T02:30:29Z</time>
		</trkpt>

		<trkpt lat="38.747969" lon="-1.153638">
			<ele>2062.000000</ele>
		<time>2013-05-04T02:30:32Z</time>
		</trkpt>

		<trkpt lat="38.747831" lon="-1.154002">
			<ele>2067.000000</ele>
		<time>2013-05-04T02:30:35Z</time>
		</trkpt>

		<trkpt lat="38.747631" lon="-1.154257">
			<ele>2074.000000</ele>
		<time>2013-05-04T02:30:38Z</time>
		</trkpt>

		<trkpt lat="38.747397" lon="-1.154383">
			<ele>2081.000000</ele>
		<time>2013-05-04T02:30:41Z</time>
		</trkpt>

		<trkpt lat="38.747129" lon="-1.154363">
			<ele>2085.000000</ele>
		<time>2013-05-04T02:30:44Z</time>
		</trkpt>

		<trkpt lat="38.747012" lon="-1.153970">
			<ele>2088.000000</ele>
		<time>2013-05-04T02:30:47Z</time>
		</trkpt>

		<trkpt lat="38.747161" lon="-1.153645">
			<ele>2092.000000</ele>
		<time>2013-05-04T02:30:50Z</time>
		</trkpt>

		<trkpt lat="38.747392" lon="-1.153411">
			<ele>2095.000000</ele>
		<time>2013-05-04T02:30:53Z</time>
		</trkpt>

		<trkpt lat="38.747620" lon="-1.153294">
			<ele>2101.000000</ele>
		<time>2013-05-04T02:30:56Z</time>
		</trkpt>

		<trkpt lat="38.747859" lon="-1.153251">
			<ele>2104.000000</ele>
		<time>2013-05-04T02:30:59Z</time>
		</trkpt>

		<trkpt lat="38.748110" lon="-1.153482">
			<ele>2106.000000</ele>
		<time>2013-05-04T02:31:02Z</time>
		</trkpt>

		<trkpt lat="38.748200" lon="-1.153832">
			<ele>2111.000000</ele>
		<time>2013-05-04T02:31:05Z</time>
		</trkpt>

		<trkpt lat="38.748215" lon="-1.154176">
			<ele>2116.000000</ele>
		<time>2013-05-04T02:31:08Z</time>
		</trkpt>

		<trkpt lat="38.748078" lon="-1.154473">
			<ele>2123.000000</ele>
		<time>2013-05-04T02:31:11Z</time>
		</trkpt>

		<trkpt lat="38.747848" lon="-1.154602">
			<ele>2128.000000</ele>
		<time>2013-05-04T02:31:14Z</time>
		</trkpt>

		<trkpt lat="38.747559" lon="-1.154579">
			<ele>2132.000000</ele>
		<time>2013-05-04T02:31:17Z</time>
		</trkpt>

		<trkpt lat="38.747340" lon="-1.154342">
			<ele>2135.000000</ele>
		<time>2013-05-04T02:31:20Z</time>
		</trkpt>

		<trkpt lat="38.747343" lon="-1.153966">
			<ele>2139.000000</ele>
		<time>2013-05-04T02:31:23Z</time>
		</trkpt>

		<trkpt lat="38.747468" lon="-1.153617">
			<ele>2144.000000</ele>
		<time>2013-05-04T02:31:26Z</time>
		</trkpt>

		<trkpt lat="38.747679" lon="-1.153375">
			<ele>2149.000000</ele>
		<time>2013-05-04T02:31:29Z</time>
		</trkpt>

		<trkpt lat="38.747917" lon="-1.153257">
			<ele>2152.000000</ele>
		<time>2013-05-04T02:31:32Z</time>
		</trkpt>

		<trkpt lat="38.748191" lon="-1.153221">
			<ele>2154.000000</ele>
		<time>2013-05-04T02:31:35Z</time>
		</trkpt>

		<trkpt lat="38.748426" lon="-1.153305">
			<ele>2159.000000</ele>
		<time>2013-05-04T02:31:38Z</time>
		</trkpt>

		<trkpt lat="38.748651" lon="-1.153524">
			<ele>2162.000000</ele>
		<time>2013-05-04T02:31:41Z</time>
		</trkpt>

		<trkpt lat="38.748798" lon="-1.153812">
			<ele>2166.000000</ele>
		<time>2013-05-04T02:31:44Z</time>
		</trkpt>

		<trkpt lat="38.748876" lon="-1.154150">
			<ele>2169.000000</ele>
		<time>2013-05-04T02:31:47Z</time>
		</trkpt>

		<trkpt lat="38.748823" lon="-1.154549">
			<ele>2171.000000</ele>
		<time>2013-05-04T02:31:50Z</time>
		</trkpt>

		<trkpt lat="38.748629" lon="-1.154773">
			<ele>2174.000000</ele>
		<time>2013-05-04T02:31:53Z</time>
		</trkpt>

		<trkpt lat="38.748347" lon="-1.154863">
			<ele>2179.000000</ele>
		<time>2013-05-04T02:31:56Z</time>
		</trkpt>

		<trkpt lat="38.748015" lon="-1.154824">
			<ele>2183.000000</ele>
		<time>2013-05-04T02:31:59Z</time>
		</trkpt>

		<trkpt lat="38.747860" lon="-1.154523">
			<ele>2186.000000</ele>
		<time>2013-05-04T02:32:02Z</time>
		</trkpt>

		<trkpt lat="38.747791" lon="-1.154112">
			<ele>2195.000000</ele>
		<time>2013-05-04T02:32:05Z</time>
		</trkpt>

		<trkpt lat="38.747821" lon="-1.153743">
			<ele>2200.000000</ele>
		<time>2013-05-04T02:32:08Z</time>
		</trkpt>

		<trkpt lat="38.747958" lon="-1.153477">
			<ele>2207.000000</ele>
		<time>2013-05-04T02:32:11Z</time>
		</trkpt>

		<trkpt lat="38.748212" lon="-1.153421">
			<ele>2209.000000</ele>
		<time>2013-05-04T02:32:14Z</time>
		</trkpt>

		<trkpt lat="38.748458" lon="-1.153617">
			<ele>2212.000000</ele>
		<time>2013-05-04T02:32:17Z</time>
		</trkpt>

		<trkpt lat="38.748560" lon="-1.153934">
			<ele>2217.000000</ele>
		<time>2013-05-04T02:32:20Z</time>
		</trkpt>

		<trkpt lat="38.748576" lon="-1.154302">
			<ele>2220.000000</ele>
		<time>2013-05-04T02:32:23Z</time>
		</trkpt>

		<trkpt lat="38.748474" lon="-1.154652">
			<ele>2224.000000</ele>
		<time>2013-05-04T02:32:26Z</time>
		</trkpt>

		<trkpt lat="38.748300" lon="-1.154922">
			<ele>2229.000000</ele>
		<time>2013-05-04T02:32:29Z</time>
		</trkpt>

		<trkpt lat="38.748035" lon="-1.155089">
			<ele>2232.000000</ele>
		<time>2013-05-04T02:32:32Z</time>
		</trkpt>

		<trkpt lat="38.747724" lon="-1.155004">
			<ele>2238.000000</ele>
		<time>2013-05-04T02:32:35Z</time>
		</trkpt>

		<trkpt lat="38.747525" lon="-1.154787">
			<ele>2245.000000</ele>
		<time>2013-05-04T02:32:38Z</time>
		</trkpt>

		<trkpt lat="38.747433" lon="-1.154464">
			<ele>2249.000000</ele>
		<time>2013-05-04T02:32:41Z</time>
		</trkpt>

		<trkpt lat="38.747522" lon="-1.154086">
			<ele>2255.000000</ele>
		<time>2013-05-04T02:32:44Z</time>
		</trkpt>

		<trkpt lat="38.747769" lon="-1.154012">
			<ele>2261.000000</ele>
		<time>2013-05-04T02:32:47Z</time>
		</trkpt>

		<trkpt lat="38.748005" lon="-1.154066">
			<ele>2265.000000</ele>
		<time>2013-05-04T02:32:50Z</time>
		</trkpt>

		<trkpt lat="38.748204" lon="-1.154294">
			<ele>2271.000000</ele>
		<time>2013-05-04T02:32:53Z</time>
		</trkpt>

		<trkpt lat="38.748314" lon="-1.154614">
			<ele>2274.000000</ele>
		<time>2013-05-04T02:32:56Z</time>
		</trkpt>

		<trkpt lat="38.748316" lon="-1.154974">
			<ele>2278.000000</ele>
		<time>2013-05-04T02:32:59Z</time>
		</trkpt>

		<trkpt lat="38.748203" lon="-1.155325">
			<ele>2283.000000</ele>
		<time>2013-05-04T02:33:02Z</time>
		</trkpt>

		<trkpt lat="38.747980" lon="-1.155553">
			<ele>2288.000000</ele>
		<time>2013-05-04T02:33:05Z</time>
		</trkpt>

		<trkpt lat="38.747647" lon="-1.155616">
			<ele>2292.000000</ele>
		<time>2013-05-04T02:33:08Z</time>
		</trkpt>

		<trkpt lat="38.747343" lon="-1.155574">
			<ele>2296.000000</ele>
		<time>2013-05-04T02:33:11Z</time>
		</trkpt>

		<trkpt lat="38.747158" lon="-1.155373">
			<ele>2299.000000</ele>
		<time>2013-05-04T02:33:14Z</time>
		</trkpt>

		<trkpt lat="38.747052" lon="-1.155035">
			<ele>2299.000000</ele>
		<time>2013-05-04T02:33:17Z</time>
		</trkpt>

		<trkpt lat="38.747137" lon="-1.154636">
			<ele>2303.000000</ele>
		<time>2013-05-04T02:33:20Z</time>
		</trkpt>

		<trkpt lat="38.747348" lon="-1.154408">
			<ele>2304.000000</ele>
		<time>2013-05-04T02:33:23Z</time>
		</trkpt>

		<trkpt lat="38.747608" lon="-1.154416">
			<ele>2305.000000</ele>
		<time>2013-05-04T02:33:26Z</time>
		</trkpt>

		<trkpt lat="38.747807" lon="-1.154635">
			<ele>2309.000000</ele>
		<time>2013-05-04T02:33:29Z</time>
		</trkpt>

		<trkpt lat="38.747975" lon="-1.154837">
			<ele>2315.000000</ele>
		<time>2013-05-04T02:33:32Z</time>
		</trkpt>

		<trkpt lat="38.748116" lon="-1.155092">
			<ele>2320.000000</ele>
		<time>2013-05-04T02:33:35Z</time>
		</trkpt>

		<trkpt lat="38.748197" lon="-1.155443">
			<ele>2325.000000</ele>
		<time>2013-05-04T02:33:38Z</time>
		</trkpt>

		<trkpt lat="38.748147" lon="-1.155798">
			<ele>2331.000000</ele>
		<time>2013-05-04T02:33:41Z</time>
		</trkpt>

		<trkpt lat="38.748047" lon="-1.156121">
			<ele>2337.000000</ele>
		<time>2013-05-04T02:33:44Z</time>
		</trkpt>

		<trkpt lat="38.747893" lon="-1.156341">
			<ele>2342.000000</ele>
		<time>2013-05-04T02:33:47Z</time>
		</trkpt>

		<trkpt lat="38.747683" lon="-1.156489">
			<ele>2345.000000</ele>
		<time>2013-05-04T02:33:50Z</time>
		</trkpt>

		<trkpt lat="38.747377" lon="-1.156331">
			<ele>2345.000000</ele>
		<time>2013-05-04T02:33:53Z</time>
		</trkpt>

		<trkpt lat="38.747235" lon="-1.155947">
			<ele>2348.000000</ele>
		<time>2013-05-04T02:33:56Z</time>
		</trkpt>

		<trkpt lat="38.747246" lon="-1.155610">
			<ele>2351.000000</ele>
		<time>2013-05-04T02:33:59Z</time>
		</trkpt>

		<trkpt lat="38.747408" lon="-1.155308">
			<ele>2353.000000</ele>
		<time>2013-05-04T02:34:02Z</time>
		</trkpt>

		<trkpt lat="38.747681" lon="-1.155253">
			<ele>2356.000000</ele>
		<time>2013-05-04T02:34:05Z</time>
		</trkpt>

		<trkpt lat="38.747926" lon="-1.155389">
			<ele>2357.000000</ele>
		<time>2013-05-04T02:34:08Z</time>
		</trkpt>

		<trkpt lat="38.748112" lon="-1.155634">
			<ele>2361.000000</ele>
		<time>2013-05-04T02:34:11Z</time>
		</trkpt>

		<trkpt lat="38.748255" lon="-1.155868">
			<ele>2365.000000</ele>
		<time>2013-05-04T02:34:14Z</time>
		</trkpt>

		<trkpt lat="38.748426" lon="-1.156151">
			<ele>2368.000000</ele>
		<time>2013-05-04T02:34:17Z</time>
		</trkpt>

		<trkpt lat="38.748585" lon="-1.156398">
			<ele>2372.000000</ele>
		<time>2013-05-04T02:34:20Z</time>
		</trkpt>

		<trkpt lat="38.748755" lon="-1.156637">
			<ele>2373.000000</ele>
		<time>2013-05-04T02:34:23Z</time>
		</trkpt>

		<trkpt lat="38.748923" lon="-1.156866">
			<ele>2373.000000</ele>
		<time>2013-05-04T02:34:26Z</time>
		</trkpt>

		<trkpt lat="38.749088" lon="-1.157096">
			<ele>2375.000000</ele>
		<time>2013-05-04T02:34:29Z</time>
		</trkpt>

		<trkpt lat="38.749284" lon="-1.157327">
			<ele>2377.000000</ele>
		<time>2013-05-04T02:34:32Z</time>
		</trkpt>

		<trkpt lat="38.749498" lon="-1.157504">
			<ele>2379.000000</ele>
		<time>2013-05-04T02:34:35Z</time>
		</trkpt>

		<trkpt lat="38.749720" lon="-1.157634">
			<ele>2382.000000</ele>
		<time>2013-05-04T02:34:38Z</time>
		</trkpt>

		<trkpt lat="38.749934" lon="-1.157799">
			<ele>2384.000000</ele>
		<time>2013-05-04T02:34:41Z</time>
		</trkpt>

		<trkpt lat="38.750161" lon="-1.157963">
			<ele>2384.000000</ele>
		<time>2013-05-04T02:34:44Z</time>
		</trkpt>

		<trkpt lat="38.750439" lon="-1.158135">
			<ele>2383.000000</ele>
		<time>2013-05-04T02:34:47Z</time>
		</trkpt>

		<trkpt lat="38.750693" lon="-1.158311">
			<ele>2383.000000</ele>
		<time>2013-05-04T02:34:50Z</time>
		</trkpt>

		<trkpt lat="38.750936" lon="-1.158473">
			<ele>2380.000000</ele>
		<time>2013-05-04T02:34:53Z</time>
		</trkpt>

		<trkpt lat="38.751150" lon="-1.158664">
			<ele>2377.000000</ele>
		<time>2013-05-04T02:34:56Z</time>
		</trkpt>

		<trkpt lat="38.751431" lon="-1.158834">
			<ele>2372.000000</ele>
		<time>2013-05-04T02:34:59Z</time>
		</trkpt>

		<trkpt lat="38.751704" lon="-1.159068">
			<ele>2370.000000</ele>
		<time>2013-05-04T02:35:02Z</time>
		</trkpt>

		<trkpt lat="38.751931" lon="-1.159343">
			<ele>2369.000000</ele>
		<time>2013-05-04T02:35:05Z</time>
		</trkpt>

		<trkpt lat="38.752131" lon="-1.159684">
			<ele>2365.000000</ele>
		<time>2013-05-04T02:35:08Z</time>
		</trkpt>

		<trkpt lat="38.752332" lon="-1.160040">
			<ele>2362.000000</ele>
		<time>2013-05-04T02:35:11Z</time>
		</trkpt>

		<trkpt lat="38.752577" lon="-1.160353">
			<ele>2360.000000</ele>
		<time>2013-05-04T02:35:14Z</time>
		</trkpt>

		<trkpt lat="38.752834" lon="-1.160672">
			<ele>2356.000000</ele>
		<time>2013-05-04T02:35:17Z</time>
		</trkpt>

		<trkpt lat="38.753089" lon="-1.160952">
			<ele>2355.000000</ele>
		<time>2013-05-04T02:35:20Z</time>
		</trkpt>

		<trkpt lat="38.753322" lon="-1.161219">
			<ele>2355.000000</ele>
		<time>2013-05-04T02:35:23Z</time>
		</trkpt>

		<trkpt lat="38.753552" lon="-1.161516">
			<ele>2353.000000</ele>
		<time>2013-05-04T02:35:26Z</time>
		</trkpt>

		<trkpt lat="38.753795" lon="-1.161818">
			<ele>2350.000000</ele>
		<time>2013-05-04T02:35:29Z</time>
		</trkpt>

		<trkpt lat="38.754032" lon="-1.162153">
			<ele>2346.000000</ele>
		<time>2013-05-04T02:35:32Z</time>
		</trkpt>

		<trkpt lat="38.754275" lon="-1.162442">
			<ele>2341.000000</ele>
		<time>2013-05-04T02:35:35Z</time>
		</trkpt>

		<trkpt lat="38.754536" lon="-1.162719">
			<ele>2334.000000</ele>
		<time>2013-05-04T02:35:38Z</time>
		</trkpt>

		<trkpt lat="38.754810" lon="-1.163018">
			<ele>2328.000000</ele>
		<time>2013-05-04T02:35:41Z</time>
		</trkpt>

		<trkpt lat="38.755075" lon="-1.163252">
			<ele>2325.000000</ele>
		<time>2013-05-04T02:35:44Z</time>
		</trkpt>

		<trkpt lat="38.755346" lon="-1.163501">
			<ele>2324.000000</ele>
		<time>2013-05-04T02:35:47Z</time>
		</trkpt>

		<trkpt lat="38.755605" lon="-1.163770">
			<ele>2324.000000</ele>
		<time>2013-05-04T02:35:50Z</time>
		</trkpt>

		<trkpt lat="38.755858" lon="-1.164044">
			<ele>2323.000000</ele>
		<time>2013-05-04T02:35:53Z</time>
		</trkpt>

		<trkpt lat="38.756119" lon="-1.164321">
			<ele>2322.000000</ele>
		<time>2013-05-04T02:35:56Z</time>
		</trkpt>

		<trkpt lat="38.756347" lon="-1.164601">
			<ele>2321.000000</ele>
		<time>2013-05-04T02:35:59Z</time>
		</trkpt>

		<trkpt lat="38.756578" lon="-1.164896">
			<ele>2318.000000</ele>
		<time>2013-05-04T02:36:02Z</time>
		</trkpt>

		<trkpt lat="38.756830" lon="-1.165193">
			<ele>2313.000000</ele>
		<time>2013-05-04T02:36:05Z</time>
		</trkpt>

		<trkpt lat="38.757080" lon="-1.165480">
			<ele>2306.000000</ele>
		<time>2013-05-04T02:36:08Z</time>
		</trkpt>

		<trkpt lat="38.757357" lon="-1.165751">
			<ele>2297.000000</ele>
		<time>2013-05-04T02:36:11Z</time>
		</trkpt>

		<trkpt lat="38.757658" lon="-1.166000">
			<ele>2291.000000</ele>
		<time>2013-05-04T02:36:14Z</time>
		</trkpt>

		<trkpt lat="38.757931" lon="-1.166252">
			<ele>2287.000000</ele>
		<time>2013-05-04T02:36:17Z</time>
		</trkpt>

		<trkpt lat="38.758171" lon="-1.166535">
			<ele>2283.000000</ele>
		<time>2013-05-04T02:36:20Z</time>
		</trkpt>

		<trkpt lat="38.758416" lon="-1.166830">
			<ele>2279.000000</ele>
		<time>2013-05-04T02:36:23Z</time>
		</trkpt>

		<trkpt lat="38.758658" lon="-1.167050">
			<ele>2277.000000</ele>
		<time>2013-05-04T02:36:26Z</time>
		</trkpt>

		<trkpt lat="38.758904" lon="-1.167285">
			<ele>2274.000000</ele>
		<time>2013-05-04T02:36:29Z</time>
		</trkpt>

		<trkpt lat="38.759061" lon="-1.167499">
			<ele>2274.000000</ele>
		<time>2013-05-04T02:36:32Z</time>
		</trkpt>

		<trkpt lat="38.759170" lon="-1.167749">
			<ele>2273.000000</ele>
		<time>2013-05-04T02:36:35Z</time>
		</trkpt>

		<trkpt lat="38.759350" lon="-1.168052">
			<ele>2274.000000</ele>
		<time>2013-05-04T02:36:38Z</time>
		</trkpt>

		<trkpt lat="38.759492" lon="-1.168254">
			<ele>2277.000000</ele>
		<time>2013-05-04T02:36:41Z</time>
		</trkpt>

		<trkpt lat="38.759654" lon="-1.168497">
			<ele>2279.000000</ele>
		<time>2013-05-04T02:36:44Z</time>
		</trkpt>

		<trkpt lat="38.759803" lon="-1.168724">
			<ele>2283.000000</ele>
		<time>2013-05-04T02:36:47Z</time>
		</trkpt>

		<trkpt lat="38.759932" lon="-1.168936">
			<ele>2284.000000</ele>
		<time>2013-05-04T02:36:50Z</time>
		</trkpt>

		<trkpt lat="38.760119" lon="-1.169149">
			<ele>2283.000000</ele>
		<time>2013-05-04T02:36:53Z</time>
		</trkpt>

		<trkpt lat="38.760303" lon="-1.169349">
			<ele>2283.000000</ele>
		<time>2013-05-04T02:36:56Z</time>
		</trkpt>

		<trkpt lat="38.760505" lon="-1.169544">
			<ele>2283.000000</ele>
		<time>2013-05-04T02:36:59Z</time>
		</trkpt>

		<trkpt lat="38.760716" lon="-1.169701">
			<ele>2282.000000</ele>
		<time>2013-05-04T02:37:02Z</time>
		</trkpt>

		<trkpt lat="38.760956" lon="-1.169846">
			<ele>2282.000000</ele>
		<time>2013-05-04T02:37:05Z</time>
		</trkpt>

		<trkpt lat="38.761205" lon="-1.170035">
			<ele>2282.000000</ele>
		<time>2013-05-04T02:37:08Z</time>
		</trkpt>

		<trkpt lat="38.761493" lon="-1.170231">
			<ele>2282.000000</ele>
		<time>2013-05-04T02:37:11Z</time>
		</trkpt>

		<trkpt lat="38.761731" lon="-1.170375">
			<ele>2283.000000</ele>
		<time>2013-05-04T02:37:14Z</time>
		</trkpt>

		<trkpt lat="38.761914" lon="-1.170512">
			<ele>2286.000000</ele>
		<time>2013-05-04T02:37:17Z</time>
		</trkpt>

		<trkpt lat="38.762154" lon="-1.170671">
			<ele>2285.000000</ele>
		<time>2013-05-04T02:37:20Z</time>
		</trkpt>

		<trkpt lat="38.762398" lon="-1.170850">
			<ele>2285.000000</ele>
		<time>2013-05-04T02:37:23Z</time>
		</trkpt>

		<trkpt lat="38.762633" lon="-1.171009">
			<ele>2286.000000</ele>
		<time>2013-05-04T02:37:26Z</time>
		</trkpt>

		<trkpt lat="38.762894" lon="-1.171157">
			<ele>2287.000000</ele>
		<time>2013-05-04T02:37:29Z</time>
		</trkpt>

		<trkpt lat="38.763150" lon="-1.171279">
			<ele>2288.000000</ele>
		<time>2013-05-04T02:37:32Z</time>
		</trkpt>

		<trkpt lat="38.763427" lon="-1.171404">
			<ele>2290.000000</ele>
		<time>2013-05-04T02:37:35Z</time>
		</trkpt>

		<trkpt lat="38.763635" lon="-1.171490">
			<ele>2291.000000</ele>
		<time>2013-05-04T02:37:38Z</time>
		</trkpt>

		<trkpt lat="38.763864" lon="-1.171547">
			<ele>2292.000000</ele>
		<time>2013-05-04T02:37:41Z</time>
		</trkpt>

		<trkpt lat="38.764126" lon="-1.171569">
			<ele>2293.000000</ele>
		<time>2013-05-04T02:37:44Z</time>
		</trkpt>

		<trkpt lat="38.764352" lon="-1.171637">
			<ele>2295.000000</ele>
		<time>2013-05-04T02:37:47Z</time>
		</trkpt>

		<trkpt lat="38.764440" lon="-1.171857">
			<ele>2298.000000</ele>
		<time>2013-05-04T02:37:50Z</time>
		</trkpt>

		<trkpt lat="38.764410" lon="-1.172179">
			<ele>2300.000000</ele>
		<time>2013-05-04T02:37:53Z</time>
		</trkpt>

		<trkpt lat="38.764420" lon="-1.172487">
			<ele>2301.000000</ele>
		<time>2013-05-04T02:37:56Z</time>
		</trkpt>

		<trkpt lat="38.764556" lon="-1.172756">
			<ele>2302.000000</ele>
		<time>2013-05-04T02:37:59Z</time>
		</trkpt>

		<trkpt lat="38.764762" lon="-1.172924">
			<ele>2305.000000</ele>
		<time>2013-05-04T02:38:02Z</time>
		</trkpt>

		<trkpt lat="38.764944" lon="-1.173062">
			<ele>2308.000000</ele>
		<time>2013-05-04T02:38:05Z</time>
		</trkpt>

		<trkpt lat="38.765126" lon="-1.173266">
			<ele>2311.000000</ele>
		<time>2013-05-04T02:38:08Z</time>
		</trkpt>

		<trkpt lat="38.765329" lon="-1.173470">
			<ele>2316.000000</ele>
		<time>2013-05-04T02:38:11Z</time>
		</trkpt>

		<trkpt lat="38.765556" lon="-1.173657">
			<ele>2319.000000</ele>
		<time>2013-05-04T02:38:14Z</time>
		</trkpt>

		<trkpt lat="38.765846" lon="-1.173786">
			<ele>2323.000000</ele>
		<time>2013-05-04T02:38:17Z</time>
		</trkpt>

		<trkpt lat="38.766106" lon="-1.173795">
			<ele>2326.000000</ele>
		<time>2013-05-04T02:38:20Z</time>
		</trkpt>

		<trkpt lat="38.766366" lon="-1.173711">
			<ele>2328.000000</ele>
		<time>2013-05-04T02:38:23Z</time>
		</trkpt>

		<trkpt lat="38.766652" lon="-1.173713">
			<ele>2328.000000</ele>
		<time>2013-05-04T02:38:26Z</time>
		</trkpt>

		<trkpt lat="38.766919" lon="-1.173815">
			<ele>2327.000000</ele>
		<time>2013-05-04T02:38:29Z</time>
		</trkpt>

		<trkpt lat="38.767194" lon="-1.174057">
			<ele>2323.000000</ele>
		<time>2013-05-04T02:38:32Z</time>
		</trkpt>

		<trkpt lat="38.767434" lon="-1.174378">
			<ele>2317.000000</ele>
		<time>2013-05-04T02:38:35Z</time>
		</trkpt>

		<trkpt lat="38.767686" lon="-1.174667">
			<ele>2313.000000</ele>
		<time>2013-05-04T02:38:38Z</time>
		</trkpt>

		<trkpt lat="38.767860" lon="-1.174905">
			<ele>2309.000000</ele>
		<time>2013-05-04T02:38:41Z</time>
		</trkpt>

		<trkpt lat="38.768083" lon="-1.175209">
			<ele>2302.000000</ele>
		<time>2013-05-04T02:38:44Z</time>
		</trkpt>

		<trkpt lat="38.768303" lon="-1.175489">
			<ele>2296.000000</ele>
		<time>2013-05-04T02:38:47Z</time>
		</trkpt>

		<trkpt lat="38.768532" lon="-1.175778">
			<ele>2289.000000</ele>
		<time>2013-05-04T02:38:50Z</time>
		</trkpt>

		<trkpt lat="38.768728" lon="-1.176092">
			<ele>2283.000000</ele>
		<time>2013-05-04T02:38:53Z</time>
		</trkpt>

		<trkpt lat="38.768859" lon="-1.176404">
			<ele>2277.000000</ele>
		<time>2013-05-04T02:38:56Z</time>
		</trkpt>

		<trkpt lat="38.769049" lon="-1.176763">
			<ele>2268.000000</ele>
		<time>2013-05-04T02:38:59Z</time>
		</trkpt>

		<trkpt lat="38.769257" lon="-1.177119">
			<ele>2262.000000</ele>
		<time>2013-05-04T02:39:02Z</time>
		</trkpt>

		<trkpt lat="38.769460" lon="-1.177443">
			<ele>2254.000000</ele>
		<time>2013-05-04T02:39:05Z</time>
		</trkpt>

		<trkpt lat="38.769728" lon="-1.177773">
			<ele>2247.000000</ele>
		<time>2013-05-04T02:39:08Z</time>
		</trkpt>

		<trkpt lat="38.770006" lon="-1.178027">
			<ele>2241.000000</ele>
		<time>2013-05-04T02:39:11Z</time>
		</trkpt>

		<trkpt lat="38.770279" lon="-1.178317">
			<ele>2234.000000</ele>
		<time>2013-05-04T02:39:14Z</time>
		</trkpt>

		<trkpt lat="38.770574" lon="-1.178628">
			<ele>2228.000000</ele>
		<time>2013-05-04T02:39:17Z</time>
		</trkpt>

		<trkpt lat="38.770851" lon="-1.178890">
			<ele>2223.000000</ele>
		<time>2013-05-04T02:39:20Z</time>
		</trkpt>

		<trkpt lat="38.771152" lon="-1.179173">
			<ele>2219.000000</ele>
		<time>2013-05-04T02:39:23Z</time>
		</trkpt>

		<trkpt lat="38.771465" lon="-1.179470">
			<ele>2215.000000</ele>
		<time>2013-05-04T02:39:26Z</time>
		</trkpt>

		<trkpt lat="38.771802" lon="-1.179672">
			<ele>2214.000000</ele>
		<time>2013-05-04T02:39:29Z</time>
		</trkpt>

		<trkpt lat="38.772097" lon="-1.179854">
			<ele>2214.000000</ele>
		<time>2013-05-04T02:39:32Z</time>
		</trkpt>

		<trkpt lat="38.772439" lon="-1.180028">
			<ele>2212.000000</ele>
		<time>2013-05-04T02:39:35Z</time>
		</trkpt>

		<trkpt lat="38.772759" lon="-1.180262">
			<ele>2211.000000</ele>
		<time>2013-05-04T02:39:38Z</time>
		</trkpt>

		<trkpt lat="38.773041" lon="-1.180490">
			<ele>2209.000000</ele>
		<time>2013-05-04T02:39:41Z</time>
		</trkpt>

		<trkpt lat="38.773335" lon="-1.180716">
			<ele>2206.000000</ele>
		<time>2013-05-04T02:39:44Z</time>
		</trkpt>

		<trkpt lat="38.773654" lon="-1.180916">
			<ele>2203.000000</ele>
		<time>2013-05-04T02:39:47Z</time>
		</trkpt>

		<trkpt lat="38.773933" lon="-1.181126">
			<ele>2199.000000</ele>
		<time>2013-05-04T02:39:50Z</time>
		</trkpt>

		<trkpt lat="38.774204" lon="-1.181412">
			<ele>2195.000000</ele>
		<time>2013-05-04T02:39:53Z</time>
		</trkpt>

		<trkpt lat="38.774495" lon="-1.181656">
			<ele>2191.000000</ele>
		<time>2013-05-04T02:39:56Z</time>
		</trkpt>

		<trkpt lat="38.774774" lon="-1.181888">
			<ele>2188.000000</ele>
		<time>2013-05-04T02:39:59Z</time>
		</trkpt>

		<trkpt lat="38.775009" lon="-1.182137">
			<ele>2186.000000</ele>
		<time>2013-05-04T02:40:02Z</time>
		</trkpt>

		<trkpt lat="38.775236" lon="-1.182391">
			<ele>2182.000000</ele>
		<time>2013-05-04T02:40:05Z</time>
		</trkpt>

		<trkpt lat="38.775510" lon="-1.182614">
			<ele>2178.000000</ele>
		<time>2013-05-04T02:40:08Z</time>
		</trkpt>

		<trkpt lat="38.775771" lon="-1.182761">
			<ele>2177.000000</ele>
		<time>2013-05-04T02:40:11Z</time>
		</trkpt>

		<trkpt lat="38.776055" lon="-1.182849">
			<ele>2174.000000</ele>
		<time>2013-05-04T02:40:14Z</time>
		</trkpt>

		<trkpt lat="38.776371" lon="-1.182763">
			<ele>2173.000000</ele>
		<time>2013-05-04T02:40:17Z</time>
		</trkpt>

		<trkpt lat="38.776660" lon="-1.182545">
			<ele>2173.000000</ele>
		<time>2013-05-04T02:40:20Z</time>
		</trkpt>

		<trkpt lat="38.776978" lon="-1.182348">
			<ele>2172.000000</ele>
		<time>2013-05-04T02:40:23Z</time>
		</trkpt>

		<trkpt lat="38.777294" lon="-1.182154">
			<ele>2172.000000</ele>
		<time>2013-05-04T02:40:26Z</time>
		</trkpt>

		<trkpt lat="38.777629" lon="-1.181979">
			<ele>2172.000000</ele>
		<time>2013-05-04T02:40:29Z</time>
		</trkpt>

		<trkpt lat="38.777928" lon="-1.181817">
			<ele>2173.000000</ele>
		<time>2013-05-04T02:40:32Z</time>
		</trkpt>

		<trkpt lat="38.778193" lon="-1.181578">
			<ele>2175.000000</ele>
		<time>2013-05-04T02:40:35Z</time>
		</trkpt>

		<trkpt lat="38.778451" lon="-1.181377">
			<ele>2178.000000</ele>
		<time>2013-05-04T02:40:38Z</time>
		</trkpt>

		<trkpt lat="38.778693" lon="-1.181246">
			<ele>2179.000000</ele>
		<time>2013-05-04T02:40:41Z</time>
		</trkpt>

		<trkpt lat="38.778963" lon="-1.181174">
			<ele>2181.000000</ele>
		<time>2013-05-04T02:40:44Z</time>
		</trkpt>

		<trkpt lat="38.779185" lon="-1.181181">
			<ele>2182.000000</ele>
		<time>2013-05-04T02:40:47Z</time>
		</trkpt>

		<trkpt lat="38.779451" lon="-1.181124">
			<ele>2183.000000</ele>
		<time>2013-05-04T02:40:50Z</time>
		</trkpt>

		<trkpt lat="38.779702" lon="-1.181018">
			<ele>2183.000000</ele>
		<time>2013-05-04T02:40:53Z</time>
		</trkpt>

		<trkpt lat="38.779957" lon="-1.180879">
			<ele>2183.000000</ele>
		<time>2013-05-04T02:40:56Z</time>
		</trkpt>

		<trkpt lat="38.780263" lon="-1.180726">
			<ele>2181.000000</ele>
		<time>2013-05-04T02:40:59Z</time>
		</trkpt>

		<trkpt lat="38.780558" lon="-1.180607">
			<ele>2176.000000</ele>
		<time>2013-05-04T02:41:02Z</time>
		</trkpt>

		<trkpt lat="38.780862" lon="-1.180512">
			<ele>2170.000000</ele>
		<time>2013-05-04T02:41:05Z</time>
		</trkpt>

		<trkpt lat="38.781146" lon="-1.180437">
			<ele>2164.000000</ele>
		<time>2013-05-04T02:41:08Z</time>
		</trkpt>

		<trkpt lat="38.781409" lon="-1.180407">
			<ele>2158.000000</ele>
		<time>2013-05-04T02:41:11Z</time>
		</trkpt>

		<trkpt lat="38.781699" lon="-1.180344">
			<ele>2150.000000</ele>
		<time>2013-05-04T02:41:14Z</time>
		</trkpt>

		<trkpt lat="38.781992" lon="-1.180307">
			<ele>2143.000000</ele>
		<time>2013-05-04T02:41:17Z</time>
		</trkpt>

		<trkpt lat="38.782321" lon="-1.180280">
			<ele>2134.000000</ele>
		<time>2013-05-04T02:41:20Z</time>
		</trkpt>

		<trkpt lat="38.782649" lon="-1.180257">
			<ele>2129.000000</ele>
		<time>2013-05-04T02:41:23Z</time>
		</trkpt>

		<trkpt lat="38.782957" lon="-1.180225">
			<ele>2122.000000</ele>
		<time>2013-05-04T02:41:26Z</time>
		</trkpt>

		<trkpt lat="38.783279" lon="-1.180233">
			<ele>2116.000000</ele>
		<time>2013-05-04T02:41:29Z</time>
		</trkpt>

		<trkpt lat="38.783571" lon="-1.180239">
			<ele>2111.000000</ele>
		<time>2013-05-04T02:41:32Z</time>
		</trkpt>

		<trkpt lat="38.783892" lon="-1.180218">
			<ele>2105.000000</ele>
		<time>2013-05-04T02:41:35Z</time>
		</trkpt>

		<trkpt lat="38.784186" lon="-1.180219">
			<ele>2101.000000</ele>
		<time>2013-05-04T02:41:38Z</time>
		</trkpt>

		<trkpt lat="38.784470" lon="-1.180263">
			<ele>2095.000000</ele>
		<time>2013-05-04T02:41:41Z</time>
		</trkpt>

		<trkpt lat="38.784755" lon="-1.180358">
			<ele>2086.000000</ele>
		<time>2013-05-04T02:41:44Z</time>
		</trkpt>

		<trkpt lat="38.785014" lon="-1.180472">
			<ele>2076.000000</ele>
		<time>2013-05-04T02:41:47Z</time>
		</trkpt>

		<trkpt lat="38.785304" lon="-1.180567">
			<ele>2066.000000</ele>
		<time>2013-05-04T02:41:50Z</time>
		</trkpt>

		<trkpt lat="38.785593" lon="-1.180629">
			<ele>2054.000000</ele>
		<time>2013-05-04T02:41:53Z</time>
		</trkpt>

		<trkpt lat="38.785887" lon="-1.180691">
			<ele>2042.000000</ele>
		<time>2013-05-04T02:41:56Z</time>
		</trkpt>

		<trkpt lat="38.786193" lon="-1.180753">
			<ele>2031.000000</ele>
		<time>2013-05-04T02:41:59Z</time>
		</trkpt>

		<trkpt lat="38.786490" lon="-1.180783">
			<ele>2021.000000</ele>
		<time>2013-05-04T02:42:02Z</time>
		</trkpt>

		<trkpt lat="38.786793" lon="-1.180823">
			<ele>2011.000000</ele>
		<time>2013-05-04T02:42:05Z</time>
		</trkpt>

		<trkpt lat="38.787103" lon="-1.180777">
			<ele>2002.000000</ele>
		<time>2013-05-04T02:42:08Z</time>
		</trkpt>

		<trkpt lat="38.787390" lon="-1.180733">
			<ele>1993.000000</ele>
		<time>2013-05-04T02:42:11Z</time>
		</trkpt>

		<trkpt lat="38.787720" lon="-1.180723">
			<ele>1985.000000</ele>
		<time>2013-05-04T02:42:14Z</time>
		</trkpt>

		<trkpt lat="38.788016" lon="-1.180709">
			<ele>1980.000000</ele>
		<time>2013-05-04T02:42:17Z</time>
		</trkpt>

		<trkpt lat="38.788333" lon="-1.180736">
			<ele>1973.000000</ele>
		<time>2013-05-04T02:42:20Z</time>
		</trkpt>

		<trkpt lat="38.788659" lon="-1.180781">
			<ele>1969.000000</ele>
		<time>2013-05-04T02:42:23Z</time>
		</trkpt>

		<trkpt lat="38.788969" lon="-1.180814">
			<ele>1965.000000</ele>
		<time>2013-05-04T02:42:26Z</time>
		</trkpt>

		<trkpt lat="38.789312" lon="-1.180862">
			<ele>1962.000000</ele>
		<time>2013-05-04T02:42:29Z</time>
		</trkpt>

		<trkpt lat="38.789632" lon="-1.180900">
			<ele>1960.000000</ele>
		<time>2013-05-04T02:42:32Z</time>
		</trkpt>

		<trkpt lat="38.789948" lon="-1.180960">
			<ele>1957.000000</ele>
		<time>2013-05-04T02:42:35Z</time>
		</trkpt>

		<trkpt lat="38.790269" lon="-1.181032">
			<ele>1953.000000</ele>
		<time>2013-05-04T02:42:38Z</time>
		</trkpt>

		<trkpt lat="38.790586" lon="-1.181145">
			<ele>1950.000000</ele>
		<time>2013-05-04T02:42:41Z</time>
		</trkpt>

		<trkpt lat="38.790928" lon="-1.181209">
			<ele>1946.000000</ele>
		<time>2013-05-04T02:42:44Z</time>
		</trkpt>

		<trkpt lat="38.791236" lon="-1.181301">
			<ele>1944.000000</ele>
		<time>2013-05-04T02:42:47Z</time>
		</trkpt>

		<trkpt lat="38.791546" lon="-1.181374">
			<ele>1941.000000</ele>
		<time>2013-05-04T02:42:50Z</time>
		</trkpt>

		<trkpt lat="38.791868" lon="-1.181424">
			<ele>1937.000000</ele>
		<time>2013-05-04T02:42:53Z</time>
		</trkpt>

		<trkpt lat="38.792201" lon="-1.181461">
			<ele>1933.000000</ele>
		<time>2013-05-04T02:42:56Z</time>
		</trkpt>

		<trkpt lat="38.792521" lon="-1.181484">
			<ele>1928.000000</ele>
		<time>2013-05-04T02:42:59Z</time>
		</trkpt>

		<trkpt lat="38.792822" lon="-1.181499">
			<ele>1924.000000</ele>
		<time>2013-05-04T02:43:02Z</time>
		</trkpt>

		<trkpt lat="38.793102" lon="-1.181501">
			<ele>1919.000000</ele>
		<time>2013-05-04T02:43:05Z</time>
		</trkpt>

		<trkpt lat="38.793404" lon="-1.181454">
			<ele>1914.000000</ele>
		<time>2013-05-04T02:43:08Z</time>
		</trkpt>

		<trkpt lat="38.793677" lon="-1.181426">
			<ele>1909.000000</ele>
		<time>2013-05-04T02:43:11Z</time>
		</trkpt>

		<trkpt lat="38.793964" lon="-1.181374">
			<ele>1904.000000</ele>
		<time>2013-05-04T02:43:14Z</time>
		</trkpt>

		<trkpt lat="38.794238" lon="-1.181280">
			<ele>1899.000000</ele>
		<time>2013-05-04T02:43:17Z</time>
		</trkpt>

		<trkpt lat="38.794513" lon="-1.181192">
			<ele>1893.000000</ele>
		<time>2013-05-04T02:43:20Z</time>
		</trkpt>

		<trkpt lat="38.794818" lon="-1.181149">
			<ele>1888.000000</ele>
		<time>2013-05-04T02:43:23Z</time>
		</trkpt>

		<trkpt lat="38.795108" lon="-1.181146">
			<ele>1884.000000</ele>
		<time>2013-05-04T02:43:26Z</time>
		</trkpt>

		<trkpt lat="38.795405" lon="-1.181172">
			<ele>1878.000000</ele>
		<time>2013-05-04T02:43:29Z</time>
		</trkpt>

		<trkpt lat="38.795706" lon="-1.181192">
			<ele>1874.000000</ele>
		<time>2013-05-04T02:43:32Z</time>
		</trkpt>

		<trkpt lat="38.795992" lon="-1.181215">
			<ele>1870.000000</ele>
		<time>2013-05-04T02:43:35Z</time>
		</trkpt>

		<trkpt lat="38.796282" lon="-1.181232">
			<ele>1865.000000</ele>
		<time>2013-05-04T02:43:38Z</time>
		</trkpt>

		<trkpt lat="38.796586" lon="-1.181241">
			<ele>1861.000000</ele>
		<time>2013-05-04T02:43:41Z</time>
		</trkpt>

		<trkpt lat="38.796876" lon="-1.181248">
			<ele>1857.000000</ele>
		<time>2013-05-04T02:43:44Z</time>
		</trkpt>

		<trkpt lat="38.797176" lon="-1.181270">
			<ele>1851.000000</ele>
		<time>2013-05-04T02:43:47Z</time>
		</trkpt>

		<trkpt lat="38.797475" lon="-1.181267">
			<ele>1847.000000</ele>
		<time>2013-05-04T02:43:50Z</time>
		</trkpt>

		<trkpt lat="38.797754" lon="-1.181273">
			<ele>1843.000000</ele>
		<time>2013-05-04T02:43:53Z</time>
		</trkpt>

		<trkpt lat="38.798038" lon="-1.181263">
			<ele>1839.000000</ele>
		<time>2013-05-04T02:43:56Z</time>
		</trkpt>

		<trkpt lat="38.798332" lon="-1.181252">
			<ele>1835.000000</ele>
		<time>2013-05-04T02:43:59Z</time>
		</trkpt>

		<trkpt lat="38.798624" lon="-1.181231">
			<ele>1832.000000</ele>
		<time>2013-05-04T02:44:02Z</time>
		</trkpt>

		<trkpt lat="38.798918" lon="-1.181199">
			<ele>1831.000000</ele>
		<time>2013-05-04T02:44:05Z</time>
		</trkpt>

		<trkpt lat="38.799207" lon="-1.181159">
			<ele>1829.000000</ele>
		<time>2013-05-04T02:44:08Z</time>
		</trkpt>

		<trkpt lat="38.799515" lon="-1.181092">
			<ele>1825.000000</ele>
		<time>2013-05-04T02:44:11Z</time>
		</trkpt>

		<trkpt lat="38.799836" lon="-1.181023">
			<ele>1822.000000</ele>
		<time>2013-05-04T02:44:14Z</time>
		</trkpt>

		<trkpt lat="38.800147" lon="-1.180967">
			<ele>1821.000000</ele>
		<time>2013-05-04T02:44:17Z</time>
		</trkpt>

		<trkpt lat="38.800453" lon="-1.180957">
			<ele>1820.000000</ele>
		<time>2013-05-04T02:44:20Z</time>
		</trkpt>

		<trkpt lat="38.800761" lon="-1.180918">
			<ele>1820.000000</ele>
		<time>2013-05-04T02:44:23Z</time>
		</trkpt>

		<trkpt lat="38.801093" lon="-1.180874">
			<ele>1818.000000</ele>
		<time>2013-05-04T02:44:26Z</time>
		</trkpt>

		<trkpt lat="38.801418" lon="-1.180809">
			<ele>1817.000000</ele>
		<time>2013-05-04T02:44:29Z</time>
		</trkpt>

		<trkpt lat="38.801740" lon="-1.180740">
			<ele>1814.000000</ele>
		<time>2013-05-04T02:44:32Z</time>
		</trkpt>

		<trkpt lat="38.802090" lon="-1.180711">
			<ele>1812.000000</ele>
		<time>2013-05-04T02:44:35Z</time>
		</trkpt>

		<trkpt lat="38.802431" lon="-1.180705">
			<ele>1812.000000</ele>
		<time>2013-05-04T02:44:38Z</time>
		</trkpt>

		<trkpt lat="38.802739" lon="-1.180685">
			<ele>1814.000000</ele>
		<time>2013-05-04T02:44:41Z</time>
		</trkpt>

		<trkpt lat="38.802990" lon="-1.180695">
			<ele>1813.000000</ele>
		<time>2013-05-04T02:44:44Z</time>
		</trkpt>

		<trkpt lat="38.803307" lon="-1.180699">
			<ele>1811.000000</ele>
		<time>2013-05-04T02:44:47Z</time>
		</trkpt>

		<trkpt lat="38.803603" lon="-1.180518">
			<ele>1810.000000</ele>
		<time>2013-05-04T02:44:50Z</time>
		</trkpt>

		<trkpt lat="38.803856" lon="-1.180219">
			<ele>1809.000000</ele>
		<time>2013-05-04T02:44:53Z</time>
		</trkpt>

		<trkpt lat="38.804011" lon="-1.179843">
			<ele>1809.000000</ele>
		<time>2013-05-04T02:44:56Z</time>
		</trkpt>

		<trkpt lat="38.804084" lon="-1.179432">
			<ele>1808.000000</ele>
		<time>2013-05-04T02:44:59Z</time>
		</trkpt>

		<trkpt lat="38.804114" lon="-1.179017">
			<ele>1810.000000</ele>
		<time>2013-05-04T02:45:02Z</time>
		</trkpt>

		<trkpt lat="38.804140" lon="-1.178677">
			<ele>1812.000000</ele>
		<time>2013-05-04T02:45:05Z</time>
		</trkpt>

		<trkpt lat="38.804207" lon="-1.178357">
			<ele>1813.000000</ele>
		<time>2013-05-04T02:45:08Z</time>
		</trkpt>

		<trkpt lat="38.804360" lon="-1.178002">
			<ele>1812.000000</ele>
		<time>2013-05-04T02:45:11Z</time>
		</trkpt>

		<trkpt lat="38.804510" lon="-1.177593">
			<ele>1810.000000</ele>
		<time>2013-05-04T02:45:14Z</time>
		</trkpt>

		<trkpt lat="38.804554" lon="-1.177197">
			<ele>1810.000000</ele>
		<time>2013-05-04T02:45:17Z</time>
		</trkpt>

		<trkpt lat="38.804547" lon="-1.176837">
			<ele>1810.000000</ele>
		<time>2013-05-04T02:45:20Z</time>
		</trkpt>

		<trkpt lat="38.804485" lon="-1.176484">
			<ele>1810.000000</ele>
		<time>2013-05-04T02:45:23Z</time>
		</trkpt>

		<trkpt lat="38.804424" lon="-1.176123">
			<ele>1809.000000</ele>
		<time>2013-05-04T02:45:26Z</time>
		</trkpt>

		<trkpt lat="38.804338" lon="-1.175740">
			<ele>1809.000000</ele>
		<time>2013-05-04T02:45:29Z</time>
		</trkpt>

		<trkpt lat="38.804267" lon="-1.175390">
			<ele>1811.000000</ele>
		<time>2013-05-04T02:45:32Z</time>
		</trkpt>

		<trkpt lat="38.804243" lon="-1.175041">
			<ele>1811.000000</ele>
		<time>2013-05-04T02:45:35Z</time>
		</trkpt>

		<trkpt lat="38.804207" lon="-1.174664">
			<ele>1812.000000</ele>
		<time>2013-05-04T02:45:38Z</time>
		</trkpt>

		<trkpt lat="38.804120" lon="-1.174318">
			<ele>1813.000000</ele>
		<time>2013-05-04T02:45:41Z</time>
		</trkpt>

		<trkpt lat="38.803989" lon="-1.173936">
			<ele>1812.000000</ele>
		<time>2013-05-04T02:45:44Z</time>
		</trkpt>

		<trkpt lat="38.803860" lon="-1.173544">
			<ele>1811.000000</ele>
		<time>2013-05-04T02:45:47Z</time>
		</trkpt>

		<trkpt lat="38.803713" lon="-1.173172">
			<ele>1808.000000</ele>
		<time>2013-05-04T02:45:50Z</time>
		</trkpt>

		<trkpt lat="38.803613" lon="-1.172822">
			<ele>1806.000000</ele>
		<time>2013-05-04T02:45:53Z</time>
		</trkpt>

		<trkpt lat="38.803534" lon="-1.172459">
			<ele>1802.000000</ele>
		<time>2013-05-04T02:45:56Z</time>
		</trkpt>

		<trkpt lat="38.803461" lon="-1.172063">
			<ele>1800.000000</ele>
		<time>2013-05-04T02:45:59Z</time>
		</trkpt>

		<trkpt lat="38.803394" lon="-1.171702">
			<ele>1797.000000</ele>
		<time>2013-05-04T02:46:02Z</time>
		</trkpt>

		<trkpt lat="38.803332" lon="-1.171304">
			<ele>1793.000000</ele>
		<time>2013-05-04T02:46:05Z</time>
		</trkpt>

		<trkpt lat="38.803231" lon="-1.170918">
			<ele>1789.000000</ele>
		<time>2013-05-04T02:46:08Z</time>
		</trkpt>

		<trkpt lat="38.803156" lon="-1.170532">
			<ele>1786.000000</ele>
		<time>2013-05-04T02:46:11Z</time>
		</trkpt>

		<trkpt lat="38.803101" lon="-1.170158">
			<ele>1782.000000</ele>
		<time>2013-05-04T02:46:14Z</time>
		</trkpt>

		<trkpt lat="38.803044" lon="-1.169764">
			<ele>1777.000000</ele>
		<time>2013-05-04T02:46:17Z</time>
		</trkpt>

		<trkpt lat="38.803034" lon="-1.169342">
			<ele>1772.000000</ele>
		<time>2013-05-04T02:46:20Z</time>
		</trkpt>

		<trkpt lat="38.803026" lon="-1.168936">
			<ele>1769.000000</ele>
		<time>2013-05-04T02:46:23Z</time>
		</trkpt>

		<trkpt lat="38.803004" lon="-1.168529">
			<ele>1765.000000</ele>
		<time>2013-05-04T02:46:26Z</time>
		</trkpt>

		<trkpt lat="38.802950" lon="-1.168110">
			<ele>1761.000000</ele>
		<time>2013-05-04T02:46:29Z</time>
		</trkpt>

		<trkpt lat="38.802871" lon="-1.167682">
			<ele>1758.000000</ele>
		<time>2013-05-04T02:46:32Z</time>
		</trkpt>

		<trkpt lat="38.802795" lon="-1.167313">
			<ele>1756.000000</ele>
		<time>2013-05-04T02:46:35Z</time>
		</trkpt>

		<trkpt lat="38.802698" lon="-1.166966">
			<ele>1755.000000</ele>
		<time>2013-05-04T02:46:38Z</time>
		</trkpt>

		<trkpt lat="38.802582" lon="-1.166511">
			<ele>1752.000000</ele>
		<time>2013-05-04T02:46:41Z</time>
		</trkpt>

		<trkpt lat="38.802518" lon="-1.166089">
			<ele>1749.000000</ele>
		<time>2013-05-04T02:46:44Z</time>
		</trkpt>

		<trkpt lat="38.802450" lon="-1.165676">
			<ele>1747.000000</ele>
		<time>2013-05-04T02:46:47Z</time>
		</trkpt>

		<trkpt lat="38.802355" lon="-1.165295">
			<ele>1746.000000</ele>
		<time>2013-05-04T02:46:50Z</time>
		</trkpt>

		<trkpt lat="38.802286" lon="-1.164890">
			<ele>1743.000000</ele>
		<time>2013-05-04T02:46:53Z</time>
		</trkpt>

		<trkpt lat="38.802287" lon="-1.164447">
			<ele>1742.000000</ele>
		<time>2013-05-04T02:46:56Z</time>
		</trkpt>

		<trkpt lat="38.802346" lon="-1.164042">
			<ele>1741.000000</ele>
		<time>2013-05-04T02:46:59Z</time>
		</trkpt>

		<trkpt lat="38.802485" lon="-1.163611">
			<ele>1740.000000</ele>
		<time>2013-05-04T02:47:02Z</time>
		</trkpt>

		<trkpt lat="38.802663" lon="-1.163315">
			<ele>1742.000000</ele>
		<time>2013-05-04T02:47:05Z</time>
		</trkpt>

		<trkpt lat="38.802879" lon="-1.163036">
			<ele>1740.000000</ele>
		<time>2013-05-04T02:47:08Z</time>
		</trkpt>

		<trkpt lat="38.803176" lon="-1.162958">
			<ele>1737.000000</ele>
		<time>2013-05-04T02:47:11Z</time>
		</trkpt>

		<trkpt lat="38.803412" lon="-1.163226">
			<ele>1736.000000</ele>
		<time>2013-05-04T02:47:14Z</time>
		</trkpt>

		<trkpt lat="38.803437" lon="-1.163568">
			<ele>1738.000000</ele>
		<time>2013-05-04T02:47:17Z</time>
		</trkpt>

		<trkpt lat="38.803293" lon="-1.163803">
			<ele>1737.000000</ele>
		<time>2013-05-04T02:47:20Z</time>
		</trkpt>

		<trkpt lat="38.802974" lon="-1.163794">
			<ele>1737.000000</ele>
		<time>2013-05-04T02:47:23Z</time>
		</trkpt>

		<trkpt lat="38.802730" lon="-1.163603">
			<ele>1739.000000</ele>
		<time>2013-05-04T02:47:26Z</time>
		</trkpt>

		<trkpt lat="38.802532" lon="-1.163325">
			<ele>1739.000000</ele>
		<time>2013-05-04T02:47:29Z</time>
		</trkpt>

		<trkpt lat="38.802343" lon="-1.162973">
			<ele>1739.000000</ele>
		<time>2013-05-04T02:47:32Z</time>
		</trkpt>

		<trkpt lat="38.802206" lon="-1.162591">
			<ele>1739.000000</ele>
		<time>2013-05-04T02:47:35Z</time>
		</trkpt>

		<trkpt lat="38.802096" lon="-1.162191">
			<ele>1738.000000</ele>
		<time>2013-05-04T02:47:38Z</time>
		</trkpt>

		<trkpt lat="38.801998" lon="-1.161756">
			<ele>1737.000000</ele>
		<time>2013-05-04T02:47:41Z</time>
		</trkpt>

		<trkpt lat="38.801937" lon="-1.161332">
			<ele>1737.000000</ele>
		<time>2013-05-04T02:47:44Z</time>
		</trkpt>

		<trkpt lat="38.801892" lon="-1.160926">
			<ele>1736.000000</ele>
		<time>2013-05-04T02:47:47Z</time>
		</trkpt>

		<trkpt lat="38.801873" lon="-1.160485">
			<ele>1733.000000</ele>
		<time>2013-05-04T02:47:50Z</time>
		</trkpt>

		<trkpt lat="38.801890" lon="-1.160031">
			<ele>1730.000000</ele>
		<time>2013-05-04T02:47:53Z</time>
		</trkpt>

		<trkpt lat="38.801964" lon="-1.159606">
			<ele>1727.000000</ele>
		<time>2013-05-04T02:47:56Z</time>
		</trkpt>

		<trkpt lat="38.802116" lon="-1.159172">
			<ele>1722.000000</ele>
		<time>2013-05-04T02:47:59Z</time>
		</trkpt>

		<trkpt lat="38.802266" lon="-1.158789">
			<ele>1719.000000</ele>
		<time>2013-05-04T02:48:02Z</time>
		</trkpt>

		<trkpt lat="38.802442" lon="-1.158410">
			<ele>1713.000000</ele>
		<time>2013-05-04T02:48:05Z</time>
		</trkpt>

		<trkpt lat="38.802669" lon="-1.158086">
			<ele>1709.000000</ele>
		<time>2013-05-04T02:48:08Z</time>
		</trkpt>

		<trkpt lat="38.802886" lon="-1.157802">
			<ele>1706.000000</ele>
		<time>2013-05-04T02:48:11Z</time>
		</trkpt>

		<trkpt lat="38.803132" lon="-1.157513">
			<ele>1703.000000</ele>
		<time>2013-05-04T02:48:14Z</time>
		</trkpt>

		<trkpt lat="38.803406" lon="-1.157255">
			<ele>1700.000000</ele>
		<time>2013-05-04T02:48:17Z</time>
		</trkpt>

		<trkpt lat="38.803670" lon="-1.157045">
			<ele>1697.000000</ele>
		<time>2013-05-04T02:48:20Z</time>
		</trkpt>

		<trkpt lat="38.803964" lon="-1.156843">
			<ele>1693.000000</ele>
		<time>2013-05-04T02:48:23Z</time>
		</trkpt>

		<trkpt lat="38.804241" lon="-1.156651">
			<ele>1690.000000</ele>
		<time>2013-05-04T02:48:26Z</time>
		</trkpt>

		<trkpt lat="38.804499" lon="-1.156497">
			<ele>1686.000000</ele>
		<time>2013-05-04T02:48:29Z</time>
		</trkpt>

		<trkpt lat="38.804771" lon="-1.156381">
			<ele>1683.000000</ele>
		<time>2013-05-04T02:48:32Z</time>
		</trkpt>

		<trkpt lat="38.804972" lon="-1.156267">
			<ele>1683.000000</ele>
		<time>2013-05-04T02:48:35Z</time>
		</trkpt>

		<trkpt lat="38.805161" lon="-1.156167">
			<ele>1681.000000</ele>
		<time>2013-05-04T02:48:38Z</time>
		</trkpt>

		<trkpt lat="38.805408" lon="-1.155986">
			<ele>1680.000000</ele>
		<time>2013-05-04T02:48:41Z</time>
		</trkpt>

		<trkpt lat="38.805602" lon="-1.155809">
			<ele>1681.000000</ele>
		<time>2013-05-04T02:48:44Z</time>
		</trkpt>

		<trkpt lat="38.805837" lon="-1.155716">
			<ele>1682.000000</ele>
		<time>2013-05-04T02:48:47Z</time>
		</trkpt>

		<trkpt lat="38.806074" lon="-1.155604">
			<ele>1685.000000</ele>
		<time>2013-05-04T02:48:50Z</time>
		</trkpt>

		<trkpt lat="38.806308" lon="-1.155461">
			<ele>1688.000000</ele>
		<time>2013-05-04T02:48:53Z</time>
		</trkpt>

		<trkpt lat="38.806554" lon="-1.155305">
			<ele>1692.000000</ele>
		<time>2013-05-04T02:48:56Z</time>
		</trkpt>

		<trkpt lat="38.806789" lon="-1.155203">
			<ele>1697.000000</ele>
		<time>2013-05-04T02:48:59Z</time>
		</trkpt>

		<trkpt lat="38.807029" lon="-1.155141">
			<ele>1701.000000</ele>
		<time>2013-05-04T02:49:02Z</time>
		</trkpt>

		<trkpt lat="38.807234" lon="-1.155082">
			<ele>1707.000000</ele>
		<time>2013-05-04T02:49:05Z</time>
		</trkpt>

		<trkpt lat="38.807425" lon="-1.154909">
			<ele>1715.000000</ele>
		<time>2013-05-04T02:49:08Z</time>
		</trkpt>

		<trkpt lat="38.807618" lon="-1.154662">
			<ele>1724.000000</ele>
		<time>2013-05-04T02:49:11Z</time>
		</trkpt>

		<trkpt lat="38.807832" lon="-1.154495">
			<ele>1731.000000</ele>
		<time>2013-05-04T02:49:14Z</time>
		</trkpt>

		<trkpt lat="38.808117" lon="-1.154488">
			<ele>1734.000000</ele>
		<time>2013-05-04T02:49:17Z</time>
		</trkpt>

		<trkpt lat="38.808334" lon="-1.154697">
			<ele>1738.000000</ele>
		<time>2013-05-04T02:49:20Z</time>
		</trkpt>

		<trkpt lat="38.808388" lon="-1.155024">
			<ele>1747.000000</ele>
		<time>2013-05-04T02:49:23Z</time>
		</trkpt>

		<trkpt lat="38.808405" lon="-1.155371">
			<ele>1758.000000</ele>
		<time>2013-05-04T02:49:26Z</time>
		</trkpt>

		<trkpt lat="38.808286" lon="-1.155632">
			<ele>1769.000000</ele>
		<time>2013-05-04T02:49:29Z</time>
		</trkpt>

		<trkpt lat="38.808096" lon="-1.155864">
			<ele>1778.000000</ele>
		<time>2013-05-04T02:49:32Z</time>
		</trkpt>

		<trkpt lat="38.807758" lon="-1.155820">
			<ele>1782.000000</ele>
		<time>2013-05-04T02:49:35Z</time>
		</trkpt>

		<trkpt lat="38.807551" lon="-1.155457">
			<ele>1791.000000</ele>
		<time>2013-05-04T02:49:38Z</time>
		</trkpt>

		<trkpt lat="38.807517" lon="-1.154985">
			<ele>1803.000000</ele>
		<time>2013-05-04T02:49:41Z</time>
		</trkpt>

		<trkpt lat="38.807649" lon="-1.154617">
			<ele>1813.000000</ele>
		<time>2013-05-04T02:49:44Z</time>
		</trkpt>

		<trkpt lat="38.807880" lon="-1.154496">
			<ele>1821.000000</ele>
		<time>2013-05-04T02:49:47Z</time>
		</trkpt>

		<trkpt lat="38.808106" lon="-1.154629">
			<ele>1828.000000</ele>
		<time>2013-05-04T02:49:50Z</time>
		</trkpt>

		<trkpt lat="38.808239" lon="-1.154898">
			<ele>1837.000000</ele>
		<time>2013-05-04T02:49:53Z</time>
		</trkpt>

		<trkpt lat="38.808295" lon="-1.155209">
			<ele>1848.000000</ele>
		<time>2013-05-04T02:49:56Z</time>
		</trkpt>

		<trkpt lat="38.808377" lon="-1.155464">
			<ele>1858.000000</ele>
		<time>2013-05-04T02:49:59Z</time>
		</trkpt>

		<trkpt lat="38.808543" lon="-1.155654">
			<ele>1865.000000</ele>
		<time>2013-05-04T02:50:02Z</time>
		</trkpt>

		<trkpt lat="38.808787" lon="-1.155492">
			<ele>1869.000000</ele>
		<time>2013-05-04T02:50:05Z</time>
		</trkpt>

		<trkpt lat="38.808736" lon="-1.155095">
			<ele>1874.000000</ele>
		<time>2013-05-04T02:50:08Z</time>
		</trkpt>

		<trkpt lat="38.808417" lon="-1.154799">
			<ele>1879.000000</ele>
		<time>2013-05-04T02:50:11Z</time>
		</trkpt>

		<trkpt lat="38.808110" lon="-1.154648">
			<ele>1887.000000</ele>
		<time>2013-05-04T02:50:14Z</time>
		</trkpt>

		<trkpt lat="38.807858" lon="-1.154481">
			<ele>1894.000000</ele>
		<time>2013-05-04T02:50:17Z</time>
		</trkpt>

		<trkpt lat="38.807698" lon="-1.154127">
			<ele>1899.000000</ele>
		<time>2013-05-04T02:50:20Z</time>
		</trkpt>

		<trkpt lat="38.807803" lon="-1.153808">
			<ele>1902.000000</ele>
		<time>2013-05-04T02:50:23Z</time>
		</trkpt>

		<trkpt lat="38.808103" lon="-1.153827">
			<ele>1904.000000</ele>
		<time>2013-05-04T02:50:26Z</time>
		</trkpt>

		<trkpt lat="38.808304" lon="-1.154037">
			<ele>1904.000000</ele>
		<time>2013-05-04T02:50:29Z</time>
		</trkpt>

		<trkpt lat="38.808386" lon="-1.154395">
			<ele>1907.000000</ele>
		<time>2013-05-04T02:50:32Z</time>
		</trkpt>

		<trkpt lat="38.808353" lon="-1.154739">
			<ele>1913.000000</ele>
		<time>2013-05-04T02:50:35Z</time>
		</trkpt>

		<trkpt lat="38.808181" lon="-1.155089">
			<ele>1919.000000</ele>
		<time>2013-05-04T02:50:38Z</time>
		</trkpt>

		<trkpt lat="38.807826" lon="-1.155162">
			<ele>1923.000000</ele>
		<time>2013-05-04T02:50:41Z</time>
		</trkpt>

		<trkpt lat="38.807549" lon="-1.154896">
			<ele>1927.000000</ele>
		<time>2013-05-04T02:50:44Z</time>
		</trkpt>

		<trkpt lat="38.807474" lon="-1.154420">
			<ele>1937.000000</ele>
		<time>2013-05-04T02:50:47Z</time>
		</trkpt>

		<trkpt lat="38.807555" lon="-1.154098">
			<ele>1944.000000</ele>
		<time>2013-05-04T02:50:50Z</time>
		</trkpt>

		<trkpt lat="38.807820" lon="-1.154091">
			<ele>1949.000000</ele>
		<time>2013-05-04T02:50:53Z</time>
		</trkpt>

		<trkpt lat="38.808063" lon="-1.154313">
			<ele>1954.000000</ele>
		<time>2013-05-04T02:50:56Z</time>
		</trkpt>

		<trkpt lat="38.808170" lon="-1.154581">
			<ele>1964.000000</ele>
		<time>2013-05-04T02:50:59Z</time>
		</trkpt>

		<trkpt lat="38.808201" lon="-1.154918">
			<ele>1969.000000</ele>
		<time>2013-05-04T02:51:02Z</time>
		</trkpt>

		<trkpt lat="38.808107" lon="-1.155323">
			<ele>1978.000000</ele>
		<time>2013-05-04T02:51:05Z</time>
		</trkpt>

		<trkpt lat="38.807776" lon="-1.155456">
			<ele>1982.000000</ele>
		<time>2013-05-04T02:51:08Z</time>
		</trkpt>

		<trkpt lat="38.807462" lon="-1.155340">
			<ele>1988.000000</ele>
		<time>2013-05-04T02:51:11Z</time>
		</trkpt>

		<trkpt lat="38.807362" lon="-1.154833">
			<ele>1994.000000</ele>
		<time>2013-05-04T02:51:14Z</time>
		</trkpt>

		<trkpt lat="38.807373" lon="-1.154464">
			<ele>2000.000000</ele>
		<time>2013-05-04T02:51:17Z</time>
		</trkpt>

		<trkpt lat="38.807506" lon="-1.154173">
			<ele>2003.000000</ele>
		<time>2013-05-04T02:51:20Z</time>
		</trkpt>

		<trkpt lat="38.807702" lon="-1.153985">
			<ele>2007.000000</ele>
		<time>2013-05-04T02:51:23Z</time>
		</trkpt>

		<trkpt lat="38.807791" lon="-1.153691">
			<ele>2011.000000</ele>
		<time>2013-05-04T02:51:26Z</time>
		</trkpt>

		<trkpt lat="38.807714" lon="-1.153370">
			<ele>2015.000000</ele>
		<time>2013-05-04T02:51:29Z</time>
		</trkpt>

		<trkpt lat="38.807395" lon="-1.153194">
			<ele>2021.000000</ele>
		<time>2013-05-04T02:51:32Z</time>
		</trkpt>

		<trkpt lat="38.807063" lon="-1.153317">
			<ele>2027.000000</ele>
		<time>2013-05-04T02:51:35Z</time>
		</trkpt>

		<trkpt lat="38.806844" lon="-1.153616">
			<ele>2031.000000</ele>
		<time>2013-05-04T02:51:38Z</time>
		</trkpt>

		<trkpt lat="38.806841" lon="-1.153928">
			<ele>2033.000000</ele>
		<time>2013-05-04T02:51:41Z</time>
		</trkpt>

		<trkpt lat="38.807084" lon="-1.154035">
			<ele>2035.000000</ele>
		<time>2013-05-04T02:51:44Z</time>
		</trkpt>

		<trkpt lat="38.807310" lon="-1.153930">
			<ele>2040.000000</ele>
		<time>2013-05-04T02:51:47Z</time>
		</trkpt>

		<trkpt lat="38.807505" lon="-1.153723">
			<ele>2043.000000</ele>
		<time>2013-05-04T02:51:50Z</time>
		</trkpt>

		<trkpt lat="38.807522" lon="-1.153374">
			<ele>2045.000000</ele>
		<time>2013-05-04T02:51:53Z</time>
		</trkpt>

		<trkpt lat="38.807294" lon="-1.153020">
			<ele>2051.000000</ele>
		<time>2013-05-04T02:51:56Z</time>
		</trkpt>

		<trkpt lat="38.807025" lon="-1.152797">
			<ele>2058.000000</ele>
		<time>2013-05-04T02:51:59Z</time>
		</trkpt>

		<trkpt lat="38.806792" lon="-1.152545">
			<ele>2063.000000</ele>
		<time>2013-05-04T02:52:02Z</time>
		</trkpt>

		<trkpt lat="38.806721" lon="-1.152153">
			<ele>2069.000000</ele>
		<time>2013-05-04T02:52:05Z</time>
		</trkpt>

		<trkpt lat="38.806842" lon="-1.151921">
			<ele>2074.000000</ele>
		<time>2013-05-04T02:52:08Z</time>
		</trkpt>

		<trkpt lat="38.807072" lon="-1.151949">
			<ele>2078.000000</ele>
		<time>2013-05-04T02:52:11Z</time>
		</trkpt>

		<trkpt lat="38.807141" lon="-1.152230">
			<ele>2082.000000</ele>
		<time>2013-05-04T02:52:14Z</time>
		</trkpt>

		<trkpt lat="38.807072" lon="-1.152588">
			<ele>2087.000000</ele>
		<time>2013-05-04T02:52:17Z</time>
		</trkpt>

		<trkpt lat="38.806861" lon="-1.152886">
			<ele>2095.000000</ele>
		<time>2013-05-04T02:52:20Z</time>
		</trkpt>

		<trkpt lat="38.806454" lon="-1.152860">
			<ele>2103.000000</ele>
		<time>2013-05-04T02:52:23Z</time>
		</trkpt>

		<trkpt lat="38.806181" lon="-1.152670">
			<ele>2110.000000</ele>
		<time>2013-05-04T02:52:26Z</time>
		</trkpt>

		<trkpt lat="38.806011" lon="-1.152361">
			<ele>2113.000000</ele>
		<time>2013-05-04T02:52:29Z</time>
		</trkpt>

		<trkpt lat="38.806048" lon="-1.151959">
			<ele>2112.000000</ele>
		<time>2013-05-04T02:52:32Z</time>
		</trkpt>

		<trkpt lat="38.806192" lon="-1.151662">
			<ele>2115.000000</ele>
		<time>2013-05-04T02:52:35Z</time>
		</trkpt>

		<trkpt lat="38.806314" lon="-1.151459">
			<ele>2120.000000</ele>
		<time>2013-05-04T02:52:38Z</time>
		</trkpt>

		<trkpt lat="38.806501" lon="-1.151213">
			<ele>2122.000000</ele>
		<time>2013-05-04T02:52:41Z</time>
		</trkpt>

		<trkpt lat="38.806679" lon="-1.151009">
			<ele>2128.000000</ele>
		<time>2013-05-04T02:52:44Z</time>
		</trkpt>

		<trkpt lat="38.806848" lon="-1.150853">
			<ele>2135.000000</ele>
		<time>2013-05-04T02:52:47Z</time>
		</trkpt>

		<trkpt lat="38.807022" lon="-1.150598">
			<ele>2146.000000</ele>
		<time>2013-05-04T02:52:50Z</time>
		</trkpt>

		<trkpt lat="38.807121" lon="-1.150317">
			<ele>2156.000000</ele>
		<time>2013-05-04T02:52:53Z</time>
		</trkpt>

		<trkpt lat="38.807297" lon="-1.150094">
			<ele>2165.000000</ele>
		<time>2013-05-04T02:52:56Z</time>
		</trkpt>

		<trkpt lat="38.807523" lon="-1.150029">
			<ele>2176.000000</ele>
		<time>2013-05-04T02:52:59Z</time>
		</trkpt>

		<trkpt lat="38.807754" lon="-1.150075">
			<ele>2188.000000</ele>
		<time>2013-05-04T02:53:02Z</time>
		</trkpt>

		<trkpt lat="38.807892" lon="-1.150301">
			<ele>2202.000000</ele>
		<time>2013-05-04T02:53:05Z</time>
		</trkpt>

		<trkpt lat="38.807861" lon="-1.150587">
			<ele>2212.000000</ele>
		<time>2013-05-04T02:53:08Z</time>
		</trkpt>

		<trkpt lat="38.807583" lon="-1.150857">
			<ele>2218.000000</ele>
		<time>2013-05-04T02:53:11Z</time>
		</trkpt>

		<trkpt lat="38.807159" lon="-1.150609">
			<ele>2224.000000</ele>
		<time>2013-05-04T02:53:14Z</time>
		</trkpt>

		<trkpt lat="38.806897" lon="-1.150162">
			<ele>2230.000000</ele>
		<time>2013-05-04T02:53:17Z</time>
		</trkpt>

		<trkpt lat="38.806855" lon="-1.149675">
			<ele>2242.000000</ele>
		<time>2013-05-04T02:53:20Z</time>
		</trkpt>

		<trkpt lat="38.806895" lon="-1.149240">
			<ele>2255.000000</ele>
		<time>2013-05-04T02:53:23Z</time>
		</trkpt>

		<trkpt lat="38.807079" lon="-1.148954">
			<ele>2267.000000</ele>
		<time>2013-05-04T02:53:26Z</time>
		</trkpt>

		<trkpt lat="38.807378" lon="-1.148946">
			<ele>2275.000000</ele>
		<time>2013-05-04T02:53:29Z</time>
		</trkpt>

		<trkpt lat="38.807508" lon="-1.149353">
			<ele>2284.000000</ele>
		<time>2013-05-04T02:53:32Z</time>
		</trkpt>

		<trkpt lat="38.807368" lon="-1.149644">
			<ele>2295.000000</ele>
		<time>2013-05-04T02:53:35Z</time>
		</trkpt>

		<trkpt lat="38.807085" lon="-1.149611">
			<ele>2310.000000</ele>
		<time>2013-05-04T02:53:38Z</time>
		</trkpt>

		<trkpt lat="38.806801" lon="-1.149209">
			<ele>2331.000000</ele>
		<time>2013-05-04T02:53:41Z</time>
		</trkpt>

		<trkpt lat="38.806819" lon="-1.148759">
			<ele>2350.000000</ele>
		<time>2013-05-04T02:53:44Z</time>
		</trkpt>

		<trkpt lat="38.807034" lon="-1.148667">
			<ele>2365.000000</ele>
		<time>2013-05-04T02:53:47Z</time>
		</trkpt>

		<trkpt lat="38.807363" lon="-1.149022">
			<ele>2382.000000</ele>
		<time>2013-05-04T02:53:50Z</time>
		</trkpt>

		<trkpt lat="38.807412" lon="-1.149440">
			<ele>2399.000000</ele>
		<time>2013-05-04T02:53:53Z</time>
		</trkpt>

		<trkpt lat="38.807277" lon="-1.149698">
			<ele>2413.000000</ele>
		<time>2013-05-04T02:53:56Z</time>
		</trkpt>

		<trkpt lat="38.806948" lon="-1.149559">
			<ele>2419.000000</ele>
		<time>2013-05-04T02:53:59Z</time>
		</trkpt>

		<trkpt lat="38.806794" lon="-1.149202">
			<ele>2436.000000</ele>
		<time>2013-05-04T02:54:02Z</time>
		</trkpt>

		<trkpt lat="38.806674" lon="-1.148945">
			<ele>2449.000000</ele>
		<time>2013-05-04T02:54:05Z</time>
		</trkpt>

		<trkpt lat="38.806579" lon="-1.148662">
			<ele>2461.000000</ele>
		<time>2013-05-04T02:54:08Z</time>
		</trkpt>

		<trkpt lat="38.806614" lon="-1.148352">
			<ele>2472.000000</ele>
		<time>2013-05-04T02:54:11Z</time>
		</trkpt>

		<trkpt lat="38.806804" lon="-1.148113">
			<ele>2484.000000</ele>
		<time>2013-05-04T02:54:14Z</time>
		</trkpt>

		<trkpt lat="38.806963" lon="-1.148093">
			<ele>2502.000000</ele>
		<time>2013-05-04T02:54:17Z</time>
		</trkpt>

		<trkpt lat="38.807179" lon="-1.148190">
			<ele>2520.000000</ele>
		<time>2013-05-04T02:54:20Z</time>
		</trkpt>

		<trkpt lat="38.807333" lon="-1.148550">
			<ele>2539.000000</ele>
		<time>2013-05-04T02:54:23Z</time>
		</trkpt>

		<trkpt lat="38.807171" lon="-1.148944">
			<ele>2559.000000</ele>
		<time>2013-05-04T02:54:26Z</time>
		</trkpt>

		<trkpt lat="38.806889" lon="-1.148962">
			<ele>2572.000000</ele>
		<time>2013-05-04T02:54:29Z</time>
		</trkpt>

		<trkpt lat="38.806793" lon="-1.148514">
			<ele>2594.000000</ele>
		<time>2013-05-04T02:54:32Z</time>
		</trkpt>

		<trkpt lat="38.806865" lon="-1.148106">
			<ele>2616.000000</ele>
		<time>2013-05-04T02:54:35Z</time>
		</trkpt>

		<trkpt lat="38.807057" lon="-1.147942">
			<ele>2636.000000</ele>
		<time>2013-05-04T02:54:38Z</time>
		</trkpt>

		<trkpt lat="38.807323" lon="-1.147961">
			<ele>2649.000000</ele>
		<time>2013-05-04T02:54:41Z</time>
		</trkpt>

		<trkpt lat="38.807656" lon="-1.148152">
			<ele>2658.000000</ele>
		<time>2013-05-04T02:54:44Z</time>
		</trkpt>

		<trkpt lat="38.807810" lon="-1.148659">
			<ele>2676.000000</ele>
		<time>2013-05-04T02:54:47Z</time>
		</trkpt>

		<trkpt lat="38.807750" lon="-1.149062">
			<ele>2694.000000</ele>
		<time>2013-05-04T02:54:50Z</time>
		</trkpt>

		<trkpt lat="38.807598" lon="-1.149349">
			<ele>2708.000000</ele>
		<time>2013-05-04T02:54:53Z</time>
		</trkpt>

		<trkpt lat="38.807325" lon="-1.149529">
			<ele>2715.000000</ele>
		<time>2013-05-04T02:54:56Z</time>
		</trkpt>

		<trkpt lat="38.807046" lon="-1.149470">
			<ele>2717.000000</ele>
		<time>2013-05-04T02:54:59Z</time>
		</trkpt>

		<trkpt lat="38.806879" lon="-1.149286">
			<ele>2722.000000</ele>
		<time>2013-05-04T02:55:02Z</time>
		</trkpt>

		<trkpt lat="38.806742" lon="-1.148981">
			<ele>2724.000000</ele>
		<time>2013-05-04T02:55:05Z</time>
		</trkpt>

		<trkpt lat="38.806627" lon="-1.148664">
			<ele>2728.000000</ele>
		<time>2013-05-04T02:55:08Z</time>
		</trkpt>

		<trkpt lat="38.806556" lon="-1.148288">
			<ele>2735.000000</ele>
		<time>2013-05-04T02:55:11Z</time>
		</trkpt>

		<trkpt lat="38.806513" lon="-1.147931">
			<ele>2747.000000</ele>
		<time>2013-05-04T02:55:14Z</time>
		</trkpt>

		<trkpt lat="38.806596" lon="-1.147612">
			<ele>2761.000000</ele>
		<time>2013-05-04T02:55:17Z</time>
		</trkpt>

		<trkpt lat="38.806781" lon="-1.147358">
			<ele>2776.000000</ele>
		<time>2013-05-04T02:55:20Z</time>
		</trkpt>

		<trkpt lat="38.806987" lon="-1.147311">
			<ele>2792.000000</ele>
		<time>2013-05-04T02:55:23Z</time>
		</trkpt>

		<trkpt lat="38.807233" lon="-1.147332">
			<ele>2805.000000</ele>
		<time>2013-05-04T02:55:26Z</time>
		</trkpt>

		<trkpt lat="38.807510" lon="-1.147462">
			<ele>2819.000000</ele>
		<time>2013-05-04T02:55:29Z</time>
		</trkpt>

		<trkpt lat="38.807751" lon="-1.147711">
			<ele>2833.000000</ele>
		<time>2013-05-04T02:55:32Z</time>
		</trkpt>

		<trkpt lat="38.807960" lon="-1.147980">
			<ele>2846.000000</ele>
		<time>2013-05-04T02:55:35Z</time>
		</trkpt>

		<trkpt lat="38.808146" lon="-1.148281">
			<ele>2858.000000</ele>
		<time>2013-05-04T02:55:38Z</time>
		</trkpt>

		<trkpt lat="38.808324" lon="-1.148566">
			<ele>2868.000000</ele>
		<time>2013-05-04T02:55:41Z</time>
		</trkpt>

		<trkpt lat="38.808465" lon="-1.148809">
			<ele>2872.000000</ele>
		<time>2013-05-04T02:55:44Z</time>
		</trkpt>

		<trkpt lat="38.808590" lon="-1.149045">
			<ele>2872.000000</ele>
		<time>2013-05-04T02:55:47Z</time>
		</trkpt>

		<trkpt lat="38.808867" lon="-1.149071">
			<ele>2866.000000</ele>
		<time>2013-05-04T02:55:50Z</time>
		</trkpt>

		<trkpt lat="38.809128" lon="-1.149000">
			<ele>2858.000000</ele>
		<time>2013-05-04T02:55:53Z</time>
		</trkpt>

		<trkpt lat="38.809381" lon="-1.148949">
			<ele>2853.000000</ele>
		<time>2013-05-04T02:55:56Z</time>
		</trkpt>

		<trkpt lat="38.809591" lon="-1.148889">
			<ele>2851.000000</ele>
		<time>2013-05-04T02:55:59Z</time>
		</trkpt>

		<trkpt lat="38.809807" lon="-1.148690">
			<ele>2848.000000</ele>
		<time>2013-05-04T02:56:02Z</time>
		</trkpt>

		<trkpt lat="38.810011" lon="-1.148389">
			<ele>2847.000000</ele>
		<time>2013-05-04T02:56:05Z</time>
		</trkpt>

		<trkpt lat="38.810145" lon="-1.148006">
			<ele>2847.000000</ele>
		<time>2013-05-04T02:56:08Z</time>
		</trkpt>

		<trkpt lat="38.810210" lon="-1.147576">
			<ele>2847.000000</ele>
		<time>2013-05-04T02:56:11Z</time>
		</trkpt>

		<trkpt lat="38.810257" lon="-1.147109">
			<ele>2845.000000</ele>
		<time>2013-05-04T02:56:14Z</time>
		</trkpt>

		<trkpt lat="38.810304" lon="-1.146641">
			<ele>2843.000000</ele>
		<time>2013-05-04T02:56:17Z</time>
		</trkpt>

		<trkpt lat="38.810336" lon="-1.146165">
			<ele>2840.000000</ele>
		<time>2013-05-04T02:56:20Z</time>
		</trkpt>

		<trkpt lat="38.810343" lon="-1.145773">
			<ele>2838.000000</ele>
		<time>2013-05-04T02:56:23Z</time>
		</trkpt>

		<trkpt lat="38.810318" lon="-1.145363">
			<ele>2837.000000</ele>
		<time>2013-05-04T02:56:26Z</time>
		</trkpt>

		<trkpt lat="38.810227" lon="-1.145000">
			<ele>2836.000000</ele>
		<time>2013-05-04T02:56:29Z</time>
		</trkpt>

		<trkpt lat="38.810209" lon="-1.144679">
			<ele>2835.000000</ele>
		<time>2013-05-04T02:56:32Z</time>
		</trkpt>

		<trkpt lat="38.810194" lon="-1.144311">
			<ele>2835.000000</ele>
		<time>2013-05-04T02:56:35Z</time>
		</trkpt>

		<trkpt lat="38.810140" lon="-1.143978">
			<ele>2835.000000</ele>
		<time>2013-05-04T02:56:38Z</time>
		</trkpt>

		<trkpt lat="38.810125" lon="-1.143614">
			<ele>2834.000000</ele>
		<time>2013-05-04T02:56:41Z</time>
		</trkpt>

		<trkpt lat="38.810139" lon="-1.143201">
			<ele>2836.000000</ele>
		<time>2013-05-04T02:56:44Z</time>
		</trkpt>

		<trkpt lat="38.810131" lon="-1.142839">
			<ele>2836.000000</ele>
		<time>2013-05-04T02:56:47Z</time>
		</trkpt>

		<trkpt lat="38.810067" lon="-1.142445">
			<ele>2835.000000</ele>
		<time>2013-05-04T02:56:50Z</time>
		</trkpt>

		<trkpt lat="38.809971" lon="-1.142059">
			<ele>2836.000000</ele>
		<time>2013-05-04T02:56:53Z</time>
		</trkpt>

		<trkpt lat="38.809917" lon="-1.141660">
			<ele>2839.000000</ele>
		<time>2013-05-04T02:56:56Z</time>
		</trkpt>

		<trkpt lat="38.809904" lon="-1.141232">
			<ele>2842.000000</ele>
		<time>2013-05-04T02:56:59Z</time>
		</trkpt>

		<trkpt lat="38.809894" lon="-1.140785">
			<ele>2846.000000</ele>
		<time>2013-05-04T02:57:02Z</time>
		</trkpt>

		<trkpt lat="38.809892" lon="-1.140365">
			<ele>2850.000000</ele>
		<time>2013-05-04T02:57:05Z</time>
		</trkpt>

		<trkpt lat="38.809868" lon="-1.139870">
			<ele>2857.000000</ele>
		<time>2013-05-04T02:57:08Z</time>
		</trkpt>

		<trkpt lat="38.809926" lon="-1.139429">
			<ele>2866.000000</ele>
		<time>2013-05-04T02:57:11Z</time>
		</trkpt>

		<trkpt lat="38.810047" lon="-1.139074">
			<ele>2871.000000</ele>
		<time>2013-05-04T02:57:14Z</time>
		</trkpt>

		<trkpt lat="38.810283" lon="-1.138815">
			<ele>2876.000000</ele>
		<time>2013-05-04T02:57:17Z</time>
		</trkpt>

		<trkpt lat="38.810515" lon="-1.138673">
			<ele>2881.000000</ele>
		<time>2013-05-04T02:57:20Z</time>
		</trkpt>

		<trkpt lat="38.810772" lon="-1.138618">
			<ele>2884.000000</ele>
		<time>2013-05-04T02:57:23Z</time>
		</trkpt>

		<trkpt lat="38.811006" lon="-1.138599">
			<ele>2887.000000</ele>
		<time>2013-05-04T02:57:26Z</time>
		</trkpt>

		<trkpt lat="38.811253" lon="-1.138575">
			<ele>2890.000000</ele>
		<time>2013-05-04T02:57:29Z</time>
		</trkpt>

		<trkpt lat="38.811451" lon="-1.138620">
			<ele>2891.000000</ele>
		<time>2013-05-04T02:57:32Z</time>
		</trkpt>

		<trkpt lat="38.811659" lon="-1.138739">
			<ele>2891.000000</ele>
		<time>2013-05-04T02:57:35Z</time>
		</trkpt>

		<trkpt lat="38.811904" lon="-1.138803">
			<ele>2892.000000</ele>
		<time>2013-05-04T02:57:38Z</time>
		</trkpt>

		<trkpt lat="38.812141" lon="-1.138778">
			<ele>2892.000000</ele>
		<time>2013-05-04T02:57:41Z</time>
		</trkpt>

		<trkpt lat="38.812301" lon="-1.138786">
			<ele>2891.000000</ele>
		<time>2013-05-04T02:57:44Z</time>
		</trkpt>

		<trkpt lat="38.812490" lon="-1.138861">
			<ele>2889.000000</ele>
		<time>2013-05-04T02:57:47Z</time>
		</trkpt>

		<trkpt lat="38.812684" lon="-1.138901">
			<ele>2886.000000</ele>
		<time>2013-05-04T02:57:50Z</time>
		</trkpt>

		<trkpt lat="38.812882" lon="-1.138927">
			<ele>2880.000000</ele>
		<time>2013-05-04T02:57:53Z</time>
		</trkpt>

		<trkpt lat="38.813111" lon="-1.138951">
			<ele>2874.000000</ele>
		<time>2013-05-04T02:57:56Z</time>
		</trkpt>

		<trkpt lat="38.813341" lon="-1.139022">
			<ele>2867.000000</ele>
		<time>2013-05-04T02:57:59Z</time>
		</trkpt>

		<trkpt lat="38.813577" lon="-1.139080">
			<ele>2863.000000</ele>
		<time>2013-05-04T02:58:02Z</time>
		</trkpt>

		<trkpt lat="38.813795" lon="-1.139148">
			<ele>2860.000000</ele>
		<time>2013-05-04T02:58:05Z</time>
		</trkpt>

		<trkpt lat="38.814022" lon="-1.139229">
			<ele>2856.000000</ele>
		<time>2013-05-04T02:58:08Z</time>
		</trkpt>

		<trkpt lat="38.814243" lon="-1.139317">
			<ele>2852.000000</ele>
		<time>2013-05-04T02:58:11Z</time>
		</trkpt>

		<trkpt lat="38.814468" lon="-1.139394">
			<ele>2848.000000</ele>
		<time>2013-05-04T02:58:14Z</time>
		</trkpt>

		<trkpt lat="38.814692" lon="-1.139478">
			<ele>2844.000000</ele>
		<time>2013-05-04T02:58:17Z</time>
		</trkpt>

		<trkpt lat="38.814890" lon="-1.139572">
			<ele>2841.000000</ele>
		<time>2013-05-04T02:58:20Z</time>
		</trkpt>

		<trkpt lat="38.815089" lon="-1.139687">
			<ele>2837.000000</ele>
		<time>2013-05-04T02:58:23Z</time>
		</trkpt>

		<trkpt lat="38.815291" lon="-1.139786">
			<ele>2835.000000</ele>
		<time>2013-05-04T02:58:26Z</time>
		</trkpt>

		<trkpt lat="38.815480" lon="-1.139892">
			<ele>2831.000000</ele>
		<time>2013-05-04T02:58:29Z</time>
		</trkpt>

		<trkpt lat="38.815668" lon="-1.140042">
			<ele>2827.000000</ele>
		<time>2013-05-04T02:58:32Z</time>
		</trkpt>

		<trkpt lat="38.815848" lon="-1.140189">
			<ele>2825.000000</ele>
		<time>2013-05-04T02:58:35Z</time>
		</trkpt>

		<trkpt lat="38.816050" lon="-1.140348">
			<ele>2822.000000</ele>
		<time>2013-05-04T02:58:38Z</time>
		</trkpt>

		<trkpt lat="38.816261" lon="-1.140506">
			<ele>2819.000000</ele>
		<time>2013-05-04T02:58:41Z</time>
		</trkpt>

		<trkpt lat="38.816458" lon="-1.140650">
			<ele>2817.000000</ele>
		<time>2013-05-04T02:58:44Z</time>
		</trkpt>

		<trkpt lat="38.816652" lon="-1.140780">
			<ele>2813.000000</ele>
		<time>2013-05-04T02:58:47Z</time>
		</trkpt>

		<trkpt lat="38.816847" lon="-1.140923">
			<ele>2811.000000</ele>
		<time>2013-05-04T02:58:50Z</time>
		</trkpt>

		<trkpt lat="38.817052" lon="-1.141073">
			<ele>2808.000000</ele>
		<time>2013-05-04T02:58:53Z</time>
		</trkpt>

		<trkpt lat="38.817255" lon="-1.141214">
			<ele>2804.000000</ele>
		<time>2013-05-04T02:58:56Z</time>
		</trkpt>

		<trkpt lat="38.817469" lon="-1.141344">
			<ele>2801.000000</ele>
		<time>2013-05-04T02:58:59Z</time>
		</trkpt>

		<trkpt lat="38.817686" lon="-1.141453">
			<ele>2798.000000</ele>
		<time>2013-05-04T02:59:02Z</time>
		</trkpt>

		<trkpt lat="38.817901" lon="-1.141570">
			<ele>2795.000000</ele>
		<time>2013-05-04T02:59:05Z</time>
		</trkpt>

		<trkpt lat="38.818126" lon="-1.141705">
			<ele>2792.000000</ele>
		<time>2013-05-04T02:59:08Z</time>
		</trkpt>

		<trkpt lat="38.818339" lon="-1.141836">
			<ele>2788.000000</ele>
		<time>2013-05-04T02:59:11Z</time>
		</trkpt>

		<trkpt lat="38.818553" lon="-1.141973">
			<ele>2784.000000</ele>
		<time>2013-05-04T02:59:14Z</time>
		</trkpt>

		<trkpt lat="38.818761" lon="-1.142130">
			<ele>2781.000000</ele>
		<time>2013-05-04T02:59:17Z</time>
		</trkpt>

		<trkpt lat="38.818958" lon="-1.142312">
			<ele>2779.000000</ele>
		<time>2013-05-04T02:59:20Z</time>
		</trkpt>

		<trkpt lat="38.819168" lon="-1.142472">
			<ele>2777.000000</ele>
		<time>2013-05-04T02:59:23Z</time>
		</trkpt>

		<trkpt lat="38.819396" lon="-1.142562">
			<ele>2775.000000</ele>
		<time>2013-05-04T02:59:26Z</time>
		</trkpt>

		<trkpt lat="38.819635" lon="-1.142661">
			<ele>2771.000000</ele>
		<time>2013-05-04T02:59:29Z</time>
		</trkpt>

		<trkpt lat="38.819869" lon="-1.142759">
			<ele>2769.000000</ele>
		<time>2013-05-04T02:59:32Z</time>
		</trkpt>

		<trkpt lat="38.820093" lon="-1.142855">
			<ele>2767.000000</ele>
		<time>2013-05-04T02:59:35Z</time>
		</trkpt>

		<trkpt lat="38.820321" lon="-1.142976">
			<ele>2763.000000</ele>
		<time>2013-05-04T02:59:38Z</time>
		</trkpt>

		<trkpt lat="38.820558" lon="-1.143075">
			<ele>2761.000000</ele>
		<time>2013-05-04T02:59:41Z</time>
		</trkpt>

		<trkpt lat="38.820766" lon="-1.143202">
			<ele>2757.000000</ele>
		<time>2013-05-04T02:59:44Z</time>
		</trkpt>

		<trkpt lat="38.820981" lon="-1.143358">
			<ele>2755.000000</ele>
		<time>2013-05-04T02:59:47Z</time>
		</trkpt>

		<trkpt lat="38.821183" lon="-1.143539">
			<ele>2753.000000</ele>
		<time>2013-05-04T02:59:50Z</time>
		</trkpt>

		<trkpt lat="38.821374" lon="-1.143729">
			<ele>2751.000000</ele>
		<time>2013-05-04T02:59:53Z</time>
		</trkpt>

		<trkpt lat="38.821553" lon="-1.143942">
			<ele>2748.000000</ele>
		<time>2013-05-04T02:59:56Z</time>
		</trkpt>

		<trkpt lat="38.821725" lon="-1.144164">
			<ele>2746.000000</ele>
		<time>2013-05-04T02:59:59Z</time>
		</trkpt>

		<trkpt lat="38.821893" lon="-1.144359">
			<ele>2743.000000</ele>
		<time>2013-05-04T03:00:02Z</time>
		</trkpt>

		<trkpt lat="38.822049" lon="-1.144571">
			<ele>2739.000000</ele>
		<time>2013-05-04T03:00:05Z</time>
		</trkpt>

		<trkpt lat="38.822206" lon="-1.144783">
			<ele>2735.000000</ele>
		<time>2013-05-04T03:00:08Z</time>
		</trkpt>

		<trkpt lat="38.822390" lon="-1.144977">
			<ele>2730.000000</ele>
		<time>2013-05-04T03:00:11Z</time>
		</trkpt>

		<trkpt lat="38.822580" lon="-1.145169">
			<ele>2727.000000</ele>
		<time>2013-05-04T03:00:14Z</time>
		</trkpt>

		<trkpt lat="38.822778" lon="-1.145344">
			<ele>2724.000000</ele>
		<time>2013-05-04T03:00:17Z</time>
		</trkpt>

		<trkpt lat="38.822972" lon="-1.145520">
			<ele>2720.000000</ele>
		<time>2013-05-04T03:00:20Z</time>
		</trkpt>

		<trkpt lat="38.823192" lon="-1.145676">
			<ele>2716.000000</ele>
		<time>2013-05-04T03:00:23Z</time>
		</trkpt>

		<trkpt lat="38.823405" lon="-1.145820">
			<ele>2713.000000</ele>
		<time>2013-05-04T03:00:26Z</time>
		</trkpt>

		<trkpt lat="38.823625" lon="-1.145965">
			<ele>2710.000000</ele>
		<time>2013-05-04T03:00:29Z</time>
		</trkpt>

		<trkpt lat="38.823821" lon="-1.146142">
			<ele>2706.000000</ele>
		<time>2013-05-04T03:00:32Z</time>
		</trkpt>

		<trkpt lat="38.823988" lon="-1.146343">
			<ele>2702.000000</ele>
		<time>2013-05-04T03:00:35Z</time>
		</trkpt>

		<trkpt lat="38.824120" lon="-1.146599">
			<ele>2698.000000</ele>
		<time>2013-05-04T03:00:38Z</time>
		</trkpt>

		<trkpt lat="38.824273" lon="-1.146828">
			<ele>2694.000000</ele>
		<time>2013-05-04T03:00:41Z</time>
		</trkpt>

		<trkpt lat="38.824434" lon="-1.147061">
			<ele>2691.000000</ele>
		<time>2013-05-04T03:00:44Z</time>
		</trkpt>

		<trkpt lat="38.824607" lon="-1.147261">
			<ele>2688.000000</ele>
		<time>2013-05-04T03:00:47Z</time>
		</trkpt>

		<trkpt lat="38.824808" lon="-1.147450">
			<ele>2686.000000</ele>
		<time>2013-05-04T03:00:50Z</time>
		</trkpt>

		<trkpt lat="38.825018" lon="-1.147609">
			<ele>2683.000000</ele>
		<time>2013-05-04T03:00:53Z</time>
		</trkpt>

		<trkpt lat="38.825237" lon="-1.147762">
			<ele>2679.000000</ele>
		<time>2013-05-04T03:00:56Z</time>
		</trkpt>

		<trkpt lat="38.825472" lon="-1.147880">
			<ele>2676.000000</ele>
		<time>2013-05-04T03:00:59Z</time>
		</trkpt>

		<trkpt lat="38.825715" lon="-1.147985">
			<ele>2672.000000</ele>
		<time>2013-05-04T03:01:02Z</time>
		</trkpt>

		<trkpt lat="38.825957" lon="-1.148086">
			<ele>2669.000000</ele>
		<time>2013-05-04T03:01:05Z</time>
		</trkpt>

		<trkpt lat="38.826210" lon="-1.148197">
			<ele>2666.000000</ele>
		<time>2013-05-04T03:01:08Z</time>
		</trkpt>

		<trkpt lat="38.826457" lon="-1.148313">
			<ele>2663.000000</ele>
		<time>2013-05-04T03:01:11Z</time>
		</trkpt>

		<trkpt lat="38.826694" lon="-1.148456">
			<ele>2660.000000</ele>
		<time>2013-05-04T03:01:14Z</time>
		</trkpt>

		<trkpt lat="38.826923" lon="-1.148615">
			<ele>2658.000000</ele>
		<time>2013-05-04T03:01:17Z</time>
		</trkpt>

		<trkpt lat="38.827130" lon="-1.148805">
			<ele>2656.000000</ele>
		<time>2013-05-04T03:01:20Z</time>
		</trkpt>

		<trkpt lat="38.827347" lon="-1.148989">
			<ele>2653.000000</ele>
		<time>2013-05-04T03:01:23Z</time>
		</trkpt>

		<trkpt lat="38.827576" lon="-1.149149">
			<ele>2650.000000</ele>
		<time>2013-05-04T03:01:26Z</time>
		</trkpt>

		<trkpt lat="38.827830" lon="-1.149262">
			<ele>2647.000000</ele>
		<time>2013-05-04T03:01:29Z</time>
		</trkpt>

		<trkpt lat="38.828099" lon="-1.149358">
			<ele>2644.000000</ele>
		<time>2013-05-04T03:01:32Z</time>
		</trkpt>

		<trkpt lat="38.828346" lon="-1.149479">
			<ele>2640.000000</ele>
		<time>2013-05-04T03:01:35Z</time>
		</trkpt>

		<trkpt lat="38.828592" lon="-1.149589">
			<ele>2635.000000</ele>
		<time>2013-05-04T03:01:38Z</time>
		</trkpt>

		<trkpt lat="38.828847" lon="-1.149689">
			<ele>2631.000000</ele>
		<time>2013-05-04T03:01:41Z</time>
		</trkpt>

		<trkpt lat="38.829101" lon="-1.149789">
			<ele>2627.000000</ele>
		<time>2013-05-04T03:01:44Z</time>
		</trkpt>

		<trkpt lat="38.829358" lon="-1.149890">
			<ele>2623.000000</ele>
		<time>2013-05-04T03:01:47Z</time>
		</trkpt>

		<trkpt lat="38.829616" lon="-1.149967">
			<ele>2620.000000</ele>
		<time>2013-05-04T03:01:50Z</time>
		</trkpt>

		<trkpt lat="38.829858" lon="-1.150076">
			<ele>2616.000000</ele>
		<time>2013-05-04T03:01:53Z</time>
		</trkpt>

		<trkpt lat="38.830084" lon="-1.150232">
			<ele>2612.000000</ele>
		<time>2013-05-04T03:01:56Z</time>
		</trkpt>

		<trkpt lat="38.830282" lon="-1.150415">
			<ele>2609.000000</ele>
		<time>2013-05-04T03:01:59Z</time>
		</trkpt>

		<trkpt lat="38.830460" lon="-1.150626">
			<ele>2604.000000</ele>
		<time>2013-05-04T03:02:02Z</time>
		</trkpt>

		<trkpt lat="38.830633" lon="-1.150855">
			<ele>2601.000000</ele>
		<time>2013-05-04T03:02:05Z</time>
		</trkpt>

		<trkpt lat="38.830798" lon="-1.151077">
			<ele>2597.000000</ele>
		<time>2013-05-04T03:02:08Z</time>
		</trkpt>

		<trkpt lat="38.830952" lon="-1.151319">
			<ele>2594.000000</ele>
		<time>2013-05-04T03:02:11Z</time>
		</trkpt>

		<trkpt lat="38.831088" lon="-1.151549">
			<ele>2591.000000</ele>
		<time>2013-05-04T03:02:14Z</time>
		</trkpt>

		<trkpt lat="38.831230" lon="-1.151809">
			<ele>2588.000000</ele>
		<time>2013-05-04T03:02:17Z</time>
		</trkpt>

		<trkpt lat="38.831385" lon="-1.152030">
			<ele>2585.000000</ele>
		<time>2013-05-04T03:02:20Z</time>
		</trkpt>

		<trkpt lat="38.831585" lon="-1.152202">
			<ele>2581.000000</ele>
		<time>2013-05-04T03:02:23Z</time>
		</trkpt>

		<trkpt lat="38.831805" lon="-1.152340">
			<ele>2577.000000</ele>
		<time>2013-05-04T03:02:26Z</time>
		</trkpt>

		<trkpt lat="38.832032" lon="-1.152438">
			<ele>2574.000000</ele>
		<time>2013-05-04T03:02:29Z</time>
		</trkpt>

		<trkpt lat="38.832279" lon="-1.152497">
			<ele>2570.000000</ele>
		<time>2013-05-04T03:02:32Z</time>
		</trkpt>

		<trkpt lat="38.832539" lon="-1.152481">
			<ele>2565.000000</ele>
		<time>2013-05-04T03:02:35Z</time>
		</trkpt>

		<trkpt lat="38.832814" lon="-1.152437">
			<ele>2558.000000</ele>
		<time>2013-05-04T03:02:38Z</time>
		</trkpt>

		<trkpt lat="38.833067" lon="-1.152411">
			<ele>2554.000000</ele>
		<time>2013-05-04T03:02:41Z</time>
		</trkpt>

		<trkpt lat="38.833318" lon="-1.152383">
			<ele>2550.000000</ele>
		<time>2013-05-04T03:02:44Z</time>
		</trkpt>

		<trkpt lat="38.833596" lon="-1.152366">
			<ele>2546.000000</ele>
		<time>2013-05-04T03:02:47Z</time>
		</trkpt>

		<trkpt lat="38.833840" lon="-1.152347">
			<ele>2543.000000</ele>
		<time>2013-05-04T03:02:50Z</time>
		</trkpt>

		<trkpt lat="38.834113" lon="-1.152341">
			<ele>2538.000000</ele>
		<time>2013-05-04T03:02:53Z</time>
		</trkpt>

		<trkpt lat="38.834399" lon="-1.152310">
			<ele>2534.000000</ele>
		<time>2013-05-04T03:02:56Z</time>
		</trkpt>

		<trkpt lat="38.834680" lon="-1.152272">
			<ele>2529.000000</ele>
		<time>2013-05-04T03:02:59Z</time>
		</trkpt>

		<trkpt lat="38.834982" lon="-1.152219">
			<ele>2523.000000</ele>
		<time>2013-05-04T03:03:02Z</time>
		</trkpt>

		<trkpt lat="38.835263" lon="-1.152174">
			<ele>2517.000000</ele>
		<time>2013-05-04T03:03:05Z</time>
		</trkpt>

		<trkpt lat="38.835552" lon="-1.152116">
			<ele>2509.000000</ele>
		<time>2013-05-04T03:03:08Z</time>
		</trkpt>

		<trkpt lat="38.835842" lon="-1.152039">
			<ele>2505.000000</ele>
		<time>2013-05-04T03:03:11Z</time>
		</trkpt>

		<trkpt lat="38.836096" lon="-1.151964">
			<ele>2502.000000</ele>
		<time>2013-05-04T03:03:14Z</time>
		</trkpt>

		<trkpt lat="38.836364" lon="-1.151923">
			<ele>2498.000000</ele>
		<time>2013-05-04T03:03:17Z</time>
		</trkpt>

		<trkpt lat="38.836644" lon="-1.151898">
			<ele>2493.000000</ele>
		<time>2013-05-04T03:03:20Z</time>
		</trkpt>

		<trkpt lat="38.836902" lon="-1.151885">
			<ele>2488.000000</ele>
		<time>2013-05-04T03:03:23Z</time>
		</trkpt>

		<trkpt lat="38.837181" lon="-1.151869">
			<ele>2481.000000</ele>
		<time>2013-05-04T03:03:26Z</time>
		</trkpt>

		<trkpt lat="38.837466" lon="-1.151832">
			<ele>2475.000000</ele>
		<time>2013-05-04T03:03:29Z</time>
		</trkpt>

		<trkpt lat="38.837748" lon="-1.151788">
			<ele>2468.000000</ele>
		<time>2013-05-04T03:03:32Z</time>
		</trkpt>

		<trkpt lat="38.838035" lon="-1.151773">
			<ele>2462.000000</ele>
		<time>2013-05-04T03:03:35Z</time>
		</trkpt>

		<trkpt lat="38.838314" lon="-1.151762">
			<ele>2457.000000</ele>
		<time>2013-05-04T03:03:38Z</time>
		</trkpt>

		<trkpt lat="38.838593" lon="-1.151747">
			<ele>2452.000000</ele>
		<time>2013-05-04T03:03:41Z</time>
		</trkpt>

		<trkpt lat="38.838872" lon="-1.151682">
			<ele>2446.000000</ele>
		<time>2013-05-04T03:03:44Z</time>
		</trkpt>

		<trkpt lat="38.839145" lon="-1.151618">
			<ele>2439.000000</ele>
		<time>2013-05-04T03:03:47Z</time>
		</trkpt>

		<trkpt lat="38.839426" lon="-1.151526">
			<ele>2433.000000</ele>
		<time>2013-05-04T03:03:50Z</time>
		</trkpt>

		<trkpt lat="38.839700" lon="-1.151417">
			<ele>2427.000000</ele>
		<time>2013-05-04T03:03:53Z</time>
		</trkpt>

		<trkpt lat="38.839987" lon="-1.151298">
			<ele>2421.000000</ele>
		<time>2013-05-04T03:03:56Z</time>
		</trkpt>

		<trkpt lat="38.840277" lon="-1.151196">
			<ele>2416.000000</ele>
		<time>2013-05-04T03:03:59Z</time>
		</trkpt>

		<trkpt lat="38.840565" lon="-1.151123">
			<ele>2410.000000</ele>
		<time>2013-05-04T03:04:02Z</time>
		</trkpt>

		<trkpt lat="38.840871" lon="-1.151084">
			<ele>2405.000000</ele>
		<time>2013-05-04T03:04:05Z</time>
		</trkpt>

		<trkpt lat="38.841160" lon="-1.151037">
			<ele>2402.000000</ele>
		<time>2013-05-04T03:04:08Z</time>
		</trkpt>

		<trkpt lat="38.841454" lon="-1.150967">
			<ele>2398.000000</ele>
		<time>2013-05-04T03:04:11Z</time>
		</trkpt>

		<trkpt lat="38.841721" lon="-1.150884">
			<ele>2395.000000</ele>
		<time>2013-05-04T03:04:14Z</time>
		</trkpt>

		<trkpt lat="38.842012" lon="-1.150846">
			<ele>2391.000000</ele>
		<time>2013-05-04T03:04:17Z</time>
		</trkpt>

		<trkpt lat="38.842285" lon="-1.150833">
			<ele>2388.000000</ele>
		<time>2013-05-04T03:04:20Z</time>
		</trkpt>

		<trkpt lat="38.842545" lon="-1.150808">
			<ele>2386.000000</ele>
		<time>2013-05-04T03:04:23Z</time>
		</trkpt>

		<trkpt lat="38.842796" lon="-1.150768">
			<ele>2384.000000</ele>
		<time>2013-05-04T03:04:26Z</time>
		</trkpt>

		<trkpt lat="38.843062" lon="-1.150694">
			<ele>2383.000000</ele>
		<time>2013-05-04T03:04:29Z</time>
		</trkpt>

		<trkpt lat="38.843320" lon="-1.150719">
			<ele>2384.000000</ele>
		<time>2013-05-04T03:04:32Z</time>
		</trkpt>

		<trkpt lat="38.843573" lon="-1.150720">
			<ele>2383.000000</ele>
		<time>2013-05-04T03:04:35Z</time>
		</trkpt>

		<trkpt lat="38.843822" lon="-1.150792">
			<ele>2382.000000</ele>
		<time>2013-05-04T03:04:38Z</time>
		</trkpt>

		<trkpt lat="38.844087" lon="-1.150855">
			<ele>2381.000000</ele>
		<time>2013-05-04T03:04:41Z</time>
		</trkpt>

		<trkpt lat="38.844332" lon="-1.150807">
			<ele>2382.000000</ele>
		<time>2013-05-04T03:04:44Z</time>
		</trkpt>

		<trkpt lat="38.844550" lon="-1.150670">
			<ele>2383.000000</ele>
		<time>2013-05-04T03:04:47Z</time>
		</trkpt>

		<trkpt lat="38.844776" lon="-1.150482">
			<ele>2383.000000</ele>
		<time>2013-05-04T03:04:50Z</time>
		</trkpt>

		<trkpt lat="38.845016" lon="-1.150377">
			<ele>2383.000000</ele>
		<time>2013-05-04T03:04:53Z</time>
		</trkpt>

		<trkpt lat="38.845254" lon="-1.150331">
			<ele>2382.000000</ele>
		<time>2013-05-04T03:04:56Z</time>
		</trkpt>

		<trkpt lat="38.845508" lon="-1.150295">
			<ele>2380.000000</ele>
		<time>2013-05-04T03:04:59Z</time>
		</trkpt>

		<trkpt lat="38.845748" lon="-1.150219">
			<ele>2378.000000</ele>
		<time>2013-05-04T03:05:02Z</time>
		</trkpt>

		<trkpt lat="38.846002" lon="-1.150131">
			<ele>2376.000000</ele>
		<time>2013-05-04T03:05:05Z</time>
		</trkpt>

		<trkpt lat="38.846250" lon="-1.150010">
			<ele>2375.000000</ele>
		<time>2013-05-04T03:05:08Z</time>
		</trkpt>

		<trkpt lat="38.846489" lon="-1.149898">
			<ele>2373.000000</ele>
		<time>2013-05-04T03:05:11Z</time>
		</trkpt>

		<trkpt lat="38.846749" lon="-1.149790">
			<ele>2372.000000</ele>
		<time>2013-05-04T03:05:14Z</time>
		</trkpt>

		<trkpt lat="38.847005" lon="-1.149713">
			<ele>2371.000000</ele>
		<time>2013-05-04T03:05:17Z</time>
		</trkpt>

		<trkpt lat="38.847295" lon="-1.149653">
			<ele>2371.000000</ele>
		<time>2013-05-04T03:05:20Z</time>
		</trkpt>

		<trkpt lat="38.847546" lon="-1.149623">
			<ele>2372.000000</ele>
		<time>2013-05-04T03:05:23Z</time>
		</trkpt>

		<trkpt lat="38.847803" lon="-1.149638">
			<ele>2373.000000</ele>
		<time>2013-05-04T03:05:26Z</time>
		</trkpt>

		<trkpt lat="38.848017" lon="-1.149644">
			<ele>2375.000000</ele>
		<time>2013-05-04T03:05:29Z</time>
		</trkpt>

		<trkpt lat="38.848245" lon="-1.149599">
			<ele>2375.000000</ele>
		<time>2013-05-04T03:05:32Z</time>
		</trkpt>

		<trkpt lat="38.848468" lon="-1.149546">
			<ele>2376.000000</ele>
		<time>2013-05-04T03:05:35Z</time>
		</trkpt>

		<trkpt lat="38.848684" lon="-1.149571">
			<ele>2376.000000</ele>
		<time>2013-05-04T03:05:38Z</time>
		</trkpt>

		<trkpt lat="38.848913" lon="-1.149613">
			<ele>2376.000000</ele>
		<time>2013-05-04T03:05:41Z</time>
		</trkpt>

		<trkpt lat="38.849161" lon="-1.149666">
			<ele>2375.000000</ele>
		<time>2013-05-04T03:05:44Z</time>
		</trkpt>

		<trkpt lat="38.849385" lon="-1.149692">
			<ele>2376.000000</ele>
		<time>2013-05-04T03:05:47Z</time>
		</trkpt>

		<trkpt lat="38.849632" lon="-1.149673">
			<ele>2376.000000</ele>
		<time>2013-05-04T03:05:50Z</time>
		</trkpt>

		<trkpt lat="38.849858" lon="-1.149666">
			<ele>2376.000000</ele>
		<time>2013-05-04T03:05:53Z</time>
		</trkpt>

		<trkpt lat="38.850098" lon="-1.149637">
			<ele>2376.000000</ele>
		<time>2013-05-04T03:05:56Z</time>
		</trkpt>

		<trkpt lat="38.850334" lon="-1.149632">
			<ele>2376.000000</ele>
		<time>2013-05-04T03:05:59Z</time>
		</trkpt>

		<trkpt lat="38.850568" lon="-1.149659">
			<ele>2377.000000</ele>
		<time>2013-05-04T03:06:02Z</time>
		</trkpt>

		<trkpt lat="38.850836" lon="-1.149668">
			<ele>2378.000000</ele>
		<time>2013-05-04T03:06:05Z</time>
		</trkpt>

		<trkpt lat="38.851099" lon="-1.149627">
			<ele>2379.000000</ele>
		<time>2013-05-04T03:06:08Z</time>
		</trkpt>

		<trkpt lat="38.851391" lon="-1.149567">
			<ele>2380.000000</ele>
		<time>2013-05-04T03:06:11Z</time>
		</trkpt>

		<trkpt lat="38.851653" lon="-1.149455">
			<ele>2382.000000</ele>
		<time>2013-05-04T03:06:14Z</time>
		</trkpt>

		<trkpt lat="38.851889" lon="-1.149383">
			<ele>2383.000000</ele>
		<time>2013-05-04T03:06:17Z</time>
		</trkpt>

		<trkpt lat="38.852138" lon="-1.149313">
			<ele>2385.000000</ele>
		<time>2013-05-04T03:06:20Z</time>
		</trkpt>

		<trkpt lat="38.852408" lon="-1.149265">
			<ele>2386.000000</ele>
		<time>2013-05-04T03:06:23Z</time>
		</trkpt>

		<trkpt lat="38.852665" lon="-1.149222">
			<ele>2388.000000</ele>
		<time>2013-05-04T03:06:26Z</time>
		</trkpt>

		<trkpt lat="38.852883" lon="-1.149195">
			<ele>2391.000000</ele>
		<time>2013-05-04T03:06:29Z</time>
		</trkpt>

		<trkpt lat="38.853116" lon="-1.149186">
			<ele>2394.000000</ele>
		<time>2013-05-04T03:06:32Z</time>
		</trkpt>

		<trkpt lat="38.853340" lon="-1.149163">
			<ele>2396.000000</ele>
		<time>2013-05-04T03:06:35Z</time>
		</trkpt>

		<trkpt lat="38.853570" lon="-1.149165">
			<ele>2396.000000</ele>
		<time>2013-05-04T03:06:38Z</time>
		</trkpt>

		<trkpt lat="38.853813" lon="-1.149135">
			<ele>2395.000000</ele>
		<time>2013-05-04T03:06:41Z</time>
		</trkpt>

		<trkpt lat="38.854059" lon="-1.149085">
			<ele>2394.000000</ele>
		<time>2013-05-04T03:06:44Z</time>
		</trkpt>

		<trkpt lat="38.854309" lon="-1.148976">
			<ele>2392.000000</ele>
		<time>2013-05-04T03:06:47Z</time>
		</trkpt>

		<trkpt lat="38.854574" lon="-1.148832">
			<ele>2389.000000</ele>
		<time>2013-05-04T03:06:50Z</time>
		</trkpt>

		<trkpt lat="38.854832" lon="-1.148682">
			<ele>2385.000000</ele>
		<time>2013-05-04T03:06:53Z</time>
		</trkpt>

		<trkpt lat="38.855090" lon="-1.148586">
			<ele>2383.000000</ele>
		<time>2013-05-04T03:06:56Z</time>
		</trkpt>

		<trkpt lat="38.855343" lon="-1.148534">
			<ele>2379.000000</ele>
		<time>2013-05-04T03:06:59Z</time>
		</trkpt>

		<trkpt lat="38.855630" lon="-1.148508">
			<ele>2375.000000</ele>
		<time>2013-05-04T03:07:02Z</time>
		</trkpt>

		<trkpt lat="38.855920" lon="-1.148492">
			<ele>2372.000000</ele>
		<time>2013-05-04T03:07:05Z</time>
		</trkpt>

		<trkpt lat="38.856199" lon="-1.148480">
			<ele>2368.000000</ele>
		<time>2013-05-04T03:07:08Z</time>
		</trkpt>

		<trkpt lat="38.856497" lon="-1.148472">
			<ele>2363.000000</ele>
		<time>2013-05-04T03:07:11Z</time>
		</trkpt>

		<trkpt lat="38.856786" lon="-1.148446">
			<ele>2358.000000</ele>
		<time>2013-05-04T03:07:14Z</time>
		</trkpt>

		<trkpt lat="38.857072" lon="-1.148422">
			<ele>2353.000000</ele>
		<time>2013-05-04T03:07:17Z</time>
		</trkpt>

		<trkpt lat="38.857361" lon="-1.148381">
			<ele>2348.000000</ele>
		<time>2013-05-04T03:07:20Z</time>
		</trkpt>

		<trkpt lat="38.857651" lon="-1.148354">
			<ele>2344.000000</ele>
		<time>2013-05-04T03:07:23Z</time>
		</trkpt>

		<trkpt lat="38.857957" lon="-1.148316">
			<ele>2339.000000</ele>
		<time>2013-05-04T03:07:26Z</time>
		</trkpt>

		<trkpt lat="38.858270" lon="-1.148345">
			<ele>2337.000000</ele>
		<time>2013-05-04T03:07:29Z</time>
		</trkpt>

		<trkpt lat="38.858570" lon="-1.148368">
			<ele>2334.000000</ele>
		<time>2013-05-04T03:07:32Z</time>
		</trkpt>

		<trkpt lat="38.858885" lon="-1.148465">
			<ele>2331.000000</ele>
		<time>2013-05-04T03:07:35Z</time>
		</trkpt>

		<trkpt lat="38.859166" lon="-1.148561">
			<ele>2328.000000</ele>
		<time>2013-05-04T03:07:38Z</time>
		</trkpt>

		<trkpt lat="38.859472" lon="-1.148655">
			<ele>2323.000000</ele>
		<time>2013-05-04T03:07:41Z</time>
		</trkpt>

		<trkpt lat="38.859797" lon="-1.148695">
			<ele>2320.000000</ele>
		<time>2013-05-04T03:07:44Z</time>
		</trkpt>

		<trkpt lat="38.860072" lon="-1.148804">
			<ele>2315.000000</ele>
		<time>2013-05-04T03:07:47Z</time>
		</trkpt>

		<trkpt lat="38.860381" lon="-1.148924">
			<ele>2312.000000</ele>
		<time>2013-05-04T03:07:50Z</time>
		</trkpt>

		<trkpt lat="38.860674" lon="-1.149067">
			<ele>2309.000000</ele>
		<time>2013-05-04T03:07:53Z</time>
		</trkpt>

		<trkpt lat="38.860941" lon="-1.149203">
			<ele>2306.000000</ele>
		<time>2013-05-04T03:07:56Z</time>
		</trkpt>

		<trkpt lat="38.861152" lon="-1.149409">
			<ele>2305.000000</ele>
		<time>2013-05-04T03:07:59Z</time>
		</trkpt>

		<trkpt lat="38.861370" lon="-1.149558">
			<ele>2304.000000</ele>
		<time>2013-05-04T03:08:02Z</time>
		</trkpt>

		<trkpt lat="38.861567" lon="-1.149739">
			<ele>2302.000000</ele>
		<time>2013-05-04T03:08:05Z</time>
		</trkpt>

		<trkpt lat="38.861789" lon="-1.149968">
			<ele>2299.000000</ele>
		<time>2013-05-04T03:08:08Z</time>
		</trkpt>

		<trkpt lat="38.861975" lon="-1.150160">
			<ele>2298.000000</ele>
		<time>2013-05-04T03:08:11Z</time>
		</trkpt>

		<trkpt lat="38.862195" lon="-1.150254">
			<ele>2297.000000</ele>
		<time>2013-05-04T03:08:14Z</time>
		</trkpt>

		<trkpt lat="38.862462" lon="-1.150369">
			<ele>2296.000000</ele>
		<time>2013-05-04T03:08:17Z</time>
		</trkpt>

		<trkpt lat="38.862728" lon="-1.150472">
			<ele>2296.000000</ele>
		<time>2013-05-04T03:08:20Z</time>
		</trkpt>

		<trkpt lat="38.862928" lon="-1.150610">
			<ele>2294.000000</ele>
		<time>2013-05-04T03:08:23Z</time>
		</trkpt>

		<trkpt lat="38.863095" lon="-1.150808">
			<ele>2293.000000</ele>
		<time>2013-05-04T03:08:26Z</time>
		</trkpt>

		<trkpt lat="38.863348" lon="-1.150913">
			<ele>2291.000000</ele>
		<time>2013-05-04T03:08:29Z</time>
		</trkpt>

		<trkpt lat="38.863649" lon="-1.150917">
			<ele>2290.000000</ele>
		<time>2013-05-04T03:08:32Z</time>
		</trkpt>

		<trkpt lat="38.863968" lon="-1.150874">
			<ele>2287.000000</ele>
		<time>2013-05-04T03:08:35Z</time>
		</trkpt>

		<trkpt lat="38.864319" lon="-1.150829">
			<ele>2284.000000</ele>
		<time>2013-05-04T03:08:38Z</time>
		</trkpt>

		<trkpt lat="38.864630" lon="-1.150769">
			<ele>2283.000000</ele>
		<time>2013-05-04T03:08:41Z</time>
		</trkpt>

		<trkpt lat="38.864952" lon="-1.150637">
			<ele>2282.000000</ele>
		<time>2013-05-04T03:08:44Z</time>
		</trkpt>

		<trkpt lat="38.865312" lon="-1.150460">
			<ele>2282.000000</ele>
		<time>2013-05-04T03:08:47Z</time>
		</trkpt>

		<trkpt lat="38.865581" lon="-1.150329">
			<ele>2286.000000</ele>
		<time>2013-05-04T03:08:50Z</time>
		</trkpt>

		<trkpt lat="38.865810" lon="-1.150234">
			<ele>2291.000000</ele>
		<time>2013-05-04T03:08:53Z</time>
		</trkpt>

		<trkpt lat="38.866059" lon="-1.150074">
			<ele>2300.000000</ele>
		<time>2013-05-04T03:08:56Z</time>
		</trkpt>

		<trkpt lat="38.866311" lon="-1.149892">
			<ele>2310.000000</ele>
		<time>2013-05-04T03:08:59Z</time>
		</trkpt>

		<trkpt lat="38.866557" lon="-1.149932">
			<ele>2321.000000</ele>
		<time>2013-05-04T03:09:02Z</time>
		</trkpt>

		<trkpt lat="38.866730" lon="-1.150152">
			<ele>2329.000000</ele>
		<time>2013-05-04T03:09:05Z</time>
		</trkpt>

		<trkpt lat="38.866812" lon="-1.150438">
			<ele>2339.000000</ele>
		<time>2013-05-04T03:09:08Z</time>
		</trkpt>

		<trkpt lat="38.866679" lon="-1.150604">
			<ele>2347.000000</ele>
		<time>2013-05-04T03:09:11Z</time>
		</trkpt>

		<trkpt lat="38.866428" lon="-1.150840">
			<ele>2350.000000</ele>
		<time>2013-05-04T03:09:14Z</time>
		</trkpt>

		<trkpt lat="38.866030" lon="-1.150881">
			<ele>2353.000000</ele>
		<time>2013-05-04T03:09:17Z</time>
		</trkpt>

		<trkpt lat="38.865750" lon="-1.150622">
			<ele>2361.000000</ele>
		<time>2013-05-04T03:09:20Z</time>
		</trkpt>

		<trkpt lat="38.865463" lon="-1.150390">
			<ele>2364.000000</ele>
		<time>2013-05-04T03:09:23Z</time>
		</trkpt>

		<trkpt lat="38.865211" lon="-1.150017">
			<ele>2369.000000</ele>
		<time>2013-05-04T03:09:26Z</time>
		</trkpt>

		<trkpt lat="38.865071" lon="-1.149625">
			<ele>2378.000000</ele>
		<time>2013-05-04T03:09:29Z</time>
		</trkpt>

		<trkpt lat="38.864919" lon="-1.149278">
			<ele>2385.000000</ele>
		<time>2013-05-04T03:09:32Z</time>
		</trkpt>

		<trkpt lat="38.864593" lon="-1.149127">
			<ele>2393.000000</ele>
		<time>2013-05-04T03:09:35Z</time>
		</trkpt>

		<trkpt lat="38.864378" lon="-1.149384">
			<ele>2401.000000</ele>
		<time>2013-05-04T03:09:38Z</time>
		</trkpt>

		<trkpt lat="38.864585" lon="-1.149658">
			<ele>2413.000000</ele>
		<time>2013-05-04T03:09:41Z</time>
		</trkpt>

		<trkpt lat="38.864910" lon="-1.149639">
			<ele>2423.000000</ele>
		<time>2013-05-04T03:09:44Z</time>
		</trkpt>

		<trkpt lat="38.865182" lon="-1.149382">
			<ele>2434.000000</ele>
		<time>2013-05-04T03:09:47Z</time>
		</trkpt>

		<trkpt lat="38.865190" lon="-1.148916">
			<ele>2442.000000</ele>
		<time>2013-05-04T03:09:50Z</time>
		</trkpt>

		<trkpt lat="38.864987" lon="-1.148444">
			<ele>2446.000000</ele>
		<time>2013-05-04T03:09:53Z</time>
		</trkpt>

		<trkpt lat="38.864733" lon="-1.148197">
			<ele>2456.000000</ele>
		<time>2013-05-04T03:09:56Z</time>
		</trkpt>

		<trkpt lat="38.864588" lon="-1.147843">
			<ele>2465.000000</ele>
		<time>2013-05-04T03:09:59Z</time>
		</trkpt>

		<trkpt lat="38.864685" lon="-1.147364">
			<ele>2471.000000</ele>
		<time>2013-05-04T03:10:02Z</time>
		</trkpt>

		<trkpt lat="38.864967" lon="-1.147206">
			<ele>2476.000000</ele>
		<time>2013-05-04T03:10:05Z</time>
		</trkpt>

		<trkpt lat="38.865274" lon="-1.147412">
			<ele>2481.000000</ele>
		<time>2013-05-04T03:10:08Z</time>
		</trkpt>

		<trkpt lat="38.865339" lon="-1.147702">
			<ele>2487.000000</ele>
		<time>2013-05-04T03:10:11Z</time>
		</trkpt>

		<trkpt lat="38.865187" lon="-1.147930">
			<ele>2496.000000</ele>
		<time>2013-05-04T03:10:14Z</time>
		</trkpt>

		<trkpt lat="38.865037" lon="-1.148124">
			<ele>2506.000000</ele>
		<time>2013-05-04T03:10:17Z</time>
		</trkpt>

		<trkpt lat="38.864760" lon="-1.148097">
			<ele>2514.000000</ele>
		<time>2013-05-04T03:10:20Z</time>
		</trkpt>

		<trkpt lat="38.864496" lon="-1.147704">
			<ele>2525.000000</ele>
		<time>2013-05-04T03:10:23Z</time>
		</trkpt>

		<trkpt lat="38.864624" lon="-1.147126">
			<ele>2528.000000</ele>
		<time>2013-05-04T03:10:26Z</time>
		</trkpt>

		<trkpt lat="38.864899" lon="-1.146880">
			<ele>2537.000000</ele>
		<time>2013-05-04T03:10:29Z</time>
		</trkpt>

		<trkpt lat="38.865209" lon="-1.146699">
			<ele>2544.000000</ele>
		<time>2013-05-04T03:10:32Z</time>
		</trkpt>

		<trkpt lat="38.865503" lon="-1.146617">
			<ele>2550.000000</ele>
		<time>2013-05-04T03:10:35Z</time>
		</trkpt>

		<trkpt lat="38.865736" lon="-1.146687">
			<ele>2555.000000</ele>
		<time>2013-05-04T03:10:38Z</time>
		</trkpt>

		<trkpt lat="38.865898" lon="-1.146899">
			<ele>2563.000000</ele>
		<time>2013-05-04T03:10:41Z</time>
		</trkpt>

		<trkpt lat="38.866063" lon="-1.147109">
			<ele>2571.000000</ele>
		<time>2013-05-04T03:10:44Z</time>
		</trkpt>

		<trkpt lat="38.866280" lon="-1.147228">
			<ele>2579.000000</ele>
		<time>2013-05-04T03:10:47Z</time>
		</trkpt>

		<trkpt lat="38.866466" lon="-1.147376">
			<ele>2586.000000</ele>
		<time>2013-05-04T03:10:50Z</time>
		</trkpt>

		<trkpt lat="38.866554" lon="-1.147541">
			<ele>2596.000000</ele>
		<time>2013-05-04T03:10:53Z</time>
		</trkpt>

		<trkpt lat="38.866650" lon="-1.147647">
			<ele>2602.000000</ele>
		<time>2013-05-04T03:10:56Z</time>
		</trkpt>

		<trkpt lat="38.866843" lon="-1.147798">
			<ele>2606.000000</ele>
		<time>2013-05-04T03:10:59Z</time>
		</trkpt>

		<trkpt lat="38.867021" lon="-1.147907">
			<ele>2609.000000</ele>
		<time>2013-05-04T03:11:02Z</time>
		</trkpt>

		<trkpt lat="38.867197" lon="-1.148072">
			<ele>2610.000000</ele>
		<time>2013-05-04T03:11:05Z</time>
		</trkpt>

		<trkpt lat="38.867351" lon="-1.148172">
			<ele>2612.000000</ele>
		<time>2013-05-04T03:11:08Z</time>
		</trkpt>

		<trkpt lat="38.867510" lon="-1.148323">
			<ele>2612.000000</ele>
		<time>2013-05-04T03:11:11Z</time>
		</trkpt>

		<trkpt lat="38.867666" lon="-1.148452">
			<ele>2613.000000</ele>
		<time>2013-05-04T03:11:14Z</time>
		</trkpt>

		<trkpt lat="38.867805" lon="-1.148585">
			<ele>2611.000000</ele>
		<time>2013-05-04T03:11:17Z</time>
		</trkpt>

		<trkpt lat="38.867965" lon="-1.148760">
			<ele>2610.000000</ele>
		<time>2013-05-04T03:11:20Z</time>
		</trkpt>

		<trkpt lat="38.868129" lon="-1.148893">
			<ele>2609.000000</ele>
		<time>2013-05-04T03:11:23Z</time>
		</trkpt>

		<trkpt lat="38.868325" lon="-1.149069">
			<ele>2606.000000</ele>
		<time>2013-05-04T03:11:26Z</time>
		</trkpt>

		<trkpt lat="38.868521" lon="-1.149208">
			<ele>2604.000000</ele>
		<time>2013-05-04T03:11:29Z</time>
		</trkpt>

		<trkpt lat="38.868717" lon="-1.149372">
			<ele>2600.000000</ele>
		<time>2013-05-04T03:11:32Z</time>
		</trkpt>

		<trkpt lat="38.868870" lon="-1.149586">
			<ele>2598.000000</ele>
		<time>2013-05-04T03:11:35Z</time>
		</trkpt>

		<trkpt lat="38.868981" lon="-1.149802">
			<ele>2597.000000</ele>
		<time>2013-05-04T03:11:38Z</time>
		</trkpt>

		<trkpt lat="38.869060" lon="-1.150036">
			<ele>2598.000000</ele>
		<time>2013-05-04T03:11:41Z</time>
		</trkpt>

		<trkpt lat="38.869160" lon="-1.150222">
			<ele>2599.000000</ele>
		<time>2013-05-04T03:11:44Z</time>
		</trkpt>

		<trkpt lat="38.869308" lon="-1.150378">
			<ele>2600.000000</ele>
		<time>2013-05-04T03:11:47Z</time>
		</trkpt>

		<trkpt lat="38.869424" lon="-1.150527">
			<ele>2601.000000</ele>
		<time>2013-05-04T03:11:50Z</time>
		</trkpt>

		<trkpt lat="38.869648" lon="-1.150567">
			<ele>2602.000000</ele>
		<time>2013-05-04T03:11:53Z</time>
		</trkpt>

		<trkpt lat="38.869870" lon="-1.150606">
			<ele>2605.000000</ele>
		<time>2013-05-04T03:11:56Z</time>
		</trkpt>

		<trkpt lat="38.870100" lon="-1.150577">
			<ele>2607.000000</ele>
		<time>2013-05-04T03:11:59Z</time>
		</trkpt>

		<trkpt lat="38.870350" lon="-1.150388">
			<ele>2608.000000</ele>
		<time>2013-05-04T03:12:02Z</time>
		</trkpt>

		<trkpt lat="38.870559" lon="-1.150163">
			<ele>2610.000000</ele>
		<time>2013-05-04T03:12:05Z</time>
		</trkpt>

		<trkpt lat="38.870779" lon="-1.149967">
			<ele>2611.000000</ele>
		<time>2013-05-04T03:12:08Z</time>
		</trkpt>

		<trkpt lat="38.871022" lon="-1.149796">
			<ele>2613.000000</ele>
		<time>2013-05-04T03:12:11Z</time>
		</trkpt>

		<trkpt lat="38.871256" lon="-1.149643">
			<ele>2616.000000</ele>
		<time>2013-05-04T03:12:14Z</time>
		</trkpt>

		<trkpt lat="38.871471" lon="-1.149593">
			<ele>2620.000000</ele>
		<time>2013-05-04T03:12:17Z</time>
		</trkpt>

		<trkpt lat="38.871651" lon="-1.149620">
			<ele>2625.000000</ele>
		<time>2013-05-04T03:12:20Z</time>
		</trkpt>

		<trkpt lat="38.871879" lon="-1.149571">
			<ele>2626.000000</ele>
		<time>2013-05-04T03:12:23Z</time>
		</trkpt>

		<trkpt lat="38.872132" lon="-1.149486">
			<ele>2626.000000</ele>
		<time>2013-05-04T03:12:26Z</time>
		</trkpt>

		<trkpt lat="38.872354" lon="-1.149516">
			<ele>2625.000000</ele>
		<time>2013-05-04T03:12:29Z</time>
		</trkpt>

		<trkpt lat="38.872586" lon="-1.149693">
			<ele>2623.000000</ele>
		<time>2013-05-04T03:12:32Z</time>
		</trkpt>

		<trkpt lat="38.872810" lon="-1.149892">
			<ele>2623.000000</ele>
		<time>2013-05-04T03:12:35Z</time>
		</trkpt>

		<trkpt lat="38.873046" lon="-1.150066">
			<ele>2624.000000</ele>
		<time>2013-05-04T03:12:38Z</time>
		</trkpt>

		<trkpt lat="38.873306" lon="-1.150221">
			<ele>2624.000000</ele>
		<time>2013-05-04T03:12:41Z</time>
		</trkpt>

		<trkpt lat="38.873580" lon="-1.150332">
			<ele>2624.000000</ele>
		<time>2013-05-04T03:12:44Z</time>
		</trkpt>

		<trkpt lat="38.873848" lon="-1.150461">
			<ele>2623.000000</ele>
		<time>2013-05-04T03:12:47Z</time>
		</trkpt>

		<trkpt lat="38.874086" lon="-1.150626">
			<ele>2623.000000</ele>
		<time>2013-05-04T03:12:50Z</time>
		</trkpt>

		<trkpt lat="38.874331" lon="-1.150835">
			<ele>2623.000000</ele>
		<time>2013-05-04T03:12:53Z</time>
		</trkpt>

		<trkpt lat="38.874546" lon="-1.150997">
			<ele>2622.000000</ele>
		<time>2013-05-04T03:12:56Z</time>
		</trkpt>

		<trkpt lat="38.874800" lon="-1.151203">
			<ele>2620.000000</ele>
		<time>2013-05-04T03:12:59Z</time>
		</trkpt>

		<trkpt lat="38.875041" lon="-1.151392">
			<ele>2620.000000</ele>
		<time>2013-05-04T03:13:02Z</time>
		</trkpt>

		<trkpt lat="38.875266" lon="-1.151537">
			<ele>2617.000000</ele>
		<time>2013-05-04T03:13:05Z</time>
		</trkpt>

		<trkpt lat="38.875522" lon="-1.151715">
			<ele>2615.000000</ele>
		<time>2013-05-04T03:13:08Z</time>
		</trkpt>

		<trkpt lat="38.875771" lon="-1.151859">
			<ele>2612.000000</ele>
		<time>2013-05-04T03:13:11Z</time>
		</trkpt>

		<trkpt lat="38.876032" lon="-1.152050">
			<ele>2609.000000</ele>
		<time>2013-05-04T03:13:14Z</time>
		</trkpt>

		<trkpt lat="38.876257" lon="-1.152249">
			<ele>2604.000000</ele>
		<time>2013-05-04T03:13:17Z</time>
		</trkpt>

		<trkpt lat="38.876462" lon="-1.152483">
			<ele>2599.000000</ele>
		<time>2013-05-04T03:13:20Z</time>
		</trkpt>

		<trkpt lat="38.876636" lon="-1.152723">
			<ele>2595.000000</ele>
		<time>2013-05-04T03:13:23Z</time>
		</trkpt>

		<trkpt lat="38.876824" lon="-1.152963">
			<ele>2591.000000</ele>
		<time>2013-05-04T03:13:26Z</time>
		</trkpt>

		<trkpt lat="38.876993" lon="-1.153186">
			<ele>2588.000000</ele>
		<time>2013-05-04T03:13:29Z</time>
		</trkpt>

		<trkpt lat="38.877168" lon="-1.153442">
			<ele>2582.000000</ele>
		<time>2013-05-04T03:13:32Z</time>
		</trkpt>

		<trkpt lat="38.877302" lon="-1.153718">
			<ele>2577.000000</ele>
		<time>2013-05-04T03:13:35Z</time>
		</trkpt>

		<trkpt lat="38.877423" lon="-1.154005">
			<ele>2571.000000</ele>
		<time>2013-05-04T03:13:38Z</time>
		</trkpt>

		<trkpt lat="38.877524" lon="-1.154328">
			<ele>2563.000000</ele>
		<time>2013-05-04T03:13:41Z</time>
		</trkpt>

		<trkpt lat="38.877619" lon="-1.154657">
			<ele>2556.000000</ele>
		<time>2013-05-04T03:13:44Z</time>
		</trkpt>

		<trkpt lat="38.877744" lon="-1.154945">
			<ele>2549.000000</ele>
		<time>2013-05-04T03:13:47Z</time>
		</trkpt>

		<trkpt lat="38.877884" lon="-1.155244">
			<ele>2543.000000</ele>
		<time>2013-05-04T03:13:50Z</time>
		</trkpt>

		<trkpt lat="38.878032" lon="-1.155512">
			<ele>2537.000000</ele>
		<time>2013-05-04T03:13:53Z</time>
		</trkpt>

		<trkpt lat="38.878178" lon="-1.155818">
			<ele>2530.000000</ele>
		<time>2013-05-04T03:13:56Z</time>
		</trkpt>

		<trkpt lat="38.878318" lon="-1.156136">
			<ele>2525.000000</ele>
		<time>2013-05-04T03:13:59Z</time>
		</trkpt>

		<trkpt lat="38.878453" lon="-1.156453">
			<ele>2520.000000</ele>
		<time>2013-05-04T03:14:02Z</time>
		</trkpt>

		<trkpt lat="38.878598" lon="-1.156767">
			<ele>2514.000000</ele>
		<time>2013-05-04T03:14:05Z</time>
		</trkpt>

		<trkpt lat="38.878748" lon="-1.157102">
			<ele>2508.000000</ele>
		<time>2013-05-04T03:14:08Z</time>
		</trkpt>

		<trkpt lat="38.878891" lon="-1.157425">
			<ele>2501.000000</ele>
		<time>2013-05-04T03:14:11Z</time>
		</trkpt>

		<trkpt lat="38.879027" lon="-1.157746">
			<ele>2492.000000</ele>
		<time>2013-05-04T03:14:14Z</time>
		</trkpt>

		<trkpt lat="38.879167" lon="-1.158068">
			<ele>2485.000000</ele>
		<time>2013-05-04T03:14:17Z</time>
		</trkpt>

		<trkpt lat="38.879314" lon="-1.158361">
			<ele>2478.000000</ele>
		<time>2013-05-04T03:14:20Z</time>
		</trkpt>

		<trkpt lat="38.879468" lon="-1.158668">
			<ele>2471.000000</ele>
		<time>2013-05-04T03:14:23Z</time>
		</trkpt>

		<trkpt lat="38.879628" lon="-1.158957">
			<ele>2465.000000</ele>
		<time>2013-05-04T03:14:26Z</time>
		</trkpt>

		<trkpt lat="38.879784" lon="-1.159223">
			<ele>2461.000000</ele>
		<time>2013-05-04T03:14:29Z</time>
		</trkpt>

		<trkpt lat="38.879949" lon="-1.159491">
			<ele>2456.000000</ele>
		<time>2013-05-04T03:14:32Z</time>
		</trkpt>

		<trkpt lat="38.880109" lon="-1.159755">
			<ele>2451.000000</ele>
		<time>2013-05-04T03:14:35Z</time>
		</trkpt>

		<trkpt lat="38.880266" lon="-1.160027">
			<ele>2446.000000</ele>
		<time>2013-05-04T03:14:38Z</time>
		</trkpt>

		<trkpt lat="38.880413" lon="-1.160296">
			<ele>2442.000000</ele>
		<time>2013-05-04T03:14:41Z</time>
		</trkpt>

		<trkpt lat="38.880556" lon="-1.160525">
			<ele>2438.000000</ele>
		<time>2013-05-04T03:14:44Z</time>
		</trkpt>

		<trkpt lat="38.880734" lon="-1.160802">
			<ele>2433.000000</ele>
		<time>2013-05-04T03:14:47Z</time>
		</trkpt>

		<trkpt lat="38.880913" lon="-1.161078">
			<ele>2428.000000</ele>
		<time>2013-05-04T03:14:50Z</time>
		</trkpt>

		<trkpt lat="38.881080" lon="-1.161322">
			<ele>2421.000000</ele>
		<time>2013-05-04T03:14:53Z</time>
		</trkpt>

		<trkpt lat="38.881257" lon="-1.161591">
			<ele>2413.000000</ele>
		<time>2013-05-04T03:14:56Z</time>
		</trkpt>

		<trkpt lat="38.881413" lon="-1.161822">
			<ele>2405.000000</ele>
		<time>2013-05-04T03:14:59Z</time>
		</trkpt>

		<trkpt lat="38.881566" lon="-1.162087">
			<ele>2396.000000</ele>
		<time>2013-05-04T03:15:02Z</time>
		</trkpt>

		<trkpt lat="38.881730" lon="-1.162367">
			<ele>2389.000000</ele>
		<time>2013-05-04T03:15:05Z</time>
		</trkpt>

		<trkpt lat="38.881898" lon="-1.162601">
			<ele>2382.000000</ele>
		<time>2013-05-04T03:15:08Z</time>
		</trkpt>

		<trkpt lat="38.882070" lon="-1.162776">
			<ele>2377.000000</ele>
		<time>2013-05-04T03:15:11Z</time>
		</trkpt>

		<trkpt lat="38.882260" lon="-1.163011">
			<ele>2372.000000</ele>
		<time>2013-05-04T03:15:14Z</time>
		</trkpt>

		<trkpt lat="38.882422" lon="-1.163250">
			<ele>2373.000000</ele>
		<time>2013-05-04T03:15:17Z</time>
		</trkpt>

		<trkpt lat="38.882555" lon="-1.163442">
			<ele>2375.000000</ele>
		<time>2013-05-04T03:15:20Z</time>
		</trkpt>

		<trkpt lat="38.882719" lon="-1.163674">
			<ele>2379.000000</ele>
		<time>2013-05-04T03:15:23Z</time>
		</trkpt>

		<trkpt lat="38.882865" lon="-1.163867">
			<ele>2383.000000</ele>
		<time>2013-05-04T03:15:26Z</time>
		</trkpt>

		<trkpt lat="38.883022" lon="-1.164065">
			<ele>2386.000000</ele>
		<time>2013-05-04T03:15:29Z</time>
		</trkpt>

		<trkpt lat="38.883187" lon="-1.164283">
			<ele>2389.000000</ele>
		<time>2013-05-04T03:15:32Z</time>
		</trkpt>

		<trkpt lat="38.883360" lon="-1.164522">
			<ele>2390.000000</ele>
		<time>2013-05-04T03:15:35Z</time>
		</trkpt>

		<trkpt lat="38.883539" lon="-1.164775">
			<ele>2388.000000</ele>
		<time>2013-05-04T03:15:38Z</time>
		</trkpt>

		<trkpt lat="38.883702" lon="-1.165053">
			<ele>2384.000000</ele>
		<time>2013-05-04T03:15:41Z</time>
		</trkpt>

		<trkpt lat="38.883806" lon="-1.165318">
			<ele>2379.000000</ele>
		<time>2013-05-04T03:15:44Z</time>
		</trkpt>

		<trkpt lat="38.883941" lon="-1.165601">
			<ele>2373.000000</ele>
		<time>2013-05-04T03:15:47Z</time>
		</trkpt>

		<trkpt lat="38.884138" lon="-1.165865">
			<ele>2368.000000</ele>
		<time>2013-05-04T03:15:50Z</time>
		</trkpt>

		<trkpt lat="38.884362" lon="-1.166060">
			<ele>2363.000000</ele>
		<time>2013-05-04T03:15:53Z</time>
		</trkpt>

		<trkpt lat="38.884611" lon="-1.166209">
			<ele>2358.000000</ele>
		<time>2013-05-04T03:15:56Z</time>
		</trkpt>

		<trkpt lat="38.884836" lon="-1.166378">
			<ele>2354.000000</ele>
		<time>2013-05-04T03:15:59Z</time>
		</trkpt>

		<trkpt lat="38.885094" lon="-1.166551">
			<ele>2350.000000</ele>
		<time>2013-05-04T03:16:02Z</time>
		</trkpt>

		<trkpt lat="38.885343" lon="-1.166682">
			<ele>2347.000000</ele>
		<time>2013-05-04T03:16:05Z</time>
		</trkpt>

		<trkpt lat="38.885625" lon="-1.166807">
			<ele>2340.000000</ele>
		<time>2013-05-04T03:16:08Z</time>
		</trkpt>

		<trkpt lat="38.885890" lon="-1.166923">
			<ele>2336.000000</ele>
		<time>2013-05-04T03:16:11Z</time>
		</trkpt>

		<trkpt lat="38.886122" lon="-1.167012">
			<ele>2328.000000</ele>
		<time>2013-05-04T03:16:14Z</time>
		</trkpt>

		<trkpt lat="38.886416" lon="-1.167117">
			<ele>2320.000000</ele>
		<time>2013-05-04T03:16:17Z</time>
		</trkpt>

		<trkpt lat="38.886673" lon="-1.167156">
			<ele>2314.000000</ele>
		<time>2013-05-04T03:16:20Z</time>
		</trkpt>

		<trkpt lat="38.886969" lon="-1.167243">
			<ele>2309.000000</ele>
		<time>2013-05-04T03:16:23Z</time>
		</trkpt>

		<trkpt lat="38.887236" lon="-1.167375">
			<ele>2305.000000</ele>
		<time>2013-05-04T03:16:26Z</time>
		</trkpt>

		<trkpt lat="38.887489" lon="-1.167555">
			<ele>2297.000000</ele>
		<time>2013-05-04T03:16:29Z</time>
		</trkpt>

		<trkpt lat="38.887755" lon="-1.167777">
			<ele>2293.000000</ele>
		<time>2013-05-04T03:16:32Z</time>
		</trkpt>

		<trkpt lat="38.887993" lon="-1.167991">
			<ele>2288.000000</ele>
		<time>2013-05-04T03:16:35Z</time>
		</trkpt>

		<trkpt lat="38.888228" lon="-1.168205">
			<ele>2284.000000</ele>
		<time>2013-05-04T03:16:38Z</time>
		</trkpt>

		<trkpt lat="38.888450" lon="-1.168379">
			<ele>2281.000000</ele>
		<time>2013-05-04T03:16:41Z</time>
		</trkpt>

		<trkpt lat="38.888640" lon="-1.168610">
			<ele>2278.000000</ele>
		<time>2013-05-04T03:16:44Z</time>
		</trkpt>

		<trkpt lat="38.888800" lon="-1.168795">
			<ele>2276.000000</ele>
		<time>2013-05-04T03:16:47Z</time>
		</trkpt>

		<trkpt lat="38.888961" lon="-1.169002">
			<ele>2271.000000</ele>
		<time>2013-05-04T03:16:50Z</time>
		</trkpt>

		<trkpt lat="38.889163" lon="-1.169269">
			<ele>2269.000000</ele>
		<time>2013-05-04T03:16:53Z</time>
		</trkpt>

		<trkpt lat="38.889347" lon="-1.169463">
			<ele>2267.000000</ele>
		<time>2013-05-04T03:16:56Z</time>
		</trkpt>

		<trkpt lat="38.889485" lon="-1.169738">
			<ele>2262.000000</ele>
		<time>2013-05-04T03:16:59Z</time>
		</trkpt>

		<trkpt lat="38.889621" lon="-1.169990">
			<ele>2258.000000</ele>
		<time>2013-05-04T03:17:02Z</time>
		</trkpt>

		<trkpt lat="38.889756" lon="-1.170210">
			<ele>2253.000000</ele>
		<time>2013-05-04T03:17:05Z</time>
		</trkpt>

		<trkpt lat="38.889900" lon="-1.170433">
			<ele>2248.000000</ele>
		<time>2013-05-04T03:17:08Z</time>
		</trkpt>

		<trkpt lat="38.890038" lon="-1.170646">
			<ele>2245.000000</ele>
		<time>2013-05-04T03:17:11Z</time>
		</trkpt>

		<trkpt lat="38.890180" lon="-1.170904">
			<ele>2242.000000</ele>
		<time>2013-05-04T03:17:14Z</time>
		</trkpt>

		<trkpt lat="38.890310" lon="-1.171145">
			<ele>2242.000000</ele>
		<time>2013-05-04T03:17:17Z</time>
		</trkpt>

		<trkpt lat="38.890450" lon="-1.171418">
			<ele>2242.000000</ele>
		<time>2013-05-04T03:17:20Z</time>
		</trkpt>

		<trkpt lat="38.890587" lon="-1.171645">
			<ele>2243.000000</ele>
		<time>2013-05-04T03:17:23Z</time>
		</trkpt>

		<trkpt lat="38.890697" lon="-1.171903">
			<ele>2242.000000</ele>
		<time>2013-05-04T03:17:26Z</time>
		</trkpt>

		<trkpt lat="38.890825" lon="-1.172190">
			<ele>2242.000000</ele>
		<time>2013-05-04T03:17:29Z</time>
		</trkpt>

		<trkpt lat="38.890947" lon="-1.172451">
			<ele>2241.000000</ele>
		<time>2013-05-04T03:17:32Z</time>
		</trkpt>

		<trkpt lat="38.891071" lon="-1.172759">
			<ele>2240.000000</ele>
		<time>2013-05-04T03:17:35Z</time>
		</trkpt>

		<trkpt lat="38.891182" lon="-1.173012">
			<ele>2239.000000</ele>
		<time>2013-05-04T03:17:38Z</time>
		</trkpt>

		<trkpt lat="38.891306" lon="-1.173306">
			<ele>2236.000000</ele>
		<time>2013-05-04T03:17:41Z</time>
		</trkpt>

		<trkpt lat="38.891412" lon="-1.173601">
			<ele>2234.000000</ele>
		<time>2013-05-04T03:17:44Z</time>
		</trkpt>

		<trkpt lat="38.891490" lon="-1.173888">
			<ele>2232.000000</ele>
		<time>2013-05-04T03:17:47Z</time>
		</trkpt>

		<trkpt lat="38.891567" lon="-1.174226">
			<ele>2229.000000</ele>
		<time>2013-05-04T03:17:50Z</time>
		</trkpt>

		<trkpt lat="38.891657" lon="-1.174521">
			<ele>2229.000000</ele>
		<time>2013-05-04T03:17:53Z</time>
		</trkpt>

		<trkpt lat="38.891730" lon="-1.174839">
			<ele>2227.000000</ele>
		<time>2013-05-04T03:17:56Z</time>
		</trkpt>

		<trkpt lat="38.891822" lon="-1.175123">
			<ele>2228.000000</ele>
		<time>2013-05-04T03:17:59Z</time>
		</trkpt>

		<trkpt lat="38.891927" lon="-1.175404">
			<ele>2227.000000</ele>
		<time>2013-05-04T03:18:02Z</time>
		</trkpt>

		<trkpt lat="38.892055" lon="-1.175713">
			<ele>2227.000000</ele>
		<time>2013-05-04T03:18:05Z</time>
		</trkpt>

		<trkpt lat="38.892185" lon="-1.175994">
			<ele>2226.000000</ele>
		<time>2013-05-04T03:18:08Z</time>
		</trkpt>

		<trkpt lat="38.892321" lon="-1.176310">
			<ele>2226.000000</ele>
		<time>2013-05-04T03:18:11Z</time>
		</trkpt>

		<trkpt lat="38.892442" lon="-1.176608">
			<ele>2226.000000</ele>
		<time>2013-05-04T03:18:14Z</time>
		</trkpt>

		<trkpt lat="38.892558" lon="-1.176924">
			<ele>2224.000000</ele>
		<time>2013-05-04T03:18:17Z</time>
		</trkpt>

		<trkpt lat="38.892668" lon="-1.177219">
			<ele>2224.000000</ele>
		<time>2013-05-04T03:18:20Z</time>
		</trkpt>

		<trkpt lat="38.892773" lon="-1.177528">
			<ele>2222.000000</ele>
		<time>2013-05-04T03:18:23Z</time>
		</trkpt>

		<trkpt lat="38.892891" lon="-1.177896">
			<ele>2219.000000</ele>
		<time>2013-05-04T03:18:26Z</time>
		</trkpt>

		<trkpt lat="38.892975" lon="-1.178216">
			<ele>2217.000000</ele>
		<time>2013-05-04T03:18:29Z</time>
		</trkpt>

		<trkpt lat="38.893043" lon="-1.178543">
			<ele>2214.000000</ele>
		<time>2013-05-04T03:18:32Z</time>
		</trkpt>

		<trkpt lat="38.893123" lon="-1.178894">
			<ele>2211.000000</ele>
		<time>2013-05-04T03:18:35Z</time>
		</trkpt>

		<trkpt lat="38.893235" lon="-1.179233">
			<ele>2209.000000</ele>
		<time>2013-05-04T03:18:38Z</time>
		</trkpt>

		<trkpt lat="38.893386" lon="-1.179529">
			<ele>2209.000000</ele>
		<time>2013-05-04T03:18:41Z</time>
		</trkpt>

		<trkpt lat="38.893583" lon="-1.179839">
			<ele>2208.000000</ele>
		<time>2013-05-04T03:18:44Z</time>
		</trkpt>

		<trkpt lat="38.893774" lon="-1.180132">
			<ele>2207.000000</ele>
		<time>2013-05-04T03:18:47Z</time>
		</trkpt>

		<trkpt lat="38.893946" lon="-1.180474">
			<ele>2206.000000</ele>
		<time>2013-05-04T03:18:50Z</time>
		</trkpt>

		<trkpt lat="38.894101" lon="-1.180798">
			<ele>2206.000000</ele>
		<time>2013-05-04T03:18:53Z</time>
		</trkpt>

		<trkpt lat="38.894233" lon="-1.181124">
			<ele>2207.000000</ele>
		<time>2013-05-04T03:18:56Z</time>
		</trkpt>

		<trkpt lat="38.894393" lon="-1.181433">
			<ele>2208.000000</ele>
		<time>2013-05-04T03:18:59Z</time>
		</trkpt>

		<trkpt lat="38.894569" lon="-1.181681">
			<ele>2210.000000</ele>
		<time>2013-05-04T03:19:02Z</time>
		</trkpt>

		<trkpt lat="38.894759" lon="-1.181933">
			<ele>2211.000000</ele>
		<time>2013-05-04T03:19:05Z</time>
		</trkpt>

		<trkpt lat="38.894986" lon="-1.182119">
			<ele>2211.000000</ele>
		<time>2013-05-04T03:19:08Z</time>
		</trkpt>

		<trkpt lat="38.895221" lon="-1.182274">
			<ele>2210.000000</ele>
		<time>2013-05-04T03:19:11Z</time>
		</trkpt>

		<trkpt lat="38.895412" lon="-1.182553">
			<ele>2210.000000</ele>
		<time>2013-05-04T03:19:14Z</time>
		</trkpt>

		<trkpt lat="38.895522" lon="-1.182911">
			<ele>2213.000000</ele>
		<time>2013-05-04T03:19:17Z</time>
		</trkpt>

		<trkpt lat="38.895546" lon="-1.183209">
			<ele>2219.000000</ele>
		<time>2013-05-04T03:19:20Z</time>
		</trkpt>

		<trkpt lat="38.895513" lon="-1.183509">
			<ele>2223.000000</ele>
		<time>2013-05-04T03:19:23Z</time>
		</trkpt>

		<trkpt lat="38.895379" lon="-1.183830">
			<ele>2226.000000</ele>
		<time>2013-05-04T03:19:26Z</time>
		</trkpt>

		<trkpt lat="38.895143" lon="-1.183996">
			<ele>2229.000000</ele>
		<time>2013-05-04T03:19:29Z</time>
		</trkpt>

		<trkpt lat="38.894842" lon="-1.184069">
			<ele>2232.000000</ele>
		<time>2013-05-04T03:19:32Z</time>
		</trkpt>

		<trkpt lat="38.894544" lon="-1.183953">
			<ele>2233.000000</ele>
		<time>2013-05-04T03:19:35Z</time>
		</trkpt>

		<trkpt lat="38.894415" lon="-1.183509">
			<ele>2236.000000</ele>
		<time>2013-05-04T03:19:38Z</time>
		</trkpt>

		<trkpt lat="38.894564" lon="-1.183085">
			<ele>2238.000000</ele>
		<time>2013-05-04T03:19:41Z</time>
		</trkpt>

		<trkpt lat="38.894835" lon="-1.182965">
			<ele>2243.000000</ele>
		<time>2013-05-04T03:19:44Z</time>
		</trkpt>

		<trkpt lat="38.895143" lon="-1.182911">
			<ele>2246.000000</ele>
		<time>2013-05-04T03:19:47Z</time>
		</trkpt>

		<trkpt lat="38.895391" lon="-1.183040">
			<ele>2251.000000</ele>
		<time>2013-05-04T03:19:50Z</time>
		</trkpt>

		<trkpt lat="38.895589" lon="-1.183265">
			<ele>2254.000000</ele>
		<time>2013-05-04T03:19:53Z</time>
		</trkpt>

		<trkpt lat="38.895669" lon="-1.183617">
			<ele>2259.000000</ele>
		<time>2013-05-04T03:19:56Z</time>
		</trkpt>

		<trkpt lat="38.895643" lon="-1.183965">
			<ele>2261.000000</ele>
		<time>2013-05-04T03:19:59Z</time>
		</trkpt>

		<trkpt lat="38.895433" lon="-1.184237">
			<ele>2265.000000</ele>
		<time>2013-05-04T03:20:02Z</time>
		</trkpt>

		<trkpt lat="38.895270" lon="-1.184533">
			<ele>2269.000000</ele>
		<time>2013-05-04T03:20:05Z</time>
		</trkpt>

		<trkpt lat="38.895218" lon="-1.184935">
			<ele>2272.000000</ele>
		<time>2013-05-04T03:20:08Z</time>
		</trkpt>

		<trkpt lat="38.895321" lon="-1.185302">
			<ele>2275.000000</ele>
		<time>2013-05-04T03:20:11Z</time>
		</trkpt>

		<trkpt lat="38.895344" lon="-1.185661">
			<ele>2277.000000</ele>
		<time>2013-05-04T03:20:14Z</time>
		</trkpt>

		<trkpt lat="38.895291" lon="-1.186004">
			<ele>2277.000000</ele>
		<time>2013-05-04T03:20:17Z</time>
		</trkpt>

		<trkpt lat="38.895156" lon="-1.186357">
			<ele>2276.000000</ele>
		<time>2013-05-04T03:20:20Z</time>
		</trkpt>

		<trkpt lat="38.894900" lon="-1.186502">
			<ele>2275.000000</ele>
		<time>2013-05-04T03:20:23Z</time>
		</trkpt>

		<trkpt lat="38.894544" lon="-1.186365">
			<ele>2271.000000</ele>
		<time>2013-05-04T03:20:26Z</time>
		</trkpt>

		<trkpt lat="38.894249" lon="-1.186159">
			<ele>2269.000000</ele>
		<time>2013-05-04T03:20:29Z</time>
		</trkpt>

		<trkpt lat="38.894078" lon="-1.185831">
			<ele>2267.000000</ele>
		<time>2013-05-04T03:20:32Z</time>
		</trkpt>

		<trkpt lat="38.894024" lon="-1.185474">
			<ele>2266.000000</ele>
		<time>2013-05-04T03:20:35Z</time>
		</trkpt>

		<trkpt lat="38.894045" lon="-1.185104">
			<ele>2264.000000</ele>
		<time>2013-05-04T03:20:38Z</time>
		</trkpt>

		<trkpt lat="38.894060" lon="-1.184730">
			<ele>2263.000000</ele>
		<time>2013-05-04T03:20:41Z</time>
		</trkpt>

		<trkpt lat="38.894114" lon="-1.184359">
			<ele>2264.000000</ele>
		<time>2013-05-04T03:20:44Z</time>
		</trkpt>

		<trkpt lat="38.894075" lon="-1.184057">
			<ele>2266.000000</ele>
		<time>2013-05-04T03:20:47Z</time>
		</trkpt>

		<trkpt lat="38.893890" lon="-1.183731">
			<ele>2266.000000</ele>
		<time>2013-05-04T03:20:50Z</time>
		</trkpt>

		<trkpt lat="38.893571" lon="-1.183640">
			<ele>2266.000000</ele>
		<time>2013-05-04T03:20:53Z</time>
		</trkpt>

		<trkpt lat="38.893269" lon="-1.183954">
			<ele>2268.000000</ele>
		<time>2013-05-04T03:20:56Z</time>
		</trkpt>

		<trkpt lat="38.893144" lon="-1.184299">
			<ele>2272.000000</ele>
		<time>2013-05-04T03:20:59Z</time>
		</trkpt>

		<trkpt lat="38.893214" lon="-1.184604">
			<ele>2272.000000</ele>
		<time>2013-05-04T03:21:02Z</time>
		</trkpt>

		<trkpt lat="38.893378" lon="-1.184913">
			<ele>2272.000000</ele>
		<time>2013-05-04T03:21:05Z</time>
		</trkpt>

		<trkpt lat="38.893585" lon="-1.185132">
			<ele>2273.000000</ele>
		<time>2013-05-04T03:21:08Z</time>
		</trkpt>

		<trkpt lat="38.893778" lon="-1.185261">
			<ele>2274.000000</ele>
		<time>2013-05-04T03:21:11Z</time>
		</trkpt>

		<trkpt lat="38.894037" lon="-1.185391">
			<ele>2273.000000</ele>
		<time>2013-05-04T03:21:14Z</time>
		</trkpt>

		<trkpt lat="38.894271" lon="-1.185474">
			<ele>2274.000000</ele>
		<time>2013-05-04T03:21:17Z</time>
		</trkpt>

		<trkpt lat="38.894523" lon="-1.185448">
			<ele>2273.000000</ele>
		<time>2013-05-04T03:21:20Z</time>
		</trkpt>

		<trkpt lat="38.894797" lon="-1.185365">
			<ele>2270.000000</ele>
		<time>2013-05-04T03:21:23Z</time>
		</trkpt>

		<trkpt lat="38.895060" lon="-1.185242">
			<ele>2270.000000</ele>
		<time>2013-05-04T03:21:26Z</time>
		</trkpt>

		<trkpt lat="38.895202" lon="-1.185173">
			<ele>2271.000000</ele>
		<time>2013-05-04T03:21:29Z</time>
		</trkpt>

		<trkpt lat="38.895398" lon="-1.185157">
			<ele>2270.000000</ele>
		<time>2013-05-04T03:21:32Z</time>
		</trkpt>

		<trkpt lat="38.895662" lon="-1.185027">
			<ele>2269.000000</ele>
		<time>2013-05-04T03:21:35Z</time>
		</trkpt>

		<trkpt lat="38.895896" lon="-1.184864">
			<ele>2271.000000</ele>
		<time>2013-05-04T03:21:38Z</time>
		</trkpt>

		<trkpt lat="38.896083" lon="-1.184778">
			<ele>2273.000000</ele>
		<time>2013-05-04T03:21:41Z</time>
		</trkpt>

		<trkpt lat="38.896267" lon="-1.184653">
			<ele>2276.000000</ele>
		<time>2013-05-04T03:21:44Z</time>
		</trkpt>

		<trkpt lat="38.896484" lon="-1.184474">
			<ele>2280.000000</ele>
		<time>2013-05-04T03:21:47Z</time>
		</trkpt>

		<trkpt lat="38.896712" lon="-1.184327">
			<ele>2287.000000</ele>
		<time>2013-05-04T03:21:50Z</time>
		</trkpt>

		<trkpt lat="38.896934" lon="-1.184271">
			<ele>2296.000000</ele>
		<time>2013-05-04T03:21:53Z</time>
		</trkpt>

		<trkpt lat="38.897160" lon="-1.184308">
			<ele>2304.000000</ele>
		<time>2013-05-04T03:21:56Z</time>
		</trkpt>

		<trkpt lat="38.897406" lon="-1.184250">
			<ele>2313.000000</ele>
		<time>2013-05-04T03:21:59Z</time>
		</trkpt>

		<trkpt lat="38.897595" lon="-1.184080">
			<ele>2322.000000</ele>
		<time>2013-05-04T03:22:02Z</time>
		</trkpt>

		<trkpt lat="38.897640" lon="-1.183747">
			<ele>2331.000000</ele>
		<time>2013-05-04T03:22:05Z</time>
		</trkpt>

		<trkpt lat="38.897414" lon="-1.183433">
			<ele>2336.000000</ele>
		<time>2013-05-04T03:22:08Z</time>
		</trkpt>

		<trkpt lat="38.897098" lon="-1.183433">
			<ele>2344.000000</ele>
		<time>2013-05-04T03:22:11Z</time>
		</trkpt>

		<trkpt lat="38.896863" lon="-1.183777">
			<ele>2350.000000</ele>
		<time>2013-05-04T03:22:14Z</time>
		</trkpt>

		<trkpt lat="38.896839" lon="-1.184152">
			<ele>2357.000000</ele>
		<time>2013-05-04T03:22:17Z</time>
		</trkpt>

		<trkpt lat="38.896971" lon="-1.184464">
			<ele>2364.000000</ele>
		<time>2013-05-04T03:22:20Z</time>
		</trkpt>

		<trkpt lat="38.897133" lon="-1.184713">
			<ele>2372.000000</ele>
		<time>2013-05-04T03:22:23Z</time>
		</trkpt>

		<trkpt lat="38.897378" lon="-1.184893">
			<ele>2380.000000</ele>
		<time>2013-05-04T03:22:26Z</time>
		</trkpt>

		<trkpt lat="38.897625" lon="-1.184981">
			<ele>2389.000000</ele>
		<time>2013-05-04T03:22:29Z</time>
		</trkpt>

		<trkpt lat="38.897882" lon="-1.185053">
			<ele>2396.000000</ele>
		<time>2013-05-04T03:22:32Z</time>
		</trkpt>

		<trkpt lat="38.898162" lon="-1.184989">
			<ele>2400.000000</ele>
		<time>2013-05-04T03:22:35Z</time>
		</trkpt>

		<trkpt lat="38.898388" lon="-1.184848">
			<ele>2406.000000</ele>
		<time>2013-05-04T03:22:38Z</time>
		</trkpt>

		<trkpt lat="38.898648" lon="-1.184717">
			<ele>2408.000000</ele>
		<time>2013-05-04T03:22:41Z</time>
		</trkpt>

		<trkpt lat="38.898903" lon="-1.184577">
			<ele>2411.000000</ele>
		<time>2013-05-04T03:22:44Z</time>
		</trkpt>

		<trkpt lat="38.899170" lon="-1.184463">
			<ele>2414.000000</ele>
		<time>2013-05-04T03:22:47Z</time>
		</trkpt>

		<trkpt lat="38.899427" lon="-1.184296">
			<ele>2416.000000</ele>
		<time>2013-05-04T03:22:50Z</time>
		</trkpt>

		<trkpt lat="38.899647" lon="-1.184086">
			<ele>2420.000000</ele>
		<time>2013-05-04T03:22:53Z</time>
		</trkpt>

		<trkpt lat="38.899857" lon="-1.183844">
			<ele>2424.000000</ele>
		<time>2013-05-04T03:22:56Z</time>
		</trkpt>

		<trkpt lat="38.900011" lon="-1.183611">
			<ele>2427.000000</ele>
		<time>2013-05-04T03:22:59Z</time>
		</trkpt>

		<trkpt lat="38.900195" lon="-1.183337">
			<ele>2430.000000</ele>
		<time>2013-05-04T03:23:02Z</time>
		</trkpt>

		<trkpt lat="38.900334" lon="-1.183029">
			<ele>2435.000000</ele>
		<time>2013-05-04T03:23:05Z</time>
		</trkpt>

		<trkpt lat="38.900414" lon="-1.182698">
			<ele>2443.000000</ele>
		<time>2013-05-04T03:23:08Z</time>
		</trkpt>

		<trkpt lat="38.900506" lon="-1.182373">
			<ele>2448.000000</ele>
		<time>2013-05-04T03:23:11Z</time>
		</trkpt>

		<trkpt lat="38.900576" lon="-1.182021">
			<ele>2453.000000</ele>
		<time>2013-05-04T03:23:14Z</time>
		</trkpt>

		<trkpt lat="38.900410" lon="-1.181687">
			<ele>2458.000000</ele>
		<time>2013-05-04T03:23:17Z</time>
		</trkpt>

		<trkpt lat="38.900091" lon="-1.181556">
			<ele>2463.000000</ele>
		<time>2013-05-04T03:23:20Z</time>
		</trkpt>

		<trkpt lat="38.899851" lon="-1.181637">
			<ele>2466.000000</ele>
		<time>2013-05-04T03:23:23Z</time>
		</trkpt>

		<trkpt lat="38.899695" lon="-1.181862">
			<ele>2468.000000</ele>
		<time>2013-05-04T03:23:26Z</time>
		</trkpt>

		<trkpt lat="38.899599" lon="-1.182162">
			<ele>2470.000000</ele>
		<time>2013-05-04T03:23:29Z</time>
		</trkpt>

		<trkpt lat="38.899549" lon="-1.182491">
			<ele>2474.000000</ele>
		<time>2013-05-04T03:23:32Z</time>
		</trkpt>

		<trkpt lat="38.899507" lon="-1.182771">
			<ele>2479.000000</ele>
		<time>2013-05-04T03:23:35Z</time>
		</trkpt>

		<trkpt lat="38.899546" lon="-1.183088">
			<ele>2488.000000</ele>
		<time>2013-05-04T03:23:38Z</time>
		</trkpt>

		<trkpt lat="38.899618" lon="-1.183418">
			<ele>2498.000000</ele>
		<time>2013-05-04T03:23:41Z</time>
		</trkpt>

		<trkpt lat="38.899549" lon="-1.183721">
			<ele>2507.000000</ele>
		<time>2013-05-04T03:23:44Z</time>
		</trkpt>

		<trkpt lat="38.899271" lon="-1.183896">
			<ele>2513.000000</ele>
		<time>2013-05-04T03:23:47Z</time>
		</trkpt>

		<trkpt lat="38.898980" lon="-1.183764">
			<ele>2517.000000</ele>
		<time>2013-05-04T03:23:50Z</time>
		</trkpt>

		<trkpt lat="38.899017" lon="-1.183297">
			<ele>2522.000000</ele>
		<time>2013-05-04T03:23:53Z</time>
		</trkpt>

		<trkpt lat="38.899313" lon="-1.183081">
			<ele>2526.000000</ele>
		<time>2013-05-04T03:23:56Z</time>
		</trkpt>

		<trkpt lat="38.899679" lon="-1.183100">
			<ele>2534.000000</ele>
		<time>2013-05-04T03:23:59Z</time>
		</trkpt>

		<trkpt lat="38.899962" lon="-1.183263">
			<ele>2544.000000</ele>
		<time>2013-05-04T03:24:02Z</time>
		</trkpt>

		<trkpt lat="38.900135" lon="-1.183501">
			<ele>2553.000000</ele>
		<time>2013-05-04T03:24:05Z</time>
		</trkpt>

		<trkpt lat="38.900278" lon="-1.183828">
			<ele>2557.000000</ele>
		<time>2013-05-04T03:24:08Z</time>
		</trkpt>

		<trkpt lat="38.900273" lon="-1.184208">
			<ele>2560.000000</ele>
		<time>2013-05-04T03:24:11Z</time>
		</trkpt>

		<trkpt lat="38.900070" lon="-1.184417">
			<ele>2562.000000</ele>
		<time>2013-05-04T03:24:14Z</time>
		</trkpt>

		<trkpt lat="38.899780" lon="-1.184506">
			<ele>2563.000000</ele>
		<time>2013-05-04T03:24:17Z</time>
		</trkpt>

		<trkpt lat="38.899533" lon="-1.184342">
			<ele>2564.000000</ele>
		<time>2013-05-04T03:24:20Z</time>
		</trkpt>

		<trkpt lat="38.899439" lon="-1.183983">
			<ele>2567.000000</ele>
		<time>2013-05-04T03:24:23Z</time>
		</trkpt>

		<trkpt lat="38.899352" lon="-1.183663">
			<ele>2571.000000</ele>
		<time>2013-05-04T03:24:26Z</time>
		</trkpt>

		<trkpt lat="38.899162" lon="-1.183411">
			<ele>2575.000000</ele>
		<time>2013-05-04T03:24:29Z</time>
		</trkpt>

		<trkpt lat="38.898889" lon="-1.183564">
			<ele>2582.000000</ele>
		<time>2013-05-04T03:24:32Z</time>
		</trkpt>

		<trkpt lat="38.898813" lon="-1.183985">
			<ele>2588.000000</ele>
		<time>2013-05-04T03:24:35Z</time>
		</trkpt>

		<trkpt lat="38.898966" lon="-1.184369">
			<ele>2591.000000</ele>
		<time>2013-05-04T03:24:38Z</time>
		</trkpt>

		<trkpt lat="38.899191" lon="-1.184562">
			<ele>2592.000000</ele>
		<time>2013-05-04T03:24:41Z</time>
		</trkpt>

		<trkpt lat="38.899495" lon="-1.184388">
			<ele>2593.000000</ele>
		<time>2013-05-04T03:24:44Z</time>
		</trkpt>

		<trkpt lat="38.899667" lon="-1.184010">
			<ele>2597.000000</ele>
		<time>2013-05-04T03:24:47Z</time>
		</trkpt>

		<trkpt lat="38.899626" lon="-1.183592">
			<ele>2605.000000</ele>
		<time>2013-05-04T03:24:50Z</time>
		</trkpt>

		<trkpt lat="38.899426" lon="-1.183279">
			<ele>2610.000000</ele>
		<time>2013-05-04T03:24:53Z</time>
		</trkpt>

		<trkpt lat="38.899174" lon="-1.183203">
			<ele>2617.000000</ele>
		<time>2013-05-04T03:24:56Z</time>
		</trkpt>

		<trkpt lat="38.898976" lon="-1.183447">
			<ele>2622.000000</ele>
		<time>2013-05-04T03:24:59Z</time>
		</trkpt>

		<trkpt lat="38.898893" lon="-1.183814">
			<ele>2629.000000</ele>
		<time>2013-05-04T03:25:02Z</time>
		</trkpt>

		<trkpt lat="38.899045" lon="-1.184137">
			<ele>2636.000000</ele>
		<time>2013-05-04T03:25:05Z</time>
		</trkpt>

		<trkpt lat="38.899337" lon="-1.184309">
			<ele>2640.000000</ele>
		<time>2013-05-04T03:25:08Z</time>
		</trkpt>

		<trkpt lat="38.899657" lon="-1.184164">
			<ele>2643.000000</ele>
		<time>2013-05-04T03:25:11Z</time>
		</trkpt>

		<trkpt lat="38.899791" lon="-1.183817">
			<ele>2648.000000</ele>
		<time>2013-05-04T03:25:14Z</time>
		</trkpt>

		<trkpt lat="38.899715" lon="-1.183492">
			<ele>2651.000000</ele>
		<time>2013-05-04T03:25:17Z</time>
		</trkpt>

		<trkpt lat="38.899505" lon="-1.183259">
			<ele>2655.000000</ele>
		<time>2013-05-04T03:25:20Z</time>
		</trkpt>

		<trkpt lat="38.899247" lon="-1.183340">
			<ele>2656.000000</ele>
		<time>2013-05-04T03:25:23Z</time>
		</trkpt>

		<trkpt lat="38.899068" lon="-1.183627">
			<ele>2658.000000</ele>
		<time>2013-05-04T03:25:26Z</time>
		</trkpt>

		<trkpt lat="38.898956" lon="-1.183923">
			<ele>2662.000000</ele>
		<time>2013-05-04T03:25:29Z</time>
		</trkpt>

		<trkpt lat="38.898894" lon="-1.184241">
			<ele>2669.000000</ele>
		<time>2013-05-04T03:25:32Z</time>
		</trkpt>

		<trkpt lat="38.898869" lon="-1.184574">
			<ele>2676.000000</ele>
		<time>2013-05-04T03:25:35Z</time>
		</trkpt>

		<trkpt lat="38.898907" lon="-1.184990">
			<ele>2681.000000</ele>
		<time>2013-05-04T03:25:38Z</time>
		</trkpt>

		<trkpt lat="38.898965" lon="-1.185379">
			<ele>2686.000000</ele>
		<time>2013-05-04T03:25:41Z</time>
		</trkpt>

		<trkpt lat="38.898975" lon="-1.185756">
			<ele>2687.000000</ele>
		<time>2013-05-04T03:25:44Z</time>
		</trkpt>

		<trkpt lat="38.898992" lon="-1.186188">
			<ele>2689.000000</ele>
		<time>2013-05-04T03:25:47Z</time>
		</trkpt>

		<trkpt lat="38.899039" lon="-1.186544">
			<ele>2691.000000</ele>
		<time>2013-05-04T03:25:50Z</time>
		</trkpt>

		<trkpt lat="38.899068" lon="-1.186943">
			<ele>2691.000000</ele>
		<time>2013-05-04T03:25:53Z</time>
		</trkpt>

		<trkpt lat="38.899050" lon="-1.187375">
			<ele>2691.000000</ele>
		<time>2013-05-04T03:25:56Z</time>
		</trkpt>

		<trkpt lat="38.899025" lon="-1.187831">
			<ele>2690.000000</ele>
		<time>2013-05-04T03:25:59Z</time>
		</trkpt>

		<trkpt lat="38.899054" lon="-1.188316">
			<ele>2688.000000</ele>
		<time>2013-05-04T03:26:02Z</time>
		</trkpt>

		<trkpt lat="38.899088" lon="-1.188772">
			<ele>2687.000000</ele>
		<time>2013-05-04T03:26:05Z</time>
		</trkpt>

		<trkpt lat="38.899136" lon="-1.189220">
			<ele>2687.000000</ele>
		<time>2013-05-04T03:26:08Z</time>
		</trkpt>

		<trkpt lat="38.899171" lon="-1.189654">
			<ele>2690.000000</ele>
		<time>2013-05-04T03:26:11Z</time>
		</trkpt>

		<trkpt lat="38.899201" lon="-1.190047">
			<ele>2694.000000</ele>
		<time>2013-05-04T03:26:14Z</time>
		</trkpt>

		<trkpt lat="38.899223" lon="-1.190476">
			<ele>2698.000000</ele>
		<time>2013-05-04T03:26:17Z</time>
		</trkpt>

		<trkpt lat="38.899362" lon="-1.190846">
			<ele>2704.000000</ele>
		<time>2013-05-04T03:26:20Z</time>
		</trkpt>

		<trkpt lat="38.899483" lon="-1.191196">
			<ele>2710.000000</ele>
		<time>2013-05-04T03:26:23Z</time>
		</trkpt>

		<trkpt lat="38.899491" lon="-1.191620">
			<ele>2717.000000</ele>
		<time>2013-05-04T03:26:26Z</time>
		</trkpt>

		<trkpt lat="38.899393" lon="-1.192058">
			<ele>2723.000000</ele>
		<time>2013-05-04T03:26:29Z</time>
		</trkpt>

		<trkpt lat="38.899345" lon="-1.192490">
			<ele>2725.000000</ele>
		<time>2013-05-04T03:26:32Z</time>
		</trkpt>

		<trkpt lat="38.899370" lon="-1.192955">
			<ele>2726.000000</ele>
		<time>2013-05-04T03:26:35Z</time>
		</trkpt>

		<trkpt lat="38.899389" lon="-1.193451">
			<ele>2725.000000</ele>
		<time>2013-05-04T03:26:38Z</time>
		</trkpt>

		<trkpt lat="38.899403" lon="-1.193913">
			<ele>2721.000000</ele>
		<time>2013-05-04T03:26:41Z</time>
		</trkpt>

		<trkpt lat="38.899436" lon="-1.194407">
			<ele>2715.000000</ele>
		<time>2013-05-04T03:26:44Z</time>
		</trkpt>

		<trkpt lat="38.899495" lon="-1.194847">
			<ele>2713.000000</ele>
		<time>2013-05-04T03:26:47Z</time>
		</trkpt>

		<trkpt lat="38.899553" lon="-1.195303">
			<ele>2706.000000</ele>
		<time>2013-05-04T03:26:50Z</time>
		</trkpt>

		<trkpt lat="38.899614" lon="-1.195753">
			<ele>2700.000000</ele>
		<time>2013-05-04T03:26:53Z</time>
		</trkpt>

		<trkpt lat="38.899666" lon="-1.196158">
			<ele>2692.000000</ele>
		<time>2013-05-04T03:26:56Z</time>
		</trkpt>

		<trkpt lat="38.899737" lon="-1.196554">
			<ele>2688.000000</ele>
		<time>2013-05-04T03:26:59Z</time>
		</trkpt>

		<trkpt lat="38.899817" lon="-1.196892">
			<ele>2685.000000</ele>
		<time>2013-05-04T03:27:02Z</time>
		</trkpt>

		<trkpt lat="38.899889" lon="-1.197226">
			<ele>2686.000000</ele>
		<time>2013-05-04T03:27:05Z</time>
		</trkpt>

		<trkpt lat="38.900042" lon="-1.197519">
			<ele>2688.000000</ele>
		<time>2013-05-04T03:27:08Z</time>
		</trkpt>

		<trkpt lat="38.900243" lon="-1.197792">
			<ele>2688.000000</ele>
		<time>2013-05-04T03:27:11Z</time>
		</trkpt>

		<trkpt lat="38.900408" lon="-1.198097">
			<ele>2688.000000</ele>
		<time>2013-05-04T03:27:14Z</time>
		</trkpt>

		<trkpt lat="38.900585" lon="-1.198381">
			<ele>2687.000000</ele>
		<time>2013-05-04T03:27:17Z</time>
		</trkpt>

		<trkpt lat="38.900761" lon="-1.198702">
			<ele>2685.000000</ele>
		<time>2013-05-04T03:27:20Z</time>
		</trkpt>

		<trkpt lat="38.900916" lon="-1.198986">
			<ele>2683.000000</ele>
		<time>2013-05-04T03:27:23Z</time>
		</trkpt>

		<trkpt lat="38.901077" lon="-1.199274">
			<ele>2679.000000</ele>
		<time>2013-05-04T03:27:26Z</time>
		</trkpt>

		<trkpt lat="38.901241" lon="-1.199559">
			<ele>2675.000000</ele>
		<time>2013-05-04T03:27:29Z</time>
		</trkpt>

		<trkpt lat="38.901398" lon="-1.199854">
			<ele>2670.000000</ele>
		<time>2013-05-04T03:27:32Z</time>
		</trkpt>

		<trkpt lat="38.901526" lon="-1.200170">
			<ele>2668.000000</ele>
		<time>2013-05-04T03:27:35Z</time>
		</trkpt>

		<trkpt lat="38.901653" lon="-1.200458">
			<ele>2665.000000</ele>
		<time>2013-05-04T03:27:38Z</time>
		</trkpt>

		<trkpt lat="38.901765" lon="-1.200755">
			<ele>2661.000000</ele>
		<time>2013-05-04T03:27:41Z</time>
		</trkpt>

		<trkpt lat="38.901888" lon="-1.201068">
			<ele>2656.000000</ele>
		<time>2013-05-04T03:27:44Z</time>
		</trkpt>

		<trkpt lat="38.901994" lon="-1.201381">
			<ele>2652.000000</ele>
		<time>2013-05-04T03:27:47Z</time>
		</trkpt>

		<trkpt lat="38.902122" lon="-1.201671">
			<ele>2648.000000</ele>
		<time>2013-05-04T03:27:50Z</time>
		</trkpt>

		<trkpt lat="38.902228" lon="-1.201998">
			<ele>2643.000000</ele>
		<time>2013-05-04T03:27:53Z</time>
		</trkpt>

		<trkpt lat="38.902442" lon="-1.202237">
			<ele>2635.000000</ele>
		<time>2013-05-04T03:27:56Z</time>
		</trkpt>

		<trkpt lat="38.902702" lon="-1.202346">
			<ele>2629.000000</ele>
		<time>2013-05-04T03:27:59Z</time>
		</trkpt>

		<trkpt lat="38.903017" lon="-1.202295">
			<ele>2620.000000</ele>
		<time>2013-05-04T03:28:02Z</time>
		</trkpt>

		<trkpt lat="38.903315" lon="-1.202145">
			<ele>2612.000000</ele>
		<time>2013-05-04T03:28:05Z</time>
		</trkpt>

		<trkpt lat="38.903594" lon="-1.201916">
			<ele>2602.000000</ele>
		<time>2013-05-04T03:28:08Z</time>
		</trkpt>

		<trkpt lat="38.903889" lon="-1.201649">
			<ele>2593.000000</ele>
		<time>2013-05-04T03:28:11Z</time>
		</trkpt>

		<trkpt lat="38.904153" lon="-1.201370">
			<ele>2586.000000</ele>
		<time>2013-05-04T03:28:14Z</time>
		</trkpt>

		<trkpt lat="38.904432" lon="-1.201091">
			<ele>2578.000000</ele>
		<time>2013-05-04T03:28:17Z</time>
		</trkpt>

		<trkpt lat="38.904710" lon="-1.200793">
			<ele>2571.000000</ele>
		<time>2013-05-04T03:28:20Z</time>
		</trkpt>

		<trkpt lat="38.904995" lon="-1.200514">
			<ele>2566.000000</ele>
		<time>2013-05-04T03:28:23Z</time>
		</trkpt>

		<trkpt lat="38.905255" lon="-1.200258">
			<ele>2560.000000</ele>
		<time>2013-05-04T03:28:26Z</time>
		</trkpt>

		<trkpt lat="38.905535" lon="-1.199993">
			<ele>2553.000000</ele>
		<time>2013-05-04T03:28:29Z</time>
		</trkpt>

		<trkpt lat="38.905794" lon="-1.199708">
			<ele>2546.000000</ele>
		<time>2013-05-04T03:28:32Z</time>
		</trkpt>

		<trkpt lat="38.906061" lon="-1.199440">
			<ele>2538.000000</ele>
		<time>2013-05-04T03:28:35Z</time>
		</trkpt>

		<trkpt lat="38.906339" lon="-1.199198">
			<ele>2533.000000</ele>
		<time>2013-05-04T03:28:38Z</time>
		</trkpt>

		<trkpt lat="38.906601" lon="-1.198980">
			<ele>2527.000000</ele>
		<time>2013-05-04T03:28:41Z</time>
		</trkpt>

		<trkpt lat="38.906890" lon="-1.198779">
			<ele>2521.000000</ele>
		<time>2013-05-04T03:28:44Z</time>
		</trkpt>

		<trkpt lat="38.907156" lon="-1.198520">
			<ele>2515.000000</ele>
		<time>2013-05-04T03:28:47Z</time>
		</trkpt>

		<trkpt lat="38.907421" lon="-1.198231">
			<ele>2508.000000</ele>
		<time>2013-05-04T03:28:50Z</time>
		</trkpt>

		<trkpt lat="38.907670" lon="-1.197890">
			<ele>2502.000000</ele>
		<time>2013-05-04T03:28:53Z</time>
		</trkpt>

		<trkpt lat="38.907875" lon="-1.197529">
			<ele>2497.000000</ele>
		<time>2013-05-04T03:28:56Z</time>
		</trkpt>

		<trkpt lat="38.908101" lon="-1.197171">
			<ele>2493.000000</ele>
		<time>2013-05-04T03:28:59Z</time>
		</trkpt>

		<trkpt lat="38.908300" lon="-1.196794">
			<ele>2488.000000</ele>
		<time>2013-05-04T03:29:02Z</time>
		</trkpt>

		<trkpt lat="38.908507" lon="-1.196428">
			<ele>2484.000000</ele>
		<time>2013-05-04T03:29:05Z</time>
		</trkpt>

		<trkpt lat="38.908714" lon="-1.196067">
			<ele>2478.000000</ele>
		<time>2013-05-04T03:29:08Z</time>
		</trkpt>

		<trkpt lat="38.908937" lon="-1.195721">
			<ele>2473.000000</ele>
		<time>2013-05-04T03:29:11Z</time>
		</trkpt>

		<trkpt lat="38.909158" lon="-1.195365">
			<ele>2467.000000</ele>
		<time>2013-05-04T03:29:14Z</time>
		</trkpt>

		<trkpt lat="38.909374" lon="-1.194996">
			<ele>2462.000000</ele>
		<time>2013-05-04T03:29:17Z</time>
		</trkpt>

		<trkpt lat="38.909591" lon="-1.194628">
			<ele>2456.000000</ele>
		<time>2013-05-04T03:29:20Z</time>
		</trkpt>

		<trkpt lat="38.909817" lon="-1.194270">
			<ele>2449.000000</ele>
		<time>2013-05-04T03:29:23Z</time>
		</trkpt>

		<trkpt lat="38.910039" lon="-1.193907">
			<ele>2444.000000</ele>
		<time>2013-05-04T03:29:26Z</time>
		</trkpt>

		<trkpt lat="38.910229" lon="-1.193526">
			<ele>2437.000000</ele>
		<time>2013-05-04T03:29:29Z</time>
		</trkpt>

		<trkpt lat="38.910432" lon="-1.193121">
			<ele>2431.000000</ele>
		<time>2013-05-04T03:29:32Z</time>
		</trkpt>

		<trkpt lat="38.910623" lon="-1.192688">
			<ele>2425.000000</ele>
		<time>2013-05-04T03:29:35Z</time>
		</trkpt>

		<trkpt lat="38.910816" lon="-1.192238">
			<ele>2421.000000</ele>
		<time>2013-05-04T03:29:38Z</time>
		</trkpt>

		<trkpt lat="38.910994" lon="-1.191797">
			<ele>2418.000000</ele>
		<time>2013-05-04T03:29:41Z</time>
		</trkpt>

		<trkpt lat="38.911182" lon="-1.191368">
			<ele>2416.000000</ele>
		<time>2013-05-04T03:29:44Z</time>
		</trkpt>

		<trkpt lat="38.911341" lon="-1.190940">
			<ele>2412.000000</ele>
		<time>2013-05-04T03:29:47Z</time>
		</trkpt>

		<trkpt lat="38.911504" lon="-1.190504">
			<ele>2409.000000</ele>
		<time>2013-05-04T03:29:50Z</time>
		</trkpt>

		<trkpt lat="38.911691" lon="-1.190071">
			<ele>2405.000000</ele>
		<time>2013-05-04T03:29:53Z</time>
		</trkpt>

		<trkpt lat="38.911874" lon="-1.189641">
			<ele>2400.000000</ele>
		<time>2013-05-04T03:29:56Z</time>
		</trkpt>

		<trkpt lat="38.912069" lon="-1.189196">
			<ele>2396.000000</ele>
		<time>2013-05-04T03:29:59Z</time>
		</trkpt>

		<trkpt lat="38.912265" lon="-1.188791">
			<ele>2394.000000</ele>
		<time>2013-05-04T03:30:02Z</time>
		</trkpt>

		<trkpt lat="38.912478" lon="-1.188396">
			<ele>2390.000000</ele>
		<time>2013-05-04T03:30:05Z</time>
		</trkpt>

		<trkpt lat="38.912678" lon="-1.187998">
			<ele>2388.000000</ele>
		<time>2013-05-04T03:30:08Z</time>
		</trkpt>

		<trkpt lat="38.912870" lon="-1.187625">
			<ele>2384.000000</ele>
		<time>2013-05-04T03:30:11Z</time>
		</trkpt>

		<trkpt lat="38.913059" lon="-1.187246">
			<ele>2380.000000</ele>
		<time>2013-05-04T03:30:14Z</time>
		</trkpt>

		<trkpt lat="38.913243" lon="-1.186864">
			<ele>2376.000000</ele>
		<time>2013-05-04T03:30:17Z</time>
		</trkpt>

		<trkpt lat="38.913431" lon="-1.186485">
			<ele>2373.000000</ele>
		<time>2013-05-04T03:30:20Z</time>
		</trkpt>

		<trkpt lat="38.913612" lon="-1.186120">
			<ele>2369.000000</ele>
		<time>2013-05-04T03:30:23Z</time>
		</trkpt>

		<trkpt lat="38.913791" lon="-1.185758">
			<ele>2365.000000</ele>
		<time>2013-05-04T03:30:26Z</time>
		</trkpt>

		<trkpt lat="38.913983" lon="-1.185389">
			<ele>2362.000000</ele>
		<time>2013-05-04T03:30:29Z</time>
		</trkpt>

		<trkpt lat="38.914196" lon="-1.185021">
			<ele>2361.000000</ele>
		<time>2013-05-04T03:30:32Z</time>
		</trkpt>

		<trkpt lat="38.914319" lon="-1.184654">
			<ele>2361.000000</ele>
		<time>2013-05-04T03:30:35Z</time>
		</trkpt>

		<trkpt lat="38.914404" lon="-1.184344">
			<ele>2365.000000</ele>
		<time>2013-05-04T03:30:38Z</time>
		</trkpt>

		<trkpt lat="38.914490" lon="-1.183975">
			<ele>2367.000000</ele>
		<time>2013-05-04T03:30:41Z</time>
		</trkpt>

		<trkpt lat="38.914511" lon="-1.183584">
			<ele>2371.000000</ele>
		<time>2013-05-04T03:30:44Z</time>
		</trkpt>

		<trkpt lat="38.914577" lon="-1.183215">
			<ele>2374.000000</ele>
		<time>2013-05-04T03:30:47Z</time>
		</trkpt>

		<trkpt lat="38.914697" lon="-1.182846">
			<ele>2376.000000</ele>
		<time>2013-05-04T03:30:50Z</time>
		</trkpt>

		<trkpt lat="38.914816" lon="-1.182500">
			<ele>2377.000000</ele>
		<time>2013-05-04T03:30:53Z</time>
		</trkpt>

		<trkpt lat="38.914945" lon="-1.182154">
			<ele>2377.000000</ele>
		<time>2013-05-04T03:30:56Z</time>
		</trkpt>

		<trkpt lat="38.915095" lon="-1.181806">
			<ele>2376.000000</ele>
		<time>2013-05-04T03:30:59Z</time>
		</trkpt>

		<trkpt lat="38.915234" lon="-1.181444">
			<ele>2375.000000</ele>
		<time>2013-05-04T03:31:02Z</time>
		</trkpt>

		<trkpt lat="38.915352" lon="-1.181052">
			<ele>2374.000000</ele>
		<time>2013-05-04T03:31:05Z</time>
		</trkpt>

		<trkpt lat="38.915481" lon="-1.180645">
			<ele>2374.000000</ele>
		<time>2013-05-04T03:31:08Z</time>
		</trkpt>

		<trkpt lat="38.915581" lon="-1.180263">
			<ele>2375.000000</ele>
		<time>2013-05-04T03:31:11Z</time>
		</trkpt>

		<trkpt lat="38.915609" lon="-1.179846">
			<ele>2374.000000</ele>
		<time>2013-05-04T03:31:14Z</time>
		</trkpt>

		<trkpt lat="38.915553" lon="-1.179433">
			<ele>2374.000000</ele>
		<time>2013-05-04T03:31:17Z</time>
		</trkpt>

		<trkpt lat="38.915449" lon="-1.179035">
			<ele>2373.000000</ele>
		<time>2013-05-04T03:31:20Z</time>
		</trkpt>

		<trkpt lat="38.915395" lon="-1.178637">
			<ele>2373.000000</ele>
		<time>2013-05-04T03:31:23Z</time>
		</trkpt>

		<trkpt lat="38.915336" lon="-1.178325">
			<ele>2376.000000</ele>
		<time>2013-05-04T03:31:26Z</time>
		</trkpt>

		<trkpt lat="38.915265" lon="-1.177982">
			<ele>2376.000000</ele>
		<time>2013-05-04T03:31:29Z</time>
		</trkpt>

		<trkpt lat="38.915238" lon="-1.177543">
			<ele>2377.000000</ele>
		<time>2013-05-04T03:31:32Z</time>
		</trkpt>

		<trkpt lat="38.915254" lon="-1.177213">
			<ele>2382.000000</ele>
		<time>2013-05-04T03:31:35Z</time>
		</trkpt>

		<trkpt lat="38.915351" lon="-1.176975">
			<ele>2388.000000</ele>
		<time>2013-05-04T03:31:38Z</time>
		</trkpt>

		<trkpt lat="38.915576" lon="-1.176802">
			<ele>2394.000000</ele>
		<time>2013-05-04T03:31:41Z</time>
		</trkpt>

		<trkpt lat="38.915813" lon="-1.176867">
			<ele>2397.000000</ele>
		<time>2013-05-04T03:31:44Z</time>
		</trkpt>

		<trkpt lat="38.915963" lon="-1.177094">
			<ele>2401.000000</ele>
		<time>2013-05-04T03:31:47Z</time>
		</trkpt>

		<trkpt lat="38.915922" lon="-1.177481">
			<ele>2408.000000</ele>
		<time>2013-05-04T03:31:50Z</time>
		</trkpt>

		<trkpt lat="38.915786" lon="-1.177756">
			<ele>2413.000000</ele>
		<time>2013-05-04T03:31:53Z</time>
		</trkpt>

		<trkpt lat="38.915448" lon="-1.177856">
			<ele>2417.000000</ele>
		<time>2013-05-04T03:31:56Z</time>
		</trkpt>

		<trkpt lat="38.915047" lon="-1.177759">
			<ele>2420.000000</ele>
		<time>2013-05-04T03:31:59Z</time>
		</trkpt>

		<trkpt lat="38.914770" lon="-1.177457">
			<ele>2422.000000</ele>
		<time>2013-05-04T03:32:02Z</time>
		</trkpt>

		<trkpt lat="38.914595" lon="-1.177105">
			<ele>2425.000000</ele>
		<time>2013-05-04T03:32:05Z</time>
		</trkpt>

		<trkpt lat="38.914532" lon="-1.176749">
			<ele>2427.000000</ele>
		<time>2013-05-04T03:32:08Z</time>
		</trkpt>

		<trkpt lat="38.914584" lon="-1.176368">
			<ele>2430.000000</ele>
		<time>2013-05-04T03:32:11Z</time>
		</trkpt>

		<trkpt lat="38.914701" lon="-1.176025">
			<ele>2435.000000</ele>
		<time>2013-05-04T03:32:14Z</time>
		</trkpt>

		<trkpt lat="38.914890" lon="-1.175773">
			<ele>2446.000000</ele>
		<time>2013-05-04T03:32:17Z</time>
		</trkpt>

		<trkpt lat="38.915165" lon="-1.175778">
			<ele>2455.000000</ele>
		<time>2013-05-04T03:32:20Z</time>
		</trkpt>

		<trkpt lat="38.915314" lon="-1.175999">
			<ele>2460.000000</ele>
		<time>2013-05-04T03:32:23Z</time>
		</trkpt>

		<trkpt lat="38.915366" lon="-1.176370">
			<ele>2464.000000</ele>
		<time>2013-05-04T03:32:26Z</time>
		</trkpt>

		<trkpt lat="38.915309" lon="-1.176740">
			<ele>2469.000000</ele>
		<time>2013-05-04T03:32:29Z</time>
		</trkpt>

		<trkpt lat="38.914908" lon="-1.176698">
			<ele>2473.000000</ele>
		<time>2013-05-04T03:32:32Z</time>
		</trkpt>

		<trkpt lat="38.914589" lon="-1.176394">
			<ele>2475.000000</ele>
		<time>2013-05-04T03:32:35Z</time>
		</trkpt>

		<trkpt lat="38.914606" lon="-1.175970">
			<ele>2477.000000</ele>
		<time>2013-05-04T03:32:38Z</time>
		</trkpt>

		<trkpt lat="38.914775" lon="-1.175611">
			<ele>2483.000000</ele>
		<time>2013-05-04T03:32:41Z</time>
		</trkpt>

		<trkpt lat="38.914918" lon="-1.175272">
			<ele>2490.000000</ele>
		<time>2013-05-04T03:32:44Z</time>
		</trkpt>

		<trkpt lat="38.914983" lon="-1.174890">
			<ele>2494.000000</ele>
		<time>2013-05-04T03:32:47Z</time>
		</trkpt>

		<trkpt lat="38.915114" lon="-1.174500">
			<ele>2495.000000</ele>
		<time>2013-05-04T03:32:50Z</time>
		</trkpt>

		<trkpt lat="38.915345" lon="-1.174337">
			<ele>2496.000000</ele>
		<time>2013-05-04T03:32:53Z</time>
		</trkpt>

		<trkpt lat="38.915526" lon="-1.174334">
			<ele>2498.000000</ele>
		<time>2013-05-04T03:32:56Z</time>
		</trkpt>

		<trkpt lat="38.915750" lon="-1.174428">
			<ele>2499.000000</ele>
		<time>2013-05-04T03:32:59Z</time>
		</trkpt>

		<trkpt lat="38.915967" lon="-1.174494">
			<ele>2500.000000</ele>
		<time>2013-05-04T03:33:02Z</time>
		</trkpt>

		<trkpt lat="38.916246" lon="-1.174498">
			<ele>2502.000000</ele>
		<time>2013-05-04T03:33:05Z</time>
		</trkpt>

		<trkpt lat="38.916459" lon="-1.174391">
			<ele>2504.000000</ele>
		<time>2013-05-04T03:33:08Z</time>
		</trkpt>

		<trkpt lat="38.916640" lon="-1.174213">
			<ele>2505.000000</ele>
		<time>2013-05-04T03:33:11Z</time>
		</trkpt>

		<trkpt lat="38.916820" lon="-1.173985">
			<ele>2506.000000</ele>
		<time>2013-05-04T03:33:14Z</time>
		</trkpt>

		<trkpt lat="38.917023" lon="-1.173748">
			<ele>2507.000000</ele>
		<time>2013-05-04T03:33:17Z</time>
		</trkpt>

		<trkpt lat="38.917266" lon="-1.173535">
			<ele>2510.000000</ele>
		<time>2013-05-04T03:33:20Z</time>
		</trkpt>

		<trkpt lat="38.917499" lon="-1.173365">
			<ele>2513.000000</ele>
		<time>2013-05-04T03:33:23Z</time>
		</trkpt>

		<trkpt lat="38.917720" lon="-1.173191">
			<ele>2514.000000</ele>
		<time>2013-05-04T03:33:26Z</time>
		</trkpt>

		<trkpt lat="38.917979" lon="-1.173036">
			<ele>2516.000000</ele>
		<time>2013-05-04T03:33:29Z</time>
		</trkpt>

		<trkpt lat="38.918224" lon="-1.172859">
			<ele>2518.000000</ele>
		<time>2013-05-04T03:33:32Z</time>
		</trkpt>

		<trkpt lat="38.918438" lon="-1.172758">
			<ele>2520.000000</ele>
		<time>2013-05-04T03:33:35Z</time>
		</trkpt>

		<trkpt lat="38.918684" lon="-1.172675">
			<ele>2521.000000</ele>
		<time>2013-05-04T03:33:38Z</time>
		</trkpt>

		<trkpt lat="38.918948" lon="-1.172566">
			<ele>2522.000000</ele>
		<time>2013-05-04T03:33:41Z</time>
		</trkpt>

		<trkpt lat="38.919182" lon="-1.172377">
			<ele>2522.000000</ele>
		<time>2013-05-04T03:33:44Z</time>
		</trkpt>

		<trkpt lat="38.919401" lon="-1.172200">
			<ele>2522.000000</ele>
		<time>2013-05-04T03:33:47Z</time>
		</trkpt>

		<trkpt lat="38.919605" lon="-1.171994">
			<ele>2522.000000</ele>
		<time>2013-05-04T03:33:50Z</time>
		</trkpt>

		<trkpt lat="38.919812" lon="-1.171793">
			<ele>2521.000000</ele>
		<time>2013-05-04T03:33:53Z</time>
		</trkpt>

		<trkpt lat="38.920012" lon="-1.171592">
			<ele>2519.000000</ele>
		<time>2013-05-04T03:33:56Z</time>
		</trkpt>

		<trkpt lat="38.920193" lon="-1.171364">
			<ele>2517.000000</ele>
		<time>2013-05-04T03:33:59Z</time>
		</trkpt>

		<trkpt lat="38.920364" lon="-1.171162">
			<ele>2514.000000</ele>
		<time>2013-05-04T03:34:02Z</time>
		</trkpt>

		<trkpt lat="38.920549" lon="-1.170924">
			<ele>2511.000000</ele>
		<time>2013-05-04T03:34:05Z</time>
		</trkpt>

		<trkpt lat="38.920692" lon="-1.170686">
			<ele>2510.000000</ele>
		<time>2013-05-04T03:34:08Z</time>
		</trkpt>

		<trkpt lat="38.920790" lon="-1.170425">
			<ele>2506.000000</ele>
		<time>2013-05-04T03:34:11Z</time>
		</trkpt>

		<trkpt lat="38.920849" lon="-1.170161">
			<ele>2503.000000</ele>
		<time>2013-05-04T03:34:14Z</time>
		</trkpt>

		<trkpt lat="38.920922" lon="-1.169902">
			<ele>2498.000000</ele>
		<time>2013-05-04T03:34:17Z</time>
		</trkpt>

		<trkpt lat="38.921138" lon="-1.169633">
			<ele>2491.000000</ele>
		<time>2013-05-04T03:34:20Z</time>
		</trkpt>

		<trkpt lat="38.921373" lon="-1.169429">
			<ele>2488.000000</ele>
		<time>2013-05-04T03:34:23Z</time>
		</trkpt>

		<trkpt lat="38.921587" lon="-1.169189">
			<ele>2484.000000</ele>
		<time>2013-05-04T03:34:26Z</time>
		</trkpt>

		<trkpt lat="38.921798" lon="-1.168937">
			<ele>2478.000000</ele>
		<time>2013-05-04T03:34:29Z</time>
		</trkpt>

		<trkpt lat="38.922034" lon="-1.168703">
			<ele>2472.000000</ele>
		<time>2013-05-04T03:34:32Z</time>
		</trkpt>

		<trkpt lat="38.922261" lon="-1.168418">
			<ele>2466.000000</ele>
		<time>2013-05-04T03:34:35Z</time>
		</trkpt>

		<trkpt lat="38.922464" lon="-1.168117">
			<ele>2458.000000</ele>
		<time>2013-05-04T03:34:38Z</time>
		</trkpt>

		<trkpt lat="38.922696" lon="-1.167757">
			<ele>2452.000000</ele>
		<time>2013-05-04T03:34:41Z</time>
		</trkpt>

		<trkpt lat="38.922947" lon="-1.167487">
			<ele>2449.000000</ele>
		<time>2013-05-04T03:34:44Z</time>
		</trkpt>

		<trkpt lat="38.923216" lon="-1.167262">
			<ele>2442.000000</ele>
		<time>2013-05-04T03:34:47Z</time>
		</trkpt>

		<trkpt lat="38.923492" lon="-1.166946">
			<ele>2434.000000</ele>
		<time>2013-05-04T03:34:50Z</time>
		</trkpt>

		<trkpt lat="38.923705" lon="-1.166611">
			<ele>2423.000000</ele>
		<time>2013-05-04T03:34:53Z</time>
		</trkpt>

		<trkpt lat="38.923871" lon="-1.166246">
			<ele>2414.000000</ele>
		<time>2013-05-04T03:34:56Z</time>
		</trkpt>

		<trkpt lat="38.924039" lon="-1.165959">
			<ele>2406.000000</ele>
		<time>2013-05-04T03:34:59Z</time>
		</trkpt>

		<trkpt lat="38.924235" lon="-1.165660">
			<ele>2394.000000</ele>
		<time>2013-05-04T03:35:02Z</time>
		</trkpt>

		<trkpt lat="38.924506" lon="-1.165301">
			<ele>2382.000000</ele>
		<time>2013-05-04T03:35:05Z</time>
		</trkpt>

		<trkpt lat="38.924760" lon="-1.165021">
			<ele>2373.000000</ele>
		<time>2013-05-04T03:35:08Z</time>
		</trkpt>

		<trkpt lat="38.925057" lon="-1.164770">
			<ele>2367.000000</ele>
		<time>2013-05-04T03:35:11Z</time>
		</trkpt>

		<trkpt lat="38.925331" lon="-1.164596">
			<ele>2360.000000</ele>
		<time>2013-05-04T03:35:14Z</time>
		</trkpt>

		<trkpt lat="38.925605" lon="-1.164316">
			<ele>2350.000000</ele>
		<time>2013-05-04T03:35:17Z</time>
		</trkpt>

		<trkpt lat="38.925855" lon="-1.163941">
			<ele>2337.000000</ele>
		<time>2013-05-04T03:35:20Z</time>
		</trkpt>

		<trkpt lat="38.926097" lon="-1.163576">
			<ele>2327.000000</ele>
		<time>2013-05-04T03:35:23Z</time>
		</trkpt>

		<trkpt lat="38.926332" lon="-1.163303">
			<ele>2319.000000</ele>
		<time>2013-05-04T03:35:26Z</time>
		</trkpt>

		<trkpt lat="38.926504" lon="-1.162993">
			<ele>2309.000000</ele>
		<time>2013-05-04T03:35:29Z</time>
		</trkpt>

		<trkpt lat="38.926644" lon="-1.162625">
			<ele>2296.000000</ele>
		<time>2013-05-04T03:35:32Z</time>
		</trkpt>

		<trkpt lat="38.926673" lon="-1.162267">
			<ele>2283.000000</ele>
		<time>2013-05-04T03:35:35Z</time>
		</trkpt>

		<trkpt lat="38.926633" lon="-1.161854">
			<ele>2271.000000</ele>
		<time>2013-05-04T03:35:38Z</time>
		</trkpt>

		<trkpt lat="38.926544" lon="-1.161481">
			<ele>2264.000000</ele>
		<time>2013-05-04T03:35:41Z</time>
		</trkpt>

		<trkpt lat="38.926448" lon="-1.161137">
			<ele>2258.000000</ele>
		<time>2013-05-04T03:35:44Z</time>
		</trkpt>

		<trkpt lat="38.926347" lon="-1.160760">
			<ele>2252.000000</ele>
		<time>2013-05-04T03:35:47Z</time>
		</trkpt>

		<trkpt lat="38.926309" lon="-1.160307">
			<ele>2248.000000</ele>
		<time>2013-05-04T03:35:50Z</time>
		</trkpt>

		<trkpt lat="38.926243" lon="-1.159945">
			<ele>2250.000000</ele>
		<time>2013-05-04T03:35:53Z</time>
		</trkpt>

		<trkpt lat="38.926103" lon="-1.159662">
			<ele>2252.000000</ele>
		<time>2013-05-04T03:35:56Z</time>
		</trkpt>

		<trkpt lat="38.925941" lon="-1.159262">
			<ele>2255.000000</ele>
		<time>2013-05-04T03:35:59Z</time>
		</trkpt>

		<trkpt lat="38.925763" lon="-1.158890">
			<ele>2256.000000</ele>
		<time>2013-05-04T03:36:02Z</time>
		</trkpt>

		<trkpt lat="38.925627" lon="-1.158490">
			<ele>2255.000000</ele>
		<time>2013-05-04T03:36:05Z</time>
		</trkpt>

		<trkpt lat="38.925590" lon="-1.158072">
			<ele>2254.000000</ele>
		<time>2013-05-04T03:36:08Z</time>
		</trkpt>

		<trkpt lat="38.925583" lon="-1.157721">
			<ele>2253.000000</ele>
		<time>2013-05-04T03:36:11Z</time>
		</trkpt>

		<trkpt lat="38.925630" lon="-1.157306">
			<ele>2251.000000</ele>
		<time>2013-05-04T03:36:14Z</time>
		</trkpt>

		<trkpt lat="38.925715" lon="-1.156969">
			<ele>2252.000000</ele>
		<time>2013-05-04T03:36:17Z</time>
		</trkpt>

		<trkpt lat="38.925774" lon="-1.156659">
			<ele>2250.000000</ele>
		<time>2013-05-04T03:36:20Z</time>
		</trkpt>

		<trkpt lat="38.925810" lon="-1.156332">
			<ele>2247.000000</ele>
		<time>2013-05-04T03:36:23Z</time>
		</trkpt>

		<trkpt lat="38.925783" lon="-1.155967">
			<ele>2242.000000</ele>
		<time>2013-05-04T03:36:26Z</time>
		</trkpt>

		<trkpt lat="38.925709" lon="-1.155517">
			<ele>2237.000000</ele>
		<time>2013-05-04T03:36:29Z</time>
		</trkpt>

		<trkpt lat="38.925600" lon="-1.155059">
			<ele>2237.000000</ele>
		<time>2013-05-04T03:36:32Z</time>
		</trkpt>

		<trkpt lat="38.925453" lon="-1.154614">
			<ele>2237.000000</ele>
		<time>2013-05-04T03:36:35Z</time>
		</trkpt>

		<trkpt lat="38.925291" lon="-1.154367">
			<ele>2243.000000</ele>
		<time>2013-05-04T03:36:38Z</time>
		</trkpt>

		<trkpt lat="38.925119" lon="-1.154065">
			<ele>2247.000000</ele>
		<time>2013-05-04T03:36:41Z</time>
		</trkpt>

		<trkpt lat="38.925037" lon="-1.153691">
			<ele>2253.000000</ele>
		<time>2013-05-04T03:36:44Z</time>
		</trkpt>

		<trkpt lat="38.925047" lon="-1.153351">
			<ele>2261.000000</ele>
		<time>2013-05-04T03:36:47Z</time>
		</trkpt>

		<trkpt lat="38.925089" lon="-1.153020">
			<ele>2270.000000</ele>
		<time>2013-05-04T03:36:50Z</time>
		</trkpt>

		<trkpt lat="38.925098" lon="-1.152725">
			<ele>2282.000000</ele>
		<time>2013-05-04T03:36:53Z</time>
		</trkpt>

		<trkpt lat="38.924974" lon="-1.152375">
			<ele>2293.000000</ele>
		<time>2013-05-04T03:36:56Z</time>
		</trkpt>

		<trkpt lat="38.924663" lon="-1.152308">
			<ele>2304.000000</ele>
		<time>2013-05-04T03:36:59Z</time>
		</trkpt>

		<trkpt lat="38.924459" lon="-1.152708">
			<ele>2317.000000</ele>
		<time>2013-05-04T03:37:02Z</time>
		</trkpt>

		<trkpt lat="38.924544" lon="-1.153157">
			<ele>2331.000000</ele>
		<time>2013-05-04T03:37:05Z</time>
		</trkpt>

		<trkpt lat="38.924775" lon="-1.153385">
			<ele>2346.000000</ele>
		<time>2013-05-04T03:37:08Z</time>
		</trkpt>

		<trkpt lat="38.925004" lon="-1.153485">
			<ele>2360.000000</ele>
		<time>2013-05-04T03:37:11Z</time>
		</trkpt>

		<trkpt lat="38.925248" lon="-1.153467">
			<ele>2373.000000</ele>
		<time>2013-05-04T03:37:14Z</time>
		</trkpt>

		<trkpt lat="38.925351" lon="-1.153198">
			<ele>2385.000000</ele>
		<time>2013-05-04T03:37:17Z</time>
		</trkpt>

		<trkpt lat="38.925189" lon="-1.152817">
			<ele>2399.000000</ele>
		<time>2013-05-04T03:37:20Z</time>
		</trkpt>

		<trkpt lat="38.924815" lon="-1.152808">
			<ele>2413.000000</ele>
		<time>2013-05-04T03:37:23Z</time>
		</trkpt>

		<trkpt lat="38.924594" lon="-1.153142">
			<ele>2426.000000</ele>
		<time>2013-05-04T03:37:26Z</time>
		</trkpt>

		<trkpt lat="38.924533" lon="-1.153584">
			<ele>2437.000000</ele>
		<time>2013-05-04T03:37:29Z</time>
		</trkpt>

		<trkpt lat="38.924735" lon="-1.153890">
			<ele>2442.000000</ele>
		<time>2013-05-04T03:37:32Z</time>
		</trkpt>

		<trkpt lat="38.925050" lon="-1.153718">
			<ele>2447.000000</ele>
		<time>2013-05-04T03:37:35Z</time>
		</trkpt>

		<trkpt lat="38.925218" lon="-1.153445">
			<ele>2458.000000</ele>
		<time>2013-05-04T03:37:38Z</time>
		</trkpt>

		<trkpt lat="38.925259" lon="-1.153160">
			<ele>2468.000000</ele>
		<time>2013-05-04T03:37:41Z</time>
		</trkpt>

		<trkpt lat="38.925235" lon="-1.152763">
			<ele>2473.000000</ele>
		<time>2013-05-04T03:37:44Z</time>
		</trkpt>

		<trkpt lat="38.924979" lon="-1.152514">
			<ele>2476.000000</ele>
		<time>2013-05-04T03:37:47Z</time>
		</trkpt>

		<trkpt lat="38.924592" lon="-1.152425">
			<ele>2485.000000</ele>
		<time>2013-05-04T03:37:50Z</time>
		</trkpt>

		<trkpt lat="38.924268" lon="-1.152362">
			<ele>2494.000000</ele>
		<time>2013-05-04T03:37:53Z</time>
		</trkpt>

		<trkpt lat="38.923991" lon="-1.152176">
			<ele>2504.000000</ele>
		<time>2013-05-04T03:37:56Z</time>
		</trkpt>

		<trkpt lat="38.923774" lon="-1.151868">
			<ele>2512.000000</ele>
		<time>2013-05-04T03:37:59Z</time>
		</trkpt>

		<trkpt lat="38.923578" lon="-1.151551">
			<ele>2523.000000</ele>
		<time>2013-05-04T03:38:02Z</time>
		</trkpt>

		<trkpt lat="38.923370" lon="-1.151246">
			<ele>2535.000000</ele>
		<time>2013-05-04T03:38:05Z</time>
		</trkpt>

		<trkpt lat="38.923219" lon="-1.150933">
			<ele>2548.000000</ele>
		<time>2013-05-04T03:38:08Z</time>
		</trkpt>

		<trkpt lat="38.923107" lon="-1.150554">
			<ele>2559.000000</ele>
		<time>2013-05-04T03:38:11Z</time>
		</trkpt>

		<trkpt lat="38.923198" lon="-1.150229">
			<ele>2566.000000</ele>
		<time>2013-05-04T03:38:14Z</time>
		</trkpt>

		<trkpt lat="38.923404" lon="-1.150159">
			<ele>2574.000000</ele>
		<time>2013-05-04T03:38:17Z</time>
		</trkpt>

		<trkpt lat="38.923618" lon="-1.150221">
			<ele>2576.000000</ele>
		<time>2013-05-04T03:38:20Z</time>
		</trkpt>

		<trkpt lat="38.923789" lon="-1.150493">
			<ele>2579.000000</ele>
		<time>2013-05-04T03:38:23Z</time>
		</trkpt>

		<trkpt lat="38.923809" lon="-1.150779">
			<ele>2591.000000</ele>
		<time>2013-05-04T03:38:26Z</time>
		</trkpt>

		<trkpt lat="38.923898" lon="-1.150947">
			<ele>2601.000000</ele>
		<time>2013-05-04T03:38:29Z</time>
		</trkpt>

		<trkpt lat="38.924160" lon="-1.150899">
			<ele>2605.000000</ele>
		<time>2013-05-04T03:38:32Z</time>
		</trkpt>

		<trkpt lat="38.924193" lon="-1.150417">
			<ele>2610.000000</ele>
		<time>2013-05-04T03:38:35Z</time>
		</trkpt>

		<trkpt lat="38.924021" lon="-1.150085">
			<ele>2618.000000</ele>
		<time>2013-05-04T03:38:38Z</time>
		</trkpt>

		<trkpt lat="38.923659" lon="-1.150116">
			<ele>2629.000000</ele>
		<time>2013-05-04T03:38:41Z</time>
		</trkpt>

		<trkpt lat="38.923438" lon="-1.150369">
			<ele>2643.000000</ele>
		<time>2013-05-04T03:38:44Z</time>
		</trkpt>

		<trkpt lat="38.923369" lon="-1.150734">
			<ele>2656.000000</ele>
		<time>2013-05-04T03:38:47Z</time>
		</trkpt>

		<trkpt lat="38.923610" lon="-1.150768">
			<ele>2665.000000</ele>
		<time>2013-05-04T03:38:50Z</time>
		</trkpt>

		<trkpt lat="38.923717" lon="-1.150226">
			<ele>2674.000000</ele>
		<time>2013-05-04T03:38:53Z</time>
		</trkpt>

		<trkpt lat="38.923569" lon="-1.149775">
			<ele>2682.000000</ele>
		<time>2013-05-04T03:38:56Z</time>
		</trkpt>

		<trkpt lat="38.923372" lon="-1.149381">
			<ele>2695.000000</ele>
		<time>2013-05-04T03:38:59Z</time>
		</trkpt>

		<trkpt lat="38.923201" lon="-1.149021">
			<ele>2702.000000</ele>
		<time>2013-05-04T03:39:02Z</time>
		</trkpt>

		<trkpt lat="38.923021" lon="-1.148630">
			<ele>2709.000000</ele>
		<time>2013-05-04T03:39:05Z</time>
		</trkpt>

		<trkpt lat="38.922823" lon="-1.148279">
			<ele>2715.000000</ele>
		<time>2013-05-04T03:39:08Z</time>
		</trkpt>

		<trkpt lat="38.922612" lon="-1.147953">
			<ele>2721.000000</ele>
		<time>2013-05-04T03:39:11Z</time>
		</trkpt>

		<trkpt lat="38.922440" lon="-1.147610">
			<ele>2725.000000</ele>
		<time>2013-05-04T03:39:14Z</time>
		</trkpt>

		<trkpt lat="38.922325" lon="-1.147225">
			<ele>2726.000000</ele>
		<time>2013-05-04T03:39:17Z</time>
		</trkpt>

		<trkpt lat="38.922243" lon="-1.146842">
			<ele>2725.000000</ele>
		<time>2013-05-04T03:39:20Z</time>
		</trkpt>

		<trkpt lat="38.922157" lon="-1.146417">
			<ele>2722.000000</ele>
		<time>2013-05-04T03:39:23Z</time>
		</trkpt>

		<trkpt lat="38.922018" lon="-1.146006">
			<ele>2716.000000</ele>
		<time>2013-05-04T03:39:26Z</time>
		</trkpt>

		<trkpt lat="38.921834" lon="-1.145586">
			<ele>2712.000000</ele>
		<time>2013-05-04T03:39:29Z</time>
		</trkpt>

		<trkpt lat="38.921644" lon="-1.145161">
			<ele>2710.000000</ele>
		<time>2013-05-04T03:39:32Z</time>
		</trkpt>

		<trkpt lat="38.921529" lon="-1.144731">
			<ele>2706.000000</ele>
		<time>2013-05-04T03:39:35Z</time>
		</trkpt>

		<trkpt lat="38.921428" lon="-1.144279">
			<ele>2701.000000</ele>
		<time>2013-05-04T03:39:38Z</time>
		</trkpt>

		<trkpt lat="38.921308" lon="-1.143838">
			<ele>2696.000000</ele>
		<time>2013-05-04T03:39:41Z</time>
		</trkpt>

		<trkpt lat="38.921168" lon="-1.143401">
			<ele>2690.000000</ele>
		<time>2013-05-04T03:39:44Z</time>
		</trkpt>

		<trkpt lat="38.921067" lon="-1.142976">
			<ele>2687.000000</ele>
		<time>2013-05-04T03:39:47Z</time>
		</trkpt>

		<trkpt lat="38.920969" lon="-1.142582">
			<ele>2682.000000</ele>
		<time>2013-05-04T03:39:50Z</time>
		</trkpt>

		<trkpt lat="38.920872" lon="-1.142112">
			<ele>2678.000000</ele>
		<time>2013-05-04T03:39:53Z</time>
		</trkpt>

		<trkpt lat="38.920801" lon="-1.141709">
			<ele>2678.000000</ele>
		<time>2013-05-04T03:39:56Z</time>
		</trkpt>

		<trkpt lat="38.920725" lon="-1.141322">
			<ele>2678.000000</ele>
		<time>2013-05-04T03:39:59Z</time>
		</trkpt>

		<trkpt lat="38.920673" lon="-1.140889">
			<ele>2680.000000</ele>
		<time>2013-05-04T03:40:02Z</time>
		</trkpt>

		<trkpt lat="38.920621" lon="-1.140444">
			<ele>2684.000000</ele>
		<time>2013-05-04T03:40:05Z</time>
		</trkpt>

		<trkpt lat="38.920584" lon="-1.140051">
			<ele>2685.000000</ele>
		<time>2013-05-04T03:40:08Z</time>
		</trkpt>

		<trkpt lat="38.920556" lon="-1.139632">
			<ele>2687.000000</ele>
		<time>2013-05-04T03:40:11Z</time>
		</trkpt>

		<trkpt lat="38.920541" lon="-1.139265">
			<ele>2689.000000</ele>
		<time>2013-05-04T03:40:14Z</time>
		</trkpt>

		<trkpt lat="38.920550" lon="-1.138861">
			<ele>2689.000000</ele>
		<time>2013-05-04T03:40:17Z</time>
		</trkpt>

		<trkpt lat="38.920548" lon="-1.138508">
			<ele>2688.000000</ele>
		<time>2013-05-04T03:40:20Z</time>
		</trkpt>

		<trkpt lat="38.920549" lon="-1.138122">
			<ele>2686.000000</ele>
		<time>2013-05-04T03:40:23Z</time>
		</trkpt>

		<trkpt lat="38.920523" lon="-1.137755">
			<ele>2687.000000</ele>
		<time>2013-05-04T03:40:26Z</time>
		</trkpt>

		<trkpt lat="38.920513" lon="-1.137427">
			<ele>2685.000000</ele>
		<time>2013-05-04T03:40:29Z</time>
		</trkpt>

		<trkpt lat="38.920509" lon="-1.137054">
			<ele>2684.000000</ele>
		<time>2013-05-04T03:40:32Z</time>
		</trkpt>

		<trkpt lat="38.920496" lon="-1.136649">
			<ele>2683.000000</ele>
		<time>2013-05-04T03:40:35Z</time>
		</trkpt>

		<trkpt lat="38.920474" lon="-1.136271">
			<ele>2683.000000</ele>
		<time>2013-05-04T03:40:38Z</time>
		</trkpt>

		<trkpt lat="38.920441" lon="-1.135893">
			<ele>2683.000000</ele>
		<time>2013-05-04T03:40:41Z</time>
		</trkpt>

		<trkpt lat="38.920392" lon="-1.135525">
			<ele>2683.000000</ele>
		<time>2013-05-04T03:40:44Z</time>
		</trkpt>

		<trkpt lat="38.920376" lon="-1.135106">
			<ele>2682.000000</ele>
		<time>2013-05-04T03:40:47Z</time>
		</trkpt>

		<trkpt lat="38.920372" lon="-1.134709">
			<ele>2683.000000</ele>
		<time>2013-05-04T03:40:50Z</time>
		</trkpt>

		<trkpt lat="38.920363" lon="-1.134295">
			<ele>2680.000000</ele>
		<time>2013-05-04T03:40:53Z</time>
		</trkpt>

		<trkpt lat="38.920342" lon="-1.133872">
			<ele>2678.000000</ele>
		<time>2013-05-04T03:40:56Z</time>
		</trkpt>

		<trkpt lat="38.920286" lon="-1.133451">
			<ele>2674.000000</ele>
		<time>2013-05-04T03:40:59Z</time>
		</trkpt>

		<trkpt lat="38.920292" lon="-1.133027">
			<ele>2671.000000</ele>
		<time>2013-05-04T03:41:02Z</time>
		</trkpt>

		<trkpt lat="38.920299" lon="-1.132594">
			<ele>2668.000000</ele>
		<time>2013-05-04T03:41:05Z</time>
		</trkpt>

		<trkpt lat="38.920306" lon="-1.132167">
			<ele>2665.000000</ele>
		<time>2013-05-04T03:41:08Z</time>
		</trkpt>

		<trkpt lat="38.920330" lon="-1.131750">
			<ele>2663.000000</ele>
		<time>2013-05-04T03:41:11Z</time>
		</trkpt>

		<trkpt lat="38.920281" lon="-1.131278">
			<ele>2660.000000</ele>
		<time>2013-05-04T03:41:14Z</time>
		</trkpt>

		<trkpt lat="38.920255" lon="-1.130850">
			<ele>2657.000000</ele>
		<time>2013-05-04T03:41:17Z</time>
		</trkpt>

		<trkpt lat="38.920231" lon="-1.130392">
			<ele>2653.000000</ele>
		<time>2013-05-04T03:41:20Z</time>
		</trkpt>

		<trkpt lat="38.920203" lon="-1.129923">
			<ele>2650.000000</ele>
		<time>2013-05-04T03:41:23Z</time>
		</trkpt>

		<trkpt lat="38.920169" lon="-1.129466">
			<ele>2648.000000</ele>
		<time>2013-05-04T03:41:26Z</time>
		</trkpt>

		<trkpt lat="38.920143" lon="-1.129011">
			<ele>2647.000000</ele>
		<time>2013-05-04T03:41:29Z</time>
		</trkpt>

		<trkpt lat="38.920112" lon="-1.128554">
			<ele>2646.000000</ele>
		<time>2013-05-04T03:41:32Z</time>
		</trkpt>

		<trkpt lat="38.920075" lon="-1.128126">
			<ele>2646.000000</ele>
		<time>2013-05-04T03:41:35Z</time>
		</trkpt>

		<trkpt lat="38.920059" lon="-1.127681">
			<ele>2645.000000</ele>
		<time>2013-05-04T03:41:38Z</time>
		</trkpt>

		<trkpt lat="38.920091" lon="-1.127196">
			<ele>2644.000000</ele>
		<time>2013-05-04T03:41:41Z</time>
		</trkpt>

		<trkpt lat="38.920148" lon="-1.126750">
			<ele>2642.000000</ele>
		<time>2013-05-04T03:41:44Z</time>
		</trkpt>

		<trkpt lat="38.920231" lon="-1.126287">
			<ele>2641.000000</ele>
		<time>2013-05-04T03:41:47Z</time>
		</trkpt>

		<trkpt lat="38.920293" lon="-1.125882">
			<ele>2640.000000</ele>
		<time>2013-05-04T03:41:50Z</time>
		</trkpt>

		<trkpt lat="38.920351" lon="-1.125430">
			<ele>2639.000000</ele>
		<time>2013-05-04T03:41:53Z</time>
		</trkpt>

		<trkpt lat="38.920380" lon="-1.124992">
			<ele>2640.000000</ele>
		<time>2013-05-04T03:41:56Z</time>
		</trkpt>

		<trkpt lat="38.920414" lon="-1.124558">
			<ele>2637.000000</ele>
		<time>2013-05-04T03:41:59Z</time>
		</trkpt>

		<trkpt lat="38.920439" lon="-1.124105">
			<ele>2637.000000</ele>
		<time>2013-05-04T03:42:02Z</time>
		</trkpt>

		<trkpt lat="38.920407" lon="-1.123648">
			<ele>2636.000000</ele>
		<time>2013-05-04T03:42:05Z</time>
		</trkpt>

		<trkpt lat="38.920378" lon="-1.123182">
			<ele>2635.000000</ele>
		<time>2013-05-04T03:42:08Z</time>
		</trkpt>

		<trkpt lat="38.920336" lon="-1.122728">
			<ele>2634.000000</ele>
		<time>2013-05-04T03:42:11Z</time>
		</trkpt>

		<trkpt lat="38.920317" lon="-1.122274">
			<ele>2631.000000</ele>
		<time>2013-05-04T03:42:14Z</time>
		</trkpt>

		<trkpt lat="38.920299" lon="-1.121840">
			<ele>2628.000000</ele>
		<time>2013-05-04T03:42:17Z</time>
		</trkpt>

		<trkpt lat="38.920290" lon="-1.121400">
			<ele>2623.000000</ele>
		<time>2013-05-04T03:42:20Z</time>
		</trkpt>

		<trkpt lat="38.920304" lon="-1.120962">
			<ele>2617.000000</ele>
		<time>2013-05-04T03:42:23Z</time>
		</trkpt>

		<trkpt lat="38.920339" lon="-1.120487">
			<ele>2609.000000</ele>
		<time>2013-05-04T03:42:26Z</time>
		</trkpt>

		<trkpt lat="38.920375" lon="-1.119985">
			<ele>2603.000000</ele>
		<time>2013-05-04T03:42:29Z</time>
		</trkpt>

		<trkpt lat="38.920399" lon="-1.119534">
			<ele>2598.000000</ele>
		<time>2013-05-04T03:42:32Z</time>
		</trkpt>

		<trkpt lat="38.920439" lon="-1.119050">
			<ele>2594.000000</ele>
		<time>2013-05-04T03:42:35Z</time>
		</trkpt>

		<trkpt lat="38.920476" lon="-1.118600">
			<ele>2590.000000</ele>
		<time>2013-05-04T03:42:38Z</time>
		</trkpt>

		<trkpt lat="38.920539" lon="-1.118112">
			<ele>2586.000000</ele>
		<time>2013-05-04T03:42:41Z</time>
		</trkpt>

		<trkpt lat="38.920597" lon="-1.117638">
			<ele>2583.000000</ele>
		<time>2013-05-04T03:42:44Z</time>
		</trkpt>

		<trkpt lat="38.920645" lon="-1.117155">
			<ele>2579.000000</ele>
		<time>2013-05-04T03:42:47Z</time>
		</trkpt>

		<trkpt lat="38.920701" lon="-1.116669">
			<ele>2577.000000</ele>
		<time>2013-05-04T03:42:50Z</time>
		</trkpt>

		<trkpt lat="38.920740" lon="-1.116176">
			<ele>2576.000000</ele>
		<time>2013-05-04T03:42:53Z</time>
		</trkpt>

		<trkpt lat="38.920779" lon="-1.115688">
			<ele>2575.000000</ele>
		<time>2013-05-04T03:42:56Z</time>
		</trkpt>

		<trkpt lat="38.920811" lon="-1.115207">
			<ele>2574.000000</ele>
		<time>2013-05-04T03:42:59Z</time>
		</trkpt>

		<trkpt lat="38.920849" lon="-1.114712">
			<ele>2572.000000</ele>
		<time>2013-05-04T03:43:02Z</time>
		</trkpt>

		<trkpt lat="38.920863" lon="-1.114217">
			<ele>2571.000000</ele>
		<time>2013-05-04T03:43:05Z</time>
		</trkpt>

		<trkpt lat="38.920881" lon="-1.113712">
			<ele>2569.000000</ele>
		<time>2013-05-04T03:43:08Z</time>
		</trkpt>

		<trkpt lat="38.920878" lon="-1.113216">
			<ele>2568.000000</ele>
		<time>2013-05-04T03:43:11Z</time>
		</trkpt>

		<trkpt lat="38.920872" lon="-1.112707">
			<ele>2565.000000</ele>
		<time>2013-05-04T03:43:14Z</time>
		</trkpt>

		<trkpt lat="38.920870" lon="-1.112218">
			<ele>2562.000000</ele>
		<time>2013-05-04T03:43:17Z</time>
		</trkpt>

		<trkpt lat="38.920862" lon="-1.111735">
			<ele>2558.000000</ele>
		<time>2013-05-04T03:43:20Z</time>
		</trkpt>

		<trkpt lat="38.920875" lon="-1.111213">
			<ele>2554.000000</ele>
		<time>2013-05-04T03:43:23Z</time>
		</trkpt>

		<trkpt lat="38.920877" lon="-1.110746">
			<ele>2550.000000</ele>
		<time>2013-05-04T03:43:26Z</time>
		</trkpt>

		<trkpt lat="38.920896" lon="-1.110254">
			<ele>2544.000000</ele>
		<time>2013-05-04T03:43:29Z</time>
		</trkpt>

		<trkpt lat="38.920908" lon="-1.109728">
			<ele>2538.000000</ele>
		<time>2013-05-04T03:43:32Z</time>
		</trkpt>

		<trkpt lat="38.920895" lon="-1.109230">
			<ele>2531.000000</ele>
		<time>2013-05-04T03:43:35Z</time>
		</trkpt>

		<trkpt lat="38.920902" lon="-1.108708">
			<ele>2527.000000</ele>
		<time>2013-05-04T03:43:38Z</time>
		</trkpt>

		<trkpt lat="38.920898" lon="-1.108188">
			<ele>2523.000000</ele>
		<time>2013-05-04T03:43:41Z</time>
		</trkpt>

		<trkpt lat="38.920897" lon="-1.107670">
			<ele>2520.000000</ele>
		<time>2013-05-04T03:43:44Z</time>
		</trkpt>

		<trkpt lat="38.920891" lon="-1.107164">
			<ele>2518.000000</ele>
		<time>2013-05-04T03:43:47Z</time>
		</trkpt>

		<trkpt lat="38.920877" lon="-1.106644">
			<ele>2515.000000</ele>
		<time>2013-05-04T03:43:50Z</time>
		</trkpt>

		<trkpt lat="38.920880" lon="-1.106139">
			<ele>2513.000000</ele>
		<time>2013-05-04T03:43:53Z</time>
		</trkpt>

		<trkpt lat="38.920877" lon="-1.105646">
			<ele>2510.000000</ele>
		<time>2013-05-04T03:43:56Z</time>
		</trkpt>

		<trkpt lat="38.920868" lon="-1.105128">
			<ele>2507.000000</ele>
		<time>2013-05-04T03:43:59Z</time>
		</trkpt>

		<trkpt lat="38.920867" lon="-1.104623">
			<ele>2504.000000</ele>
		<time>2013-05-04T03:44:02Z</time>
		</trkpt>

		<trkpt lat="38.920877" lon="-1.104114">
			<ele>2499.000000</ele>
		<time>2013-05-04T03:44:05Z</time>
		</trkpt>

		<trkpt lat="38.920886" lon="-1.103591">
			<ele>2494.000000</ele>
		<time>2013-05-04T03:44:08Z</time>
		</trkpt>

		<trkpt lat="38.920892" lon="-1.103094">
			<ele>2489.000000</ele>
		<time>2013-05-04T03:44:11Z</time>
		</trkpt>

		<trkpt lat="38.920910" lon="-1.102599">
			<ele>2484.000000</ele>
		<time>2013-05-04T03:44:14Z</time>
		</trkpt>

		<trkpt lat="38.920955" lon="-1.102138">
			<ele>2482.000000</ele>
		<time>2013-05-04T03:44:17Z</time>
		</trkpt>

		<trkpt lat="38.920994" lon="-1.101686">
			<ele>2478.000000</ele>
		<time>2013-05-04T03:44:20Z</time>
		</trkpt>

		<trkpt lat="38.921005" lon="-1.101198">
			<ele>2472.000000</ele>
		<time>2013-05-04T03:44:23Z</time>
		</trkpt>

		<trkpt lat="38.921034" lon="-1.100695">
			<ele>2465.000000</ele>
		<time>2013-05-04T03:44:26Z</time>
		</trkpt>

		<trkpt lat="38.921067" lon="-1.100231">
			<ele>2460.000000</ele>
		<time>2013-05-04T03:44:29Z</time>
		</trkpt>

		<trkpt lat="38.921096" lon="-1.099768">
			<ele>2452.000000</ele>
		<time>2013-05-04T03:44:32Z</time>
		</trkpt>

		<trkpt lat="38.921129" lon="-1.099287">
			<ele>2445.000000</ele>
		<time>2013-05-04T03:44:35Z</time>
		</trkpt>

		<trkpt lat="38.921148" lon="-1.098830">
			<ele>2438.000000</ele>
		<time>2013-05-04T03:44:38Z</time>
		</trkpt>

		<trkpt lat="38.921169" lon="-1.098379">
			<ele>2430.000000</ele>
		<time>2013-05-04T03:44:41Z</time>
		</trkpt>

		<trkpt lat="38.921212" lon="-1.097927">
			<ele>2422.000000</ele>
		<time>2013-05-04T03:44:44Z</time>
		</trkpt>

		<trkpt lat="38.921236" lon="-1.097493">
			<ele>2416.000000</ele>
		<time>2013-05-04T03:44:47Z</time>
		</trkpt>

		<trkpt lat="38.921280" lon="-1.097084">
			<ele>2410.000000</ele>
		<time>2013-05-04T03:44:50Z</time>
		</trkpt>

		<trkpt lat="38.921341" lon="-1.096648">
			<ele>2405.000000</ele>
		<time>2013-05-04T03:44:53Z</time>
		</trkpt>

		<trkpt lat="38.921380" lon="-1.096247">
			<ele>2401.000000</ele>
		<time>2013-05-04T03:44:56Z</time>
		</trkpt>

		<trkpt lat="38.921419" lon="-1.095805">
			<ele>2396.000000</ele>
		<time>2013-05-04T03:44:59Z</time>
		</trkpt>

		<trkpt lat="38.921467" lon="-1.095327">
			<ele>2392.000000</ele>
		<time>2013-05-04T03:45:02Z</time>
		</trkpt>

		<trkpt lat="38.921509" lon="-1.094864">
			<ele>2390.000000</ele>
		<time>2013-05-04T03:45:05Z</time>
		</trkpt>

		<trkpt lat="38.921563" lon="-1.094441">
			<ele>2387.000000</ele>
		<time>2013-05-04T03:45:08Z</time>
		</trkpt>

		<trkpt lat="38.921652" lon="-1.094026">
			<ele>2384.000000</ele>
		<time>2013-05-04T03:45:11Z</time>
		</trkpt>

		<trkpt lat="38.921743" lon="-1.093592">
			<ele>2382.000000</ele>
		<time>2013-05-04T03:45:14Z</time>
		</trkpt>

		<trkpt lat="38.921819" lon="-1.093172">
			<ele>2380.000000</ele>
		<time>2013-05-04T03:45:17Z</time>
		</trkpt>

		<trkpt lat="38.921896" lon="-1.092729">
			<ele>2378.000000</ele>
		<time>2013-05-04T03:45:20Z</time>
		</trkpt>

		<trkpt lat="38.921958" lon="-1.092324">
			<ele>2378.000000</ele>
		<time>2013-05-04T03:45:23Z</time>
		</trkpt>

		<trkpt lat="38.922016" lon="-1.091902">
			<ele>2376.000000</ele>
		<time>2013-05-04T03:45:26Z</time>
		</trkpt>

		<trkpt lat="38.922066" lon="-1.091474">
			<ele>2375.000000</ele>
		<time>2013-05-04T03:45:29Z</time>
		</trkpt>

		<trkpt lat="38.922118" lon="-1.091037">
			<ele>2373.000000</ele>
		<time>2013-05-04T03:45:32Z</time>
		</trkpt>

		<trkpt lat="38.922162" lon="-1.090587">
			<ele>2373.000000</ele>
		<time>2013-05-04T03:45:35Z</time>
		</trkpt>

		<trkpt lat="38.922178" lon="-1.090171">
			<ele>2372.000000</ele>
		<time>2013-05-04T03:45:38Z</time>
		</trkpt>

		<trkpt lat="38.922168" lon="-1.089678">
			<ele>2368.000000</ele>
		<time>2013-05-04T03:45:41Z</time>
		</trkpt>

		<trkpt lat="38.922138" lon="-1.089187">
			<ele>2364.000000</ele>
		<time>2013-05-04T03:45:44Z</time>
		</trkpt>

		<trkpt lat="38.922101" lon="-1.088692">
			<ele>2358.000000</ele>
		<time>2013-05-04T03:45:47Z</time>
		</trkpt>

		<trkpt lat="38.922060" lon="-1.088201">
			<ele>2353.000000</ele>
		<time>2013-05-04T03:45:50Z</time>
		</trkpt>

		<trkpt lat="38.921980" lon="-1.087723">
			<ele>2348.000000</ele>
		<time>2013-05-04T03:45:53Z</time>
		</trkpt>

		<trkpt lat="38.921860" lon="-1.087217">
			<ele>2343.000000</ele>
		<time>2013-05-04T03:45:56Z</time>
		</trkpt>

		<trkpt lat="38.921720" lon="-1.086758">
			<ele>2339.000000</ele>
		<time>2013-05-04T03:45:59Z</time>
		</trkpt>

		<trkpt lat="38.921584" lon="-1.086295">
			<ele>2335.000000</ele>
		<time>2013-05-04T03:46:02Z</time>
		</trkpt>

		<trkpt lat="38.921472" lon="-1.085855">
			<ele>2331.000000</ele>
		<time>2013-05-04T03:46:05Z</time>
		</trkpt>

		<trkpt lat="38.921346" lon="-1.085382">
			<ele>2325.000000</ele>
		<time>2013-05-04T03:46:08Z</time>
		</trkpt>

		<trkpt lat="38.921218" lon="-1.084917">
			<ele>2321.000000</ele>
		<time>2013-05-04T03:46:11Z</time>
		</trkpt>

		<trkpt lat="38.921101" lon="-1.084481">
			<ele>2319.000000</ele>
		<time>2013-05-04T03:46:14Z</time>
		</trkpt>

		<trkpt lat="38.921012" lon="-1.084032">
			<ele>2317.000000</ele>
		<time>2013-05-04T03:46:17Z</time>
		</trkpt>

		<trkpt lat="38.920917" lon="-1.083613">
			<ele>2315.000000</ele>
		<time>2013-05-04T03:46:20Z</time>
		</trkpt>

		<trkpt lat="38.920830" lon="-1.083180">
			<ele>2313.000000</ele>
		<time>2013-05-04T03:46:23Z</time>
		</trkpt>

		<trkpt lat="38.920732" lon="-1.082725">
			<ele>2311.000000</ele>
		<time>2013-05-04T03:46:26Z</time>
		</trkpt>

		<trkpt lat="38.920633" lon="-1.082272">
			<ele>2309.000000</ele>
		<time>2013-05-04T03:46:29Z</time>
		</trkpt>

		<trkpt lat="38.920530" lon="-1.081875">
			<ele>2309.000000</ele>
		<time>2013-05-04T03:46:32Z</time>
		</trkpt>

		<trkpt lat="38.920426" lon="-1.081516">
			<ele>2310.000000</ele>
		<time>2013-05-04T03:46:35Z</time>
		</trkpt>

		<trkpt lat="38.920319" lon="-1.081200">
			<ele>2309.000000</ele>
		<time>2013-05-04T03:46:38Z</time>
		</trkpt>

		<trkpt lat="38.920213" lon="-1.080824">
			<ele>2307.000000</ele>
		<time>2013-05-04T03:46:41Z</time>
		</trkpt>

		<trkpt lat="38.920101" lon="-1.080504">
			<ele>2304.000000</ele>
		<time>2013-05-04T03:46:44Z</time>
		</trkpt>

		<trkpt lat="38.919998" lon="-1.080127">
			<ele>2300.000000</ele>
		<time>2013-05-04T03:46:47Z</time>
		</trkpt>

		<trkpt lat="38.919936" lon="-1.079723">
			<ele>2293.000000</ele>
		<time>2013-05-04T03:46:50Z</time>
		</trkpt>

		<trkpt lat="38.919903" lon="-1.079270">
			<ele>2285.000000</ele>
		<time>2013-05-04T03:46:53Z</time>
		</trkpt>

		<trkpt lat="38.919858" lon="-1.078829">
			<ele>2278.000000</ele>
		<time>2013-05-04T03:46:56Z</time>
		</trkpt>

		<trkpt lat="38.919797" lon="-1.078389">
			<ele>2269.000000</ele>
		<time>2013-05-04T03:46:59Z</time>
		</trkpt>

		<trkpt lat="38.919751" lon="-1.077932">
			<ele>2261.000000</ele>
		<time>2013-05-04T03:47:02Z</time>
		</trkpt>

		<trkpt lat="38.919719" lon="-1.077496">
			<ele>2253.000000</ele>
		<time>2013-05-04T03:47:05Z</time>
		</trkpt>

		<trkpt lat="38.919703" lon="-1.077071">
			<ele>2245.000000</ele>
		<time>2013-05-04T03:47:08Z</time>
		</trkpt>

		<trkpt lat="38.919693" lon="-1.076649">
			<ele>2237.000000</ele>
		<time>2013-05-04T03:47:11Z</time>
		</trkpt>

		<trkpt lat="38.919682" lon="-1.076220">
			<ele>2230.000000</ele>
		<time>2013-05-04T03:47:14Z</time>
		</trkpt>

		<trkpt lat="38.919653" lon="-1.075795">
			<ele>2220.000000</ele>
		<time>2013-05-04T03:47:17Z</time>
		</trkpt>

		<trkpt lat="38.919630" lon="-1.075338">
			<ele>2211.000000</ele>
		<time>2013-05-04T03:47:20Z</time>
		</trkpt>

		<trkpt lat="38.919632" lon="-1.074925">
			<ele>2203.000000</ele>
		<time>2013-05-04T03:47:23Z</time>
		</trkpt>

		<trkpt lat="38.919637" lon="-1.074489">
			<ele>2195.000000</ele>
		<time>2013-05-04T03:47:26Z</time>
		</trkpt>

		<trkpt lat="38.919651" lon="-1.074080">
			<ele>2189.000000</ele>
		<time>2013-05-04T03:47:29Z</time>
		</trkpt>

		<trkpt lat="38.919720" lon="-1.073693">
			<ele>2184.000000</ele>
		<time>2013-05-04T03:47:32Z</time>
		</trkpt>

		<trkpt lat="38.919795" lon="-1.073303">
			<ele>2180.000000</ele>
		<time>2013-05-04T03:47:35Z</time>
		</trkpt>

		<trkpt lat="38.919863" lon="-1.072922">
			<ele>2175.000000</ele>
		<time>2013-05-04T03:47:38Z</time>
		</trkpt>

		<trkpt lat="38.919901" lon="-1.072502">
			<ele>2170.000000</ele>
		<time>2013-05-04T03:47:41Z</time>
		</trkpt>

		<trkpt lat="38.919956" lon="-1.072087">
			<ele>2166.000000</ele>
		<time>2013-05-04T03:47:44Z</time>
		</trkpt>

		<trkpt lat="38.920007" lon="-1.071709">
			<ele>2163.000000</ele>
		<time>2013-05-04T03:47:47Z</time>
		</trkpt>

		<trkpt lat="38.920067" lon="-1.071309">
			<ele>2158.000000</ele>
		<time>2013-05-04T03:47:50Z</time>
		</trkpt>

		<trkpt lat="38.920152" lon="-1.070942">
			<ele>2155.000000</ele>
		<time>2013-05-04T03:47:53Z</time>
		</trkpt>

		<trkpt lat="38.920239" lon="-1.070568">
			<ele>2151.000000</ele>
		<time>2013-05-04T03:47:56Z</time>
		</trkpt>

		<trkpt lat="38.920338" lon="-1.070202">
			<ele>2148.000000</ele>
		<time>2013-05-04T03:47:59Z</time>
		</trkpt>

		<trkpt lat="38.920410" lon="-1.069843">
			<ele>2143.000000</ele>
		<time>2013-05-04T03:48:02Z</time>
		</trkpt>

		<trkpt lat="38.920519" lon="-1.069471">
			<ele>2137.000000</ele>
		<time>2013-05-04T03:48:05Z</time>
		</trkpt>

		<trkpt lat="38.920612" lon="-1.069097">
			<ele>2133.000000</ele>
		<time>2013-05-04T03:48:08Z</time>
		</trkpt>

		<trkpt lat="38.920680" lon="-1.068680">
			<ele>2128.000000</ele>
		<time>2013-05-04T03:48:11Z</time>
		</trkpt>

		<trkpt lat="38.920733" lon="-1.068226">
			<ele>2124.000000</ele>
		<time>2013-05-04T03:48:14Z</time>
		</trkpt>

		<trkpt lat="38.920758" lon="-1.067797">
			<ele>2120.000000</ele>
		<time>2013-05-04T03:48:17Z</time>
		</trkpt>

		<trkpt lat="38.920767" lon="-1.067327">
			<ele>2116.000000</ele>
		<time>2013-05-04T03:48:20Z</time>
		</trkpt>

		<trkpt lat="38.920725" lon="-1.066924">
			<ele>2111.000000</ele>
		<time>2013-05-04T03:48:23Z</time>
		</trkpt>

		<trkpt lat="38.920634" lon="-1.066484">
			<ele>2106.000000</ele>
		<time>2013-05-04T03:48:26Z</time>
		</trkpt>

		<trkpt lat="38.920484" lon="-1.066036">
			<ele>2104.000000</ele>
		<time>2013-05-04T03:48:29Z</time>
		</trkpt>

		<trkpt lat="38.920320" lon="-1.065651">
			<ele>2105.000000</ele>
		<time>2013-05-04T03:48:32Z</time>
		</trkpt>

		<trkpt lat="38.920115" lon="-1.065303">
			<ele>2107.000000</ele>
		<time>2013-05-04T03:48:35Z</time>
		</trkpt>

		<trkpt lat="38.919866" lon="-1.064982">
			<ele>2106.000000</ele>
		<time>2013-05-04T03:48:38Z</time>
		</trkpt>

		<trkpt lat="38.919642" lon="-1.064606">
			<ele>2105.000000</ele>
		<time>2013-05-04T03:48:41Z</time>
		</trkpt>

		<trkpt lat="38.919493" lon="-1.064232">
			<ele>2102.000000</ele>
		<time>2013-05-04T03:48:44Z</time>
		</trkpt>

		<trkpt lat="38.919331" lon="-1.063843">
			<ele>2097.000000</ele>
		<time>2013-05-04T03:48:47Z</time>
		</trkpt>

		<trkpt lat="38.919191" lon="-1.063386">
			<ele>2091.000000</ele>
		<time>2013-05-04T03:48:50Z</time>
		</trkpt>

		<trkpt lat="38.919118" lon="-1.062876">
			<ele>2087.000000</ele>
		<time>2013-05-04T03:48:53Z</time>
		</trkpt>

		<trkpt lat="38.919100" lon="-1.062409">
			<ele>2085.000000</ele>
		<time>2013-05-04T03:48:56Z</time>
		</trkpt>

		<trkpt lat="38.919091" lon="-1.061912">
			<ele>2082.000000</ele>
		<time>2013-05-04T03:48:59Z</time>
		</trkpt>

		<trkpt lat="38.919060" lon="-1.061449">
			<ele>2081.000000</ele>
		<time>2013-05-04T03:49:02Z</time>
		</trkpt>

		<trkpt lat="38.919046" lon="-1.060961">
			<ele>2080.000000</ele>
		<time>2013-05-04T03:49:05Z</time>
		</trkpt>

		<trkpt lat="38.918983" lon="-1.060493">
			<ele>2080.000000</ele>
		<time>2013-05-04T03:49:08Z</time>
		</trkpt>

		<trkpt lat="38.918962" lon="-1.060104">
			<ele>2079.000000</ele>
		<time>2013-05-04T03:49:11Z</time>
		</trkpt>

		<trkpt lat="38.918976" lon="-1.059691">
			<ele>2076.000000</ele>
		<time>2013-05-04T03:49:14Z</time>
		</trkpt>

		<trkpt lat="38.918966" lon="-1.059278">
			<ele>2074.000000</ele>
		<time>2013-05-04T03:49:17Z</time>
		</trkpt>

		<trkpt lat="38.918892" lon="-1.058829">
			<ele>2071.000000</ele>
		<time>2013-05-04T03:49:20Z</time>
		</trkpt>

		<trkpt lat="38.918833" lon="-1.058426">
			<ele>2070.000000</ele>
		<time>2013-05-04T03:49:23Z</time>
		</trkpt>

		<trkpt lat="38.918788" lon="-1.058053">
			<ele>2066.000000</ele>
		<time>2013-05-04T03:49:26Z</time>
		</trkpt>

		<trkpt lat="38.918757" lon="-1.057643">
			<ele>2062.000000</ele>
		<time>2013-05-04T03:49:29Z</time>
		</trkpt>

		<trkpt lat="38.918702" lon="-1.057257">
			<ele>2059.000000</ele>
		<time>2013-05-04T03:49:32Z</time>
		</trkpt>

		<trkpt lat="38.918639" lon="-1.056895">
			<ele>2055.000000</ele>
		<time>2013-05-04T03:49:35Z</time>
		</trkpt>

		<trkpt lat="38.918523" lon="-1.056518">
			<ele>2050.000000</ele>
		<time>2013-05-04T03:49:38Z</time>
		</trkpt>

		<trkpt lat="38.918381" lon="-1.056150">
			<ele>2044.000000</ele>
		<time>2013-05-04T03:49:41Z</time>
		</trkpt>

		<trkpt lat="38.918168" lon="-1.055756">
			<ele>2038.000000</ele>
		<time>2013-05-04T03:49:44Z</time>
		</trkpt>

		<trkpt lat="38.917924" lon="-1.055393">
			<ele>2031.000000</ele>
		<time>2013-05-04T03:49:47Z</time>
		</trkpt>

		<trkpt lat="38.917704" lon="-1.055028">
			<ele>2021.000000</ele>
		<time>2013-05-04T03:49:50Z</time>
		</trkpt>

		<trkpt lat="38.917503" lon="-1.054599">
			<ele>2012.000000</ele>
		<time>2013-05-04T03:49:53Z</time>
		</trkpt>

		<trkpt lat="38.917319" lon="-1.054245">
			<ele>2004.000000</ele>
		<time>2013-05-04T03:49:56Z</time>
		</trkpt>

		<trkpt lat="38.917090" lon="-1.053845">
			<ele>1994.000000</ele>
		<time>2013-05-04T03:49:59Z</time>
		</trkpt>

		<trkpt lat="38.916841" lon="-1.053462">
			<ele>1987.000000</ele>
		<time>2013-05-04T03:50:02Z</time>
		</trkpt>

		<trkpt lat="38.916625" lon="-1.053061">
			<ele>1979.000000</ele>
		<time>2013-05-04T03:50:05Z</time>
		</trkpt>

		<trkpt lat="38.916402" lon="-1.052585">
			<ele>1972.000000</ele>
		<time>2013-05-04T03:50:08Z</time>
		</trkpt>

		<trkpt lat="38.916219" lon="-1.052144">
			<ele>1966.000000</ele>
		<time>2013-05-04T03:50:11Z</time>
		</trkpt>

		<trkpt lat="38.916023" lon="-1.051710">
			<ele>1963.000000</ele>
		<time>2013-05-04T03:50:14Z</time>
		</trkpt>

		<trkpt lat="38.915819" lon="-1.051264">
			<ele>1959.000000</ele>
		<time>2013-05-04T03:50:17Z</time>
		</trkpt>

		<trkpt lat="38.915639" lon="-1.050829">
			<ele>1957.000000</ele>
		<time>2013-05-04T03:50:20Z</time>
		</trkpt>

		<trkpt lat="38.915459" lon="-1.050432">
			<ele>1955.000000</ele>
		<time>2013-05-04T03:50:23Z</time>
		</trkpt>

		<trkpt lat="38.915212" lon="-1.050010">
			<ele>1953.000000</ele>
		<time>2013-05-04T03:50:26Z</time>
		</trkpt>

		<trkpt lat="38.914992" lon="-1.049620">
			<ele>1953.000000</ele>
		<time>2013-05-04T03:50:29Z</time>
		</trkpt>

		<trkpt lat="38.914754" lon="-1.049224">
			<ele>1950.000000</ele>
		<time>2013-05-04T03:50:32Z</time>
		</trkpt>

		<trkpt lat="38.914537" lon="-1.048819">
			<ele>1949.000000</ele>
		<time>2013-05-04T03:50:35Z</time>
		</trkpt>

		<trkpt lat="38.914359" lon="-1.048403">
			<ele>1946.000000</ele>
		<time>2013-05-04T03:50:38Z</time>
		</trkpt>

		<trkpt lat="38.914199" lon="-1.047942">
			<ele>1944.000000</ele>
		<time>2013-05-04T03:50:41Z</time>
		</trkpt>

		<trkpt lat="38.914052" lon="-1.047467">
			<ele>1942.000000</ele>
		<time>2013-05-04T03:50:44Z</time>
		</trkpt>

		<trkpt lat="38.913896" lon="-1.046999">
			<ele>1940.000000</ele>
		<time>2013-05-04T03:50:47Z</time>
		</trkpt>

		<trkpt lat="38.913734" lon="-1.046540">
			<ele>1938.000000</ele>
		<time>2013-05-04T03:50:50Z</time>
		</trkpt>

		<trkpt lat="38.913554" lon="-1.046069">
			<ele>1935.000000</ele>
		<time>2013-05-04T03:50:53Z</time>
		</trkpt>

		<trkpt lat="38.913386" lon="-1.045588">
			<ele>1933.000000</ele>
		<time>2013-05-04T03:50:56Z</time>
		</trkpt>

		<trkpt lat="38.913213" lon="-1.045111">
			<ele>1930.000000</ele>
		<time>2013-05-04T03:50:59Z</time>
		</trkpt>

		<trkpt lat="38.913014" lon="-1.044631">
			<ele>1926.000000</ele>
		<time>2013-05-04T03:51:02Z</time>
		</trkpt>

		<trkpt lat="38.912785" lon="-1.044175">
			<ele>1923.000000</ele>
		<time>2013-05-04T03:51:05Z</time>
		</trkpt>

		<trkpt lat="38.912548" lon="-1.043748">
			<ele>1920.000000</ele>
		<time>2013-05-04T03:51:08Z</time>
		</trkpt>

		<trkpt lat="38.912313" lon="-1.043318">
			<ele>1916.000000</ele>
		<time>2013-05-04T03:51:11Z</time>
		</trkpt>

		<trkpt lat="38.912065" lon="-1.042881">
			<ele>1914.000000</ele>
		<time>2013-05-04T03:51:14Z</time>
		</trkpt>

		<trkpt lat="38.911826" lon="-1.042471">
			<ele>1910.000000</ele>
		<time>2013-05-04T03:51:17Z</time>
		</trkpt>

		<trkpt lat="38.911580" lon="-1.042093">
			<ele>1906.000000</ele>
		<time>2013-05-04T03:51:20Z</time>
		</trkpt>

		<trkpt lat="38.911330" lon="-1.041701">
			<ele>1899.000000</ele>
		<time>2013-05-04T03:51:23Z</time>
		</trkpt>

		<trkpt lat="38.911068" lon="-1.041282">
			<ele>1893.000000</ele>
		<time>2013-05-04T03:51:26Z</time>
		</trkpt>

		<trkpt lat="38.910819" lon="-1.040867">
			<ele>1888.000000</ele>
		<time>2013-05-04T03:51:29Z</time>
		</trkpt>

		<trkpt lat="38.910572" lon="-1.040434">
			<ele>1884.000000</ele>
		<time>2013-05-04T03:51:32Z</time>
		</trkpt>

		<trkpt lat="38.910362" lon="-1.039997">
			<ele>1880.000000</ele>
		<time>2013-05-04T03:51:35Z</time>
		</trkpt>

		<trkpt lat="38.910122" lon="-1.039525">
			<ele>1876.000000</ele>
		<time>2013-05-04T03:51:38Z</time>
		</trkpt>

		<trkpt lat="38.909906" lon="-1.039111">
			<ele>1872.000000</ele>
		<time>2013-05-04T03:51:41Z</time>
		</trkpt>

		<trkpt lat="38.909677" lon="-1.038668">
			<ele>1866.000000</ele>
		<time>2013-05-04T03:51:44Z</time>
		</trkpt>

		<trkpt lat="38.909426" lon="-1.038253">
			<ele>1861.000000</ele>
		<time>2013-05-04T03:51:47Z</time>
		</trkpt>

		<trkpt lat="38.909162" lon="-1.037852">
			<ele>1857.000000</ele>
		<time>2013-05-04T03:51:50Z</time>
		</trkpt>

		<trkpt lat="38.908906" lon="-1.037454">
			<ele>1853.000000</ele>
		<time>2013-05-04T03:51:53Z</time>
		</trkpt>

		<trkpt lat="38.908655" lon="-1.037080">
			<ele>1851.000000</ele>
		<time>2013-05-04T03:51:56Z</time>
		</trkpt>

		<trkpt lat="38.908409" lon="-1.036677">
			<ele>1847.000000</ele>
		<time>2013-05-04T03:51:59Z</time>
		</trkpt>

		<trkpt lat="38.908173" lon="-1.036297">
			<ele>1845.000000</ele>
		<time>2013-05-04T03:52:02Z</time>
		</trkpt>

		<trkpt lat="38.907955" lon="-1.035896">
			<ele>1842.000000</ele>
		<time>2013-05-04T03:52:05Z</time>
		</trkpt>

		<trkpt lat="38.907725" lon="-1.035470">
			<ele>1840.000000</ele>
		<time>2013-05-04T03:52:08Z</time>
		</trkpt>

		<trkpt lat="38.907508" lon="-1.035059">
			<ele>1838.000000</ele>
		<time>2013-05-04T03:52:11Z</time>
		</trkpt>

		<trkpt lat="38.907289" lon="-1.034628">
			<ele>1836.000000</ele>
		<time>2013-05-04T03:52:14Z</time>
		</trkpt>

		<trkpt lat="38.907065" lon="-1.034201">
			<ele>1833.000000</ele>
		<time>2013-05-04T03:52:17Z</time>
		</trkpt>

		<trkpt lat="38.906831" lon="-1.033757">
			<ele>1831.000000</ele>
		<time>2013-05-04T03:52:20Z</time>
		</trkpt>

		<trkpt lat="38.906600" lon="-1.033316">
			<ele>1829.000000</ele>
		<time>2013-05-04T03:52:23Z</time>
		</trkpt>

		<trkpt lat="38.906361" lon="-1.032893">
			<ele>1828.000000</ele>
		<time>2013-05-04T03:52:26Z</time>
		</trkpt>

		<trkpt lat="38.906124" lon="-1.032487">
			<ele>1826.000000</ele>
		<time>2013-05-04T03:52:29Z</time>
		</trkpt>

		<trkpt lat="38.905869" lon="-1.032038">
			<ele>1823.000000</ele>
		<time>2013-05-04T03:52:32Z</time>
		</trkpt>

		<trkpt lat="38.905624" lon="-1.031605">
			<ele>1820.000000</ele>
		<time>2013-05-04T03:52:35Z</time>
		</trkpt>

		<trkpt lat="38.905392" lon="-1.031167">
			<ele>1814.000000</ele>
		<time>2013-05-04T03:52:38Z</time>
		</trkpt>

		<trkpt lat="38.905174" lon="-1.030724">
			<ele>1811.000000</ele>
		<time>2013-05-04T03:52:41Z</time>
		</trkpt>

		<trkpt lat="38.904981" lon="-1.030304">
			<ele>1807.000000</ele>
		<time>2013-05-04T03:52:44Z</time>
		</trkpt>

		<trkpt lat="38.904781" lon="-1.029857">
			<ele>1804.000000</ele>
		<time>2013-05-04T03:52:47Z</time>
		</trkpt>

		<trkpt lat="38.904601" lon="-1.029441">
			<ele>1803.000000</ele>
		<time>2013-05-04T03:52:50Z</time>
		</trkpt>

		<trkpt lat="38.904426" lon="-1.029020">
			<ele>1800.000000</ele>
		<time>2013-05-04T03:52:53Z</time>
		</trkpt>

		<trkpt lat="38.904238" lon="-1.028629">
			<ele>1798.000000</ele>
		<time>2013-05-04T03:52:56Z</time>
		</trkpt>

		<trkpt lat="38.904038" lon="-1.028254">
			<ele>1795.000000</ele>
		<time>2013-05-04T03:52:59Z</time>
		</trkpt>

		<trkpt lat="38.903821" lon="-1.027884">
			<ele>1793.000000</ele>
		<time>2013-05-04T03:53:02Z</time>
		</trkpt>

		<trkpt lat="38.903584" lon="-1.027547">
			<ele>1790.000000</ele>
		<time>2013-05-04T03:53:05Z</time>
		</trkpt>

		<trkpt lat="38.903345" lon="-1.027216">
			<ele>1786.000000</ele>
		<time>2013-05-04T03:53:08Z</time>
		</trkpt>

		<trkpt lat="38.903124" lon="-1.026875">
			<ele>1783.000000</ele>
		<time>2013-05-04T03:53:11Z</time>
		</trkpt>

		<trkpt lat="38.902915" lon="-1.026530">
			<ele>1778.000000</ele>
		<time>2013-05-04T03:53:14Z</time>
		</trkpt>

		<trkpt lat="38.902696" lon="-1.026152">
			<ele>1773.000000</ele>
		<time>2013-05-04T03:53:17Z</time>
		</trkpt>

		<trkpt lat="38.902479" lon="-1.025791">
			<ele>1770.000000</ele>
		<time>2013-05-04T03:53:20Z</time>
		</trkpt>

		<trkpt lat="38.902255" lon="-1.025447">
			<ele>1767.000000</ele>
		<time>2013-05-04T03:53:23Z</time>
		</trkpt>

		<trkpt lat="38.902036" lon="-1.025085">
			<ele>1765.000000</ele>
		<time>2013-05-04T03:53:26Z</time>
		</trkpt>

		<trkpt lat="38.901823" lon="-1.024747">
			<ele>1762.000000</ele>
		<time>2013-05-04T03:53:29Z</time>
		</trkpt>

		<trkpt lat="38.901584" lon="-1.024369">
			<ele>1758.000000</ele>
		<time>2013-05-04T03:53:32Z</time>
		</trkpt>

		<trkpt lat="38.901376" lon="-1.023999">
			<ele>1755.000000</ele>
		<time>2013-05-04T03:53:35Z</time>
		</trkpt>

		<trkpt lat="38.901164" lon="-1.023623">
			<ele>1751.000000</ele>
		<time>2013-05-04T03:53:38Z</time>
		</trkpt>

		<trkpt lat="38.900970" lon="-1.023247">
			<ele>1749.000000</ele>
		<time>2013-05-04T03:53:41Z</time>
		</trkpt>

		<trkpt lat="38.900781" lon="-1.022867">
			<ele>1746.000000</ele>
		<time>2013-05-04T03:53:44Z</time>
		</trkpt>

		<trkpt lat="38.900586" lon="-1.022488">
			<ele>1744.000000</ele>
		<time>2013-05-04T03:53:47Z</time>
		</trkpt>

		<trkpt lat="38.900401" lon="-1.022120">
			<ele>1743.000000</ele>
		<time>2013-05-04T03:53:50Z</time>
		</trkpt>

		<trkpt lat="38.900207" lon="-1.021742">
			<ele>1741.000000</ele>
		<time>2013-05-04T03:53:53Z</time>
		</trkpt>

		<trkpt lat="38.900014" lon="-1.021378">
			<ele>1739.000000</ele>
		<time>2013-05-04T03:53:56Z</time>
		</trkpt>

		<trkpt lat="38.899812" lon="-1.020999">
			<ele>1736.000000</ele>
		<time>2013-05-04T03:53:59Z</time>
		</trkpt>

		<trkpt lat="38.899639" lon="-1.020638">
			<ele>1734.000000</ele>
		<time>2013-05-04T03:54:02Z</time>
		</trkpt>

		<trkpt lat="38.899487" lon="-1.020270">
			<ele>1731.000000</ele>
		<time>2013-05-04T03:54:05Z</time>
		</trkpt>

		<trkpt lat="38.899351" lon="-1.019825">
			<ele>1728.000000</ele>
		<time>2013-05-04T03:54:08Z</time>
		</trkpt>

		<trkpt lat="38.899225" lon="-1.019461">
			<ele>1728.000000</ele>
		<time>2013-05-04T03:54:11Z</time>
		</trkpt>

		<trkpt lat="38.899105" lon="-1.019193">
			<ele>1730.000000</ele>
		<time>2013-05-04T03:54:14Z</time>
		</trkpt>

		<trkpt lat="38.898952" lon="-1.018933">
			<ele>1728.000000</ele>
		<time>2013-05-04T03:54:17Z</time>
		</trkpt>

		<trkpt lat="38.898817" lon="-1.018577">
			<ele>1726.000000</ele>
		<time>2013-05-04T03:54:20Z</time>
		</trkpt>

		<trkpt lat="38.898753" lon="-1.018214">
			<ele>1724.000000</ele>
		<time>2013-05-04T03:54:23Z</time>
		</trkpt>

		<trkpt lat="38.898661" lon="-1.017813">
			<ele>1721.000000</ele>
		<time>2013-05-04T03:54:26Z</time>
		</trkpt>

		<trkpt lat="38.898557" lon="-1.017468">
			<ele>1720.000000</ele>
		<time>2013-05-04T03:54:29Z</time>
		</trkpt>

		<trkpt lat="38.898371" lon="-1.017218">
			<ele>1717.000000</ele>
		<time>2013-05-04T03:54:32Z</time>
		</trkpt>

		<trkpt lat="38.898141" lon="-1.016983">
			<ele>1715.000000</ele>
		<time>2013-05-04T03:54:35Z</time>
		</trkpt>

		<trkpt lat="38.897943" lon="-1.016720">
			<ele>1712.000000</ele>
		<time>2013-05-04T03:54:38Z</time>
		</trkpt>

		<trkpt lat="38.897784" lon="-1.016424">
			<ele>1709.000000</ele>
		<time>2013-05-04T03:54:41Z</time>
		</trkpt>

		<trkpt lat="38.897640" lon="-1.016117">
			<ele>1704.000000</ele>
		<time>2013-05-04T03:54:44Z</time>
		</trkpt>

		<trkpt lat="38.897481" lon="-1.015791">
			<ele>1701.000000</ele>
		<time>2013-05-04T03:54:47Z</time>
		</trkpt>

		<trkpt lat="38.897298" lon="-1.015515">
			<ele>1698.000000</ele>
		<time>2013-05-04T03:54:50Z</time>
		</trkpt>

		<trkpt lat="38.897099" lon="-1.015197">
			<ele>1694.000000</ele>
		<time>2013-05-04T03:54:53Z</time>
		</trkpt>

		<trkpt lat="38.896925" lon="-1.014920">
			<ele>1691.000000</ele>
		<time>2013-05-04T03:54:56Z</time>
		</trkpt>

		<trkpt lat="38.896726" lon="-1.014632">
			<ele>1688.000000</ele>
		<time>2013-05-04T03:54:59Z</time>
		</trkpt>

		<trkpt lat="38.896547" lon="-1.014351">
			<ele>1685.000000</ele>
		<time>2013-05-04T03:55:02Z</time>
		</trkpt>

		<trkpt lat="38.896372" lon="-1.014066">
			<ele>1681.000000</ele>
		<time>2013-05-04T03:55:05Z</time>
		</trkpt>

		<trkpt lat="38.896182" lon="-1.013790">
			<ele>1678.000000</ele>
		<time>2013-05-04T03:55:08Z</time>
		</trkpt>

		<trkpt lat="38.896000" lon="-1.013537">
			<ele>1674.000000</ele>
		<time>2013-05-04T03:55:11Z</time>
		</trkpt>

		<trkpt lat="38.895806" lon="-1.013237">
			<ele>1670.000000</ele>
		<time>2013-05-04T03:55:14Z</time>
		</trkpt>

		<trkpt lat="38.895628" lon="-1.012941">
			<ele>1666.000000</ele>
		<time>2013-05-04T03:55:17Z</time>
		</trkpt>

		<trkpt lat="38.895453" lon="-1.012659">
			<ele>1661.000000</ele>
		<time>2013-05-04T03:55:20Z</time>
		</trkpt>

		<trkpt lat="38.895264" lon="-1.012383">
			<ele>1656.000000</ele>
		<time>2013-05-04T03:55:23Z</time>
		</trkpt>

		<trkpt lat="38.895091" lon="-1.012082">
			<ele>1652.000000</ele>
		<time>2013-05-04T03:55:26Z</time>
		</trkpt>

		<trkpt lat="38.894966" lon="-1.011761">
			<ele>1648.000000</ele>
		<time>2013-05-04T03:55:29Z</time>
		</trkpt>

		<trkpt lat="38.894887" lon="-1.011404">
			<ele>1643.000000</ele>
		<time>2013-05-04T03:55:32Z</time>
		</trkpt>

		<trkpt lat="38.894802" lon="-1.011041">
			<ele>1638.000000</ele>
		<time>2013-05-04T03:55:35Z</time>
		</trkpt>

		<trkpt lat="38.894660" lon="-1.010733">
			<ele>1633.000000</ele>
		<time>2013-05-04T03:55:38Z</time>
		</trkpt>

		<trkpt lat="38.894477" lon="-1.010480">
			<ele>1628.000000</ele>
		<time>2013-05-04T03:55:41Z</time>
		</trkpt>

		<trkpt lat="38.894260" lon="-1.010239">
			<ele>1622.000000</ele>
		<time>2013-05-04T03:55:44Z</time>
		</trkpt>

		<trkpt lat="38.894031" lon="-1.010035">
			<ele>1617.000000</ele>
		<time>2013-05-04T03:55:47Z</time>
		</trkpt>

		<trkpt lat="38.893806" lon="-1.009866">
			<ele>1611.000000</ele>
		<time>2013-05-04T03:55:50Z</time>
		</trkpt>

		<trkpt lat="38.893557" lon="-1.009701">
			<ele>1606.000000</ele>
		<time>2013-05-04T03:55:53Z</time>
		</trkpt>

		<trkpt lat="38.893330" lon="-1.009546">
			<ele>1601.000000</ele>
		<time>2013-05-04T03:55:56Z</time>
		</trkpt>

		<trkpt lat="38.893099" lon="-1.009364">
			<ele>1596.000000</ele>
		<time>2013-05-04T03:55:59Z</time>
		</trkpt>

		<trkpt lat="38.892843" lon="-1.009212">
			<ele>1592.000000</ele>
		<time>2013-05-04T03:56:02Z</time>
		</trkpt>

		<trkpt lat="38.892592" lon="-1.009088">
			<ele>1588.000000</ele>
		<time>2013-05-04T03:56:05Z</time>
		</trkpt>

		<trkpt lat="38.892339" lon="-1.008940">
			<ele>1583.000000</ele>
		<time>2013-05-04T03:56:08Z</time>
		</trkpt>

		<trkpt lat="38.892096" lon="-1.008777">
			<ele>1579.000000</ele>
		<time>2013-05-04T03:56:11Z</time>
		</trkpt>

		<trkpt lat="38.891887" lon="-1.008585">
			<ele>1574.000000</ele>
		<time>2013-05-04T03:56:14Z</time>
		</trkpt>

		<trkpt lat="38.891686" lon="-1.008373">
			<ele>1569.000000</ele>
		<time>2013-05-04T03:56:17Z</time>
		</trkpt>

		<trkpt lat="38.891496" lon="-1.008153">
			<ele>1563.000000</ele>
		<time>2013-05-04T03:56:20Z</time>
		</trkpt>

		<trkpt lat="38.891300" lon="-1.007920">
			<ele>1558.000000</ele>
		<time>2013-05-04T03:56:23Z</time>
		</trkpt>

		<trkpt lat="38.891119" lon="-1.007692">
			<ele>1553.000000</ele>
		<time>2013-05-04T03:56:26Z</time>
		</trkpt>

		<trkpt lat="38.890932" lon="-1.007459">
			<ele>1548.000000</ele>
		<time>2013-05-04T03:56:29Z</time>
		</trkpt>

		<trkpt lat="38.890747" lon="-1.007224">
			<ele>1544.000000</ele>
		<time>2013-05-04T03:56:32Z</time>
		</trkpt>

		<trkpt lat="38.890552" lon="-1.006993">
			<ele>1539.000000</ele>
		<time>2013-05-04T03:56:35Z</time>
		</trkpt>

		<trkpt lat="38.890340" lon="-1.006778">
			<ele>1536.000000</ele>
		<time>2013-05-04T03:56:38Z</time>
		</trkpt>

		<trkpt lat="38.890157" lon="-1.006581">
			<ele>1533.000000</ele>
		<time>2013-05-04T03:56:41Z</time>
		</trkpt>

		<trkpt lat="38.889975" lon="-1.006397">
			<ele>1529.000000</ele>
		<time>2013-05-04T03:56:44Z</time>
		</trkpt>

		<trkpt lat="38.889771" lon="-1.006217">
			<ele>1525.000000</ele>
		<time>2013-05-04T03:56:47Z</time>
		</trkpt>

		<trkpt lat="38.889574" lon="-1.006055">
			<ele>1520.000000</ele>
		<time>2013-05-04T03:56:50Z</time>
		</trkpt>

		<trkpt lat="38.889359" lon="-1.005875">
			<ele>1514.000000</ele>
		<time>2013-05-04T03:56:53Z</time>
		</trkpt>

		<trkpt lat="38.889195" lon="-1.005694">
			<ele>1510.000000</ele>
		<time>2013-05-04T03:56:56Z</time>
		</trkpt>

		<trkpt lat="38.889008" lon="-1.005458">
			<ele>1504.000000</ele>
		<time>2013-05-04T03:56:59Z</time>
		</trkpt>

		<trkpt lat="38.888835" lon="-1.005257">
			<ele>1499.000000</ele>
		<time>2013-05-04T03:57:02Z</time>
		</trkpt>

		<trkpt lat="38.888632" lon="-1.005115">
			<ele>1491.000000</ele>
		<time>2013-05-04T03:57:05Z</time>
		</trkpt>

		<trkpt lat="38.888373" lon="-1.005028">
			<ele>1484.000000</ele>
		<time>2013-05-04T03:57:08Z</time>
		</trkpt>

		<trkpt lat="38.888202" lon="-1.004908">
			<ele>1478.000000</ele>
		<time>2013-05-04T03:57:11Z</time>
		</trkpt>

		<trkpt lat="38.887983" lon="-1.004734">
			<ele>1471.000000</ele>
		<time>2013-05-04T03:57:14Z</time>
		</trkpt>

		<trkpt lat="38.887825" lon="-1.004619">
			<ele>1468.000000</ele>
		<time>2013-05-04T03:57:17Z</time>
		</trkpt>

		<trkpt lat="38.887660" lon="-1.004487">
			<ele>1462.000000</ele>
		<time>2013-05-04T03:57:20Z</time>
		</trkpt>

		<trkpt lat="38.887442" lon="-1.004345">
			<ele>1457.000000</ele>
		<time>2013-05-04T03:57:23Z</time>
		</trkpt>

		<trkpt lat="38.887288" lon="-1.004209">
			<ele>1454.000000</ele>
		<time>2013-05-04T03:57:26Z</time>
		</trkpt>

		<trkpt lat="38.887114" lon="-1.004012">
			<ele>1450.000000</ele>
		<time>2013-05-04T03:57:29Z</time>
		</trkpt>

		<trkpt lat="38.886975" lon="-1.003838">
			<ele>1448.000000</ele>
		<time>2013-05-04T03:57:32Z</time>
		</trkpt>

		<trkpt lat="38.886825" lon="-1.003614">
			<ele>1443.000000</ele>
		<time>2013-05-04T03:57:35Z</time>
		</trkpt>

		<trkpt lat="38.886704" lon="-1.003358">
			<ele>1443.000000</ele>
		<time>2013-05-04T03:57:38Z</time>
		</trkpt>

		<trkpt lat="38.886610" lon="-1.003119">
			<ele>1441.000000</ele>
		<time>2013-05-04T03:57:41Z</time>
		</trkpt>

		<trkpt lat="38.886505" lon="-1.002847">
			<ele>1438.000000</ele>
		<time>2013-05-04T03:57:44Z</time>
		</trkpt>

		<trkpt lat="38.886414" lon="-1.002617">
			<ele>1434.000000</ele>
		<time>2013-05-04T03:57:47Z</time>
		</trkpt>

		<trkpt lat="38.886291" lon="-1.002405">
			<ele>1430.000000</ele>
		<time>2013-05-04T03:57:50Z</time>
		</trkpt>

		<trkpt lat="38.886141" lon="-1.002181">
			<ele>1427.000000</ele>
		<time>2013-05-04T03:57:53Z</time>
		</trkpt>

		<trkpt lat="38.886005" lon="-1.001999">
			<ele>1424.000000</ele>
		<time>2013-05-04T03:57:56Z</time>
		</trkpt>

		<trkpt lat="38.885853" lon="-1.001795">
			<ele>1421.000000</ele>
		<time>2013-05-04T03:57:59Z</time>
		</trkpt>

		<trkpt lat="38.885700" lon="-1.001615">
			<ele>1418.000000</ele>
		<time>2013-05-04T03:58:02Z</time>
		</trkpt>

		<trkpt lat="38.885550" lon="-1.001455">
			<ele>1415.000000</ele>
		<time>2013-05-04T03:58:05Z</time>
		</trkpt>

		<trkpt lat="38.885373" lon="-1.001306">
			<ele>1411.000000</ele>
		<time>2013-05-04T03:58:08Z</time>
		</trkpt>

		<trkpt lat="38.885204" lon="-1.001201">
			<ele>1407.000000</ele>
		<time>2013-05-04T03:58:11Z</time>
		</trkpt>

		<trkpt lat="38.885031" lon="-1.001098">
			<ele>1403.000000</ele>
		<time>2013-05-04T03:58:14Z</time>
		</trkpt>

		<trkpt lat="38.884858" lon="-1.001002">
			<ele>1399.000000</ele>
		<time>2013-05-04T03:58:17Z</time>
		</trkpt>

		<trkpt lat="38.884674" lon="-1.000924">
			<ele>1395.000000</ele>
		<time>2013-05-04T03:58:20Z</time>
		</trkpt>

		<trkpt lat="38.884491" lon="-1.000849">
			<ele>1390.000000</ele>
		<time>2013-05-04T03:58:23Z</time>
		</trkpt>

		<trkpt lat="38.884301" lon="-1.000758">
			<ele>1385.000000</ele>
		<time>2013-05-04T03:58:26Z</time>
		</trkpt>

		<trkpt lat="38.884094" lon="-1.000691">
			<ele>1380.000000</ele>
		<time>2013-05-04T03:58:29Z</time>
		</trkpt>

		<trkpt lat="38.883922" lon="-1.000617">
			<ele>1375.000000</ele>
		<time>2013-05-04T03:58:32Z</time>
		</trkpt>

		<trkpt lat="38.883744" lon="-1.000516">
			<ele>1370.000000</ele>
		<time>2013-05-04T03:58:35Z</time>
		</trkpt>

		<trkpt lat="38.883579" lon="-1.000438">
			<ele>1365.000000</ele>
		<time>2013-05-04T03:58:38Z</time>
		</trkpt>

		<trkpt lat="38.883392" lon="-1.000399">
			<ele>1360.000000</ele>
		<time>2013-05-04T03:58:41Z</time>
		</trkpt>

		<trkpt lat="38.883199" lon="-1.000433">
			<ele>1356.000000</ele>
		<time>2013-05-04T03:58:44Z</time>
		</trkpt>

		<trkpt lat="38.883025" lon="-1.000548">
			<ele>1352.000000</ele>
		<time>2013-05-04T03:58:47Z</time>
		</trkpt>

		<trkpt lat="38.882815" lon="-1.000692">
			<ele>1347.000000</ele>
		<time>2013-05-04T03:58:50Z</time>
		</trkpt>

		<trkpt lat="38.882628" lon="-1.000863">
			<ele>1342.000000</ele>
		<time>2013-05-04T03:58:53Z</time>
		</trkpt>

		<trkpt lat="38.882449" lon="-1.000998">
			<ele>1337.000000</ele>
		<time>2013-05-04T03:58:56Z</time>
		</trkpt>

		<trkpt lat="38.882249" lon="-1.001119">
			<ele>1333.000000</ele>
		<time>2013-05-04T03:58:59Z</time>
		</trkpt>

		<trkpt lat="38.882092" lon="-1.001276">
			<ele>1327.000000</ele>
		<time>2013-05-04T03:59:02Z</time>
		</trkpt>

		<trkpt lat="38.881926" lon="-1.001440">
			<ele>1321.000000</ele>
		<time>2013-05-04T03:59:05Z</time>
		</trkpt>

		<trkpt lat="38.881776" lon="-1.001626">
			<ele>1317.000000</ele>
		<time>2013-05-04T03:59:08Z</time>
		</trkpt>

		<trkpt lat="38.881645" lon="-1.001833">
			<ele>1313.000000</ele>
		<time>2013-05-04T03:59:11Z</time>
		</trkpt>

		<trkpt lat="38.881483" lon="-1.002045">
			<ele>1307.000000</ele>
		<time>2013-05-04T03:59:14Z</time>
		</trkpt>

		<trkpt lat="38.881312" lon="-1.002191">
			<ele>1301.000000</ele>
		<time>2013-05-04T03:59:17Z</time>
		</trkpt>

		<trkpt lat="38.881188" lon="-1.002262">
			<ele>1297.000000</ele>
		<time>2013-05-04T03:59:20Z</time>
		</trkpt>

		<trkpt lat="38.881079" lon="-1.002331">
			<ele>1292.000000</ele>
		<time>2013-05-04T03:59:23Z</time>
		</trkpt>

		<trkpt lat="38.880992" lon="-1.002387">
			<ele>1288.000000</ele>
		<time>2013-05-04T03:59:26Z</time>
		</trkpt>

		<trkpt lat="38.880865" lon="-1.002451">
			<ele>1284.000000</ele>
		<time>2013-05-04T03:59:29Z</time>
		</trkpt>

		<trkpt lat="38.880753" lon="-1.002591">
			<ele>1277.000000</ele>
		<time>2013-05-04T03:59:32Z</time>
		</trkpt>

		<trkpt lat="38.880677" lon="-1.002813">
			<ele>1272.000000</ele>
		<time>2013-05-04T03:59:35Z</time>
		</trkpt>

		<trkpt lat="38.880592" lon="-1.003062">
			<ele>1265.000000</ele>
		<time>2013-05-04T03:59:38Z</time>
		</trkpt>

		<trkpt lat="38.880518" lon="-1.003353">
			<ele>1261.000000</ele>
		<time>2013-05-04T03:59:41Z</time>
		</trkpt>

		<trkpt lat="38.880487" lon="-1.003611">
			<ele>1257.000000</ele>
		<time>2013-05-04T03:59:44Z</time>
		</trkpt>

		<trkpt lat="38.880383" lon="-1.003890">
			<ele>1252.000000</ele>
		<time>2013-05-04T03:59:47Z</time>
		</trkpt>

		<trkpt lat="38.880276" lon="-1.004095">
			<ele>1249.000000</ele>
		<time>2013-05-04T03:59:50Z</time>
		</trkpt>

		<trkpt lat="38.880141" lon="-1.004246">
			<ele>1241.000000</ele>
		<time>2013-05-04T03:59:53Z</time>
		</trkpt>

		<trkpt lat="38.880016" lon="-1.004414">
			<ele>1234.000000</ele>
		<time>2013-05-04T03:59:56Z</time>
		</trkpt>

		<trkpt lat="38.879922" lon="-1.004578">
			<ele>1228.000000</ele>
		<time>2013-05-04T03:59:59Z</time>
		</trkpt>

		<trkpt lat="38.879810" lon="-1.004792">
			<ele>1220.000000</ele>
		<time>2013-05-04T04:00:02Z</time>
		</trkpt>

		<trkpt lat="38.879683" lon="-1.004971">
			<ele>1214.000000</ele>
		<time>2013-05-04T04:00:05Z</time>
		</trkpt>

		<trkpt lat="38.879568" lon="-1.005149">
			<ele>1208.000000</ele>
		<time>2013-05-04T04:00:08Z</time>
		</trkpt>

		<trkpt lat="38.879466" lon="-1.005343">
			<ele>1204.000000</ele>
		<time>2013-05-04T04:00:11Z</time>
		</trkpt>

		<trkpt lat="38.879338" lon="-1.005568">
			<ele>1200.000000</ele>
		<time>2013-05-04T04:00:14Z</time>
		</trkpt>

		<trkpt lat="38.879232" lon="-1.005766">
			<ele>1199.000000</ele>
		<time>2013-05-04T04:00:17Z</time>
		</trkpt>

		<trkpt lat="38.879153" lon="-1.005884">
			<ele>1196.000000</ele>
		<time>2013-05-04T04:00:20Z</time>
		</trkpt>

		<trkpt lat="38.879008" lon="-1.005991">
			<ele>1193.000000</ele>
		<time>2013-05-04T04:00:23Z</time>
		</trkpt>

		<trkpt lat="38.878919" lon="-1.006132">
			<ele>1194.000000</ele>
		<time>2013-05-04T04:00:26Z</time>
		</trkpt>

		<trkpt lat="38.878855" lon="-1.006336">
			<ele>1195.000000</ele>
		<time>2013-05-04T04:00:29Z</time>
		</trkpt>

		<trkpt lat="38.878785" lon="-1.006583">
			<ele>1196.000000</ele>
		<time>2013-05-04T04:00:32Z</time>
		</trkpt>

		<trkpt lat="38.878654" lon="-1.006680">
			<ele>1195.000000</ele>
		<time>2013-05-04T04:00:35Z</time>
		</trkpt>

		<trkpt lat="38.878575" lon="-1.006679">
			<ele>1194.000000</ele>
		<time>2013-05-04T04:00:38Z</time>
		</trkpt>

		<trkpt lat="38.878421" lon="-1.006752">
			<ele>1193.000000</ele>
		<time>2013-05-04T04:00:41Z</time>
		</trkpt>

		<trkpt lat="38.878312" lon="-1.006949">
			<ele>1191.000000</ele>
		<time>2013-05-04T04:00:44Z</time>
		</trkpt>

		<trkpt lat="38.878193" lon="-1.007100">
			<ele>1189.000000</ele>
		<time>2013-05-04T04:00:47Z</time>
		</trkpt>

		<trkpt lat="38.878078" lon="-1.007285">
			<ele>1186.000000</ele>
		<time>2013-05-04T04:00:50Z</time>
		</trkpt>

		<trkpt lat="38.877977" lon="-1.007489">
			<ele>1181.000000</ele>
		<time>2013-05-04T04:00:53Z</time>
		</trkpt>

		<trkpt lat="38.877885" lon="-1.007701">
			<ele>1178.000000</ele>
		<time>2013-05-04T04:00:56Z</time>
		</trkpt>

		<trkpt lat="38.877797" lon="-1.007899">
			<ele>1175.000000</ele>
		<time>2013-05-04T04:00:59Z</time>
		</trkpt>

		<trkpt lat="38.877692" lon="-1.008134">
			<ele>1172.000000</ele>
		<time>2013-05-04T04:01:02Z</time>
		</trkpt>

		<trkpt lat="38.877618" lon="-1.008354">
			<ele>1169.000000</ele>
		<time>2013-05-04T04:01:05Z</time>
		</trkpt>

		<trkpt lat="38.877523" lon="-1.008571">
			<ele>1164.000000</ele>
		<time>2013-05-04T04:01:08Z</time>
		</trkpt>

		<trkpt lat="38.877441" lon="-1.008830">
			<ele>1160.000000</ele>
		<time>2013-05-04T04:01:11Z</time>
		</trkpt>

		<trkpt lat="38.877360" lon="-1.009109">
			<ele>1157.000000</ele>
		<time>2013-05-04T04:01:14Z</time>
		</trkpt>

		<trkpt lat="38.877251" lon="-1.009381">
			<ele>1152.000000</ele>
		<time>2013-05-04T04:01:17Z</time>
		</trkpt>

		<trkpt lat="38.877160" lon="-1.009610">
			<ele>1148.000000</ele>
		<time>2013-05-04T04:01:20Z</time>
		</trkpt>

		<trkpt lat="38.877061" lon="-1.009847">
			<ele>1143.000000</ele>
		<time>2013-05-04T04:01:23Z</time>
		</trkpt>

		<trkpt lat="38.876969" lon="-1.010119">
			<ele>1138.000000</ele>
		<time>2013-05-04T04:01:26Z</time>
		</trkpt>

		<trkpt lat="38.876884" lon="-1.010372">
			<ele>1134.000000</ele>
		<time>2013-05-04T04:01:29Z</time>
		</trkpt>

		<trkpt lat="38.876777" lon="-1.010647">
			<ele>1129.000000</ele>
		<time>2013-05-04T04:01:32Z</time>
		</trkpt>

		<trkpt lat="38.876694" lon="-1.010949">
			<ele>1126.000000</ele>
		<time>2013-05-04T04:01:35Z</time>
		</trkpt>

		<trkpt lat="38.876626" lon="-1.011201">
			<ele>1124.000000</ele>
		<time>2013-05-04T04:01:38Z</time>
		</trkpt>

		<trkpt lat="38.876484" lon="-1.011409">
			<ele>1121.000000</ele>
		<time>2013-05-04T04:01:41Z</time>
		</trkpt>

		<trkpt lat="38.876367" lon="-1.011624">
			<ele>1120.000000</ele>
		<time>2013-05-04T04:01:44Z</time>
		</trkpt>

		<trkpt lat="38.876223" lon="-1.011821">
			<ele>1116.000000</ele>
		<time>2013-05-04T04:01:47Z</time>
		</trkpt>

		<trkpt lat="38.876100" lon="-1.012057">
			<ele>1112.000000</ele>
		<time>2013-05-04T04:01:50Z</time>
		</trkpt>

		<trkpt lat="38.876003" lon="-1.012291">
			<ele>1109.000000</ele>
		<time>2013-05-04T04:01:53Z</time>
		</trkpt>

		<trkpt lat="38.875893" lon="-1.012543">
			<ele>1105.000000</ele>
		<time>2013-05-04T04:01:56Z</time>
		</trkpt>

		<trkpt lat="38.875800" lon="-1.012777">
			<ele>1102.000000</ele>
		<time>2013-05-04T04:01:59Z</time>
		</trkpt>

		<trkpt lat="38.875688" lon="-1.013013">
			<ele>1097.000000</ele>
		<time>2013-05-04T04:02:02Z</time>
		</trkpt>

		<trkpt lat="38.875584" lon="-1.013223">
			<ele>1093.000000</ele>
		<time>2013-05-04T04:02:05Z</time>
		</trkpt>

		<trkpt lat="38.875479" lon="-1.013428">
			<ele>1087.000000</ele>
		<time>2013-05-04T04:02:08Z</time>
		</trkpt>

		<trkpt lat="38.875384" lon="-1.013678">
			<ele>1081.000000</ele>
		<time>2013-05-04T04:02:11Z</time>
		</trkpt>

		<trkpt lat="38.875313" lon="-1.013904">
			<ele>1077.000000</ele>
		<time>2013-05-04T04:02:14Z</time>
		</trkpt>

		<trkpt lat="38.875216" lon="-1.014131">
			<ele>1073.000000</ele>
		<time>2013-05-04T04:02:17Z</time>
		</trkpt>

		<trkpt lat="38.875115" lon="-1.014345">
			<ele>1068.000000</ele>
		<time>2013-05-04T04:02:20Z</time>
		</trkpt>

		<trkpt lat="38.875029" lon="-1.014485">
			<ele>1062.000000</ele>
		<time>2013-05-04T04:02:23Z</time>
		</trkpt>

		<trkpt lat="38.874916" lon="-1.014613">
			<ele>1057.000000</ele>
		<time>2013-05-04T04:02:26Z</time>
		</trkpt>

		<trkpt lat="38.874799" lon="-1.014732">
			<ele>1052.000000</ele>
		<time>2013-05-04T04:02:29Z</time>
		</trkpt>

		<trkpt lat="38.874678" lon="-1.014847">
			<ele>1047.000000</ele>
		<time>2013-05-04T04:02:32Z</time>
		</trkpt>

		<trkpt lat="38.874566" lon="-1.014996">
			<ele>1042.000000</ele>
		<time>2013-05-04T04:02:35Z</time>
		</trkpt>

		<trkpt lat="38.874461" lon="-1.015198">
			<ele>1036.000000</ele>
		<time>2013-05-04T04:02:38Z</time>
		</trkpt>

		<trkpt lat="38.874361" lon="-1.015389">
			<ele>1029.000000</ele>
		<time>2013-05-04T04:02:41Z</time>
		</trkpt>

		<trkpt lat="38.874251" lon="-1.015603">
			<ele>1024.000000</ele>
		<time>2013-05-04T04:02:44Z</time>
		</trkpt>

		<trkpt lat="38.874170" lon="-1.015817">
			<ele>1017.000000</ele>
		<time>2013-05-04T04:02:47Z</time>
		</trkpt>

		<trkpt lat="38.874068" lon="-1.016086">
			<ele>1010.000000</ele>
		<time>2013-05-04T04:02:50Z</time>
		</trkpt>

		<trkpt lat="38.873997" lon="-1.016336">
			<ele>1005.000000</ele>
		<time>2013-05-04T04:02:53Z</time>
		</trkpt>

		<trkpt lat="38.873928" lon="-1.016597">
			<ele>999.000000</ele>
		<time>2013-05-04T04:02:56Z</time>
		</trkpt>

		<trkpt lat="38.873822" lon="-1.016903">
			<ele>993.000000</ele>
		<time>2013-05-04T04:02:59Z</time>
		</trkpt>

		<trkpt lat="38.873760" lon="-1.017206">
			<ele>990.000000</ele>
		<time>2013-05-04T04:03:02Z</time>
		</trkpt>

		<trkpt lat="38.873699" lon="-1.017498">
			<ele>986.000000</ele>
		<time>2013-05-04T04:03:05Z</time>
		</trkpt>

		<trkpt lat="38.873648" lon="-1.017792">
			<ele>982.000000</ele>
		<time>2013-05-04T04:03:08Z</time>
		</trkpt>

		<trkpt lat="38.873608" lon="-1.018069">
			<ele>978.000000</ele>
		<time>2013-05-04T04:03:11Z</time>
		</trkpt>

		<trkpt lat="38.873558" lon="-1.018336">
			<ele>974.000000</ele>
		<time>2013-05-04T04:03:14Z</time>
		</trkpt>

		<trkpt lat="38.873491" lon="-1.018589">
			<ele>969.000000</ele>
		<time>2013-05-04T04:03:17Z</time>
		</trkpt>

		<trkpt lat="38.873418" lon="-1.018814">
			<ele>963.000000</ele>
		<time>2013-05-04T04:03:20Z</time>
		</trkpt>

		<trkpt lat="38.873323" lon="-1.019014">
			<ele>958.000000</ele>
		<time>2013-05-04T04:03:23Z</time>
		</trkpt>

		<trkpt lat="38.873234" lon="-1.019197">
			<ele>953.000000</ele>
		<time>2013-05-04T04:03:26Z</time>
		</trkpt>

		<trkpt lat="38.873134" lon="-1.019362">
			<ele>947.000000</ele>
		<time>2013-05-04T04:03:29Z</time>
		</trkpt>

		<trkpt lat="38.873040" lon="-1.019502">
			<ele>943.000000</ele>
		<time>2013-05-04T04:03:32Z</time>
		</trkpt>

		<trkpt lat="38.872939" lon="-1.019663">
			<ele>938.000000</ele>
		<time>2013-05-04T04:03:35Z</time>
		</trkpt>

		<trkpt lat="38.872818" lon="-1.019823">
			<ele>933.000000</ele>
		<time>2013-05-04T04:03:38Z</time>
		</trkpt>

		<trkpt lat="38.872750" lon="-1.019958">
			<ele>929.000000</ele>
		<time>2013-05-04T04:03:41Z</time>
		</trkpt>

		<trkpt lat="38.872642" lon="-1.020087">
			<ele>925.000000</ele>
		<time>2013-05-04T04:03:44Z</time>
		</trkpt>

		<trkpt lat="38.872500" lon="-1.020269">
			<ele>924.000000</ele>
		<time>2013-05-04T04:03:47Z</time>
		</trkpt>

		<trkpt lat="38.872429" lon="-1.020382">
			<ele>924.000000</ele>
		<time>2013-05-04T04:03:50Z</time>
		</trkpt>

		<trkpt lat="38.872365" lon="-1.020500">
			<ele>925.000000</ele>
		<time>2013-05-04T04:03:53Z</time>
		</trkpt>

		<trkpt lat="38.872280" lon="-1.020623">
			<ele>926.000000</ele>
		<time>2013-05-04T04:03:56Z</time>
		</trkpt>

		<trkpt lat="38.872206" lon="-1.020795">
			<ele>927.000000</ele>
		<time>2013-05-04T04:03:59Z</time>
		</trkpt>

		<trkpt lat="38.872118" lon="-1.021022">
			<ele>927.000000</ele>
		<time>2013-05-04T04:04:02Z</time>
		</trkpt>

		<trkpt lat="38.872011" lon="-1.021101">
			<ele>928.000000</ele>
		<time>2013-05-04T04:04:05Z</time>
		</trkpt>

		<trkpt lat="38.871936" lon="-1.021029">
			<ele>927.000000</ele>
		<time>2013-05-04T04:04:09Z</time>
		</trkpt>

		<trkpt lat="38.871866" lon="-1.020907">
			<ele>925.000000</ele>
		<time>2013-05-04T04:04:12Z</time>
		</trkpt>

		<trkpt lat="38.871800" lon="-1.020856">
			<ele>925.000000</ele>
		<time>2013-05-04T04:04:15Z</time>
		</trkpt>

		<trkpt lat="38.871706" lon="-1.020982">
			<ele>925.000000</ele>
		<time>2013-05-04T04:04:18Z</time>
		</trkpt>

		<trkpt lat="38.871615" lon="-1.021023">
			<ele>926.000000</ele>
		<time>2013-05-04T04:04:21Z</time>
		</trkpt>

		<trkpt lat="38.871495" lon="-1.021054">
			<ele>927.000000</ele>
		<time>2013-05-04T04:04:24Z</time>
		</trkpt>

		<trkpt lat="38.871387" lon="-1.021120">
			<ele>929.000000</ele>
		<time>2013-05-04T04:04:27Z</time>
		</trkpt>

		<trkpt lat="38.871313" lon="-1.021187">
			<ele>933.000000</ele>
		<time>2013-05-04T04:04:30Z</time>
		</trkpt>

		<trkpt lat="38.871184" lon="-1.021199">
			<ele>935.000000</ele>
		<time>2013-05-04T04:04:33Z</time>
		</trkpt>

		<trkpt lat="38.871176" lon="-1.021063">
			<ele>935.000000</ele>
		<time>2013-05-04T04:04:36Z</time>
		</trkpt>

		<trkpt lat="38.871153" lon="-1.020971">
			<ele>937.000000</ele>
		<time>2013-05-04T04:04:39Z</time>
		</trkpt>

		<trkpt lat="38.871024" lon="-1.021052">
			<ele>936.000000</ele>
		<time>2013-05-04T04:04:42Z</time>
		</trkpt>

		<trkpt lat="38.871034" lon="-1.021490">
			<ele>937.000000</ele>
		<time>2013-05-04T04:04:45Z</time>
		</trkpt>

		<trkpt lat="38.871334" lon="-1.021972">
			<ele>936.000000</ele>
		<time>2013-05-04T04:04:48Z</time>
		</trkpt>

		<trkpt lat="38.871797" lon="-1.022181">
			<ele>930.000000</ele>
		<time>2013-05-04T04:04:51Z</time>
		</trkpt>

		<trkpt lat="38.872163" lon="-1.021865">
			<ele>924.000000</ele>
		<time>2013-05-04T04:04:54Z</time>
		</trkpt>

		<trkpt lat="38.872189" lon="-1.021633">
			<ele>923.000000</ele>
		<time>2013-05-04T04:04:57Z</time>
		</trkpt>

		<trkpt lat="38.871988" lon="-1.021600">
			<ele>925.000000</ele>
		<time>2013-05-04T04:05:00Z</time>
		</trkpt>

		<trkpt lat="38.871856" lon="-1.021643">
			<ele>926.000000</ele>
		<time>2013-05-04T04:05:03Z</time>
		</trkpt>

		<trkpt lat="38.871767" lon="-1.021803">
			<ele>928.000000</ele>
		<time>2013-05-04T04:05:06Z</time>
		</trkpt>

		<trkpt lat="38.871677" lon="-1.021937">
			<ele>929.000000</ele>
		<time>2013-05-04T04:05:09Z</time>
		</trkpt>

		<trkpt lat="38.871560" lon="-1.021990">
			<ele>927.000000</ele>
		<time>2013-05-04T04:05:13Z</time>
		</trkpt>

		<trkpt lat="38.871461" lon="-1.022048">
			<ele>926.000000</ele>
		<time>2013-05-04T04:05:16Z</time>
		</trkpt>

		<trkpt lat="38.871369" lon="-1.022126">
			<ele>924.000000</ele>
		<time>2013-05-04T04:05:19Z</time>
		</trkpt>

		<trkpt lat="38.871252" lon="-1.022264">
			<ele>922.000000</ele>
		<time>2013-05-04T04:05:22Z</time>
		</trkpt>

		<trkpt lat="38.871093" lon="-1.022374">
			<ele>921.000000</ele>
		<time>2013-05-04T04:05:25Z</time>
		</trkpt>

		<trkpt lat="38.870976" lon="-1.022504">
			<ele>917.000000</ele>
		<time>2013-05-04T04:05:28Z</time>
		</trkpt>

		<trkpt lat="38.870835" lon="-1.022592">
			<ele>916.000000</ele>
		<time>2013-05-04T04:05:31Z</time>
		</trkpt>

		<trkpt lat="38.870769" lon="-1.022578">
			<ele>910.000000</ele>
		<time>2013-05-04T04:05:34Z</time>
		</trkpt>

		<trkpt lat="38.870698" lon="-1.022559">
			<ele>906.000000</ele>
		<time>2013-05-04T04:05:37Z</time>
		</trkpt>

		<trkpt lat="38.870596" lon="-1.022549">
			<ele>900.000000</ele>
		<time>2013-05-04T04:05:40Z</time>
		</trkpt>

		<trkpt lat="38.870485" lon="-1.022580">
			<ele>893.000000</ele>
		<time>2013-05-04T04:05:43Z</time>
		</trkpt>

		<trkpt lat="38.870388" lon="-1.022645">
			<ele>889.000000</ele>
		<time>2013-05-04T04:05:46Z</time>
		</trkpt>

		<trkpt lat="38.870242" lon="-1.022734">
			<ele>885.000000</ele>
		<time>2013-05-04T04:05:49Z</time>
		</trkpt>

		<trkpt lat="38.870115" lon="-1.022830">
			<ele>882.000000</ele>
		<time>2013-05-04T04:05:52Z</time>
		</trkpt>

		<trkpt lat="38.869974" lon="-1.022922">
			<ele>879.000000</ele>
		<time>2013-05-04T04:05:55Z</time>
		</trkpt>

		<trkpt lat="38.869923" lon="-1.023038">
			<ele>871.000000</ele>
		<time>2013-05-04T04:05:59Z</time>
		</trkpt>

		<trkpt lat="38.869864" lon="-1.023131">
			<ele>863.000000</ele>
		<time>2013-05-04T04:06:04Z</time>
		</trkpt>

		<trkpt lat="38.869812" lon="-1.023224">
			<ele>855.000000</ele>
		<time>2013-05-04T04:06:08Z</time>
		</trkpt>

		<trkpt lat="38.869760" lon="-1.023306">
			<ele>844.000000</ele>
		<time>2013-05-04T04:06:13Z</time>
		</trkpt>

		<trkpt lat="38.869714" lon="-1.023457">
			<ele>837.000000</ele>
		<time>2013-05-04T04:06:16Z</time>
		</trkpt>

		<trkpt lat="38.869646" lon="-1.023582">
			<ele>829.000000</ele>
		<time>2013-05-04T04:06:19Z</time>
		</trkpt>

		<trkpt lat="38.869571" lon="-1.023753">
			<ele>823.000000</ele>
		<time>2013-05-04T04:06:22Z</time>
		</trkpt>

		<trkpt lat="38.869504" lon="-1.023915">
			<ele>815.000000</ele>
		<time>2013-05-04T04:06:25Z</time>
		</trkpt>

		<trkpt lat="38.869401" lon="-1.024051">
			<ele>809.000000</ele>
		<time>2013-05-04T04:06:28Z</time>
		</trkpt>

		<trkpt lat="38.869371" lon="-1.024129">
			<ele>798.000000</ele>
		<time>2013-05-04T04:07:24Z</time>
		</trkpt>

		<trkpt lat="38.869421" lon="-1.024299">
			<ele>791.000000</ele>
		<time>2013-05-04T04:07:44Z</time>
		</trkpt>

		<trkpt lat="38.869476" lon="-1.024485">
			<ele>791.000000</ele>
		<time>2013-05-04T04:07:47Z</time>
		</trkpt>

		<trkpt lat="38.869504" lon="-1.024581">
			<ele>791.000000</ele>
		<time>2013-05-04T04:07:52Z</time>
		</trkpt>

		<trkpt lat="38.869491" lon="-1.024660">
			<ele>792.000000</ele>
		<time>2013-05-04T04:08:21Z</time>
		</trkpt>

		<trkpt lat="38.869369" lon="-1.024908">
			<ele>792.000000</ele>
		<time>2013-05-04T04:08:24Z</time>
		</trkpt>

		<trkpt lat="38.869327" lon="-1.024991">
			<ele>792.000000</ele>
		<time>2013-05-04T04:08:27Z</time>
		</trkpt>

		<trkpt lat="38.869309" lon="-1.025025">
			<ele>792.000000</ele>
		<time>2013-05-04T04:08:31Z</time>
		</trkpt>

		<trkpt lat="38.869234" lon="-1.025169">
			<ele>793.000000</ele>
		<time>2013-05-04T04:09:01Z</time>
		</trkpt>

		<trkpt lat="38.869146" lon="-1.025337">
			<ele>793.000000</ele>
		<time>2013-05-04T04:09:04Z</time>
		</trkpt>

		<trkpt lat="38.869108" lon="-1.025410">
			<ele>793.000000</ele>
		<time>2013-05-04T04:09:07Z</time>
		</trkpt>

		<trkpt lat="38.869091" lon="-1.025442">
			<ele>793.000000</ele>
		<time>2013-05-04T04:09:11Z</time>
		</trkpt>

		<trkpt lat="38.869001" lon="-1.025570">
			<ele>793.000000</ele>
		<time>2013-05-04T04:09:41Z</time>
		</trkpt>

		<trkpt lat="38.868875" lon="-1.025720">
			<ele>793.000000</ele>
		<time>2013-05-04T04:09:44Z</time>
		</trkpt>

		<trkpt lat="38.868813" lon="-1.025789">
			<ele>793.000000</ele>
		<time>2013-05-04T04:09:49Z</time>
		</trkpt>

		<trkpt lat="38.868803" lon="-1.025822">
			<ele>792.000000</ele>
		<time>2013-05-04T04:18:36Z</time>
		</trkpt>

		<trkpt lat="38.868825" lon="-1.025843">
			<ele>792.000000</ele>
		<time>2013-05-04T04:18:39Z</time>
		</trkpt>

		<trkpt lat="38.868846" lon="-1.025808">
			<ele>792.000000</ele>
		<time>2013-05-04T04:18:42Z</time>
		</trkpt>

		<trkpt lat="38.868872" lon="-1.025791">
			<ele>792.000000</ele>
		<time>2013-05-04T04:18:46Z</time>
		</trkpt>

		<trkpt lat="38.868909" lon="-1.025802">
			<ele>794.000000</ele>
		<time>2013-05-04T04:19:42Z</time>
		</trkpt>

		<trkpt lat="38.868820" lon="-1.025776">
			<ele>794.000000</ele>
		<time>2013-05-04T04:19:46Z</time>
		</trkpt>

		<trkpt lat="38.868792" lon="-1.025772">
			<ele>794.000000</ele>
		<time>2013-05-04T04:20:46Z</time>
		</trkpt>

		<trkpt lat="38.868806" lon="-1.025840">
			<ele>795.000000</ele>
		<time>2013-05-04T04:21:27Z</time>
		</trkpt>

		<trkpt lat="38.868817" lon="-1.025916">
			<ele>795.000000</ele>
		<time>2013-05-04T04:22:08Z</time>
		</trkpt>

	</trkseg>
</trk>
</gpx>

